Big River (Missouri), Richwoods (07018100)

StateMissouriLatestUnknown (1030 cfs)
RiverBig RiverRatingObservedEstimated
Updated2026-05-10 10:00 (37 minutes ago)Flood - The river is flooding. Obstacles can be treacherous or deadly. The river should be avoided at this stage for casual trips and definitely for the inexperienced. Trips should be attempted only with protective gear and equipment.Flood(none)(none)
Discharge1030 cfs (median: 575 cfs)High - The river is high and potentially dangerous, especially for the young and / or inexperienced. Normal stream obstacles are sometimes difficult to navigate. Extended distances can be attempted, but canoe travel may not be advisable.High(none)(none)
Height4.78 feetGood - Conditions are ideal for a canoe or kayak. Boats typically will drag on fewer than one-quarter of riffles, if at all, and portages are unnecessary or rare. Normal float lengths can be attempted without a problem.Good(none)(none)
TrendFalling (falling over 24 hours)Low - River is low but can still be floated. Some riffles are okay but most come with significant dragging and might need a portage. Float lengths should be reduced to accommodate low flow, dragging, and portages.Low(none)(none)
USGSExternal icon USGS Site (External icon Duck Duck Go Maps)Poor - River is too low to float comfortably. Most or all riffles will drag or must be portaged and some obstacles (such as slick shelf rock) cause undue problems. Avoid the river at this stage for casual paddling trips.Poor(none)(none)

Trending Data

Plot Image

Trips for Big River (Missouri), Richwoods (07018100)

DateStartEndDistanceConditionDischargeHeightFishingDetails
Click for details2020-07-05 Merrill Horse Browns Ford Total trip distance: 5.5 miles5.5 Good 572 3.79 Poor NoneNone Bray, Matt
Hulsey, Derek
Bray, Matt; Hulsey, Derek
Water was not up but very muddy with visibility under a foot.Water was not up but very muddy with visibility under a foot. USGS Gauge Data:
Richwoods (07018100)
Discharge: 572
Height: 3.79
<b>USGS Gauge Data:</b></br />Richwoods (07018100)<br />Discharge: 572<br />Height: 3.79
Source: BraySource: Bray

A total of 1 rows are displayed.

Trip Summary for Big River (Missouri), Richwoods (07018100)

Miles5.5
Trips1
People2
Dates1
Years1
Months1
Rows1
Sources1

Condition Descriptions

Fishing Conditions

Fish Species

Notes

Classic Trip List

The classic River Trips application is still available for use. It is updated with the new system using a data retrofit. It is no longer maintained. The original River Trips application is no longer updated (as of 1 Dec 2016) but can be checked for errors or for the condition of the data before it was converted to the new system.

Gauge Data Table

ObservationHeightDischargeMaximum
Discharge
Minimum
Discharge
Mean
Discharge
P05P10P20P25P50
(Median)
P75P80P90P95
2026-05-10 10:00 4.78 1030 10700 (2002) 137 (2000) 1170 176 197 330 355 575 1130 1300 1960 6490
2026-05-10 09:30 4.82 1050 10700 (2002) 137 (2000) 1170 176 197 330 355 575 1130 1300 1960 6490
2026-05-10 09:00 4.82 1050 10700 (2002) 137 (2000) 1170 176 197 330 355 575 1130 1300 1960 6490
2026-05-10 08:30 4.85 1060 10700 (2002) 137 (2000) 1170 176 197 330 355 575 1130 1300 1960 6490
2026-05-10 08:00 4.88 1080 10700 (2002) 137 (2000) 1170 176 197 330 355 575 1130 1300 1960 6490
2026-05-10 07:30 4.87 1070 10700 (2002) 137 (2000) 1170 176 197 330 355 575 1130 1300 1960 6490
2026-05-10 07:00 4.88 1080 10700 (2002) 137 (2000) 1170 176 197 330 355 575 1130 1300 1960 6490
2026-05-10 06:30 4.92 1090 10700 (2002) 137 (2000) 1170 176 197 330 355 575 1130 1300 1960 6490
2026-05-10 06:00 4.95 1110 10700 (2002) 137 (2000) 1170 176 197 330 355 575 1130 1300 1960 6490
2026-05-10 05:30 4.96 1110 10700 (2002) 137 (2000) 1170 176 197 330 355 575 1130 1300 1960 6490
2026-05-10 05:00 5.00 1130 10700 (2002) 137 (2000) 1170 176 197 330 355 575 1130 1300 1960 6490
2026-05-10 04:30 5.02 1140 10700 (2002) 137 (2000) 1170 176 197 330 355 575 1130 1300 1960 6490
2026-05-10 04:00 5.05 1150 10700 (2002) 137 (2000) 1170 176 197 330 355 575 1130 1300 1960 6490
2026-05-10 03:30 5.02 1140 10700 (2002) 137 (2000) 1170 176 197 330 355 575 1130 1300 1960 6490
2026-05-10 03:00 5.05 1150 10700 (2002) 137 (2000) 1170 176 197 330 355 575 1130 1300 1960 6490
2026-05-10 02:30 5.11 1180 10700 (2002) 137 (2000) 1170 176 197 330 355 575 1130 1300 1960 6490
2026-05-10 02:00 5.09 1170 10700 (2002) 137 (2000) 1170 176 197 330 355 575 1130 1300 1960 6490
2026-05-10 01:30 5.15 1200 10700 (2002) 137 (2000) 1170 176 197 330 355 575 1130 1300 1960 6490
2026-05-10 01:00 5.15 1200 10700 (2002) 137 (2000) 1170 176 197 330 355 575 1130 1300 1960 6490
2026-05-10 00:30 5.17 1210 10700 (2002) 137 (2000) 1170 176 197 330 355 575 1130 1300 1960 6490
2026-05-10 00:00 5.15 1200 10700 (2002) 137 (2000) 1170 176 197 330 355 575 1130 1300 1960 6490
2026-05-09 23:30 5.22 1230 10700 (2002) 137 (2000) 1170 176 197 330 355 575 1130 1300 1960 6490
2026-05-09 23:00 5.22 1230 10700 (2002) 137 (2000) 1170 176 197 330 355 575 1130 1300 1960 6490
2026-05-09 22:30 5.21 1220 24500 (2009) 125 (1981) 1810 181 212 314 355 564 1060 1500 2990 14100
2026-05-09 22:00 5.24 1240 24500 (2009) 125 (1981) 1810 181 212 314 355 564 1060 1500 2990 14100
2026-05-09 21:30 5.26 1250 24500 (2009) 125 (1981) 1810 181 212 314 355 564 1060 1500 2990 14100
2026-05-09 21:00 5.26 1250 24500 (2009) 125 (1981) 1810 181 212 314 355 564 1060 1500 2990 14100
2026-05-09 20:30 5.28 1260 24500 (2009) 125 (1981) 1810 181 212 314 355 564 1060 1500 2990 14100
2026-05-09 20:00 5.31 1270 24500 (2009) 125 (1981) 1810 181 212 314 355 564 1060 1500 2990 14100
2026-05-09 19:30 5.34 1280 24500 (2009) 125 (1981) 1810 181 212 314 355 564 1060 1500 2990 14100
2026-05-09 19:00 5.39 1310 24500 (2009) 125 (1981) 1810 181 212 314 355 564 1060 1500 2990 14100
2026-05-09 18:30 5.38 1300 24500 (2009) 125 (1981) 1810 181 212 314 355 564 1060 1500 2990 14100
2026-05-09 18:00 5.42 1320 24500 (2009) 125 (1981) 1810 181 212 314 355 564 1060 1500 2990 14100
2026-05-09 17:30 5.45 1340 24500 (2009) 125 (1981) 1810 181 212 314 355 564 1060 1500 2990 14100
2026-05-09 17:00 5.48 1350 24500 (2009) 125 (1981) 1810 181 212 314 355 564 1060 1500 2990 14100
2026-05-09 16:30 5.47 1350 24500 (2009) 125 (1981) 1810 181 212 314 355 564 1060 1500 2990 14100
2026-05-09 16:00 5.54 1380 24500 (2009) 125 (1981) 1810 181 212 314 355 564 1060 1500 2990 14100
2026-05-09 15:30 5.54 1380 24500 (2009) 125 (1981) 1810 181 212 314 355 564 1060 1500 2990 14100
2026-05-09 15:00 5.49 1360 24500 (2009) 125 (1981) 1810 181 212 314 355 564 1060 1500 2990 14100
2026-05-09 14:30 5.48 1350 24500 (2009) 125 (1981) 1810 181 212 314 355 564 1060 1500 2990 14100
2026-05-09 14:00 5.39 1310 24500 (2009) 125 (1981) 1810 181 212 314 355 564 1060 1500 2990 14100
2026-05-09 13:30 5.30 1270 24500 (2009) 125 (1981) 1810 181 212 314 355 564 1060 1500 2990 14100
2026-05-09 13:00 5.24 1240 24500 (2009) 125 (1981) 1810 181 212 314 355 564 1060 1500 2990 14100
2026-05-09 12:30 5.13 1190 24500 (2009) 125 (1981) 1810 181 212 314 355 564 1060 1500 2990 14100
2026-05-09 12:00 5.02 1140 24500 (2009) 125 (1981) 1810 181 212 314 355 564 1060 1500 2990 14100
2026-05-09 11:30 4.94 1100 24500 (2009) 125 (1981) 1810 181 212 314 355 564 1060 1500 2990 14100
2026-05-09 11:00 4.92 1090 24500 (2009) 125 (1981) 1810 181 212 314 355 564 1060 1500 2990 14100
2026-05-09 10:30 4.90 1080 24500 (2009) 125 (1981) 1810 181 212 314 355 564 1060 1500 2990 14100
2026-05-09 10:00 4.83 1050 24500 (2009) 125 (1981) 1810 181 212 314 355 564 1060 1500 2990 14100
2026-05-09 09:30 4.79 1040 24500 (2009) 125 (1981) 1810 181 212 314 355 564 1060 1500 2990 14100
2026-05-09 09:00 4.78 1030 24500 (2009) 125 (1981) 1810 181 212 314 355 564 1060 1500 2990 14100
2026-05-09 08:30 4.72 1010 24500 (2009) 125 (1981) 1810 181 212 314 355 564 1060 1500 2990 14100
2026-05-09 08:00 4.66 979 24500 (2009) 125 (1981) 1810 181 212 314 355 564 1060 1500 2990 14100
2026-05-09 07:30 4.60 954 24500 (2009) 125 (1981) 1810 181 212 314 355 564 1060 1500 2990 14100
2026-05-09 07:00 4.56 937 24500 (2009) 125 (1981) 1810 181 212 314 355 564 1060 1500 2990 14100
2026-05-09 06:30 4.50 911 24500 (2009) 125 (1981) 1810 181 212 314 355 564 1060 1500 2990 14100
2026-05-09 06:00 4.46 895 24500 (2009) 125 (1981) 1810 181 212 314 355 564 1060 1500 2990 14100
2026-05-09 05:30 4.38 862 24500 (2009) 125 (1981) 1810 181 212 314 355 564 1060 1500 2990 14100
2026-05-09 05:00 4.30 829 24500 (2009) 125 (1981) 1810 181 212 314 355 564 1060 1500 2990 14100
2026-05-09 04:30 4.22 797 24500 (2009) 125 (1981) 1810 181 212 314 355 564 1060 1500 2990 14100
2026-05-09 04:00 4.16 773 24500 (2009) 125 (1981) 1810 181 212 314 355 564 1060 1500 2990 14100
2026-05-09 03:30 4.11 753 24500 (2009) 125 (1981) 1810 181 212 314 355 564 1060 1500 2990 14100
2026-05-09 03:00 4.06 733 24500 (2009) 125 (1981) 1810 181 212 314 355 564 1060 1500 2990 14100
2026-05-09 02:30 4.03 722 24500 (2009) 125 (1981) 1810 181 212 314 355 564 1060 1500 2990 14100
2026-05-09 02:00 3.99 706 24500 (2009) 125 (1981) 1810 181 212 314 355 564 1060 1500 2990 14100
2026-05-09 01:30 3.99 706 24500 (2009) 125 (1981) 1810 181 212 314 355 564 1060 1500 2990 14100
2026-05-09 01:00 3.95 691 24500 (2009) 125 (1981) 1810 181 212 314 355 564 1060 1500 2990 14100
2026-05-09 00:30 3.94 687 24500 (2009) 125 (1981) 1810 181 212 314 355 564 1060 1500 2990 14100
2026-05-09 00:00 3.91 675 24500 (2009) 125 (1981) 1810 181 212 314 355 564 1060 1500 2990 14100
2026-05-08 23:30 3.90 672 24500 (2009) 125 (1981) 1810 181 212 314 355 564 1060 1500 2990 14100
2026-05-08 23:00 3.87 660 24500 (2009) 125 (1981) 1810 181 212 314 355 564 1060 1500 2990 14100
2026-05-08 22:30 3.87 660 15100 (1961) 127 (1981) 1440 201 226 314 330 638 1350 1630 4570 6210
2026-05-08 22:00 3.84 649 15100 (1961) 127 (1981) 1440 201 226 314 330 638 1350 1630 4570 6210
2026-05-08 21:30 3.84 649 15100 (1961) 127 (1981) 1440 201 226 314 330 638 1350 1630 4570 6210
2026-05-08 21:00 3.84 649 15100 (1961) 127 (1981) 1440 201 226 314 330 638 1350 1630 4570 6210
2026-05-08 20:30 3.85 653 15100 (1961) 127 (1981) 1440 201 226 314 330 638 1350 1630 4570 6210
2026-05-08 20:00 3.87 660 15100 (1961) 127 (1981) 1440 201 226 314 330 638 1350 1630 4570 6210
2026-05-08 19:30 3.86 656 15100 (1961) 127 (1981) 1440 201 226 314 330 638 1350 1630 4570 6210
2026-05-08 19:00 3.86 656 15100 (1961) 127 (1981) 1440 201 226 314 330 638 1350 1630 4570 6210
2026-05-08 18:30 3.88 664 15100 (1961) 127 (1981) 1440 201 226 314 330 638 1350 1630 4570 6210
2026-05-08 18:00 3.88 664 15100 (1961) 127 (1981) 1440 201 226 314 330 638 1350 1630 4570 6210
2026-05-08 17:30 3.89 668 15100 (1961) 127 (1981) 1440 201 226 314 330 638 1350 1630 4570 6210
2026-05-08 17:00 3.87 660 15100 (1961) 127 (1981) 1440 201 226 314 330 638 1350 1630 4570 6210
2026-05-08 16:30 3.89 668 15100 (1961) 127 (1981) 1440 201 226 314 330 638 1350 1630 4570 6210
2026-05-08 16:00 3.90 672 15100 (1961) 127 (1981) 1440 201 226 314 330 638 1350 1630 4570 6210
2026-05-08 15:30 3.92 679 15100 (1961) 127 (1981) 1440 201 226 314 330 638 1350 1630 4570 6210
2026-05-08 15:00 3.91 675 15100 (1961) 127 (1981) 1440 201 226 314 330 638 1350 1630 4570 6210
2026-05-08 14:30 3.92 679 15100 (1961) 127 (1981) 1440 201 226 314 330 638 1350 1630 4570 6210
2026-05-08 14:00 3.93 683 15100 (1961) 127 (1981) 1440 201 226 314 330 638 1350 1630 4570 6210
2026-05-08 13:30 3.93 683 15100 (1961) 127 (1981) 1440 201 226 314 330 638 1350 1630 4570 6210
2026-05-08 13:00 3.94 687 15100 (1961) 127 (1981) 1440 201 226 314 330 638 1350 1630 4570 6210
2026-05-08 12:30 3.93 683 15100 (1961) 127 (1981) 1440 201 226 314 330 638 1350 1630 4570 6210
2026-05-08 12:00 3.95 691 15100 (1961) 127 (1981) 1440 201 226 314 330 638 1350 1630 4570 6210
2026-05-08 11:30 3.95 691 15100 (1961) 127 (1981) 1440 201 226 314 330 638 1350 1630 4570 6210
2026-05-08 11:00 3.97 698 15100 (1961) 127 (1981) 1440 201 226 314 330 638 1350 1630 4570 6210
2026-05-08 10:30 3.96 694 15100 (1961) 127 (1981) 1440 201 226 314 330 638 1350 1630 4570 6210
2026-05-08 10:00 3.97 698 15100 (1961) 127 (1981) 1440 201 226 314 330 638 1350 1630 4570 6210
2026-05-08 09:30 3.97 698 15100 (1961) 127 (1981) 1440 201 226 314 330 638 1350 1630 4570 6210
2026-05-08 09:00 3.98 702 15100 (1961) 127 (1981) 1440 201 226 314 330 638 1350 1630 4570 6210
2026-05-08 08:30 3.98 702 15100 (1961) 127 (1981) 1440 201 226 314 330 638 1350 1630 4570 6210
2026-05-08 08:00 3.99 706 15100 (1961) 127 (1981) 1440 201 226 314 330 638 1350 1630 4570 6210
2026-05-08 07:30 3.99 706 15100 (1961) 127 (1981) 1440 201 226 314 330 638 1350 1630 4570 6210
2026-05-08 07:00 4.01 714 15100 (1961) 127 (1981) 1440 201 226 314 330 638 1350 1630 4570 6210
2026-05-08 06:30 4.01 714 15100 (1961) 127 (1981) 1440 201 226 314 330 638 1350 1630 4570 6210
2026-05-08 06:00 4.02 718 15100 (1961) 127 (1981) 1440 201 226 314 330 638 1350 1630 4570 6210
2026-05-08 05:30 4.03 722 15100 (1961) 127 (1981) 1440 201 226 314 330 638 1350 1630 4570 6210
2026-05-08 05:00 4.03 722 15100 (1961) 127 (1981) 1440 201 226 314 330 638 1350 1630 4570 6210
2026-05-08 04:30 4.03 722 15100 (1961) 127 (1981) 1440 201 226 314 330 638 1350 1630 4570 6210
2026-05-08 04:00 4.05 729 15100 (1961) 127 (1981) 1440 201 226 314 330 638 1350 1630 4570 6210
2026-05-08 03:30 4.06 733 15100 (1961) 127 (1981) 1440 201 226 314 330 638 1350 1630 4570 6210
2026-05-08 03:00 4.06 733 15100 (1961) 127 (1981) 1440 201 226 314 330 638 1350 1630 4570 6210
2026-05-08 02:30 4.08 741 15100 (1961) 127 (1981) 1440 201 226 314 330 638 1350 1630 4570 6210
2026-05-08 02:00 4.06 733 15100 (1961) 127 (1981) 1440 201 226 314 330 638 1350 1630 4570 6210
2026-05-08 01:30 4.09 745 15100 (1961) 127 (1981) 1440 201 226 314 330 638 1350 1630 4570 6210
2026-05-08 01:00 4.10 749 15100 (1961) 127 (1981) 1440 201 226 314 330 638 1350 1630 4570 6210
2026-05-08 00:30 4.11 753 15100 (1961) 127 (1981) 1440 201 226 314 330 638 1350 1630 4570 6210
2026-05-08 00:00 4.10 749 15100 (1961) 127 (1981) 1440 201 226 314 330 638 1350 1630 4570 6210
2026-05-07 23:30 4.09 745 15100 (1961) 127 (1981) 1440 201 226 314 330 638 1350 1630 4570 6210
2026-05-07 23:00 4.14 765 15100 (1961) 127 (1981) 1440 201 226 314 330 638 1350 1630 4570 6210
2026-05-07 22:30 4.13 761 13100 (1961) 137 (1981) 1380 207 250 324 349 677 1330 1570 3200 6470
2026-05-07 22:00 4.14 765 13100 (1961) 137 (1981) 1380 207 250 324 349 677 1330 1570 3200 6470
2026-05-07 21:30 4.13 761 13100 (1961) 137 (1981) 1380 207 250 324 349 677 1330 1570 3200 6470
2026-05-07 21:00 4.17 777 13100 (1961) 137 (1981) 1380 207 250 324 349 677 1330 1570 3200 6470
2026-05-07 20:30 4.13 761 13100 (1961) 137 (1981) 1380 207 250 324 349 677 1330 1570 3200 6470
2026-05-07 20:00 4.17 777 13100 (1961) 137 (1981) 1380 207 250 324 349 677 1330 1570 3200 6470
2026-05-07 19:30 4.18 781 13100 (1961) 137 (1981) 1380 207 250 324 349 677 1330 1570 3200 6470
2026-05-07 19:00 4.18 781 13100 (1961) 137 (1981) 1380 207 250 324 349 677 1330 1570 3200 6470
2026-05-07 18:30 4.21 793 13100 (1961) 137 (1981) 1380 207 250 324 349 677 1330 1570 3200 6470
2026-05-07 18:00 4.22 797 13100 (1961) 137 (1981) 1380 207 250 324 349 677 1330 1570 3200 6470
2026-05-07 17:30 4.23 801 13100 (1961) 137 (1981) 1380 207 250 324 349 677 1330 1570 3200 6470
2026-05-07 17:00 4.23 801 13100 (1961) 137 (1981) 1380 207 250 324 349 677 1330 1570 3200 6470
2026-05-07 16:30 4.23 801 13100 (1961) 137 (1981) 1380 207 250 324 349 677 1330 1570 3200 6470
2026-05-07 16:00 4.27 817 13100 (1961) 137 (1981) 1380 207 250 324 349 677 1330 1570 3200 6470
2026-05-07 15:30 4.28 821 13100 (1961) 137 (1981) 1380 207 250 324 349 677 1330 1570 3200 6470
2026-05-07 15:00 4.27 817 13100 (1961) 137 (1981) 1380 207 250 324 349 677 1330 1570 3200 6470
2026-05-07 14:30 4.29 825 13100 (1961) 137 (1981) 1380 207 250 324 349 677 1330 1570 3200 6470
2026-05-07 14:00 4.26 813 13100 (1961) 137 (1981) 1380 207 250 324 349 677 1330 1570 3200 6470
2026-05-07 13:30 4.30 829 13100 (1961) 137 (1981) 1380 207 250 324 349 677 1330 1570 3200 6470
2026-05-07 13:00 4.29 825 13100 (1961) 137 (1981) 1380 207 250 324 349 677 1330 1570 3200 6470
2026-05-07 12:30 4.30 829 13100 (1961) 137 (1981) 1380 207 250 324 349 677 1330 1570 3200 6470
2026-05-07 12:00 4.33 841 13100 (1961) 137 (1981) 1380 207 250 324 349 677 1330 1570 3200 6470
2026-05-07 11:30 4.34 845 13100 (1961) 137 (1981) 1380 207 250 324 349 677 1330 1570 3200 6470
2026-05-07 11:00 4.32 837 13100 (1961) 137 (1981) 1380 207 250 324 349 677 1330 1570 3200 6470
2026-05-07 10:30 4.34 845 13100 (1961) 137 (1981) 1380 207 250 324 349 677 1330 1570 3200 6470
2026-05-07 10:00 4.36 853 13100 (1961) 137 (1981) 1380 207 250 324 349 677 1330 1570 3200 6470
2026-05-07 09:30 4.36 853 13100 (1961) 137 (1981) 1380 207 250 324 349 677 1330 1570 3200 6470
2026-05-07 09:00 4.37 858 13100 (1961) 137 (1981) 1380 207 250 324 349 677 1330 1570 3200 6470
2026-05-07 08:30 4.37 858 13100 (1961) 137 (1981) 1380 207 250 324 349 677 1330 1570 3200 6470
2026-05-07 08:00 4.37 858 13100 (1961) 137 (1981) 1380 207 250 324 349 677 1330 1570 3200 6470
2026-05-07 07:30 4.37 858 13100 (1961) 137 (1981) 1380 207 250 324 349 677 1330 1570 3200 6470
2026-05-07 07:00 4.37 858 13100 (1961) 137 (1981) 1380 207 250 324 349 677 1330 1570 3200 6470
2026-05-07 06:30 4.40 870 13100 (1961) 137 (1981) 1380 207 250 324 349 677 1330 1570 3200 6470
2026-05-07 06:00 4.38 862 13100 (1961) 137 (1981) 1380 207 250 324 349 677 1330 1570 3200 6470
2026-05-07 05:30 4.41 874 13100 (1961) 137 (1981) 1380 207 250 324 349 677 1330 1570 3200 6470
2026-05-07 05:00 4.44 886 13100 (1961) 137 (1981) 1380 207 250 324 349 677 1330 1570 3200 6470
2026-05-07 04:30 4.45 891 13100 (1961) 137 (1981) 1380 207 250 324 349 677 1330 1570 3200 6470
2026-05-07 04:00 4.45 891 13100 (1961) 137 (1981) 1380 207 250 324 349 677 1330 1570 3200 6470
2026-05-07 03:30 4.44 886 13100 (1961) 137 (1981) 1380 207 250 324 349 677 1330 1570 3200 6470
2026-05-07 02:30 4.46 895 13100 (1961) 137 (1981) 1380 207 250 324 349 677 1330 1570 3200 6470
2026-05-07 02:00 4.46 895 13100 (1961) 137 (1981) 1380 207 250 324 349 677 1330 1570 3200 6470
2026-05-07 01:30 4.47 899 13100 (1961) 137 (1981) 1380 207 250 324 349 677 1330 1570 3200 6470
2026-05-07 01:00 4.47 899 13100 (1961) 137 (1981) 1380 207 250 324 349 677 1330 1570 3200 6470
2026-05-07 00:30 4.45 891 13100 (1961) 137 (1981) 1380 207 250 324 349 677 1330 1570 3200 6470
2026-05-07 00:00 4.49 907 13100 (1961) 137 (1981) 1380 207 250 324 349 677 1330 1570 3200 6470
2026-05-06 23:30 4.53 924 13100 (1961) 137 (1981) 1380 207 250 324 349 677 1330 1570 3200 6470
2026-05-06 23:00 4.52 920 13100 (1961) 137 (1981) 1380 207 250 324 349 677 1330 1570 3200 6470
2026-05-06 22:30 4.52 920 9940 (1961) 116 (2000) 1280 189 245 326 350 602 1370 1600 2750 6100
2026-05-06 22:00 4.53 924 9940 (1961) 116 (2000) 1280 189 245 326 350 602 1370 1600 2750 6100
2026-05-06 21:30 4.56 937 9940 (1961) 116 (2000) 1280 189 245 326 350 602 1370 1600 2750 6100
2026-05-06 21:00 4.56 937 9940 (1961) 116 (2000) 1280 189 245 326 350 602 1370 1600 2750 6100
2026-05-06 20:30 4.58 945 9940 (1961) 116 (2000) 1280 189 245 326 350 602 1370 1600 2750 6100
2026-05-06 20:00 4.55 933 9940 (1961) 116 (2000) 1280 189 245 326 350 602 1370 1600 2750 6100
2026-05-06 19:30 4.59 949 9940 (1961) 116 (2000) 1280 189 245 326 350 602 1370 1600 2750 6100
2026-05-06 19:00 4.59 949 9940 (1961) 116 (2000) 1280 189 245 326 350 602 1370 1600 2750 6100
2026-05-06 18:30 4.59 949 9940 (1961) 116 (2000) 1280 189 245 326 350 602 1370 1600 2750 6100
2026-05-06 18:00 4.55 933 9940 (1961) 116 (2000) 1280 189 245 326 350 602 1370 1600 2750 6100
2026-05-06 17:30 4.56 937 9940 (1961) 116 (2000) 1280 189 245 326 350 602 1370 1600 2750 6100
2026-05-06 17:00 4.60 954 9940 (1961) 116 (2000) 1280 189 245 326 350 602 1370 1600 2750 6100
2026-05-06 16:30 4.54 928 9940 (1961) 116 (2000) 1280 189 245 326 350 602 1370 1600 2750 6100
2026-05-06 16:00 4.55 933 9940 (1961) 116 (2000) 1280 189 245 326 350 602 1370 1600 2750 6100
2026-05-06 15:30 4.53 924 9940 (1961) 116 (2000) 1280 189 245 326 350 602 1370 1600 2750 6100
2026-05-06 15:00 4.49 907 9940 (1961) 116 (2000) 1280 189 245 326 350 602 1370 1600 2750 6100
2026-05-06 14:30 4.46 895 9940 (1961) 116 (2000) 1280 189 245 326 350 602 1370 1600 2750 6100
2026-05-06 14:00 4.43 882 9940 (1961) 116 (2000) 1280 189 245 326 350 602 1370 1600 2750 6100
2026-05-06 13:30 4.44 886 9940 (1961) 116 (2000) 1280 189 245 326 350 602 1370 1600 2750 6100
2026-05-06 13:00 4.40 870 9940 (1961) 116 (2000) 1280 189 245 326 350 602 1370 1600 2750 6100
2026-05-06 12:30 4.38 862 9940 (1961) 116 (2000) 1280 189 245 326 350 602 1370 1600 2750 6100
2026-05-06 12:00 4.33 841 9940 (1961) 116 (2000) 1280 189 245 326 350 602 1370 1600 2750 6100
2026-05-06 11:30 4.30 829 9940 (1961) 116 (2000) 1280 189 245 326 350 602 1370 1600 2750 6100
2026-05-06 11:00 4.25 809 9940 (1961) 116 (2000) 1280 189 245 326 350 602 1370 1600 2750 6100
2026-05-06 10:30 4.24 805 9940 (1961) 116 (2000) 1280 189 245 326 350 602 1370 1600 2750 6100
2026-05-06 10:00 4.21 793 9940 (1961) 116 (2000) 1280 189 245 326 350 602 1370 1600 2750 6100
2026-05-06 09:30 4.19 785 9940 (1961) 116 (2000) 1280 189 245 326 350 602 1370 1600 2750 6100
2026-05-06 09:00 4.16 773 9940 (1961) 116 (2000) 1280 189 245 326 350 602 1370 1600 2750 6100
2026-05-06 08:30 4.14 765 9940 (1961) 116 (2000) 1280 189 245 326 350 602 1370 1600 2750 6100
2026-05-04 07:00 3.74 612 20500 (2013) 117 (2000) 1580 178 269 367 388 689 1610 1730 3410 7850
2026-05-04 03:30 4.11 753 20500 (2013) 117 (2000) 1580 178 269 367 388 689 1610 1730 3410 7850
2026-05-04 03:00 4.16 773 20500 (2013) 117 (2000) 1580 178 269 367 388 689 1610 1730 3410 7850
2026-05-04 02:30 4.15 769 20500 (2013) 117 (2000) 1580 178 269 367 388 689 1610 1730 3410 7850
2026-05-04 02:00 4.16 773 20500 (2013) 117 (2000) 1580 178 269 367 388 689 1610 1730 3410 7850
2026-05-04 01:30 4.18 781 20500 (2013) 117 (2000) 1580 178 269 367 388 689 1610 1730 3410 7850
2026-05-04 01:00 4.14 765 20500 (2013) 117 (2000) 1580 178 269 367 388 689 1610 1730 3410 7850
2026-05-04 00:30 4.12 757 20500 (2013) 117 (2000) 1580 178 269 367 388 689 1610 1730 3410 7850
2026-05-04 00:00 4.13 761 20500 (2013) 117 (2000) 1580 178 269 367 388 689 1610 1730 3410 7850
2026-05-03 23:30 4.18 781 20500 (2013) 117 (2000) 1580 178 269 367 388 689 1610 1730 3410 7850
2026-05-03 23:00 4.17 777 20500 (2013) 117 (2000) 1580 178 269 367 388 689 1610 1730 3410 7850
2026-05-03 22:30 4.21 793 7670 (2011) 120 (2000) 1290 197 278 366 411 678 1510 1870 3240 4650
2026-05-03 22:00 4.21 793 7670 (2011) 120 (2000) 1290 197 278 366 411 678 1510 1870 3240 4650
2026-05-03 21:30 4.15 769 7670 (2011) 120 (2000) 1290 197 278 366 411 678 1510 1870 3240 4650
2026-05-03 21:00 4.23 801 7670 (2011) 120 (2000) 1290 197 278 366 411 678 1510 1870 3240 4650
2026-05-03 20:30 4.20 789 7670 (2011) 120 (2000) 1290 197 278 366 411 678 1510 1870 3240 4650
2026-05-03 20:00 4.22 797 7670 (2011) 120 (2000) 1290 197 278 366 411 678 1510 1870 3240 4650
2026-05-03 19:30 4.23 801 7670 (2011) 120 (2000) 1290 197 278 366 411 678 1510 1870 3240 4650
2026-05-03 19:00 4.18 781 7670 (2011) 120 (2000) 1290 197 278 366 411 678 1510 1870 3240 4650
2026-05-03 18:30 4.19 785 7670 (2011) 120 (2000) 1290 197 278 366 411 678 1510 1870 3240 4650
2026-05-03 18:00 4.21 793 7670 (2011) 120 (2000) 1290 197 278 366 411 678 1510 1870 3240 4650
2026-05-03 17:30 4.22 797 7670 (2011) 120 (2000) 1290 197 278 366 411 678 1510 1870 3240 4650
2026-05-03 17:00 4.29 825 7670 (2011) 120 (2000) 1290 197 278 366 411 678 1510 1870 3240 4650
2026-05-03 16:30 4.24 805 7670 (2011) 120 (2000) 1290 197 278 366 411 678 1510 1870 3240 4650
2026-05-03 16:00 4.22 797 7670 (2011) 120 (2000) 1290 197 278 366 411 678 1510 1870 3240 4650
2026-05-03 15:30 4.26 813 7670 (2011) 120 (2000) 1290 197 278 366 411 678 1510 1870 3240 4650
2026-05-03 15:00 4.28 821 7670 (2011) 120 (2000) 1290 197 278 366 411 678 1510 1870 3240 4650
2026-05-03 14:30 4.27 817 7670 (2011) 120 (2000) 1290 197 278 366 411 678 1510 1870 3240 4650
2026-05-03 14:00 4.24 805 7670 (2011) 120 (2000) 1290 197 278 366 411 678 1510 1870 3240 4650
2026-05-03 13:30 4.26 813 7670 (2011) 120 (2000) 1290 197 278 366 411 678 1510 1870 3240 4650
2026-05-03 13:00 4.27 817 7670 (2011) 120 (2000) 1290 197 278 366 411 678 1510 1870 3240 4650
2026-05-03 12:30 4.24 805 7670 (2011) 120 (2000) 1290 197 278 366 411 678 1510 1870 3240 4650
2026-05-03 12:00 4.27 817 7670 (2011) 120 (2000) 1290 197 278 366 411 678 1510 1870 3240 4650
2026-05-03 11:30 4.35 849 7670 (2011) 120 (2000) 1290 197 278 366 411 678 1510 1870 3240 4650
2026-05-03 11:00 4.32 837 7670 (2011) 120 (2000) 1290 197 278 366 411 678 1510 1870 3240 4650
2026-05-03 10:30 4.34 845 7670 (2011) 120 (2000) 1290 197 278 366 411 678 1510 1870 3240 4650
2026-05-03 10:00 4.30 829 7670 (2011) 120 (2000) 1290 197 278 366 411 678 1510 1870 3240 4650
2026-05-03 09:30 4.32 837 7670 (2011) 120 (2000) 1290 197 278 366 411 678 1510 1870 3240 4650
2026-05-03 09:00 4.33 841 7670 (2011) 120 (2000) 1290 197 278 366 411 678 1510 1870 3240 4650
2026-05-03 08:30 4.35 849 7670 (2011) 120 (2000) 1290 197 278 366 411 678 1510 1870 3240 4650
2026-05-03 08:00 4.35 849 7670 (2011) 120 (2000) 1290 197 278 366 411 678 1510 1870 3240 4650
2026-05-03 07:30 4.33 841 7670 (2011) 120 (2000) 1290 197 278 366 411 678 1510 1870 3240 4650
2026-05-03 07:00 4.33 841 7670 (2011) 120 (2000) 1290 197 278 366 411 678 1510 1870 3240 4650
2026-05-03 06:30 4.39 866 7670 (2011) 120 (2000) 1290 197 278 366 411 678 1510 1870 3240 4650
2026-05-03 06:00 4.36 853 7670 (2011) 120 (2000) 1290 197 278 366 411 678 1510 1870 3240 4650
2026-05-03 05:30 4.42 878 7670 (2011) 120 (2000) 1290 197 278 366 411 678 1510 1870 3240 4650
2026-05-03 05:00 4.39 866 7670 (2011) 120 (2000) 1290 197 278 366 411 678 1510 1870 3240 4650
2026-05-03 04:30 4.38 862 7670 (2011) 120 (2000) 1290 197 278 366 411 678 1510 1870 3240 4650
2026-05-03 04:00 4.43 882 7670 (2011) 120 (2000) 1290 197 278 366 411 678 1510 1870 3240 4650
2026-05-03 03:30 4.43 882 7670 (2011) 120 (2000) 1290 197 278 366 411 678 1510 1870 3240 4650
2026-05-03 03:00 4.46 895 7670 (2011) 120 (2000) 1290 197 278 366 411 678 1510 1870 3240 4650
2026-05-03 02:30 4.43 882 7670 (2011) 120 (2000) 1290 197 278 366 411 678 1510 1870 3240 4650
2026-05-03 02:00 4.37 858 7670 (2011) 120 (2000) 1290 197 278 366 411 678 1510 1870 3240 4650
2026-05-03 01:30 4.45 891 7670 (2011) 120 (2000) 1290 197 278 366 411 678 1510 1870 3240 4650
2026-05-03 01:00 4.46 895 7670 (2011) 120 (2000) 1290 197 278 366 411 678 1510 1870 3240 4650
2026-05-03 00:30 4.42 878 7670 (2011) 120 (2000) 1290 197 278 366 411 678 1510 1870 3240 4650
2026-05-03 00:00 4.46 895 7670 (2011) 120 (2000) 1290 197 278 366 411 678 1510 1870 3240 4650
2026-05-02 23:30 4.49 907 7670 (2011) 120 (2000) 1290 197 278 366 411 678 1510 1870 3240 4650
2026-05-02 23:00 4.50 911 7670 (2011) 120 (2000) 1290 197 278 366 411 678 1510 1870 3240 4650
2026-05-02 22:30 4.52 920 19300 (1983) 124 (2000) 1610 182 276 349 417 749 1400 1530 4560 6760
2026-05-02 22:00 4.46 895 19300 (1983) 124 (2000) 1610 182 276 349 417 749 1400 1530 4560 6760
2026-05-02 21:30 4.46 895 19300 (1983) 124 (2000) 1610 182 276 349 417 749 1400 1530 4560 6760
2026-05-02 21:00 4.53 924 19300 (1983) 124 (2000) 1610 182 276 349 417 749 1400 1530 4560 6760
2026-05-02 20:30 4.55 933 19300 (1983) 124 (2000) 1610 182 276 349 417 749 1400 1530 4560 6760
2026-05-02 20:00 4.53 924 19300 (1983) 124 (2000) 1610 182 276 349 417 749 1400 1530 4560 6760
2026-05-02 19:30 4.57 941 19300 (1983) 124 (2000) 1610 182 276 349 417 749 1400 1530 4560 6760
2026-05-02 19:00 4.53 924 19300 (1983) 124 (2000) 1610 182 276 349 417 749 1400 1530 4560 6760
2026-05-02 18:30 4.55 933 19300 (1983) 124 (2000) 1610 182 276 349 417 749 1400 1530 4560 6760
2026-05-02 18:00 4.55 933 19300 (1983) 124 (2000) 1610 182 276 349 417 749 1400 1530 4560 6760
2026-05-02 17:30 4.52 920 19300 (1983) 124 (2000) 1610 182 276 349 417 749 1400 1530 4560 6760
2026-05-02 17:00 4.56 937 19300 (1983) 124 (2000) 1610 182 276 349 417 749 1400 1530 4560 6760
2026-05-02 16:30 4.54 928 19300 (1983) 124 (2000) 1610 182 276 349 417 749 1400 1530 4560 6760
2026-05-02 16:00 4.63 966 19300 (1983) 124 (2000) 1610 182 276 349 417 749 1400 1530 4560 6760
2026-05-02 15:30 4.58 945 19300 (1983) 124 (2000) 1610 182 276 349 417 749 1400 1530 4560 6760
2026-05-02 15:00 4.62 962 19300 (1983) 124 (2000) 1610 182 276 349 417 749 1400 1530 4560 6760
2026-05-02 14:30 4.65 975 19300 (1983) 124 (2000) 1610 182 276 349 417 749 1400 1530 4560 6760
2026-05-02 14:00 4.61 958 19300 (1983) 124 (2000) 1610 182 276 349 417 749 1400 1530 4560 6760
2026-05-02 13:30 4.61 958 19300 (1983) 124 (2000) 1610 182 276 349 417 749 1400 1530 4560 6760
2026-05-02 13:00 4.63 966 19300 (1983) 124 (2000) 1610 182 276 349 417 749 1400 1530 4560 6760
2026-05-02 12:30 4.68 988 19300 (1983) 124 (2000) 1610 182 276 349 417 749 1400 1530 4560 6760
2026-05-02 12:00 4.67 984 19300 (1983) 124 (2000) 1610 182 276 349 417 749 1400 1530 4560 6760
2026-05-02 11:30 4.66 979 19300 (1983) 124 (2000) 1610 182 276 349 417 749 1400 1530 4560 6760
2026-05-02 11:00 4.69 992 19300 (1983) 124 (2000) 1610 182 276 349 417 749 1400 1530 4560 6760
2026-05-02 10:30 4.72 1010 19300 (1983) 124 (2000) 1610 182 276 349 417 749 1400 1530 4560 6760
2026-05-02 10:00 4.72 1010 19300 (1983) 124 (2000) 1610 182 276 349 417 749 1400 1530 4560 6760
2026-05-02 09:30 4.72 1010 19300 (1983) 124 (2000) 1610 182 276 349 417 749 1400 1530 4560 6760
2026-05-02 09:00 4.71 1000 19300 (1983) 124 (2000) 1610 182 276 349 417 749 1400 1530 4560 6760
2026-05-02 08:30 4.72 1010 19300 (1983) 124 (2000) 1610 182 276 349 417 749 1400 1530 4560 6760
2026-05-02 08:00 4.73 1010 19300 (1983) 124 (2000) 1610 182 276 349 417 749 1400 1530 4560 6760
2026-05-02 07:30 4.75 1020 19300 (1983) 124 (2000) 1610 182 276 349 417 749 1400 1530 4560 6760
2026-05-02 07:00 4.78 1030 19300 (1983) 124 (2000) 1610 182 276 349 417 749 1400 1530 4560 6760
2026-05-02 06:30 4.77 1030 19300 (1983) 124 (2000) 1610 182 276 349 417 749 1400 1530 4560 6760
2026-05-02 06:00 4.77 1030 19300 (1983) 124 (2000) 1610 182 276 349 417 749 1400 1530 4560 6760
2026-05-02 05:30 4.77 1030 19300 (1983) 124 (2000) 1610 182 276 349 417 749 1400 1530 4560 6760
2026-05-02 05:00 4.80 1040 19300 (1983) 124 (2000) 1610 182 276 349 417 749 1400 1530 4560 6760
2026-05-02 04:30 4.79 1040 19300 (1983) 124 (2000) 1610 182 276 349 417 749 1400 1530 4560 6760
2026-05-02 04:00 4.80 1040 19300 (1983) 124 (2000) 1610 182 276 349 417 749 1400 1530 4560 6760
2026-05-02 03:30 4.80 1040 19300 (1983) 124 (2000) 1610 182 276 349 417 749 1400 1530 4560 6760
2026-05-02 03:00 4.81 1040 19300 (1983) 124 (2000) 1610 182 276 349 417 749 1400 1530 4560 6760
2026-05-02 02:30 4.79 1040 19300 (1983) 124 (2000) 1610 182 276 349 417 749 1400 1530 4560 6760
2026-05-02 02:00 4.80 1040 19300 (1983) 124 (2000) 1610 182 276 349 417 749 1400 1530 4560 6760
2026-05-02 01:30 4.81 1040 19300 (1983) 124 (2000) 1610 182 276 349 417 749 1400 1530 4560 6760
2026-05-02 01:00 4.76 1020 19300 (1983) 124 (2000) 1610 182 276 349 417 749 1400 1530 4560 6760
2026-05-02 00:30 4.82 1050 19300 (1983) 124 (2000) 1610 182 276 349 417 749 1400 1530 4560 6760
2026-05-02 00:00 4.83 1050 19300 (1983) 124 (2000) 1610 182 276 349 417 749 1400 1530 4560 6760
2026-05-01 23:30 4.84 1060 19300 (1983) 124 (2000) 1610 182 276 349 417 749 1400 1530 4560 6760
2026-05-01 23:00 4.82 1050 19300 (1983) 124 (2000) 1610 182 276 349 417 749 1400 1530 4560 6760
2026-05-01 22:30 4.78 1030 44700 (2017) 114 (1954) 2360 174 285 356 469 854 1670 1790 3000 10500
2026-05-01 22:00 4.89 1080 44700 (2017) 114 (1954) 2360 174 285 356 469 854 1670 1790 3000 10500
2026-05-01 21:30 4.86 1070 44700 (2017) 114 (1954) 2360 174 285 356 469 854 1670 1790 3000 10500
2026-05-01 21:00 4.90 1080 44700 (2017) 114 (1954) 2360 174 285 356 469 854 1670 1790 3000 10500
2026-05-01 20:30 4.89 1080 44700 (2017) 114 (1954) 2360 174 285 356 469 854 1670 1790 3000 10500
2026-05-01 20:00 4.87 1070 44700 (2017) 114 (1954) 2360 174 285 356 469 854 1670 1790 3000 10500
2026-05-01 19:30 4.89 1080 44700 (2017) 114 (1954) 2360 174 285 356 469 854 1670 1790 3000 10500
2026-05-01 19:00 4.91 1090 44700 (2017) 114 (1954) 2360 174 285 356 469 854 1670 1790 3000 10500
2026-05-01 18:30 4.96 1110 44700 (2017) 114 (1954) 2360 174 285 356 469 854 1670 1790 3000 10500
2026-05-01 18:00 4.94 1100 44700 (2017) 114 (1954) 2360 174 285 356 469 854 1670 1790 3000 10500
2026-05-01 17:30 4.99 1120 44700 (2017) 114 (1954) 2360 174 285 356 469 854 1670 1790 3000 10500
2026-05-01 17:00 4.98 1120 44700 (2017) 114 (1954) 2360 174 285 356 469 854 1670 1790 3000 10500
2026-05-01 16:30 5.00 1130 44700 (2017) 114 (1954) 2360 174 285 356 469 854 1670 1790 3000 10500
2026-05-01 16:00 4.97 1120 44700 (2017) 114 (1954) 2360 174 285 356 469 854 1670 1790 3000 10500
2026-05-01 15:30 5.05 1150 44700 (2017) 114 (1954) 2360 174 285 356 469 854 1670 1790 3000 10500
2026-05-01 15:00 5.06 1160 44700 (2017) 114 (1954) 2360 174 285 356 469 854 1670 1790 3000 10500
2026-05-01 14:30 5.07 1160 44700 (2017) 114 (1954) 2360 174 285 356 469 854 1670 1790 3000 10500
2026-05-01 14:00 5.11 1180 44700 (2017) 114 (1954) 2360 174 285 356 469 854 1670 1790 3000 10500
2026-05-01 13:30 5.09 1170 44700 (2017) 114 (1954) 2360 174 285 356 469 854 1670 1790 3000 10500
2026-05-01 13:00 5.09 1170 44700 (2017) 114 (1954) 2360 174 285 356 469 854 1670 1790 3000 10500
2026-05-01 12:30 5.14 1190 44700 (2017) 114 (1954) 2360 174 285 356 469 854 1670 1790 3000 10500
2026-05-01 12:00 5.16 1200 44700 (2017) 114 (1954) 2360 174 285 356 469 854 1670 1790 3000 10500
2026-05-01 11:30 5.12 1180 44700 (2017) 114 (1954) 2360 174 285 356 469 854 1670 1790 3000 10500
2026-05-01 11:00 5.15 1200 44700 (2017) 114 (1954) 2360 174 285 356 469 854 1670 1790 3000 10500
2026-05-01 10:30 5.23 1230 44700 (2017) 114 (1954) 2360 174 285 356 469 854 1670 1790 3000 10500
2026-05-01 10:00 5.20 1220 44700 (2017) 114 (1954) 2360 174 285 356 469 854 1670 1790 3000 10500
2026-05-01 09:30 5.22 1230 44700 (2017) 114 (1954) 2360 174 285 356 469 854 1670 1790 3000 10500
2026-05-01 09:00 5.25 1240 44700 (2017) 114 (1954) 2360 174 285 356 469 854 1670 1790 3000 10500
2026-05-01 08:30 5.30 1270 44700 (2017) 114 (1954) 2360 174 285 356 469 854 1670 1790 3000 10500
2026-05-01 08:00 5.32 1280 44700 (2017) 114 (1954) 2360 174 285 356 469 854 1670 1790 3000 10500
2026-05-01 07:30 5.35 1290 44700 (2017) 114 (1954) 2360 174 285 356 469 854 1670 1790 3000 10500
2026-05-01 07:00 5.33 1280 44700 (2017) 114 (1954) 2360 174 285 356 469 854 1670 1790 3000 10500
2026-05-01 06:30 5.38 1300 44700 (2017) 114 (1954) 2360 174 285 356 469 854 1670 1790 3000 10500
2026-05-01 06:00 5.38 1300 44700 (2017) 114 (1954) 2360 174 285 356 469 854 1670 1790 3000 10500
2026-05-01 05:30 5.43 1330 44700 (2017) 114 (1954) 2360 174 285 356 469 854 1670 1790 3000 10500
2026-05-01 05:00 5.43 1330 44700 (2017) 114 (1954) 2360 174 285 356 469 854 1670 1790 3000 10500
2026-05-01 04:30 5.45 1340 44700 (2017) 114 (1954) 2360 174 285 356 469 854 1670 1790 3000 10500
2026-05-01 04:00 5.48 1350 44700 (2017) 114 (1954) 2360 174 285 356 469 854 1670 1790 3000 10500
2026-05-01 03:30 5.52 1370 44700 (2017) 114 (1954) 2360 174 285 356 469 854 1670 1790 3000 10500
2026-05-01 03:00 5.55 1380 44700 (2017) 114 (1954) 2360 174 285 356 469 854 1670 1790 3000 10500
2026-05-01 02:30 5.54 1380 44700 (2017) 114 (1954) 2360 174 285 356 469 854 1670 1790 3000 10500
2026-05-01 02:00 5.57 1390 44700 (2017) 114 (1954) 2360 174 285 356 469 854 1670 1790 3000 10500
2026-05-01 01:30 5.61 1410 44700 (2017) 114 (1954) 2360 174 285 356 469 854 1670 1790 3000 10500
2026-05-01 01:00 5.63 1420 44700 (2017) 114 (1954) 2360 174 285 356 469 854 1670 1790 3000 10500
2026-05-01 00:30 5.66 1440 44700 (2017) 114 (1954) 2360 174 285 356 469 854 1670 1790 3000 10500
2026-05-01 00:00 5.65 1430 44700 (2017) 114 (1954) 2360 174 285 356 469 854 1670 1790 3000 10500
2026-04-30 23:30 5.64 1430 44700 (2017) 114 (1954) 2360 174 285 356 469 854 1670 1790 3000 10500
2026-04-30 23:00 5.71 1460 44700 (2017) 114 (1954) 2360 174 285 356 469 854 1670 1790 3000 10500
2026-04-30 22:30 5.74 1480 53600 (2017) 116 (1954) 2380 176 297 399 476 763 1660 1960 3870 11300
2026-04-30 22:00 5.78 1500 53600 (2017) 116 (1954) 2380 176 297 399 476 763 1660 1960 3870 11300
2026-04-30 21:30 5.82 1520 53600 (2017) 116 (1954) 2380 176 297 399 476 763 1660 1960 3870 11300
2026-04-30 21:00 5.82 1520 53600 (2017) 116 (1954) 2380 176 297 399 476 763 1660 1960 3870 11300
2026-04-30 20:30 5.87 1540 53600 (2017) 116 (1954) 2380 176 297 399 476 763 1660 1960 3870 11300
2026-04-30 20:00 5.87 1540 53600 (2017) 116 (1954) 2380 176 297 399 476 763 1660 1960 3870 11300
2026-04-30 19:30 5.94 1570 53600 (2017) 116 (1954) 2380 176 297 399 476 763 1660 1960 3870 11300
2026-04-30 19:00 5.93 1570 53600 (2017) 116 (1954) 2380 176 297 399 476 763 1660 1960 3870 11300
2026-04-30 18:30 5.98 1590 53600 (2017) 116 (1954) 2380 176 297 399 476 763 1660 1960 3870 11300
2026-04-30 18:00 6.01 1610 53600 (2017) 116 (1954) 2380 176 297 399 476 763 1660 1960 3870 11300
2026-04-30 17:30 6.07 1640 53600 (2017) 116 (1954) 2380 176 297 399 476 763 1660 1960 3870 11300
2026-04-30 17:00 6.08 1650 53600 (2017) 116 (1954) 2380 176 297 399 476 763 1660 1960 3870 11300
2026-04-30 16:30 6.08 1650 53600 (2017) 116 (1954) 2380 176 297 399 476 763 1660 1960 3870 11300
2026-04-30 16:00 6.13 1670 53600 (2017) 116 (1954) 2380 176 297 399 476 763 1660 1960 3870 11300
2026-04-30 15:30 6.21 1710 53600 (2017) 116 (1954) 2380 176 297 399 476 763 1660 1960 3870 11300
2026-04-30 15:00 6.21 1710 53600 (2017) 116 (1954) 2380 176 297 399 476 763 1660 1960 3870 11300
2026-04-30 14:30 6.24 1730 53600 (2017) 116 (1954) 2380 176 297 399 476 763 1660 1960 3870 11300
2026-04-30 14:00 6.28 1750 53600 (2017) 116 (1954) 2380 176 297 399 476 763 1660 1960 3870 11300
2026-04-30 13:30 6.34 1780 53600 (2017) 116 (1954) 2380 176 297 399 476 763 1660 1960 3870 11300
2026-04-30 13:00 6.39 1800 53600 (2017) 116 (1954) 2380 176 297 399 476 763 1660 1960 3870 11300
2026-04-30 12:30 6.41 1820 53600 (2017) 116 (1954) 2380 176 297 399 476 763 1660 1960 3870 11300
2026-04-30 12:00 6.42 1820 53600 (2017) 116 (1954) 2380 176 297 399 476 763 1660 1960 3870 11300
2026-04-30 11:30 6.47 1850 53600 (2017) 116 (1954) 2380 176 297 399 476 763 1660 1960 3870 11300
2026-04-30 11:00 6.53 1880 53600 (2017) 116 (1954) 2380 176 297 399 476 763 1660 1960 3870 11300
2026-04-30 10:30 6.62 1930 53600 (2017) 116 (1954) 2380 176 297 399 476 763 1660 1960 3870 11300
2026-04-30 10:00 6.61 1920 53600 (2017) 116 (1954) 2380 176 297 399 476 763 1660 1960 3870 11300
2026-04-30 09:30 6.73 1990 53600 (2017) 116 (1954) 2380 176 297 399 476 763 1660 1960 3870 11300
2026-04-30 09:00 6.75 2000 53600 (2017) 116 (1954) 2380 176 297 399 476 763 1660 1960 3870 11300
2026-04-30 08:30 6.81 2040 53600 (2017) 116 (1954) 2380 176 297 399 476 763 1660 1960 3870 11300
2026-04-30 08:00 6.86 2070 53600 (2017) 116 (1954) 2380 176 297 399 476 763 1660 1960 3870 11300
2026-04-30 07:30 6.93 2110 53600 (2017) 116 (1954) 2380 176 297 399 476 763 1660 1960 3870 11300
2026-04-30 07:00 6.94 2120 53600 (2017) 116 (1954) 2380 176 297 399 476 763 1660 1960 3870 11300
2026-04-30 06:30 7.00 2160 53600 (2017) 116 (1954) 2380 176 297 399 476 763 1660 1960 3870 11300
2026-04-30 06:00 7.04 2180 53600 (2017) 116 (1954) 2380 176 297 399 476 763 1660 1960 3870 11300
2026-04-30 05:30 7.14 2250 53600 (2017) 116 (1954) 2380 176 297 399 476 763 1660 1960 3870 11300
2026-04-30 05:00 7.18 2280 53600 (2017) 116 (1954) 2380 176 297 399 476 763 1660 1960 3870 11300
2026-04-30 04:30 7.25 2330 53600 (2017) 116 (1954) 2380 176 297 399 476 763 1660 1960 3870 11300
2026-04-30 04:00 7.31 2370 53600 (2017) 116 (1954) 2380 176 297 399 476 763 1660 1960 3870 11300
2026-04-30 03:30 7.37 2410 53600 (2017) 116 (1954) 2380 176 297 399 476 763 1660 1960 3870 11300
2026-04-30 03:00 7.42 2440 53600 (2017) 116 (1954) 2380 176 297 399 476 763 1660 1960 3870 11300
2026-04-30 02:30 7.47 2480 53600 (2017) 116 (1954) 2380 176 297 399 476 763 1660 1960 3870 11300
2026-04-30 02:00 7.52 2510 53600 (2017) 116 (1954) 2380 176 297 399 476 763 1660 1960 3870 11300
2026-04-30 01:30 7.59 2560 53600 (2017) 116 (1954) 2380 176 297 399 476 763 1660 1960 3870 11300
2026-04-30 01:00 7.66 2610 53600 (2017) 116 (1954) 2380 176 297 399 476 763 1660 1960 3870 11300
2026-04-30 00:30 7.69 2630 53600 (2017) 116 (1954) 2380 176 297 399 476 763 1660 1960 3870 11300
2026-04-30 00:00 7.73 2660 53600 (2017) 116 (1954) 2380 176 297 399 476 763 1660 1960 3870 11300
2026-04-29 23:30 7.79 2710 53600 (2017) 116 (1954) 2380 176 297 399 476 763 1660 1960 3870 11300
2026-04-29 23:00 7.85 2750 53600 (2017) 116 (1954) 2380 176 297 399 476 763 1660 1960 3870 11300
2026-04-29 22:30 7.88 2770 18200 (1996) 116 (1954) 2000 183 303 427 500 784 1730 2260 4920 11400
2026-04-29 22:00 7.94 2820 18200 (1996) 116 (1954) 2000 183 303 427 500 784 1730 2260 4920 11400
2026-04-29 21:30 7.99 2850 18200 (1996) 116 (1954) 2000 183 303 427 500 784 1730 2260 4920 11400
2026-04-29 21:00 8.01 2870 18200 (1996) 116 (1954) 2000 183 303 427 500 784 1730 2260 4920 11400
2026-04-29 20:30 8.06 2910 18200 (1996) 116 (1954) 2000 183 303 427 500 784 1730 2260 4920 11400
2026-04-29 20:00 8.10 2940 18200 (1996) 116 (1954) 2000 183 303 427 500 784 1730 2260 4920 11400
2026-04-29 19:30 8.11 2940 18200 (1996) 116 (1954) 2000 183 303 427 500 784 1730 2260 4920 11400
2026-04-29 19:00 8.19 3000 18200 (1996) 116 (1954) 2000 183 303 427 500 784 1730 2260 4920 11400
2026-04-29 18:30 8.22 3030 18200 (1996) 116 (1954) 2000 183 303 427 500 784 1730 2260 4920 11400
2026-04-29 18:00 8.28 3070 18200 (1996) 116 (1954) 2000 183 303 427 500 784 1730 2260 4920 11400
2026-04-29 17:30 8.29 3080 18200 (1996) 116 (1954) 2000 183 303 427 500 784 1730 2260 4920 11400
2026-04-29 17:00 8.33 3110 18200 (1996) 116 (1954) 2000 183 303 427 500 784 1730 2260 4920 11400
2026-04-29 16:30 8.35 3130 18200 (1996) 116 (1954) 2000 183 303 427 500 784 1730 2260 4920 11400
2026-04-29 16:00 8.38 3150 18200 (1996) 116 (1954) 2000 183 303 427 500 784 1730 2260 4920 11400
2026-04-29 15:30 8.40 3170 18200 (1996) 116 (1954) 2000 183 303 427 500 784 1730 2260 4920 11400
2026-04-29 15:00 8.42 3180 18200 (1996) 116 (1954) 2000 183 303 427 500 784 1730 2260 4920 11400
2026-04-29 14:30 8.38 3150 18200 (1996) 116 (1954) 2000 183 303 427 500 784 1730 2260 4920 11400
2026-04-29 14:00 8.43 3190 18200 (1996) 116 (1954) 2000 183 303 427 500 784 1730 2260 4920 11400
2026-04-29 13:30 8.41 3170 18200 (1996) 116 (1954) 2000 183 303 427 500 784 1730 2260 4920 11400
2026-04-29 13:00 8.42 3180 18200 (1996) 116 (1954) 2000 183 303 427 500 784 1730 2260 4920 11400
2026-04-29 12:30 8.39 3160 18200 (1996) 116 (1954) 2000 183 303 427 500 784 1730 2260 4920 11400
2026-04-29 12:00 8.36 3130 18200 (1996) 116 (1954) 2000 183 303 427 500 784 1730 2260 4920 11400
2026-04-29 11:30 8.29 3080 18200 (1996) 116 (1954) 2000 183 303 427 500 784 1730 2260 4920 11400
2026-04-29 11:00 8.26 3060 18200 (1996) 116 (1954) 2000 183 303 427 500 784 1730 2260 4920 11400
2026-04-29 10:30 8.24 3040 18200 (1996) 116 (1954) 2000 183 303 427 500 784 1730 2260 4920 11400
2026-04-29 10:00 8.19 3000 18200 (1996) 116 (1954) 2000 183 303 427 500 784 1730 2260 4920 11400
2026-04-29 09:30 8.16 2980 18200 (1996) 116 (1954) 2000 183 303 427 500 784 1730 2260 4920 11400
2026-04-29 09:00 8.06 2910 18200 (1996) 116 (1954) 2000 183 303 427 500 784 1730 2260 4920 11400
2026-04-29 08:30 8.02 2880 18200 (1996) 116 (1954) 2000 183 303 427 500 784 1730 2260 4920 11400
2026-04-29 08:00 7.98 2850 18200 (1996) 116 (1954) 2000 183 303 427 500 784 1730 2260 4920 11400
2026-04-29 07:30 7.98 2850 18200 (1996) 116 (1954) 2000 183 303 427 500 784 1730 2260 4920 11400
2026-04-29 07:00 7.99 2850 18200 (1996) 116 (1954) 2000 183 303 427 500 784 1730 2260 4920 11400
2026-04-29 06:30 7.95 2820 18200 (1996) 116 (1954) 2000 183 303 427 500 784 1730 2260 4920 11400
2026-04-29 06:00 7.90 2790 18200 (1996) 116 (1954) 2000 183 303 427 500 784 1730 2260 4920 11400
2026-04-29 05:30 7.89 2780 18200 (1996) 116 (1954) 2000 183 303 427 500 784 1730 2260 4920 11400
2026-04-29 05:00 7.85 2750 18200 (1996) 116 (1954) 2000 183 303 427 500 784 1730 2260 4920 11400
2026-04-29 04:30 7.76 2690 18200 (1996) 116 (1954) 2000 183 303 427 500 784 1730 2260 4920 11400
2026-04-29 04:00 7.79 2710 18200 (1996) 116 (1954) 2000 183 303 427 500 784 1730 2260 4920 11400
2026-04-29 03:30 7.74 2670 18200 (1996) 116 (1954) 2000 183 303 427 500 784 1730 2260 4920 11400
2026-04-29 03:00 7.71 2650 18200 (1996) 116 (1954) 2000 183 303 427 500 784 1730 2260 4920 11400
2026-04-29 02:30 7.65 2610 18200 (1996) 116 (1954) 2000 183 303 427 500 784 1730 2260 4920 11400
2026-04-29 02:00 7.64 2600 18200 (1996) 116 (1954) 2000 183 303 427 500 784 1730 2260 4920 11400
2026-04-29 01:30 7.60 2570 18200 (1996) 116 (1954) 2000 183 303 427 500 784 1730 2260 4920 11400
2026-04-29 01:00 7.54 2530 18200 (1996) 116 (1954) 2000 183 303 427 500 784 1730 2260 4920 11400
2026-04-29 00:30 7.50 2500 18200 (1996) 116 (1954) 2000 183 303 427 500 784 1730 2260 4920 11400
2026-04-29 00:00 7.43 2450 18200 (1996) 116 (1954) 2000 183 303 427 500 784 1730 2260 4920 11400
2026-04-28 23:30 7.37 2410 18200 (1996) 116 (1954) 2000 183 303 427 500 784 1730 2260 4920 11400
2026-04-28 23:00 7.31 2370 18200 (1996) 116 (1954) 2000 183 303 427 500 784 1730 2260 4920 11400
2026-04-28 22:30 7.23 2310 23300 (2011) 131 (1954) 1560 180 309 392 438 719 1460 1520 2580 5480
2026-04-28 22:00 7.12 2240 23300 (2011) 131 (1954) 1560 180 309 392 438 719 1460 1520 2580 5480
2026-04-28 21:30 6.99 2150 23300 (2011) 131 (1954) 1560 180 309 392 438 719 1460 1520 2580 5480
2026-04-28 21:00 6.86 2070 23300 (2011) 131 (1954) 1560 180 309 392 438 719 1460 1520 2580 5480
2026-04-28 20:30 6.79 2030 23300 (2011) 131 (1954) 1560 180 309 392 438 719 1460 1520 2580 5480
2026-04-28 20:00 6.68 1960 23300 (2011) 131 (1954) 1560 180 309 392 438 719 1460 1520 2580 5480
2026-04-28 19:30 6.60 1920 23300 (2011) 131 (1954) 1560 180 309 392 438 719 1460 1520 2580 5480
2026-04-28 19:00 6.49 1860 23300 (2011) 131 (1954) 1560 180 309 392 438 719 1460 1520 2580 5480
2026-04-28 18:30 6.39 1800 23300 (2011) 131 (1954) 1560 180 309 392 438 719 1460 1520 2580 5480
2026-04-28 18:00 6.32 1770 23300 (2011) 131 (1954) 1560 180 309 392 438 719 1460 1520 2580 5480
2026-04-28 17:30 6.27 1740 23300 (2011) 131 (1954) 1560 180 309 392 438 719 1460 1520 2580 5480
2026-04-28 17:00 6.24 1730 23300 (2011) 131 (1954) 1560 180 309 392 438 719 1460 1520 2580 5480
2026-04-28 16:30 6.26 1740 23300 (2011) 131 (1954) 1560 180 309 392 438 719 1460 1520 2580 5480
2026-04-28 16:00 6.17 1690 23300 (2011) 131 (1954) 1560 180 309 392 438 719 1460 1520 2580 5480
2026-04-28 15:30 6.14 1680 23300 (2011) 131 (1954) 1560 180 309 392 438 719 1460 1520 2580 5480
2026-04-28 15:00 6.08 1650 23300 (2011) 131 (1954) 1560 180 309 392 438 719 1460 1520 2580 5480
2026-04-28 14:30 6.07 1640 23300 (2011) 131 (1954) 1560 180 309 392 438 719 1460 1520 2580 5480
2026-04-28 14:00 6.07 1640 23300 (2011) 131 (1954) 1560 180 309 392 438 719 1460 1520 2580 5480
2026-04-28 13:30 6.04 1620 23300 (2011) 131 (1954) 1560 180 309 392 438 719 1460 1520 2580 5480
2026-04-28 13:00 6.02 1610 23300 (2011) 131 (1954) 1560 180 309 392 438 719 1460 1520 2580 5480
2026-04-28 12:30 6.06 1640 23300 (2011) 131 (1954) 1560 180 309 392 438 719 1460 1520 2580 5480
2026-04-28 12:00 6.05 1630 23300 (2011) 131 (1954) 1560 180 309 392 438 719 1460 1520 2580 5480
2026-04-28 11:30 6.07 1640 23300 (2011) 131 (1954) 1560 180 309 392 438 719 1460 1520 2580 5480
2026-04-28 11:00 6.10 1660 23300 (2011) 131 (1954) 1560 180 309 392 438 719 1460 1520 2580 5480
2026-04-28 10:30 6.11 1660 23300 (2011) 131 (1954) 1560 180 309 392 438 719 1460 1520 2580 5480
2026-04-28 10:00 6.16 1690 23300 (2011) 131 (1954) 1560 180 309 392 438 719 1460 1520 2580 5480
2026-04-28 09:30 6.20 1710 23300 (2011) 131 (1954) 1560 180 309 392 438 719 1460 1520 2580 5480
2026-04-28 09:00 6.24 1730 23300 (2011) 131 (1954) 1560 180 309 392 438 719 1460 1520 2580 5480
2026-04-28 08:30 6.21 1710 23300 (2011) 131 (1954) 1560 180 309 392 438 719 1460 1520 2580 5480
2026-04-28 08:00 6.22 1720 23300 (2011) 131 (1954) 1560 180 309 392 438 719 1460 1520 2580 5480
2026-04-28 07:30 6.24 1730 23300 (2011) 131 (1954) 1560 180 309 392 438 719 1460 1520 2580 5480
2026-04-28 07:00 6.23 1720 23300 (2011) 131 (1954) 1560 180 309 392 438 719 1460 1520 2580 5480
2026-04-28 06:30 6.25 1730 23300 (2011) 131 (1954) 1560 180 309 392 438 719 1460 1520 2580 5480
2026-04-28 06:00 6.31 1760 23300 (2011) 131 (1954) 1560 180 309 392 438 719 1460 1520 2580 5480
2026-04-28 05:30 6.29 1750 23300 (2011) 131 (1954) 1560 180 309 392 438 719 1460 1520 2580 5480
2026-04-28 05:00 6.33 1770 23300 (2011) 131 (1954) 1560 180 309 392 438 719 1460 1520 2580 5480
2026-04-28 04:30 6.40 1810 23300 (2011) 131 (1954) 1560 180 309 392 438 719 1460 1520 2580 5480
2026-04-28 04:00 6.41 1820 23300 (2011) 131 (1954) 1560 180 309 392 438 719 1460 1520 2580 5480
2026-04-28 03:30 6.44 1830 23300 (2011) 131 (1954) 1560 180 309 392 438 719 1460 1520 2580 5480
2026-04-28 03:00 6.51 1870 23300 (2011) 131 (1954) 1560 180 309 392 438 719 1460 1520 2580 5480
2026-04-28 02:30 6.55 1890 23300 (2011) 131 (1954) 1560 180 309 392 438 719 1460 1520 2580 5480
2026-04-28 02:00 6.59 1910 23300 (2011) 131 (1954) 1560 180 309 392 438 719 1460 1520 2580 5480
2026-04-28 01:30 6.58 1900 23300 (2011) 131 (1954) 1560 180 309 392 438 719 1460 1520 2580 5480
2026-04-28 01:00 6.63 1930 23300 (2011) 131 (1954) 1560 180 309 392 438 719 1460 1520 2580 5480
2026-04-28 00:30 6.64 1940 23300 (2011) 131 (1954) 1560 180 309 392 438 719 1460 1520 2580 5480
2026-04-28 00:00 6.75 2000 23300 (2011) 131 (1954) 1560 180 309 392 438 719 1460 1520 2580 5480
2026-04-27 23:30 6.68 1960 23300 (2011) 131 (1954) 1560 180 309 392 438 719 1460 1520 2580 5480
2026-04-27 23:00 6.73 1990 23300 (2011) 131 (1954) 1560 180 309 392 438 719 1460 1520 2580 5480
2026-04-27 22:30 6.77 2010 17200 (2011) 146 (2000) 1380 186 293 380 414 720 1240 1690 2930 4000
2026-04-27 22:00 6.69 1970 17200 (2011) 146 (2000) 1380 186 293 380 414 720 1240 1690 2930 4000
2026-04-27 21:30 6.69 1970 17200 (2011) 146 (2000) 1380 186 293 380 414 720 1240 1690 2930 4000
2026-04-27 21:00 6.62 1930 17200 (2011) 146 (2000) 1380 186 293 380 414 720 1240 1690 2930 4000
2026-04-27 20:30 6.58 1900 17200 (2011) 146 (2000) 1380 186 293 380 414 720 1240 1690 2930 4000
2026-04-27 20:00 6.51 1870 17200 (2011) 146 (2000) 1380 186 293 380 414 720 1240 1690 2930 4000
2026-04-27 19:30 6.46 1840 17200 (2011) 146 (2000) 1380 186 293 380 414 720 1240 1690 2930 4000
2026-04-27 19:00 6.31 1760 17200 (2011) 146 (2000) 1380 186 293 380 414 720 1240 1690 2930 4000
2026-04-27 18:30 6.32 1770 17200 (2011) 146 (2000) 1380 186 293 380 414 720 1240 1690 2930 4000
2026-04-27 18:00 6.26 1740 17200 (2011) 146 (2000) 1380 186 293 380 414 720 1240 1690 2930 4000
2026-04-27 17:30 6.28 1750 17200 (2011) 146 (2000) 1380 186 293 380 414 720 1240 1690 2930 4000
2026-04-27 17:00 6.27 1740 17200 (2011) 146 (2000) 1380 186 293 380 414 720 1240 1690 2930 4000
2026-04-27 16:30 6.29 1750 17200 (2011) 146 (2000) 1380 186 293 380 414 720 1240 1690 2930 4000
2026-04-27 16:00 6.18 1700 17200 (2011) 146 (2000) 1380 186 293 380 414 720 1240 1690 2930 4000
2026-04-27 15:30 6.22 1720 17200 (2011) 146 (2000) 1380 186 293 380 414 720 1240 1690 2930 4000
2026-04-27 15:00 6.05 1630 17200 (2011) 146 (2000) 1380 186 293 380 414 720 1240 1690 2930 4000
2026-04-27 14:30 5.98 1590 17200 (2011) 146 (2000) 1380 186 293 380 414 720 1240 1690 2930 4000
2026-04-27 14:00 5.88 1540 17200 (2011) 146 (2000) 1380 186 293 380 414 720 1240 1690 2930 4000
2026-04-27 13:30 5.77 1490 17200 (2011) 146 (2000) 1380 186 293 380 414 720 1240 1690 2930 4000
2026-04-27 13:00 5.69 1450 17200 (2011) 146 (2000) 1380 186 293 380 414 720 1240 1690 2930 4000
2026-04-27 12:30 5.55 1380 17200 (2011) 146 (2000) 1380 186 293 380 414 720 1240 1690 2930 4000
2026-04-27 12:00 5.43 1330 17200 (2011) 146 (2000) 1380 186 293 380 414 720 1240 1690 2930 4000
2026-04-27 11:30 5.39 1310 17200 (2011) 146 (2000) 1380 186 293 380 414 720 1240 1690 2930 4000
2026-04-27 11:00 5.27 1250 17200 (2011) 146 (2000) 1380 186 293 380 414 720 1240 1690 2930 4000
2026-04-27 10:30 5.12 1180 17200 (2011) 146 (2000) 1380 186 293 380 414 720 1240 1690 2930 4000
2026-04-27 10:00 5.02 1140 17200 (2011) 146 (2000) 1380 186 293 380 414 720 1240 1690 2930 4000
2026-04-27 09:30 4.89 1080 17200 (2011) 146 (2000) 1380 186 293 380 414 720 1240 1690 2930 4000
2026-04-27 09:00 4.84 1060 17200 (2011) 146 (2000) 1380 186 293 380 414 720 1240 1690 2930 4000
2026-04-27 08:30 4.78 1030 17200 (2011) 146 (2000) 1380 186 293 380 414 720 1240 1690 2930 4000
2026-04-27 08:00 4.75 1020 17200 (2011) 146 (2000) 1380 186 293 380 414 720 1240 1690 2930 4000
2026-04-27 07:30 4.73 1010 17200 (2011) 146 (2000) 1380 186 293 380 414 720 1240 1690 2930 4000
2026-04-27 07:00 4.66 979 17200 (2011) 146 (2000) 1380 186 293 380 414 720 1240 1690 2930 4000
2026-04-27 06:30 4.58 945 17200 (2011) 146 (2000) 1380 186 293 380 414 720 1240 1690 2930 4000
2026-04-27 06:00 4.54 928 17200 (2011) 146 (2000) 1380 186 293 380 414 720 1240 1690 2930 4000
2026-04-27 05:30 4.50 911 17200 (2011) 146 (2000) 1380 186 293 380 414 720 1240 1690 2930 4000
2026-04-27 05:00 4.46 895 17200 (2011) 146 (2000) 1380 186 293 380 414 720 1240 1690 2930 4000
2026-04-27 04:30 4.47 899 17200 (2011) 146 (2000) 1380 186 293 380 414 720 1240 1690 2930 4000
2026-04-27 04:00 4.46 895 17200 (2011) 146 (2000) 1380 186 293 380 414 720 1240 1690 2930 4000
2026-04-27 03:30 4.42 878 17200 (2011) 146 (2000) 1380 186 293 380 414 720 1240 1690 2930 4000
2026-04-27 03:00 4.43 882 17200 (2011) 146 (2000) 1380 186 293 380 414 720 1240 1690 2930 4000
2026-04-27 02:30 4.39 866 17200 (2011) 146 (2000) 1380 186 293 380 414 720 1240 1690 2930 4000
2026-04-27 02:00 4.40 870 17200 (2011) 146 (2000) 1380 186 293 380 414 720 1240 1690 2930 4000
2026-04-27 01:30 4.41 874 17200 (2011) 146 (2000) 1380 186 293 380 414 720 1240 1690 2930 4000
2026-04-27 01:00 4.41 874 17200 (2011) 146 (2000) 1380 186 293 380 414 720 1240 1690 2930 4000
2026-04-27 00:30 4.43 882 17200 (2011) 146 (2000) 1380 186 293 380 414 720 1240 1690 2930 4000
2026-04-27 00:00 4.43 882 17200 (2011) 146 (2000) 1380 186 293 380 414 720 1240 1690 2930 4000
2026-04-26 23:30 4.45 891 17200 (2011) 146 (2000) 1380 186 293 380 414 720 1240 1690 2930 4000
2026-04-26 23:00 4.47 899 17200 (2011) 146 (2000) 1380 186 293 380 414 720 1240 1690 2930 4000
2026-04-26 22:30 4.49 907 18600 (2011) 150 (1956) 1480 189 302 382 423 779 1390 1660 3610 5350
2026-04-26 22:00 4.49 907 18600 (2011) 150 (1956) 1480 189 302 382 423 779 1390 1660 3610 5350
2026-04-26 21:30 4.51 916 18600 (2011) 150 (1956) 1480 189 302 382 423 779 1390 1660 3610 5350
2026-04-26 21:00 4.53 924 18600 (2011) 150 (1956) 1480 189 302 382 423 779 1390 1660 3610 5350
2026-04-26 20:30 4.53 924 18600 (2011) 150 (1956) 1480 189 302 382 423 779 1390 1660 3610 5350
2026-04-26 20:00 4.55 933 18600 (2011) 150 (1956) 1480 189 302 382 423 779 1390 1660 3610 5350
2026-04-26 19:30 4.54 928 18600 (2011) 150 (1956) 1480 189 302 382 423 779 1390 1660 3610 5350
2026-04-26 19:00 4.60 954 18600 (2011) 150 (1956) 1480 189 302 382 423 779 1390 1660 3610 5350
2026-04-26 18:30 4.57 941 18600 (2011) 150 (1956) 1480 189 302 382 423 779 1390 1660 3610 5350
2026-04-26 18:00 4.62 962 18600 (2011) 150 (1956) 1480 189 302 382 423 779 1390 1660 3610 5350
2026-04-26 17:30 4.65 975 18600 (2011) 150 (1956) 1480 189 302 382 423 779 1390 1660 3610 5350
2026-04-26 17:00 4.66 979 18600 (2011) 150 (1956) 1480 189 302 382 423 779 1390 1660 3610 5350
2026-04-26 16:30 4.68 988 18600 (2011) 150 (1956) 1480 189 302 382 423 779 1390 1660 3610 5350
2026-04-26 16:00 4.68 988 18600 (2011) 150 (1956) 1480 189 302 382 423 779 1390 1660 3610 5350
2026-04-26 15:30 4.68 988 18600 (2011) 150 (1956) 1480 189 302 382 423 779 1390 1660 3610 5350
2026-04-26 15:00 4.72 1010 18600 (2011) 150 (1956) 1480 189 302 382 423 779 1390 1660 3610 5350
2026-04-26 14:30 4.74 1010 18600 (2011) 150 (1956) 1480 189 302 382 423 779 1390 1660 3610 5350
2026-04-26 14:00 4.75 1020 18600 (2011) 150 (1956) 1480 189 302 382 423 779 1390 1660 3610 5350
2026-04-26 13:30 4.77 1030 18600 (2011) 150 (1956) 1480 189 302 382 423 779 1390 1660 3610 5350
2026-04-26 13:00 4.77 1030 18600 (2011) 150 (1956) 1480 189 302 382 423 779 1390 1660 3610 5350
2026-04-26 12:30 4.81 1040 18600 (2011) 150 (1956) 1480 189 302 382 423 779 1390 1660 3610 5350
2026-04-26 12:00 4.83 1050 18600 (2011) 150 (1956) 1480 189 302 382 423 779 1390 1660 3610 5350
2026-04-26 11:30 4.86 1070 18600 (2011) 150 (1956) 1480 189 302 382 423 779 1390 1660 3610 5350
2026-04-26 11:00 4.88 1080 18600 (2011) 150 (1956) 1480 189 302 382 423 779 1390 1660 3610 5350
2026-04-26 10:30 4.88 1080 18600 (2011) 150 (1956) 1480 189 302 382 423 779 1390 1660 3610 5350
2026-04-26 10:00 4.90 1080 18600 (2011) 150 (1956) 1480 189 302 382 423 779 1390 1660 3610 5350
2026-04-26 09:30 4.94 1100 18600 (2011) 150 (1956) 1480 189 302 382 423 779 1390 1660 3610 5350
2026-04-26 09:00 4.93 1100 18600 (2011) 150 (1956) 1480 189 302 382 423 779 1390 1660 3610 5350
2026-04-26 08:30 4.98 1120 18600 (2011) 150 (1956) 1480 189 302 382 423 779 1390 1660 3610 5350
2026-04-26 08:00 4.99 1120 18600 (2011) 150 (1956) 1480 189 302 382 423 779 1390 1660 3610 5350
2026-04-26 07:30 5.01 1130 18600 (2011) 150 (1956) 1480 189 302 382 423 779 1390 1660 3610 5350
2026-04-26 07:00 5.04 1150 18600 (2011) 150 (1956) 1480 189 302 382 423 779 1390 1660 3610 5350
2026-04-26 06:30 5.04 1150 18600 (2011) 150 (1956) 1480 189 302 382 423 779 1390 1660 3610 5350
2026-04-26 06:00 5.09 1170 18600 (2011) 150 (1956) 1480 189 302 382 423 779 1390 1660 3610 5350
2026-04-26 05:30 5.10 1170 18600 (2011) 150 (1956) 1480 189 302 382 423 779 1390 1660 3610 5350
2026-04-26 05:00 5.13 1190 18600 (2011) 150 (1956) 1480 189 302 382 423 779 1390 1660 3610 5350
2026-04-26 04:30 5.15 1200 18600 (2011) 150 (1956) 1480 189 302 382 423 779 1390 1660 3610 5350
2026-04-26 04:00 5.18 1210 18600 (2011) 150 (1956) 1480 189 302 382 423 779 1390 1660 3610 5350
2026-04-26 03:30 5.21 1220 18600 (2011) 150 (1956) 1480 189 302 382 423 779 1390 1660 3610 5350
2026-04-26 03:00 5.22 1230 18600 (2011) 150 (1956) 1480 189 302 382 423 779 1390 1660 3610 5350
2026-04-26 02:30 5.26 1250 18600 (2011) 150 (1956) 1480 189 302 382 423 779 1390 1660 3610 5350
2026-04-26 02:00 5.24 1240 18600 (2011) 150 (1956) 1480 189 302 382 423 779 1390 1660 3610 5350
2026-04-26 01:30 5.29 1260 18600 (2011) 150 (1956) 1480 189 302 382 423 779 1390 1660 3610 5350
2026-04-26 01:00 5.32 1280 18600 (2011) 150 (1956) 1480 189 302 382 423 779 1390 1660 3610 5350
2026-04-26 00:30 5.38 1300 18600 (2011) 150 (1956) 1480 189 302 382 423 779 1390 1660 3610 5350
2026-04-26 00:00 5.34 1280 18600 (2011) 150 (1956) 1480 189 302 382 423 779 1390 1660 3610 5350
2026-04-25 23:30 5.41 1320 18600 (2011) 150 (1956) 1480 189 302 382 423 779 1390 1660 3610 5350
2026-04-25 23:00 5.42 1320 18600 (2011) 150 (1956) 1480 189 302 382 423 779 1390 1660 3610 5350
2026-04-25 22:30 5.46 1340 13600 (2011) 152 (1956) 1430 193 299 397 444 814 1320 1770 3360 5100
2026-04-25 22:00 5.44 1330 13600 (2011) 152 (1956) 1430 193 299 397 444 814 1320 1770 3360 5100
2026-04-25 21:30 5.48 1350 13600 (2011) 152 (1956) 1430 193 299 397 444 814 1320 1770 3360 5100
2026-04-25 21:00 5.49 1360 13600 (2011) 152 (1956) 1430 193 299 397 444 814 1320 1770 3360 5100
2026-04-25 20:30 5.53 1370 13600 (2011) 152 (1956) 1430 193 299 397 444 814 1320 1770 3360 5100
2026-04-25 20:00 5.48 1350 13600 (2011) 152 (1956) 1430 193 299 397 444 814 1320 1770 3360 5100
2026-04-25 19:30 5.51 1360 13600 (2011) 152 (1956) 1430 193 299 397 444 814 1320 1770 3360 5100
2026-04-25 19:00 5.51 1360 13600 (2011) 152 (1956) 1430 193 299 397 444 814 1320 1770 3360 5100
2026-04-25 18:30 5.50 1360 13600 (2011) 152 (1956) 1430 193 299 397 444 814 1320 1770 3360 5100
2026-04-25 18:00 5.47 1350 13600 (2011) 152 (1956) 1430 193 299 397 444 814 1320 1770 3360 5100
2026-04-25 17:30 5.47 1350 13600 (2011) 152 (1956) 1430 193 299 397 444 814 1320 1770 3360 5100
2026-04-25 17:00 5.46 1340 13600 (2011) 152 (1956) 1430 193 299 397 444 814 1320 1770 3360 5100
2026-04-25 16:30 5.40 1310 13600 (2011) 152 (1956) 1430 193 299 397 444 814 1320 1770 3360 5100
2026-04-25 16:00 5.37 1300 13600 (2011) 152 (1956) 1430 193 299 397 444 814 1320 1770 3360 5100
2026-04-25 15:30 5.35 1290 13600 (2011) 152 (1956) 1430 193 299 397 444 814 1320 1770 3360 5100
2026-04-25 15:00 5.30 1270 13600 (2011) 152 (1956) 1430 193 299 397 444 814 1320 1770 3360 5100
2026-04-25 14:30 5.32 1280 13600 (2011) 152 (1956) 1430 193 299 397 444 814 1320 1770 3360 5100
2026-04-25 14:00 5.30 1270 13600 (2011) 152 (1956) 1430 193 299 397 444 814 1320 1770 3360 5100
2026-04-25 13:30 5.25 1240 13600 (2011) 152 (1956) 1430 193 299 397 444 814 1320 1770 3360 5100
2026-04-25 13:00 5.29 1260 13600 (2011) 152 (1956) 1430 193 299 397 444 814 1320 1770 3360 5100
2026-04-25 12:30 5.28 1260 13600 (2011) 152 (1956) 1430 193 299 397 444 814 1320 1770 3360 5100
2026-04-25 12:00 5.26 1250 13600 (2011) 152 (1956) 1430 193 299 397 444 814 1320 1770 3360 5100
2026-04-25 11:30 5.24 1240 13600 (2011) 152 (1956) 1430 193 299 397 444 814 1320 1770 3360 5100
2026-04-25 11:00 5.18 1210 13600 (2011) 152 (1956) 1430 193 299 397 444 814 1320 1770 3360 5100
2026-04-25 10:30 5.26 1250 13600 (2011) 152 (1956) 1430 193 299 397 444 814 1320 1770 3360 5100
2026-04-25 10:00 5.19 1210 13600 (2011) 152 (1956) 1430 193 299 397 444 814 1320 1770 3360 5100
2026-04-25 09:30 5.18 1210 13600 (2011) 152 (1956) 1430 193 299 397 444 814 1320 1770 3360 5100
2026-04-25 09:00 5.17 1210 13600 (2011) 152 (1956) 1430 193 299 397 444 814 1320 1770 3360 5100
2026-04-25 08:30 5.17 1210 13600 (2011) 152 (1956) 1430 193 299 397 444 814 1320 1770 3360 5100
2026-04-25 08:00 5.13 1190 13600 (2011) 152 (1956) 1430 193 299 397 444 814 1320 1770 3360 5100
2026-04-25 07:30 5.13 1190 13600 (2011) 152 (1956) 1430 193 299 397 444 814 1320 1770 3360 5100
2026-04-25 07:00 5.04 1150 13600 (2011) 152 (1956) 1430 193 299 397 444 814 1320 1770 3360 5100
2026-04-25 06:30 5.02 1140 13600 (2011) 152 (1956) 1430 193 299 397 444 814 1320 1770 3360 5100
2026-04-25 06:00 5.03 1140 13600 (2011) 152 (1956) 1430 193 299 397 444 814 1320 1770 3360 5100
2026-04-25 05:30 4.97 1120 13600 (2011) 152 (1956) 1430 193 299 397 444 814 1320 1770 3360 5100
2026-04-25 05:00 4.93 1100 13600 (2011) 152 (1956) 1430 193 299 397 444 814 1320 1770 3360 5100
2026-04-25 04:30 4.89 1080 13600 (2011) 152 (1956) 1430 193 299 397 444 814 1320 1770 3360 5100
2026-04-25 04:00 4.87 1070 13600 (2011) 152 (1956) 1430 193 299 397 444 814 1320 1770 3360 5100
2026-04-25 03:30 4.87 1070 13600 (2011) 152 (1956) 1430 193 299 397 444 814 1320 1770 3360 5100
2026-04-25 03:00 4.84 1060 13600 (2011) 152 (1956) 1430 193 299 397 444 814 1320 1770 3360 5100
2026-04-25 02:30 4.86 1070 13600 (2011) 152 (1956) 1430 193 299 397 444 814 1320 1770 3360 5100
2026-04-25 02:00 4.87 1070 13600 (2011) 152 (1956) 1430 193 299 397 444 814 1320 1770 3360 5100
2026-04-25 01:30 4.88 1080 13600 (2011) 152 (1956) 1430 193 299 397 444 814 1320 1770 3360 5100
2026-04-25 01:00 4.86 1070 13600 (2011) 152 (1956) 1430 193 299 397 444 814 1320 1770 3360 5100
2026-04-25 00:30 4.84 1060 13600 (2011) 152 (1956) 1430 193 299 397 444 814 1320 1770 3360 5100
2026-04-25 00:00 4.83 1050 13600 (2011) 152 (1956) 1430 193 299 397 444 814 1320 1770 3360 5100
2026-04-24 23:30 4.78 1030 13600 (2011) 152 (1956) 1430 193 299 397 444 814 1320 1770 3360 5100
2026-04-24 23:00 4.77 1030 13600 (2011) 152 (1956) 1430 193 299 397 444 814 1320 1770 3360 5100
2026-04-24 22:30 4.72 1010 12500 (2011) 142 (2000) 1460 201 320 412 430 813 1420 1790 3180 6790
2026-04-24 22:00 4.65 975 12500 (2011) 142 (2000) 1460 201 320 412 430 813 1420 1790 3180 6790
2026-04-24 21:30 4.56 937 12500 (2011) 142 (2000) 1460 201 320 412 430 813 1420 1790 3180 6790
2026-04-24 21:00 4.51 916 12500 (2011) 142 (2000) 1460 201 320 412 430 813 1420 1790 3180 6790
2026-04-24 20:30 4.44 886 12500 (2011) 142 (2000) 1460 201 320 412 430 813 1420 1790 3180 6790
2026-04-24 20:00 4.40 870 12500 (2011) 142 (2000) 1460 201 320 412 430 813 1420 1790 3180 6790
2026-04-24 19:30 4.36 853 12500 (2011) 142 (2000) 1460 201 320 412 430 813 1420 1790 3180 6790
2026-04-24 19:00 4.33 841 12500 (2011) 142 (2000) 1460 201 320 412 430 813 1420 1790 3180 6790
2026-04-24 18:30 4.28 821 12500 (2011) 142 (2000) 1460 201 320 412 430 813 1420 1790 3180 6790
2026-04-24 18:00 4.23 801 12500 (2011) 142 (2000) 1460 201 320 412 430 813 1420 1790 3180 6790
2026-04-24 17:30 4.20 789 12500 (2011) 142 (2000) 1460 201 320 412 430 813 1420 1790 3180 6790
2026-04-24 17:00 4.16 773 12500 (2011) 142 (2000) 1460 201 320 412 430 813 1420 1790 3180 6790
2026-04-24 16:30 4.13 761 12500 (2011) 142 (2000) 1460 201 320 412 430 813 1420 1790 3180 6790
2026-04-24 16:00 4.06 733 12500 (2011) 142 (2000) 1460 201 320 412 430 813 1420 1790 3180 6790
2026-04-24 15:30 3.95 691 12500 (2011) 142 (2000) 1460 201 320 412 430 813 1420 1790 3180 6790
2026-04-24 15:00 3.92 679 12500 (2011) 142 (2000) 1460 201 320 412 430 813 1420 1790 3180 6790
2026-04-24 14:30 3.92 679 12500 (2011) 142 (2000) 1460 201 320 412 430 813 1420 1790 3180 6790
2026-04-24 14:00 3.89 668 12500 (2011) 142 (2000) 1460 201 320 412 430 813 1420 1790 3180 6790
2026-04-24 13:30 3.81 638 12500 (2011) 142 (2000) 1460 201 320 412 430 813 1420 1790 3180 6790
2026-04-24 13:00 3.86 656 12500 (2011) 142 (2000) 1460 201 320 412 430 813 1420 1790 3180 6790
2026-04-24 12:30 3.85 653 12500 (2011) 142 (2000) 1460 201 320 412 430 813 1420 1790 3180 6790
2026-04-24 12:00 3.81 638 12500 (2011) 142 (2000) 1460 201 320 412 430 813 1420 1790 3180 6790
2026-04-24 11:30 3.80 634 12500 (2011) 142 (2000) 1460 201 320 412 430 813 1420 1790 3180 6790
2026-04-24 11:00 3.81 638 12500 (2011) 142 (2000) 1460 201 320 412 430 813 1420 1790 3180 6790
2026-04-24 10:30 3.75 615 12500 (2011) 142 (2000) 1460 201 320 412 430 813 1420 1790 3180 6790
2026-04-24 10:00 3.72 604 12500 (2011) 142 (2000) 1460 201 320 412 430 813 1420 1790 3180 6790
2026-04-24 09:30 3.71 601 12500 (2011) 142 (2000) 1460 201 320 412 430 813 1420 1790 3180 6790
2026-04-24 09:00 3.73 608 12500 (2011) 142 (2000) 1460 201 320 412 430 813 1420 1790 3180 6790
2026-04-24 08:30 3.69 593 12500 (2011) 142 (2000) 1460 201 320 412 430 813 1420 1790 3180 6790
2026-04-24 08:00 3.69 593 12500 (2011) 142 (2000) 1460 201 320 412 430 813 1420 1790 3180 6790
2026-04-24 07:30 3.65 579 12500 (2011) 142 (2000) 1460 201 320 412 430 813 1420 1790 3180 6790
2026-04-24 07:00 3.69 593 12500 (2011) 142 (2000) 1460 201 320 412 430 813 1420 1790 3180 6790
2026-04-24 06:30 3.67 586 12500 (2011) 142 (2000) 1460 201 320 412 430 813 1420 1790 3180 6790
2026-04-24 06:00 3.68 590 12500 (2011) 142 (2000) 1460 201 320 412 430 813 1420 1790 3180 6790
2026-04-24 05:30 3.69 593 12500 (2011) 142 (2000) 1460 201 320 412 430 813 1420 1790 3180 6790
2026-04-24 05:00 3.63 572 12500 (2011) 142 (2000) 1460 201 320 412 430 813 1420 1790 3180 6790
2026-04-24 04:30 3.63 572 12500 (2011) 142 (2000) 1460 201 320 412 430 813 1420 1790 3180 6790
2026-04-24 04:00 3.65 579 12500 (2011) 142 (2000) 1460 201 320 412 430 813 1420 1790 3180 6790
2026-04-24 03:30 3.61 564 12500 (2011) 142 (2000) 1460 201 320 412 430 813 1420 1790 3180 6790
2026-04-24 03:00 3.65 579 12500 (2011) 142 (2000) 1460 201 320 412 430 813 1420 1790 3180 6790
2026-04-24 02:30 3.65 579 12500 (2011) 142 (2000) 1460 201 320 412 430 813 1420 1790 3180 6790
2026-04-24 02:00 3.63 572 12500 (2011) 142 (2000) 1460 201 320 412 430 813 1420 1790 3180 6790
2026-04-24 01:30 3.63 572 12500 (2011) 142 (2000) 1460 201 320 412 430 813 1420 1790 3180 6790
2026-04-24 01:00 3.68 590 12500 (2011) 142 (2000) 1460 201 320 412 430 813 1420 1790 3180 6790
2026-04-24 00:30 3.64 575 12500 (2011) 142 (2000) 1460 201 320 412 430 813 1420 1790 3180 6790
2026-04-24 00:00 3.64 575 12500 (2011) 142 (2000) 1460 201 320 412 430 813 1420 1790 3180 6790
2026-04-23 23:30 3.71 601 12500 (2011) 142 (2000) 1460 201 320 412 430 813 1420 1790 3180 6790
2026-04-23 23:00 3.69 593 12500 (2011) 142 (2000) 1460 201 320 412 430 813 1420 1790 3180 6790
2026-04-23 22:30 3.66 582 15100 (1996) 125 (2000) 1470 209 300 421 450 712 1170 1510 3520 5280
2026-04-23 22:00 3.67 586 15100 (1996) 125 (2000) 1470 209 300 421 450 712 1170 1510 3520 5280
2026-04-23 21:30 3.71 601 15100 (1996) 125 (2000) 1470 209 300 421 450 712 1170 1510 3520 5280
2026-04-23 21:00 3.67 586 15100 (1996) 125 (2000) 1470 209 300 421 450 712 1170 1510 3520 5280
2026-04-23 20:30 3.67 586 15100 (1996) 125 (2000) 1470 209 300 421 450 712 1170 1510 3520 5280
2026-04-23 20:00 3.70 597 15100 (1996) 125 (2000) 1470 209 300 421 450 712 1170 1510 3520 5280
2026-04-23 19:30 3.74 612 15100 (1996) 125 (2000) 1470 209 300 421 450 712 1170 1510 3520 5280
2026-04-23 19:00 3.69 593 15100 (1996) 125 (2000) 1470 209 300 421 450 712 1170 1510 3520 5280
2026-04-23 18:30 3.78 626 15100 (1996) 125 (2000) 1470 209 300 421 450 712 1170 1510 3520 5280
2026-04-23 18:00 3.73 608 15100 (1996) 125 (2000) 1470 209 300 421 450 712 1170 1510 3520 5280
2026-04-23 17:30 3.77 623 15100 (1996) 125 (2000) 1470 209 300 421 450 712 1170 1510 3520 5280
2026-04-23 17:00 3.72 604 15100 (1996) 125 (2000) 1470 209 300 421 450 712 1170 1510 3520 5280
2026-04-23 16:30 3.70 597 15100 (1996) 125 (2000) 1470 209 300 421 450 712 1170 1510 3520 5280
2026-04-23 16:00 3.78 626 15100 (1996) 125 (2000) 1470 209 300 421 450 712 1170 1510 3520 5280
2026-04-23 15:30 3.72 604 15100 (1996) 125 (2000) 1470 209 300 421 450 712 1170 1510 3520 5280
2026-04-23 15:00 3.75 615 15100 (1996) 125 (2000) 1470 209 300 421 450 712 1170 1510 3520 5280
2026-04-23 14:30 3.85 653 15100 (1996) 125 (2000) 1470 209 300 421 450 712 1170 1510 3520 5280
2026-04-23 14:00 3.86 656 15100 (1996) 125 (2000) 1470 209 300 421 450 712 1170 1510 3520 5280
2026-04-23 13:30 3.87 660 15100 (1996) 125 (2000) 1470 209 300 421 450 712 1170 1510 3520 5280
2026-04-23 13:00 3.86 656 15100 (1996) 125 (2000) 1470 209 300 421 450 712 1170 1510 3520 5280
2026-04-23 12:30 3.87 660 15100 (1996) 125 (2000) 1470 209 300 421 450 712 1170 1510 3520 5280
2026-04-23 12:00 3.89 668 15100 (1996) 125 (2000) 1470 209 300 421 450 712 1170 1510 3520 5280
2026-04-23 11:30 3.89 668 15100 (1996) 125 (2000) 1470 209 300 421 450 712 1170 1510 3520 5280
2026-04-23 11:00 3.89 668 15100 (1996) 125 (2000) 1470 209 300 421 450 712 1170 1510 3520 5280
2026-04-23 10:30 3.91 675 15100 (1996) 125 (2000) 1470 209 300 421 450 712 1170 1510 3520 5280
2026-04-23 10:00 3.92 679 15100 (1996) 125 (2000) 1470 209 300 421 450 712 1170 1510 3520 5280
2026-04-23 09:30 3.91 675 15100 (1996) 125 (2000) 1470 209 300 421 450 712 1170 1510 3520 5280
2026-04-23 09:00 3.92 679 15100 (1996) 125 (2000) 1470 209 300 421 450 712 1170 1510 3520 5280
2026-04-23 08:30 3.93 683 15100 (1996) 125 (2000) 1470 209 300 421 450 712 1170 1510 3520 5280
2026-04-23 08:00 3.92 679 15100 (1996) 125 (2000) 1470 209 300 421 450 712 1170 1510 3520 5280
2026-04-23 07:30 3.92 679 15100 (1996) 125 (2000) 1470 209 300 421 450 712 1170 1510 3520 5280
2026-04-23 07:00 3.93 683 15100 (1996) 125 (2000) 1470 209 300 421 450 712 1170 1510 3520 5280
2026-04-23 06:30 3.92 679 15100 (1996) 125 (2000) 1470 209 300 421 450 712 1170 1510 3520 5280
2026-04-23 06:00 3.95 691 15100 (1996) 125 (2000) 1470 209 300 421 450 712 1170 1510 3520 5280
2026-04-23 05:30 3.95 691 15100 (1996) 125 (2000) 1470 209 300 421 450 712 1170 1510 3520 5280
2026-04-23 05:00 3.97 698 15100 (1996) 125 (2000) 1470 209 300 421 450 712 1170 1510 3520 5280
2026-04-23 04:30 3.94 687 15100 (1996) 125 (2000) 1470 209 300 421 450 712 1170 1510 3520 5280
2026-04-23 04:00 3.97 698 15100 (1996) 125 (2000) 1470 209 300 421 450 712 1170 1510 3520 5280
2026-04-23 03:30 3.98 702 15100 (1996) 125 (2000) 1470 209 300 421 450 712 1170 1510 3520 5280
2026-04-23 03:00 3.98 702 15100 (1996) 125 (2000) 1470 209 300 421 450 712 1170 1510 3520 5280
2026-04-23 02:30 3.98 702 15100 (1996) 125 (2000) 1470 209 300 421 450 712 1170 1510 3520 5280
2026-04-23 02:00 3.99 706 15100 (1996) 125 (2000) 1470 209 300 421 450 712 1170 1510 3520 5280
2026-04-23 01:30 4.00 710 15100 (1996) 125 (2000) 1470 209 300 421 450 712 1170 1510 3520 5280
2026-04-23 01:00 4.02 718 15100 (1996) 125 (2000) 1470 209 300 421 450 712 1170 1510 3520 5280
2026-04-23 00:30 4.00 710 15100 (1996) 125 (2000) 1470 209 300 421 450 712 1170 1510 3520 5280
2026-04-23 00:00 4.02 718 15100 (1996) 125 (2000) 1470 209 300 421 450 712 1170 1510 3520 5280
2026-04-22 23:30 4.02 718 15100 (1996) 125 (2000) 1470 209 300 421 450 712 1170 1510 3520 5280
2026-04-22 23:00 4.03 722 15100 (1996) 125 (2000) 1470 209 300 421 450 712 1170 1510 3520 5280
2026-04-22 22:30 4.04 725 13900 (2005) 127 (2000) 1750 229 291 439 459 711 1430 1680 5170 9080
2026-04-22 22:00 4.05 729 13900 (2005) 127 (2000) 1750 229 291 439 459 711 1430 1680 5170 9080
2026-04-22 21:30 4.05 729 13900 (2005) 127 (2000) 1750 229 291 439 459 711 1430 1680 5170 9080
2026-04-22 21:00 4.07 737 13900 (2005) 127 (2000) 1750 229 291 439 459 711 1430 1680 5170 9080
2026-04-22 20:30 4.07 737 13900 (2005) 127 (2000) 1750 229 291 439 459 711 1430 1680 5170 9080
2026-04-22 20:00 4.08 741 13900 (2005) 127 (2000) 1750 229 291 439 459 711 1430 1680 5170 9080
2026-04-22 19:30 4.09 745 13900 (2005) 127 (2000) 1750 229 291 439 459 711 1430 1680 5170 9080
2026-04-22 19:00 4.09 745 13900 (2005) 127 (2000) 1750 229 291 439 459 711 1430 1680 5170 9080
2026-04-22 18:30 4.11 753 13900 (2005) 127 (2000) 1750 229 291 439 459 711 1430 1680 5170 9080
2026-04-22 18:00 4.13 761 13900 (2005) 127 (2000) 1750 229 291 439 459 711 1430 1680 5170 9080
2026-04-22 17:30 4.12 757 13900 (2005) 127 (2000) 1750 229 291 439 459 711 1430 1680 5170 9080
2026-04-22 17:00 4.14 765 13900 (2005) 127 (2000) 1750 229 291 439 459 711 1430 1680 5170 9080
2026-04-22 16:30 4.15 769 13900 (2005) 127 (2000) 1750 229 291 439 459 711 1430 1680 5170 9080
2026-04-22 16:00 4.11 753 13900 (2005) 127 (2000) 1750 229 291 439 459 711 1430 1680 5170 9080
2026-04-22 15:30 4.15 769 13900 (2005) 127 (2000) 1750 229 291 439 459 711 1430 1680 5170 9080
2026-04-22 15:00 4.15 769 13900 (2005) 127 (2000) 1750 229 291 439 459 711 1430 1680 5170 9080
2026-04-22 14:30 4.16 773 13900 (2005) 127 (2000) 1750 229 291 439 459 711 1430 1680 5170 9080
2026-04-22 14:00 4.18 781 13900 (2005) 127 (2000) 1750 229 291 439 459 711 1430 1680 5170 9080
2026-04-22 13:30 4.19 785 13900 (2005) 127 (2000) 1750 229 291 439 459 711 1430 1680 5170 9080
2026-04-22 13:00 4.20 789 13900 (2005) 127 (2000) 1750 229 291 439 459 711 1430 1680 5170 9080
2026-04-22 12:30 4.19 785 13900 (2005) 127 (2000) 1750 229 291 439 459 711 1430 1680 5170 9080
2026-04-22 12:00 4.19 785 13900 (2005) 127 (2000) 1750 229 291 439 459 711 1430 1680 5170 9080
2026-04-22 11:30 4.22 797 13900 (2005) 127 (2000) 1750 229 291 439 459 711 1430 1680 5170 9080
2026-04-22 11:00 4.24 805 13900 (2005) 127 (2000) 1750 229 291 439 459 711 1430 1680 5170 9080
2026-04-22 10:30 4.24 805 13900 (2005) 127 (2000) 1750 229 291 439 459 711 1430 1680 5170 9080
2026-04-22 10:00 4.24 805 13900 (2005) 127 (2000) 1750 229 291 439 459 711 1430 1680 5170 9080
2026-04-22 09:30 4.24 805 13900 (2005) 127 (2000) 1750 229 291 439 459 711 1430 1680 5170 9080
2026-04-22 09:00 4.27 817 13900 (2005) 127 (2000) 1750 229 291 439 459 711 1430 1680 5170 9080
2026-04-22 08:30 4.27 817 13900 (2005) 127 (2000) 1750 229 291 439 459 711 1430 1680 5170 9080
2026-04-22 08:00 4.28 821 13900 (2005) 127 (2000) 1750 229 291 439 459 711 1430 1680 5170 9080
2026-04-22 07:30 4.28 821 13900 (2005) 127 (2000) 1750 229 291 439 459 711 1430 1680 5170 9080
2026-04-22 07:00 4.30 829 13900 (2005) 127 (2000) 1750 229 291 439 459 711 1430 1680 5170 9080
2026-04-22 06:30 4.32 837 13900 (2005) 127 (2000) 1750 229 291 439 459 711 1430 1680 5170 9080
2026-04-22 06:00 4.32 837 13900 (2005) 127 (2000) 1750 229 291 439 459 711 1430 1680 5170 9080
2026-04-22 05:30 4.32 837 13900 (2005) 127 (2000) 1750 229 291 439 459 711 1430 1680 5170 9080
2026-04-22 05:00 4.34 845 13900 (2005) 127 (2000) 1750 229 291 439 459 711 1430 1680 5170 9080
2026-04-22 04:30 4.36 853 13900 (2005) 127 (2000) 1750 229 291 439 459 711 1430 1680 5170 9080
2026-04-22 04:00 4.36 853 13900 (2005) 127 (2000) 1750 229 291 439 459 711 1430 1680 5170 9080
2026-04-22 03:30 4.37 858 13900 (2005) 127 (2000) 1750 229 291 439 459 711 1430 1680 5170 9080
2026-04-22 03:00 4.36 853 13900 (2005) 127 (2000) 1750 229 291 439 459 711 1430 1680 5170 9080
2026-04-22 02:30 4.40 870 13900 (2005) 127 (2000) 1750 229 291 439 459 711 1430 1680 5170 9080
2026-04-22 02:00 4.39 866 13900 (2005) 127 (2000) 1750 229 291 439 459 711 1430 1680 5170 9080
2026-04-22 01:30 4.41 874 13900 (2005) 127 (2000) 1750 229 291 439 459 711 1430 1680 5170 9080
2026-04-22 01:00 4.44 886 13900 (2005) 127 (2000) 1750 229 291 439 459 711 1430 1680 5170 9080
2026-04-22 00:30 4.42 878 13900 (2005) 127 (2000) 1750 229 291 439 459 711 1430 1680 5170 9080
2026-04-22 00:00 4.44 886 13900 (2005) 127 (2000) 1750 229 291 439 459 711 1430 1680 5170 9080
2026-04-21 23:30 4.45 891 13900 (2005) 127 (2000) 1750 229 291 439 459 711 1430 1680 5170 9080
2026-04-21 23:00 4.46 895 13900 (2005) 127 (2000) 1750 229 291 439 459 711 1430 1680 5170 9080
2026-04-21 22:30 4.47 899 9670 (1972) 133 (2000) 1430 246 300 413 463 659 1450 1770 3980 6350
2026-04-21 22:00 4.48 903 9670 (1972) 133 (2000) 1430 246 300 413 463 659 1450 1770 3980 6350
2026-04-21 21:30 4.51 916 9670 (1972) 133 (2000) 1430 246 300 413 463 659 1450 1770 3980 6350
2026-04-21 21:00 4.52 920 9670 (1972) 133 (2000) 1430 246 300 413 463 659 1450 1770 3980 6350
2026-04-21 20:30 4.50 911 9670 (1972) 133 (2000) 1430 246 300 413 463 659 1450 1770 3980 6350
2026-04-21 20:00 4.51 916 9670 (1972) 133 (2000) 1430 246 300 413 463 659 1450 1770 3980 6350
2026-04-21 19:30 4.53 924 9670 (1972) 133 (2000) 1430 246 300 413 463 659 1450 1770 3980 6350
2026-04-21 19:00 4.56 937 9670 (1972) 133 (2000) 1430 246 300 413 463 659 1450 1770 3980 6350
2026-04-21 18:30 4.56 937 9670 (1972) 133 (2000) 1430 246 300 413 463 659 1450 1770 3980 6350
2026-04-21 18:00 4.58 945 9670 (1972) 133 (2000) 1430 246 300 413 463 659 1450 1770 3980 6350
2026-04-21 17:30 4.57 941 9670 (1972) 133 (2000) 1430 246 300 413 463 659 1450 1770 3980 6350
2026-04-21 17:00 4.62 962 9670 (1972) 133 (2000) 1430 246 300 413 463 659 1450 1770 3980 6350
2026-04-21 16:30 4.60 954 9670 (1972) 133 (2000) 1430 246 300 413 463 659 1450 1770 3980 6350
2026-04-21 16:00 4.62 962 9670 (1972) 133 (2000) 1430 246 300 413 463 659 1450 1770 3980 6350
2026-04-21 15:30 4.67 984 9670 (1972) 133 (2000) 1430 246 300 413 463 659 1450 1770 3980 6350
2026-04-21 15:00 4.63 966 9670 (1972) 133 (2000) 1430 246 300 413 463 659 1450 1770 3980 6350
2026-04-21 14:30 4.67 984 9670 (1972) 133 (2000) 1430 246 300 413 463 659 1450 1770 3980 6350
2026-04-21 14:00 4.69 992 9670 (1972) 133 (2000) 1430 246 300 413 463 659 1450 1770 3980 6350
2026-04-21 13:30 4.70 997 9670 (1972) 133 (2000) 1430 246 300 413 463 659 1450 1770 3980 6350
2026-04-21 13:00 4.74 1010 9670 (1972) 133 (2000) 1430 246 300 413 463 659 1450 1770 3980 6350
2026-04-21 12:30 4.71 1000 9670 (1972) 133 (2000) 1430 246 300 413 463 659 1450 1770 3980 6350
2026-04-21 12:00 4.76 1020 9670 (1972) 133 (2000) 1430 246 300 413 463 659 1450 1770 3980 6350
2026-04-21 11:30 4.77 1030 9670 (1972) 133 (2000) 1430 246 300 413 463 659 1450 1770 3980 6350
2026-04-21 11:00 4.74 1010 9670 (1972) 133 (2000) 1430 246 300 413 463 659 1450 1770 3980 6350
2026-04-21 10:30 4.78 1030 9670 (1972) 133 (2000) 1430 246 300 413 463 659 1450 1770 3980 6350
2026-04-21 10:00 4.81 1040 9670 (1972) 133 (2000) 1430 246 300 413 463 659 1450 1770 3980 6350
2026-04-21 09:30 4.81 1040 9670 (1972) 133 (2000) 1430 246 300 413 463 659 1450 1770 3980 6350
2026-04-21 09:00 4.86 1070 9670 (1972) 133 (2000) 1430 246 300 413 463 659 1450 1770 3980 6350
2026-04-21 08:30 4.87 1070 9670 (1972) 133 (2000) 1430 246 300 413 463 659 1450 1770 3980 6350
2026-04-21 08:00 4.88 1080 9670 (1972) 133 (2000) 1430 246 300 413 463 659 1450 1770 3980 6350
2026-04-21 07:30 4.90 1080 9670 (1972) 133 (2000) 1430 246 300 413 463 659 1450 1770 3980 6350
2026-04-21 07:00 4.90 1080 9670 (1972) 133 (2000) 1430 246 300 413 463 659 1450 1770 3980 6350
2026-04-21 06:30 4.92 1090 9670 (1972) 133 (2000) 1430 246 300 413 463 659 1450 1770 3980 6350
2026-04-21 06:00 4.89 1080 9670 (1972) 133 (2000) 1430 246 300 413 463 659 1450 1770 3980 6350
2026-04-21 05:30 4.92 1090 9670 (1972) 133 (2000) 1430 246 300 413 463 659 1450 1770 3980 6350
2026-04-21 05:00 4.97 1120 9670 (1972) 133 (2000) 1430 246 300 413 463 659 1450 1770 3980 6350
2026-04-21 04:30 4.97 1120 9670 (1972) 133 (2000) 1430 246 300 413 463 659 1450 1770 3980 6350
2026-04-21 04:00 4.97 1120 9670 (1972) 133 (2000) 1430 246 300 413 463 659 1450 1770 3980 6350
2026-04-21 03:30 5.01 1130 9670 (1972) 133 (2000) 1430 246 300 413 463 659 1450 1770 3980 6350
2026-04-21 02:30 5.05 1150 9670 (1972) 133 (2000) 1430 246 300 413 463 659 1450 1770 3980 6350
2026-04-21 02:00 5.07 1160 9670 (1972) 133 (2000) 1430 246 300 413 463 659 1450 1770 3980 6350
2026-04-21 01:30 5.09 1170 9670 (1972) 133 (2000) 1430 246 300 413 463 659 1450 1770 3980 6350
2026-04-21 01:00 5.12 1180 9670 (1972) 133 (2000) 1430 246 300 413 463 659 1450 1770 3980 6350
2026-04-21 00:30 5.11 1180 9670 (1972) 133 (2000) 1430 246 300 413 463 659 1450 1770 3980 6350
2026-04-21 00:00 5.16 1200 9670 (1972) 133 (2000) 1430 246 300 413 463 659 1450 1770 3980 6350
2026-04-20 23:30 5.16 1200 9670 (1972) 133 (2000) 1430 246 300 413 463 659 1450 1770 3980 6350
2026-04-20 23:00 5.18 1210 9670 (1972) 133 (2000) 1430 246 300 413 463 659 1450 1770 3980 6350
2026-04-20 22:30 5.19 1210 10500 (1992) 140 (2000) 1440 250 320 406 463 670 1000 1720 3840 7560
2026-04-20 22:00 5.22 1230 10500 (1992) 140 (2000) 1440 250 320 406 463 670 1000 1720 3840 7560
2026-04-20 21:30 5.24 1240 10500 (1992) 140 (2000) 1440 250 320 406 463 670 1000 1720 3840 7560
2026-04-20 21:00 5.28 1260 10500 (1992) 140 (2000) 1440 250 320 406 463 670 1000 1720 3840 7560
2026-04-20 20:30 5.28 1260 10500 (1992) 140 (2000) 1440 250 320 406 463 670 1000 1720 3840 7560
2026-04-20 20:00 5.29 1260 10500 (1992) 140 (2000) 1440 250 320 406 463 670 1000 1720 3840 7560
2026-04-20 19:30 5.36 1290 10500 (1992) 140 (2000) 1440 250 320 406 463 670 1000 1720 3840 7560
2026-04-20 19:00 5.33 1280 10500 (1992) 140 (2000) 1440 250 320 406 463 670 1000 1720 3840 7560
2026-04-20 18:30 5.39 1310 10500 (1992) 140 (2000) 1440 250 320 406 463 670 1000 1720 3840 7560
2026-04-20 18:00 5.40 1310 10500 (1992) 140 (2000) 1440 250 320 406 463 670 1000 1720 3840 7560
2026-04-20 17:30 5.43 1330 10500 (1992) 140 (2000) 1440 250 320 406 463 670 1000 1720 3840 7560
2026-04-20 17:00 5.46 1340 10500 (1992) 140 (2000) 1440 250 320 406 463 670 1000 1720 3840 7560
2026-04-20 16:30 5.48 1350 10500 (1992) 140 (2000) 1440 250 320 406 463 670 1000 1720 3840 7560
2026-04-20 16:00 5.51 1360 10500 (1992) 140 (2000) 1440 250 320 406 463 670 1000 1720 3840 7560
2026-04-20 15:30 5.52 1370 10500 (1992) 140 (2000) 1440 250 320 406 463 670 1000 1720 3840 7560
2026-04-20 15:00 5.50 1360 10500 (1992) 140 (2000) 1440 250 320 406 463 670 1000 1720 3840 7560
2026-04-20 14:30 5.60 1410 10500 (1992) 140 (2000) 1440 250 320 406 463 670 1000 1720 3840 7560
2026-04-20 14:00 5.62 1420 10500 (1992) 140 (2000) 1440 250 320 406 463 670 1000 1720 3840 7560
2026-04-20 13:30 5.62 1420 10500 (1992) 140 (2000) 1440 250 320 406 463 670 1000 1720 3840 7560
2026-04-20 13:00 5.66 1440 10500 (1992) 140 (2000) 1440 250 320 406 463 670 1000 1720 3840 7560
2026-04-20 12:30 5.71 1460 10500 (1992) 140 (2000) 1440 250 320 406 463 670 1000 1720 3840 7560
2026-04-20 12:00 5.73 1470 10500 (1992) 140 (2000) 1440 250 320 406 463 670 1000 1720 3840 7560
2026-04-20 11:30 5.76 1490 10500 (1992) 140 (2000) 1440 250 320 406 463 670 1000 1720 3840 7560
2026-04-20 11:00 5.80 1510 10500 (1992) 140 (2000) 1440 250 320 406 463 670 1000 1720 3840 7560
2026-04-20 10:30 5.81 1510 10500 (1992) 140 (2000) 1440 250 320 406 463 670 1000 1720 3840 7560
2026-04-20 10:00 5.84 1530 10500 (1992) 140 (2000) 1440 250 320 406 463 670 1000 1720 3840 7560
2026-04-20 09:30 5.89 1550 10500 (1992) 140 (2000) 1440 250 320 406 463 670 1000 1720 3840 7560
2026-04-20 09:00 5.94 1570 10500 (1992) 140 (2000) 1440 250 320 406 463 670 1000 1720 3840 7560
2026-04-20 08:30 5.97 1590 10500 (1992) 140 (2000) 1440 250 320 406 463 670 1000 1720 3840 7560
2026-04-20 08:00 5.99 1600 10500 (1992) 140 (2000) 1440 250 320 406 463 670 1000 1720 3840 7560
2026-04-20 07:30 6.00 1600 10500 (1992) 140 (2000) 1440 250 320 406 463 670 1000 1720 3840 7560
2026-04-20 07:00 6.07 1640 10500 (1992) 140 (2000) 1440 250 320 406 463 670 1000 1720 3840 7560
2026-04-20 06:30 6.11 1660 10500 (1992) 140 (2000) 1440 250 320 406 463 670 1000 1720 3840 7560
2026-04-20 06:00 6.14 1680 10500 (1992) 140 (2000) 1440 250 320 406 463 670 1000 1720 3840 7560
2026-04-20 05:30 6.16 1690 10500 (1992) 140 (2000) 1440 250 320 406 463 670 1000 1720 3840 7560
2026-04-20 05:00 6.24 1730 10500 (1992) 140 (2000) 1440 250 320 406 463 670 1000 1720 3840 7560
2026-04-20 04:30 6.26 1740 10500 (1992) 140 (2000) 1440 250 320 406 463 670 1000 1720 3840 7560
2026-04-20 04:00 6.32 1770 10500 (1992) 140 (2000) 1440 250 320 406 463 670 1000 1720 3840 7560
2026-04-20 03:30 6.34 1780 10500 (1992) 140 (2000) 1440 250 320 406 463 670 1000 1720 3840 7560
2026-04-20 03:00 6.40 1810 10500 (1992) 140 (2000) 1440 250 320 406 463 670 1000 1720 3840 7560
2026-04-20 02:30 6.43 1830 10500 (1992) 140 (2000) 1440 250 320 406 463 670 1000 1720 3840 7560
2026-04-20 02:00 6.48 1850 10500 (1992) 140 (2000) 1440 250 320 406 463 670 1000 1720 3840 7560
2026-04-20 01:30 6.55 1890 10500 (1992) 140 (2000) 1440 250 320 406 463 670 1000 1720 3840 7560
2026-04-20 01:00 6.60 1920 10500 (1992) 140 (2000) 1440 250 320 406 463 670 1000 1720 3840 7560
2026-04-20 00:30 6.59 1910 10500 (1992) 140 (2000) 1440 250 320 406 463 670 1000 1720 3840 7560
2026-04-20 00:00 6.69 1970 10500 (1992) 140 (2000) 1440 250 320 406 463 670 1000 1720 3840 7560
2026-04-19 23:30 6.76 2010 10500 (1992) 140 (2000) 1440 250 320 406 463 670 1000 1720 3840 7560
2026-04-19 23:00 6.80 2030 10500 (1992) 140 (2000) 1440 250 320 406 463 670 1000 1720 3840 7560
2026-04-19 22:30 6.88 2080 26000 (2013) 146 (2000) 1390 210 308 431 457 723 1070 1280 2290 5170
2026-04-19 22:00 6.94 2120 26000 (2013) 146 (2000) 1390 210 308 431 457 723 1070 1280 2290 5170
2026-04-19 21:30 6.98 2150 26000 (2013) 146 (2000) 1390 210 308 431 457 723 1070 1280 2290 5170
2026-04-19 21:00 7.08 2210 26000 (2013) 146 (2000) 1390 210 308 431 457 723 1070 1280 2290 5170
2026-04-19 20:30 7.17 2270 26000 (2013) 146 (2000) 1390 210 308 431 457 723 1070 1280 2290 5170
2026-04-19 20:00 7.25 2330 26000 (2013) 146 (2000) 1390 210 308 431 457 723 1070 1280 2290 5170
2026-04-19 19:30 7.32 2370 26000 (2013) 146 (2000) 1390 210 308 431 457 723 1070 1280 2290 5170
2026-04-19 19:00 7.41 2440 26000 (2013) 146 (2000) 1390 210 308 431 457 723 1070 1280 2290 5170
2026-04-19 18:30 7.52 2510 26000 (2013) 146 (2000) 1390 210 308 431 457 723 1070 1280 2290 5170
2026-04-19 18:00 7.61 2580 26000 (2013) 146 (2000) 1390 210 308 431 457 723 1070 1280 2290 5170
2026-04-19 17:30 7.72 2660 26000 (2013) 146 (2000) 1390 210 308 431 457 723 1070 1280 2290 5170
2026-04-19 17:00 7.83 2740 26000 (2013) 146 (2000) 1390 210 308 431 457 723 1070 1280 2290 5170
2026-04-19 16:30 7.92 2800 26000 (2013) 146 (2000) 1390 210 308 431 457 723 1070 1280 2290 5170
2026-04-19 16:00 8.04 2890 26000 (2013) 146 (2000) 1390 210 308 431 457 723 1070 1280 2290 5170
2026-04-19 15:30 8.14 2970 26000 (2013) 146 (2000) 1390 210 308 431 457 723 1070 1280 2290 5170
2026-04-19 15:00 8.27 3070 26000 (2013) 146 (2000) 1390 210 308 431 457 723 1070 1280 2290 5170
2026-04-19 14:30 8.37 3140 26000 (2013) 146 (2000) 1390 210 308 431 457 723 1070 1280 2290 5170
2026-04-19 14:00 8.47 3220 26000 (2013) 146 (2000) 1390 210 308 431 457 723 1070 1280 2290 5170
2026-04-19 13:30 8.56 3290 26000 (2013) 146 (2000) 1390 210 308 431 457 723 1070 1280 2290 5170
2026-04-19 13:00 8.64 3350 26000 (2013) 146 (2000) 1390 210 308 431 457 723 1070 1280 2290 5170
2026-04-19 12:30 8.76 3450 26000 (2013) 146 (2000) 1390 210 308 431 457 723 1070 1280 2290 5170
2026-04-19 12:00 8.84 3510 26000 (2013) 146 (2000) 1390 210 308 431 457 723 1070 1280 2290 5170
2026-04-19 11:30 8.89 3550 26000 (2013) 146 (2000) 1390 210 308 431 457 723 1070 1280 2290 5170
2026-04-19 11:00 8.93 3590 26000 (2013) 146 (2000) 1390 210 308 431 457 723 1070 1280 2290 5170
2026-04-19 10:30 8.96 3610 26000 (2013) 146 (2000) 1390 210 308 431 457 723 1070 1280 2290 5170
2026-04-19 10:00 8.95 3600 26000 (2013) 146 (2000) 1390 210 308 431 457 723 1070 1280 2290 5170
2026-04-19 09:30 8.97 3620 26000 (2013) 146 (2000) 1390 210 308 431 457 723 1070 1280 2290 5170
2026-04-19 09:00 8.94 3590 26000 (2013) 146 (2000) 1390 210 308 431 457 723 1070 1280 2290 5170
2026-04-19 08:30 8.89 3550 26000 (2013) 146 (2000) 1390 210 308 431 457 723 1070 1280 2290 5170
2026-04-19 08:00 8.82 3500 26000 (2013) 146 (2000) 1390 210 308 431 457 723 1070 1280 2290 5170
2026-04-19 07:30 8.69 3390 26000 (2013) 146 (2000) 1390 210 308 431 457 723 1070 1280 2290 5170
2026-04-19 07:00 8.64 3350 26000 (2013) 146 (2000) 1390 210 308 431 457 723 1070 1280 2290 5170
2026-04-19 06:30 8.43 3190 26000 (2013) 146 (2000) 1390 210 308 431 457 723 1070 1280 2290 5170
2026-04-19 06:00 8.30 3090 26000 (2013) 146 (2000) 1390 210 308 431 457 723 1070 1280 2290 5170
2026-04-19 05:30 8.11 2940 26000 (2013) 146 (2000) 1390 210 308 431 457 723 1070 1280 2290 5170
2026-04-19 05:00 7.94 2820 26000 (2013) 146 (2000) 1390 210 308 431 457 723 1070 1280 2290 5170
2026-04-19 04:30 7.78 2700 26000 (2013) 146 (2000) 1390 210 308 431 457 723 1070 1280 2290 5170
2026-04-19 04:00 7.63 2590 26000 (2013) 146 (2000) 1390 210 308 431 457 723 1070 1280 2290 5170
2026-04-19 03:30 7.50 2500 26000 (2013) 146 (2000) 1390 210 308 431 457 723 1070 1280 2290 5170
2026-04-19 03:00 7.41 2440 26000 (2013) 146 (2000) 1390 210 308 431 457 723 1070 1280 2290 5170
2026-04-19 02:30 7.32 2370 26000 (2013) 146 (2000) 1390 210 308 431 457 723 1070 1280 2290 5170
2026-04-19 02:00 7.28 2350 26000 (2013) 146 (2000) 1390 210 308 431 457 723 1070 1280 2290 5170
2026-04-19 01:30 7.25 2330 26000 (2013) 146 (2000) 1390 210 308 431 457 723 1070 1280 2290 5170
2026-04-19 01:00 7.24 2320 26000 (2013) 146 (2000) 1390 210 308 431 457 723 1070 1280 2290 5170
2026-04-19 00:30 7.17 2270 26000 (2013) 146 (2000) 1390 210 308 431 457 723 1070 1280 2290 5170
2026-04-19 00:00 7.19 2290 26000 (2013) 146 (2000) 1390 210 308 431 457 723 1070 1280 2290 5170
2026-04-18 23:30 7.12 2240 26000 (2013) 146 (2000) 1390 210 308 431 457 723 1070 1280 2290 5170
2026-04-18 23:00 7.08 2210 26000 (2013) 146 (2000) 1390 210 308 431 457 723 1070 1280 2290 5170
2026-04-18 22:30 7.05 2190 8450 (2013) 151 (2000) 949 206 258 381 437 675 1050 1170 1670 2630
2026-04-18 22:00 7.06 2200 8450 (2013) 151 (2000) 949 206 258 381 437 675 1050 1170 1670 2630
2026-04-18 21:30 7.02 2170 8450 (2013) 151 (2000) 949 206 258 381 437 675 1050 1170 1670 2630
2026-04-18 21:00 7.03 2180 8450 (2013) 151 (2000) 949 206 258 381 437 675 1050 1170 1670 2630
2026-04-18 20:30 7.04 2180 8450 (2013) 151 (2000) 949 206 258 381 437 675 1050 1170 1670 2630
2026-04-18 20:00 7.05 2190 8450 (2013) 151 (2000) 949 206 258 381 437 675 1050 1170 1670 2630
2026-04-18 19:30 7.08 2210 8450 (2013) 151 (2000) 949 206 258 381 437 675 1050 1170 1670 2630
2026-04-18 19:00 7.09 2220 8450 (2013) 151 (2000) 949 206 258 381 437 675 1050 1170 1670 2630
2026-04-18 18:30 7.04 2180 8450 (2013) 151 (2000) 949 206 258 381 437 675 1050 1170 1670 2630
2026-04-18 18:00 6.99 2150 8450 (2013) 151 (2000) 949 206 258 381 437 675 1050 1170 1670 2630
2026-04-18 17:30 6.92 2110 8450 (2013) 151 (2000) 949 206 258 381 437 675 1050 1170 1670 2630
2026-04-18 17:00 6.85 2060 8450 (2013) 151 (2000) 949 206 258 381 437 675 1050 1170 1670 2630
2026-04-18 16:30 6.76 2010 8450 (2013) 151 (2000) 949 206 258 381 437 675 1050 1170 1670 2630
2026-04-18 16:00 6.62 1930 8450 (2013) 151 (2000) 949 206 258 381 437 675 1050 1170 1670 2630
2026-04-18 15:30 6.51 1870 8450 (2013) 151 (2000) 949 206 258 381 437 675 1050 1170 1670 2630
2026-04-18 15:00 6.39 1800 8450 (2013) 151 (2000) 949 206 258 381 437 675 1050 1170 1670 2630
2026-04-18 14:30 6.30 1760 8450 (2013) 151 (2000) 949 206 258 381 437 675 1050 1170 1670 2630
2026-04-18 14:00 6.19 1700 8450 (2013) 151 (2000) 949 206 258 381 437 675 1050 1170 1670 2630
2026-04-18 13:30 6.08 1650 8450 (2013) 151 (2000) 949 206 258 381 437 675 1050 1170 1670 2630
2026-04-18 13:00 5.94 1570 8450 (2013) 151 (2000) 949 206 258 381 437 675 1050 1170 1670 2630
2026-04-18 12:30 5.83 1520 8450 (2013) 151 (2000) 949 206 258 381 437 675 1050 1170 1670 2630
2026-04-18 12:00 5.68 1450 8450 (2013) 151 (2000) 949 206 258 381 437 675 1050 1170 1670 2630
2026-04-18 11:30 5.54 1380 8450 (2013) 151 (2000) 949 206 258 381 437 675 1050 1170 1670 2630
2026-04-18 11:00 5.39 1310 8450 (2013) 151 (2000) 949 206 258 381 437 675 1050 1170 1670 2630
2026-04-18 10:30 5.25 1240 8450 (2013) 151 (2000) 949 206 258 381 437 675 1050 1170 1670 2630
2026-04-18 10:00 5.17 1210 8450 (2013) 151 (2000) 949 206 258 381 437 675 1050 1170 1670 2630
2026-04-18 09:30 5.08 1160 8450 (2013) 151 (2000) 949 206 258 381 437 675 1050 1170 1670 2630
2026-04-18 09:00 5.06 1160 8450 (2013) 151 (2000) 949 206 258 381 437 675 1050 1170 1670 2630
2026-04-18 08:30 4.94 1100 8450 (2013) 151 (2000) 949 206 258 381 437 675 1050 1170 1670 2630
2026-04-18 08:00 4.89 1080 8450 (2013) 151 (2000) 949 206 258 381 437 675 1050 1170 1670 2630
2026-04-18 07:30 4.81 1040 8450 (2013) 151 (2000) 949 206 258 381 437 675 1050 1170 1670 2630
2026-04-18 07:00 4.70 997 8450 (2013) 151 (2000) 949 206 258 381 437 675 1050 1170 1670 2630
2026-04-18 06:30 4.71 1000 8450 (2013) 151 (2000) 949 206 258 381 437 675 1050 1170 1670 2630
2026-04-18 06:00 4.61 958 8450 (2013) 151 (2000) 949 206 258 381 437 675 1050 1170 1670 2630
2026-04-18 05:30 4.55 933 8450 (2013) 151 (2000) 949 206 258 381 437 675 1050 1170 1670 2630
2026-04-18 05:00 4.54 928 8450 (2013) 151 (2000) 949 206 258 381 437 675 1050 1170 1670 2630
2026-04-18 04:30 4.50 911 8450 (2013) 151 (2000) 949 206 258 381 437 675 1050 1170 1670 2630
2026-04-18 04:00 4.48 903 8450 (2013) 151 (2000) 949 206 258 381 437 675 1050 1170 1670 2630
2026-04-18 03:30 4.47 899 8450 (2013) 151 (2000) 949 206 258 381 437 675 1050 1170 1670 2630
2026-04-18 03:00 4.46 895 8450 (2013) 151 (2000) 949 206 258 381 437 675 1050 1170 1670 2630
2026-04-18 02:30 4.43 882 8450 (2013) 151 (2000) 949 206 258 381 437 675 1050 1170 1670 2630
2026-04-18 02:00 4.42 878 8450 (2013) 151 (2000) 949 206 258 381 437 675 1050 1170 1670 2630
2026-04-18 01:30 4.41 874 8450 (2013) 151 (2000) 949 206 258 381 437 675 1050 1170 1670 2630
2026-04-18 01:00 4.37 858 8450 (2013) 151 (2000) 949 206 258 381 437 675 1050 1170 1670 2630
2026-04-18 00:30 4.34 845 8450 (2013) 151 (2000) 949 206 258 381 437 675 1050 1170 1670 2630
2026-04-18 00:00 4.28 821 8450 (2013) 151 (2000) 949 206 258 381 437 675 1050 1170 1670 2630
2026-04-17 23:30 4.25 809 8450 (2013) 151 (2000) 949 206 258 381 437 675 1050 1170 1670 2630
2026-04-17 23:00 4.20 789 8450 (2013) 151 (2000) 949 206 258 381 437 675 1050 1170 1670 2630
2026-04-17 22:30 4.10 749 7660 (1972) 160 (2000) 922 215 291 412 420 669 1150 1270 1510 2110
2026-04-17 22:00 4.08 741 7660 (1972) 160 (2000) 922 215 291 412 420 669 1150 1270 1510 2110
2026-04-17 21:30 4.01 714 7660 (1972) 160 (2000) 922 215 291 412 420 669 1150 1270 1510 2110
2026-04-17 21:00 3.93 683 7660 (1972) 160 (2000) 922 215 291 412 420 669 1150 1270 1510 2110
2026-04-17 20:30 3.91 675 7660 (1972) 160 (2000) 922 215 291 412 420 669 1150 1270 1510 2110
2026-04-17 20:00 3.93 683 7660 (1972) 160 (2000) 922 215 291 412 420 669 1150 1270 1510 2110
2026-04-17 19:30 3.92 679 7660 (1972) 160 (2000) 922 215 291 412 420 669 1150 1270 1510 2110
2026-04-17 19:00 3.89 668 7660 (1972) 160 (2000) 922 215 291 412 420 669 1150 1270 1510 2110
2026-04-17 18:30 3.91 675 7660 (1972) 160 (2000) 922 215 291 412 420 669 1150 1270 1510 2110
2026-04-17 18:00 3.94 687 7660 (1972) 160 (2000) 922 215 291 412 420 669 1150 1270 1510 2110
2026-04-17 17:30 3.93 683 7660 (1972) 160 (2000) 922 215 291 412 420 669 1150 1270 1510 2110
2026-04-17 17:00 3.91 675 7660 (1972) 160 (2000) 922 215 291 412 420 669 1150 1270 1510 2110
2026-04-17 16:30 3.92 679 7660 (1972) 160 (2000) 922 215 291 412 420 669 1150 1270 1510 2110
2026-04-17 16:00 3.93 683 7660 (1972) 160 (2000) 922 215 291 412 420 669 1150 1270 1510 2110
2026-04-17 15:30 3.95 691 7660 (1972) 160 (2000) 922 215 291 412 420 669 1150 1270 1510 2110
2026-04-17 15:00 3.94 687 7660 (1972) 160 (2000) 922 215 291 412 420 669 1150 1270 1510 2110
2026-04-17 14:30 3.97 698 7660 (1972) 160 (2000) 922 215 291 412 420 669 1150 1270 1510 2110
2026-04-17 14:00 3.98 702 7660 (1972) 160 (2000) 922 215 291 412 420 669 1150 1270 1510 2110
2026-04-17 13:30 3.97 698 7660 (1972) 160 (2000) 922 215 291 412 420 669 1150 1270 1510 2110
2026-04-17 13:00 3.96 694 7660 (1972) 160 (2000) 922 215 291 412 420 669 1150 1270 1510 2110
2026-04-17 12:30 4.00 710 7660 (1972) 160 (2000) 922 215 291 412 420 669 1150 1270 1510 2110
2026-04-17 12:00 3.97 698 7660 (1972) 160 (2000) 922 215 291 412 420 669 1150 1270 1510 2110
2026-04-17 11:30 3.99 706 7660 (1972) 160 (2000) 922 215 291 412 420 669 1150 1270 1510 2110
2026-04-17 11:00 3.99 706 7660 (1972) 160 (2000) 922 215 291 412 420 669 1150 1270 1510 2110
2026-04-17 10:30 4.01 714 7660 (1972) 160 (2000) 922 215 291 412 420 669 1150 1270 1510 2110
2026-04-17 10:00 4.01 714 7660 (1972) 160 (2000) 922 215 291 412 420 669 1150 1270 1510 2110
2026-04-17 09:30 4.04 725 7660 (1972) 160 (2000) 922 215 291 412 420 669 1150 1270 1510 2110
2026-04-17 09:00 3.99 706 7660 (1972) 160 (2000) 922 215 291 412 420 669 1150 1270 1510 2110
2026-04-17 08:30 3.98 702 7660 (1972) 160 (2000) 922 215 291 412 420 669 1150 1270 1510 2110
2026-04-17 08:00 3.98 702 7660 (1972) 160 (2000) 922 215 291 412 420 669 1150 1270 1510 2110
2026-04-17 07:30 4.00 710 7660 (1972) 160 (2000) 922 215 291 412 420 669 1150 1270 1510 2110
2026-04-17 07:00 4.00 710 7660 (1972) 160 (2000) 922 215 291 412 420 669 1150 1270 1510 2110
2026-04-17 06:30 4.03 722 7660 (1972) 160 (2000) 922 215 291 412 420 669 1150 1270 1510 2110
2026-04-17 06:00 4.04 725 7660 (1972) 160 (2000) 922 215 291 412 420 669 1150 1270 1510 2110
2026-04-17 05:30 4.02 718 7660 (1972) 160 (2000) 922 215 291 412 420 669 1150 1270 1510 2110
2026-04-17 05:00 4.05 729 7660 (1972) 160 (2000) 922 215 291 412 420 669 1150 1270 1510 2110
2026-04-17 04:30 4.03 722 7660 (1972) 160 (2000) 922 215 291 412 420 669 1150 1270 1510 2110
2026-04-17 04:00 4.04 725 7660 (1972) 160 (2000) 922 215 291 412 420 669 1150 1270 1510 2110
2026-04-17 03:30 4.08 741 7660 (1972) 160 (2000) 922 215 291 412 420 669 1150 1270 1510 2110
2026-04-17 03:00 4.10 749 7660 (1972) 160 (2000) 922 215 291 412 420 669 1150 1270 1510 2110
2026-04-17 02:30 4.11 753 7660 (1972) 160 (2000) 922 215 291 412 420 669 1150 1270 1510 2110
2026-04-17 02:00 4.14 765 7660 (1972) 160 (2000) 922 215 291 412 420 669 1150 1270 1510 2110
2026-04-17 01:30 4.14 765 7660 (1972) 160 (2000) 922 215 291 412 420 669 1150 1270 1510 2110
2026-04-17 01:00 4.15 769 7660 (1972) 160 (2000) 922 215 291 412 420 669 1150 1270 1510 2110
2026-04-17 00:30 4.15 769 7660 (1972) 160 (2000) 922 215 291 412 420 669 1150 1270 1510 2110
2026-04-17 00:00 4.18 781 7660 (1972) 160 (2000) 922 215 291 412 420 669 1150 1270 1510 2110
2026-04-16 23:30 4.19 785 7660 (1972) 160 (2000) 922 215 291 412 420 669 1150 1270 1510 2110
2026-04-16 23:00 4.18 781 7660 (1972) 160 (2000) 922 215 291 412 420 669 1150 1270 1510 2110
2026-04-16 22:30 4.19 785 15200 (1972) 151 (2000) 1220 235 279 418 441 683 1350 1480 2110 3340
2026-04-16 22:00 4.20 789 15200 (1972) 151 (2000) 1220 235 279 418 441 683 1350 1480 2110 3340
2026-04-16 21:30 4.19 785 15200 (1972) 151 (2000) 1220 235 279 418 441 683 1350 1480 2110 3340
2026-04-16 21:00 4.19 785 15200 (1972) 151 (2000) 1220 235 279 418 441 683 1350 1480 2110 3340
2026-04-16 20:30 4.15 769 15200 (1972) 151 (2000) 1220 235 279 418 441 683 1350 1480 2110 3340
2026-04-16 20:00 4.18 781 15200 (1972) 151 (2000) 1220 235 279 418 441 683 1350 1480 2110 3340
2026-04-16 19:30 4.14 765 15200 (1972) 151 (2000) 1220 235 279 418 441 683 1350 1480 2110 3340
2026-04-16 19:00 4.14 765 15200 (1972) 151 (2000) 1220 235 279 418 441 683 1350 1480 2110 3340
2026-04-16 18:30 4.12 757 15200 (1972) 151 (2000) 1220 235 279 418 441 683 1350 1480 2110 3340
2026-04-16 18:00 4.12 757 15200 (1972) 151 (2000) 1220 235 279 418 441 683 1350 1480 2110 3340
2026-04-16 17:30 4.10 749 15200 (1972) 151 (2000) 1220 235 279 418 441 683 1350 1480 2110 3340
2026-04-16 17:00 4.08 741 15200 (1972) 151 (2000) 1220 235 279 418 441 683 1350 1480 2110 3340
2026-04-16 16:30 4.08 741 15200 (1972) 151 (2000) 1220 235 279 418 441 683 1350 1480 2110 3340
2026-04-16 16:00 4.02 718 15200 (1972) 151 (2000) 1220 235 279 418 441 683 1350 1480 2110 3340
2026-04-16 15:30 4.02 718 15200 (1972) 151 (2000) 1220 235 279 418 441 683 1350 1480 2110 3340
2026-04-16 15:00 3.97 698 15200 (1972) 151 (2000) 1220 235 279 418 441 683 1350 1480 2110 3340
2026-04-16 14:30 3.96 694 15200 (1972) 151 (2000) 1220 235 279 418 441 683 1350 1480 2110 3340
2026-04-16 14:00 3.92 679 15200 (1972) 151 (2000) 1220 235 279 418 441 683 1350 1480 2110 3340
2026-04-16 13:30 3.86 656 15200 (1972) 151 (2000) 1220 235 279 418 441 683 1350 1480 2110 3340
2026-04-16 13:00 3.79 630 15200 (1972) 151 (2000) 1220 235 279 418 441 683 1350 1480 2110 3340
2026-04-16 12:30 3.72 604 15200 (1972) 151 (2000) 1220 235 279 418 441 683 1350 1480 2110 3340
2026-04-16 12:00 3.62 568 15200 (1972) 151 (2000) 1220 235 279 418 441 683 1350 1480 2110 3340
2026-04-16 11:30 3.51 529 15200 (1972) 151 (2000) 1220 235 279 418 441 683 1350 1480 2110 3340
2026-04-16 11:00 3.47 515 15200 (1972) 151 (2000) 1220 235 279 418 441 683 1350 1480 2110 3340
2026-04-16 10:30 3.38 484 15200 (1972) 151 (2000) 1220 235 279 418 441 683 1350 1480 2110 3340
2026-04-16 10:00 3.31 460 15200 (1972) 151 (2000) 1220 235 279 418 441 683 1350 1480 2110 3340
2026-04-16 09:30 3.27 447 15200 (1972) 151 (2000) 1220 235 279 418 441 683 1350 1480 2110 3340
2026-04-16 09:00 3.24 437 15200 (1972) 151 (2000) 1220 235 279 418 441 683 1350 1480 2110 3340
2026-04-16 08:30 3.17 414 15200 (1972) 151 (2000) 1220 235 279 418 441 683 1350 1480 2110 3340
2026-04-16 08:00 3.17 414 15200 (1972) 151 (2000) 1220 235 279 418 441 683 1350 1480 2110 3340
2026-04-16 07:30 3.15 407 15200 (1972) 151 (2000) 1220 235 279 418 441 683 1350 1480 2110 3340
2026-04-16 07:00 3.13 401 15200 (1972) 151 (2000) 1220 235 279 418 441 683 1350 1480 2110 3340
2026-04-16 06:30 3.12 398 15200 (1972) 151 (2000) 1220 235 279 418 441 683 1350 1480 2110 3340
2026-04-16 06:00 3.09 389 15200 (1972) 151 (2000) 1220 235 279 418 441 683 1350 1480 2110 3340
2026-04-16 05:30 3.08 386 15200 (1972) 151 (2000) 1220 235 279 418 441 683 1350 1480 2110 3340
2026-04-16 05:00 3.06 380 15200 (1972) 151 (2000) 1220 235 279 418 441 683 1350 1480 2110 3340
2026-04-16 04:30 3.05 378 15200 (1972) 151 (2000) 1220 235 279 418 441 683 1350 1480 2110 3340
2026-04-16 04:00 3.01 366 15200 (1972) 151 (2000) 1220 235 279 418 441 683 1350 1480 2110 3340
2026-04-16 03:30 3.01 366 15200 (1972) 151 (2000) 1220 235 279 418 441 683 1350 1480 2110 3340
2026-04-16 03:00 3.00 363 15200 (1972) 151 (2000) 1220 235 279 418 441 683 1350 1480 2110 3340
2026-04-16 02:30 2.98 358 15200 (1972) 151 (2000) 1220 235 279 418 441 683 1350 1480 2110 3340
2026-04-16 02:00 2.97 355 15200 (1972) 151 (2000) 1220 235 279 418 441 683 1350 1480 2110 3340
2026-04-16 01:30 2.93 344 15200 (1972) 151 (2000) 1220 235 279 418 441 683 1350 1480 2110 3340
2026-04-16 01:00 2.94 346 15200 (1972) 151 (2000) 1220 235 279 418 441 683 1350 1480 2110 3340
2026-04-16 00:30 2.87 327 15200 (1972) 151 (2000) 1220 235 279 418 441 683 1350 1480 2110 3340
2026-04-16 00:00 2.86 324 15200 (1972) 151 (2000) 1220 235 279 418 441 683 1350 1480 2110 3340
2026-04-15 23:30 2.88 330 15200 (1972) 151 (2000) 1220 235 279 418 441 683 1350 1480 2110 3340
2026-04-15 23:00 2.86 324 15200 (1972) 151 (2000) 1220 235 279 418 441 683 1350 1480 2110 3340
2026-04-15 22:30 2.87 327 5660 (1972) 145 (2000) 1240 227 281 392 459 708 1480 1780 3380 4670
2026-04-15 22:00 2.86 324 5660 (1972) 145 (2000) 1240 227 281 392 459 708 1480 1780 3380 4670
2026-04-15 21:30 2.85 321 5660 (1972) 145 (2000) 1240 227 281 392 459 708 1480 1780 3380 4670
2026-04-15 21:00 2.86 324 5660 (1972) 145 (2000) 1240 227 281 392 459 708 1480 1780 3380 4670
2026-04-15 20:30 2.83 316 5660 (1972) 145 (2000) 1240 227 281 392 459 708 1480 1780 3380 4670
2026-04-15 20:00 2.83 316 5660 (1972) 145 (2000) 1240 227 281 392 459 708 1480 1780 3380 4670
2026-04-15 19:30 2.85 321 5660 (1972) 145 (2000) 1240 227 281 392 459 708 1480 1780 3380 4670
2026-04-15 19:00 2.84 319 5660 (1972) 145 (2000) 1240 227 281 392 459 708 1480 1780 3380 4670
2026-04-15 18:30 2.84 319 5660 (1972) 145 (2000) 1240 227 281 392 459 708 1480 1780 3380 4670
2026-04-15 18:00 2.83 316 5660 (1972) 145 (2000) 1240 227 281 392 459 708 1480 1780 3380 4670
2026-04-15 17:30 2.84 319 5660 (1972) 145 (2000) 1240 227 281 392 459 708 1480 1780 3380 4670
2026-04-15 17:00 2.83 316 5660 (1972) 145 (2000) 1240 227 281 392 459 708 1480 1780 3380 4670
2026-04-15 16:30 2.84 319 5660 (1972) 145 (2000) 1240 227 281 392 459 708 1480 1780 3380 4670
2026-04-15 16:00 2.85 321 5660 (1972) 145 (2000) 1240 227 281 392 459 708 1480 1780 3380 4670
2026-04-15 15:30 2.82 313 5660 (1972) 145 (2000) 1240 227 281 392 459 708 1480 1780 3380 4670
2026-04-15 15:00 2.82 313 5660 (1972) 145 (2000) 1240 227 281 392 459 708 1480 1780 3380 4670
2026-04-15 14:30 2.85 321 5660 (1972) 145 (2000) 1240 227 281 392 459 708 1480 1780 3380 4670
2026-04-15 14:00 2.85 321 5660 (1972) 145 (2000) 1240 227 281 392 459 708 1480 1780 3380 4670
2026-04-15 13:30 2.85 321 5660 (1972) 145 (2000) 1240 227 281 392 459 708 1480 1780 3380 4670
2026-04-15 13:00 2.82 313 5660 (1972) 145 (2000) 1240 227 281 392 459 708 1480 1780 3380 4670
2026-04-15 12:30 2.82 313 5660 (1972) 145 (2000) 1240 227 281 392 459 708 1480 1780 3380 4670
2026-04-15 12:00 2.83 316 5660 (1972) 145 (2000) 1240 227 281 392 459 708 1480 1780 3380 4670
2026-04-15 11:30 2.83 316 5660 (1972) 145 (2000) 1240 227 281 392 459 708 1480 1780 3380 4670
2026-04-15 11:00 2.82 313 5660 (1972) 145 (2000) 1240 227 281 392 459 708 1480 1780 3380 4670
2026-04-15 10:30 2.81 310 5660 (1972) 145 (2000) 1240 227 281 392 459 708 1480 1780 3380 4670
2026-04-15 10:00 2.81 310 5660 (1972) 145 (2000) 1240 227 281 392 459 708 1480 1780 3380 4670
2026-04-15 09:30 2.83 316 5660 (1972) 145 (2000) 1240 227 281 392 459 708 1480 1780 3380 4670
2026-04-15 09:00 2.82 313 5660 (1972) 145 (2000) 1240 227 281 392 459 708 1480 1780 3380 4670
2026-04-15 08:30 2.81 310 5660 (1972) 145 (2000) 1240 227 281 392 459 708 1480 1780 3380 4670
2026-04-15 08:00 2.82 313 5660 (1972) 145 (2000) 1240 227 281 392 459 708 1480 1780 3380 4670
2026-04-15 07:30 2.83 316 5660 (1972) 145 (2000) 1240 227 281 392 459 708 1480 1780 3380 4670
2026-04-15 07:00 2.82 313 5660 (1972) 145 (2000) 1240 227 281 392 459 708 1480 1780 3380 4670
2026-04-15 06:30 2.82 313 5660 (1972) 145 (2000) 1240 227 281 392 459 708 1480 1780 3380 4670
2026-04-15 06:00 2.83 316 5660 (1972) 145 (2000) 1240 227 281 392 459 708 1480 1780 3380 4670
2026-04-15 05:30 2.83 316 5660 (1972) 145 (2000) 1240 227 281 392 459 708 1480 1780 3380 4670
2026-04-15 05:00 2.82 313 5660 (1972) 145 (2000) 1240 227 281 392 459 708 1480 1780 3380 4670
2026-04-15 04:30 2.84 319 5660 (1972) 145 (2000) 1240 227 281 392 459 708 1480 1780 3380 4670
2026-04-15 04:00 2.85 321 5660 (1972) 145 (2000) 1240 227 281 392 459 708 1480 1780 3380 4670
2026-04-15 03:30 2.83 316 5660 (1972) 145 (2000) 1240 227 281 392 459 708 1480 1780 3380 4670
2026-04-15 03:00 2.83 316 5660 (1972) 145 (2000) 1240 227 281 392 459 708 1480 1780 3380 4670
2026-04-15 02:30 2.82 313 5660 (1972) 145 (2000) 1240 227 281 392 459 708 1480 1780 3380 4670
2026-04-15 02:00 2.85 321 5660 (1972) 145 (2000) 1240 227 281 392 459 708 1480 1780 3380 4670
2026-04-15 01:30 2.84 319 5660 (1972) 145 (2000) 1240 227 281 392 459 708 1480 1780 3380 4670
2026-04-15 01:00 2.85 321 5660 (1972) 145 (2000) 1240 227 281 392 459 708 1480 1780 3380 4670
2026-04-15 00:30 2.85 321 5660 (1972) 145 (2000) 1240 227 281 392 459 708 1480 1780 3380 4670
2026-04-15 00:00 2.83 316 5660 (1972) 145 (2000) 1240 227 281 392 459 708 1480 1780 3380 4670
2026-04-14 23:30 2.85 321 5660 (1972) 145 (2000) 1240 227 281 392 459 708 1480 1780 3380 4670
2026-04-14 23:00 2.86 324 5660 (1972) 145 (2000) 1240 227 281 392 459 708 1480 1780 3380 4670
2026-04-14 22:30 2.85 321 13900 (1983) 147 (2000) 1330 234 296 419 480 666 1480 1650 2910 4030
2026-04-14 22:00 2.83 316 13900 (1983) 147 (2000) 1330 234 296 419 480 666 1480 1650 2910 4030
2026-04-14 21:30 2.84 319 13900 (1983) 147 (2000) 1330 234 296 419 480 666 1480 1650 2910 4030
2026-04-14 21:00 2.84 319 13900 (1983) 147 (2000) 1330 234 296 419 480 666 1480 1650 2910 4030
2026-04-14 20:30 2.84 319 13900 (1983) 147 (2000) 1330 234 296 419 480 666 1480 1650 2910 4030
2026-04-14 20:00 2.85 321 13900 (1983) 147 (2000) 1330 234 296 419 480 666 1480 1650 2910 4030
2026-04-14 19:30 2.84 319 13900 (1983) 147 (2000) 1330 234 296 419 480 666 1480 1650 2910 4030
2026-04-14 19:00 2.85 321 13900 (1983) 147 (2000) 1330 234 296 419 480 666 1480 1650 2910 4030
2026-04-14 18:30 2.85 321 13900 (1983) 147 (2000) 1330 234 296 419 480 666 1480 1650 2910 4030
2026-04-14 18:00 2.84 319 13900 (1983) 147 (2000) 1330 234 296 419 480 666 1480 1650 2910 4030
2026-04-14 17:30 2.85 321 13900 (1983) 147 (2000) 1330 234 296 419 480 666 1480 1650 2910 4030
2026-04-14 17:00 2.86 324 13900 (1983) 147 (2000) 1330 234 296 419 480 666 1480 1650 2910 4030
2026-04-14 16:30 2.86 324 13900 (1983) 147 (2000) 1330 234 296 419 480 666 1480 1650 2910 4030
2026-04-14 16:00 2.87 327 13900 (1983) 147 (2000) 1330 234 296 419 480 666 1480 1650 2910 4030
2026-04-14 15:30 2.86 324 13900 (1983) 147 (2000) 1330 234 296 419 480 666 1480 1650 2910 4030
2026-04-14 15:00 2.86 324 13900 (1983) 147 (2000) 1330 234 296 419 480 666 1480 1650 2910 4030
2026-04-14 14:30 2.85 321 13900 (1983) 147 (2000) 1330 234 296 419 480 666 1480 1650 2910 4030
2026-04-14 14:00 2.86 324 13900 (1983) 147 (2000) 1330 234 296 419 480 666 1480 1650 2910 4030
2026-04-14 13:30 2.87 327 13900 (1983) 147 (2000) 1330 234 296 419 480 666 1480 1650 2910 4030
2026-04-14 13:00 2.85 321 13900 (1983) 147 (2000) 1330 234 296 419 480 666 1480 1650 2910 4030
2026-04-14 12:30 2.86 324 13900 (1983) 147 (2000) 1330 234 296 419 480 666 1480 1650 2910 4030
2026-04-14 12:00 2.86 324 13900 (1983) 147 (2000) 1330 234 296 419 480 666 1480 1650 2910 4030
2026-04-14 10:00 2.89 332 13900 (1983) 147 (2000) 1330 234 296 419 480 666 1480 1650 2910 4030
2026-04-14 09:00 2.88 330 13900 (1983) 147 (2000) 1330 234 296 419 480 666 1480 1650 2910 4030
2026-04-14 08:30 2.88 330 13900 (1983) 147 (2000) 1330 234 296 419 480 666 1480 1650 2910 4030
2026-04-14 08:00 2.86 324 13900 (1983) 147 (2000) 1330 234 296 419 480 666 1480 1650 2910 4030
2026-04-14 07:30 2.87 327 13900 (1983) 147 (2000) 1330 234 296 419 480 666 1480 1650 2910 4030
2026-04-14 07:00 2.87 327 13900 (1983) 147 (2000) 1330 234 296 419 480 666 1480 1650 2910 4030
2026-04-14 06:30 2.88 330 13900 (1983) 147 (2000) 1330 234 296 419 480 666 1480 1650 2910 4030
2026-04-14 06:00 2.86 324 13900 (1983) 147 (2000) 1330 234 296 419 480 666 1480 1650 2910 4030
2026-04-14 05:30 2.87 327 13900 (1983) 147 (2000) 1330 234 296 419 480 666 1480 1650 2910 4030
2026-04-14 05:00 2.88 330 13900 (1983) 147 (2000) 1330 234 296 419 480 666 1480 1650 2910 4030
2026-04-14 04:30 2.89 332 13900 (1983) 147 (2000) 1330 234 296 419 480 666 1480 1650 2910 4030
2026-04-14 04:00 2.87 327 13900 (1983) 147 (2000) 1330 234 296 419 480 666 1480 1650 2910 4030
2026-04-14 03:30 2.89 332 13900 (1983) 147 (2000) 1330 234 296 419 480 666 1480 1650 2910 4030
2026-04-14 03:00 2.90 335 13900 (1983) 147 (2000) 1330 234 296 419 480 666 1480 1650 2910 4030
2026-04-14 02:30 2.90 335 13900 (1983) 147 (2000) 1330 234 296 419 480 666 1480 1650 2910 4030
2026-04-14 02:00 2.89 332 13900 (1983) 147 (2000) 1330 234 296 419 480 666 1480 1650 2910 4030
2026-04-14 01:30 2.89 332 13900 (1983) 147 (2000) 1330 234 296 419 480 666 1480 1650 2910 4030
2026-04-14 01:00 2.90 335 13900 (1983) 147 (2000) 1330 234 296 419 480 666 1480 1650 2910 4030
2026-04-14 00:30 2.92 341 13900 (1983) 147 (2000) 1330 234 296 419 480 666 1480 1650 2910 4030
2026-04-14 00:00 2.89 332 13900 (1983) 147 (2000) 1330 234 296 419 480 666 1480 1650 2910 4030
2026-04-13 23:30 2.89 332 13900 (1983) 147 (2000) 1330 234 296 419 480 666 1480 1650 2910 4030
2026-04-13 23:00 2.89 332 13900 (1983) 147 (2000) 1330 234 296 419 480 666 1480 1650 2910 4030
2026-04-13 22:30 2.89 332 15800 (1994) 153 (2000) 1280 208 280 402 430 626 1210 1270 1990 3940
2026-04-13 22:00 2.91 338 15800 (1994) 153 (2000) 1280 208 280 402 430 626 1210 1270 1990 3940
2026-04-13 21:30 2.88 330 15800 (1994) 153 (2000) 1280 208 280 402 430 626 1210 1270 1990 3940
2026-04-13 21:00 2.89 332 15800 (1994) 153 (2000) 1280 208 280 402 430 626 1210 1270 1990 3940
2026-04-13 20:30 2.89 332 15800 (1994) 153 (2000) 1280 208 280 402 430 626 1210 1270 1990 3940
2026-04-13 20:00 2.90 335 15800 (1994) 153 (2000) 1280 208 280 402 430 626 1210 1270 1990 3940
2026-04-13 19:30 2.90 335 15800 (1994) 153 (2000) 1280 208 280 402 430 626 1210 1270 1990 3940
2026-04-13 19:00 2.92 341 15800 (1994) 153 (2000) 1280 208 280 402 430 626 1210 1270 1990 3940
2026-04-13 18:30 2.91 338 15800 (1994) 153 (2000) 1280 208 280 402 430 626 1210 1270 1990 3940
2026-04-13 18:00 2.90 335 15800 (1994) 153 (2000) 1280 208 280 402 430 626 1210 1270 1990 3940
2026-04-13 17:30 2.91 338 15800 (1994) 153 (2000) 1280 208 280 402 430 626 1210 1270 1990 3940
2026-04-13 17:00 2.90 335 15800 (1994) 153 (2000) 1280 208 280 402 430 626 1210 1270 1990 3940
2026-04-13 16:30 2.90 335 15800 (1994) 153 (2000) 1280 208 280 402 430 626 1210 1270 1990 3940
2026-04-13 16:00 2.92 341 15800 (1994) 153 (2000) 1280 208 280 402 430 626 1210 1270 1990 3940
2026-04-13 15:30 2.92 341 15800 (1994) 153 (2000) 1280 208 280 402 430 626 1210 1270 1990 3940
2026-04-13 15:00 2.91 338 15800 (1994) 153 (2000) 1280 208 280 402 430 626 1210 1270 1990 3940
2026-04-13 14:30 2.91 338 15800 (1994) 153 (2000) 1280 208 280 402 430 626 1210 1270 1990 3940
2026-04-13 14:00 2.92 341 15800 (1994) 153 (2000) 1280 208 280 402 430 626 1210 1270 1990 3940
2026-04-13 13:30 2.92 341 15800 (1994) 153 (2000) 1280 208 280 402 430 626 1210 1270 1990 3940
2026-04-13 13:00 2.93 344 15800 (1994) 153 (2000) 1280 208 280 402 430 626 1210 1270 1990 3940
2026-04-13 12:30 2.94 346 15800 (1994) 153 (2000) 1280 208 280 402 430 626 1210 1270 1990 3940
2026-04-13 12:00 2.92 341 15800 (1994) 153 (2000) 1280 208 280 402 430 626 1210 1270 1990 3940
2026-04-13 11:30 2.93 344 15800 (1994) 153 (2000) 1280 208 280 402 430 626 1210 1270 1990 3940
2026-04-13 11:00 2.93 344 15800 (1994) 153 (2000) 1280 208 280 402 430 626 1210 1270 1990 3940
2026-04-13 10:30 2.93 344 15800 (1994) 153 (2000) 1280 208 280 402 430 626 1210 1270 1990 3940
2026-04-13 10:00 2.92 341 15800 (1994) 153 (2000) 1280 208 280 402 430 626 1210 1270 1990 3940
2026-04-13 09:30 2.93 344 15800 (1994) 153 (2000) 1280 208 280 402 430 626 1210 1270 1990 3940
2026-04-13 09:00 2.92 341 15800 (1994) 153 (2000) 1280 208 280 402 430 626 1210 1270 1990 3940
2026-04-13 08:30 2.93 344 15800 (1994) 153 (2000) 1280 208 280 402 430 626 1210 1270 1990 3940
2026-04-13 08:00 2.93 344 15800 (1994) 153 (2000) 1280 208 280 402 430 626 1210 1270 1990 3940
2026-04-13 07:30 2.94 346 15800 (1994) 153 (2000) 1280 208 280 402 430 626 1210 1270 1990 3940
2026-04-13 07:00 2.93 344 15800 (1994) 153 (2000) 1280 208 280 402 430 626 1210 1270 1990 3940
2026-04-13 06:30 2.95 349 15800 (1994) 153 (2000) 1280 208 280 402 430 626 1210 1270 1990 3940
2026-04-13 06:00 2.94 346 15800 (1994) 153 (2000) 1280 208 280 402 430 626 1210 1270 1990 3940
2026-04-13 05:30 2.93 344 15800 (1994) 153 (2000) 1280 208 280 402 430 626 1210 1270 1990 3940
2026-04-13 05:00 2.94 346 15800 (1994) 153 (2000) 1280 208 280 402 430 626 1210 1270 1990 3940
2026-04-13 04:30 2.94 346 15800 (1994) 153 (2000) 1280 208 280 402 430 626 1210 1270 1990 3940
2026-04-13 04:00 2.94 346 15800 (1994) 153 (2000) 1280 208 280 402 430 626 1210 1270 1990 3940
2026-04-13 03:30 2.94 346 15800 (1994) 153 (2000) 1280 208 280 402 430 626 1210 1270 1990 3940
2026-04-13 03:00 2.94 346 15800 (1994) 153 (2000) 1280 208 280 402 430 626 1210 1270 1990 3940
2026-04-13 02:30 2.95 349 15800 (1994) 153 (2000) 1280 208 280 402 430 626 1210 1270 1990 3940
2026-04-13 02:00 2.94 346 15800 (1994) 153 (2000) 1280 208 280 402 430 626 1210 1270 1990 3940
2026-04-13 01:30 2.94 346 15800 (1994) 153 (2000) 1280 208 280 402 430 626 1210 1270 1990 3940
2026-04-13 01:00 2.94 346 15800 (1994) 153 (2000) 1280 208 280 402 430 626 1210 1270 1990 3940
2026-04-13 00:30 2.94 346 15800 (1994) 153 (2000) 1280 208 280 402 430 626 1210 1270 1990 3940
2026-04-13 00:00 2.94 346 15800 (1994) 153 (2000) 1280 208 280 402 430 626 1210 1270 1990 3940
2026-04-12 23:30 2.94 346 15800 (1994) 153 (2000) 1280 208 280 402 430 626 1210 1270 1990 3940
2026-04-12 23:00 2.95 349 15800 (1994) 153 (2000) 1280 208 280 402 430 626 1210 1270 1990 3940
2026-04-12 22:30 2.95 349 36300 (1994) 140 (1981) 1870 188 285 409 447 636 1320 1380 2230 6280
2026-04-12 22:00 2.96 352 36300 (1994) 140 (1981) 1870 188 285 409 447 636 1320 1380 2230 6280
2026-04-12 21:30 2.96 352 36300 (1994) 140 (1981) 1870 188 285 409 447 636 1320 1380 2230 6280
2026-04-12 21:00 2.94 346 36300 (1994) 140 (1981) 1870 188 285 409 447 636 1320 1380 2230 6280
2026-04-12 20:30 2.95 349 36300 (1994) 140 (1981) 1870 188 285 409 447 636 1320 1380 2230 6280
2026-04-12 20:00 2.96 352 36300 (1994) 140 (1981) 1870 188 285 409 447 636 1320 1380 2230 6280
2026-04-12 19:30 2.95 349 36300 (1994) 140 (1981) 1870 188 285 409 447 636 1320 1380 2230 6280
2026-04-12 19:00 2.96 352 36300 (1994) 140 (1981) 1870 188 285 409 447 636 1320 1380 2230 6280
2026-04-12 18:30 2.96 352 36300 (1994) 140 (1981) 1870 188 285 409 447 636 1320 1380 2230 6280
2026-04-12 18:00 2.95 349 36300 (1994) 140 (1981) 1870 188 285 409 447 636 1320 1380 2230 6280
2026-04-12 17:30 2.96 352 36300 (1994) 140 (1981) 1870 188 285 409 447 636 1320 1380 2230 6280
2026-04-12 17:00 2.97 355 36300 (1994) 140 (1981) 1870 188 285 409 447 636 1320 1380 2230 6280
2026-04-12 16:30 2.98 358 36300 (1994) 140 (1981) 1870 188 285 409 447 636 1320 1380 2230 6280
2026-04-12 16:00 2.98 358 36300 (1994) 140 (1981) 1870 188 285 409 447 636 1320 1380 2230 6280
2026-04-12 15:30 2.99 360 36300 (1994) 140 (1981) 1870 188 285 409 447 636 1320 1380 2230 6280
2026-04-12 15:00 2.99 360 36300 (1994) 140 (1981) 1870 188 285 409 447 636 1320 1380 2230 6280
2026-04-12 14:30 2.97 355 36300 (1994) 140 (1981) 1870 188 285 409 447 636 1320 1380 2230 6280
2026-04-12 14:00 2.96 352 36300 (1994) 140 (1981) 1870 188 285 409 447 636 1320 1380 2230 6280
2026-04-12 13:30 2.98 358 36300 (1994) 140 (1981) 1870 188 285 409 447 636 1320 1380 2230 6280
2026-04-12 13:00 2.98 358 36300 (1994) 140 (1981) 1870 188 285 409 447 636 1320 1380 2230 6280
2026-04-12 12:30 2.98 358 36300 (1994) 140 (1981) 1870 188 285 409 447 636 1320 1380 2230 6280
2026-04-12 12:00 3.00 363 36300 (1994) 140 (1981) 1870 188 285 409 447 636 1320 1380 2230 6280
2026-04-12 11:30 2.98 358 36300 (1994) 140 (1981) 1870 188 285 409 447 636 1320 1380 2230 6280
2026-04-12 11:00 2.98 358 36300 (1994) 140 (1981) 1870 188 285 409 447 636 1320 1380 2230 6280
2026-04-12 10:30 2.98 358 36300 (1994) 140 (1981) 1870 188 285 409 447 636 1320 1380 2230 6280
2026-04-12 10:00 3.00 363 36300 (1994) 140 (1981) 1870 188 285 409 447 636 1320 1380 2230 6280
2026-04-12 09:30 2.99 360 36300 (1994) 140 (1981) 1870 188 285 409 447 636 1320 1380 2230 6280
2026-04-12 09:00 2.98 358 36300 (1994) 140 (1981) 1870 188 285 409 447 636 1320 1380 2230 6280
2026-04-12 08:30 3.00 363 36300 (1994) 140 (1981) 1870 188 285 409 447 636 1320 1380 2230 6280
2026-04-12 08:00 3.01 366 36300 (1994) 140 (1981) 1870 188 285 409 447 636 1320 1380 2230 6280
2026-04-12 07:30 2.99 360 36300 (1994) 140 (1981) 1870 188 285 409 447 636 1320 1380 2230 6280
2026-04-12 07:00 3.01 366 36300 (1994) 140 (1981) 1870 188 285 409 447 636 1320 1380 2230 6280
2026-04-12 06:30 3.00 363 36300 (1994) 140 (1981) 1870 188 285 409 447 636 1320 1380 2230 6280
2026-04-12 06:00 2.99 360 36300 (1994) 140 (1981) 1870 188 285 409 447 636 1320 1380 2230 6280
2026-04-12 05:30 3.00 363 36300 (1994) 140 (1981) 1870 188 285 409 447 636 1320 1380 2230 6280
2026-04-12 05:00 3.00 363 36300 (1994) 140 (1981) 1870 188 285 409 447 636 1320 1380 2230 6280
2026-04-12 04:30 2.99 360 36300 (1994) 140 (1981) 1870 188 285 409 447 636 1320 1380 2230 6280
2026-04-12 04:00 3.02 369 36300 (1994) 140 (1981) 1870 188 285 409 447 636 1320 1380 2230 6280
2026-04-12 03:30 3.01 366 36300 (1994) 140 (1981) 1870 188 285 409 447 636 1320 1380 2230 6280
2026-04-12 02:30 3.02 369 36300 (1994) 140 (1981) 1870 188 285 409 447 636 1320 1380 2230 6280
2026-04-12 02:00 3.00 363 36300 (1994) 140 (1981) 1870 188 285 409 447 636 1320 1380 2230 6280
2026-04-12 01:30 3.00 363 36300 (1994) 140 (1981) 1870 188 285 409 447 636 1320 1380 2230 6280
2026-04-12 01:00 3.01 366 36300 (1994) 140 (1981) 1870 188 285 409 447 636 1320 1380 2230 6280
2026-04-12 00:30 3.01 366 36300 (1994) 140 (1981) 1870 188 285 409 447 636 1320 1380 2230 6280
2026-04-12 00:00 3.00 363 36300 (1994) 140 (1981) 1870 188 285 409 447 636 1320 1380 2230 6280
2026-04-11 23:30 3.02 369 36300 (1994) 140 (1981) 1870 188 285 409 447 636 1320 1380 2230 6280
2026-04-11 23:00 3.01 366 36300 (1994) 140 (1981) 1870 188 285 409 447 636 1320 1380 2230 6280
2026-04-11 22:30 3.01 366 33700 (1994) 142 (1981) 1680 197 285 367 411 653 1010 1350 2190 4980
2026-04-11 22:00 3.01 366 33700 (1994) 142 (1981) 1680 197 285 367 411 653 1010 1350 2190 4980
2026-04-11 21:30 3.02 369 33700 (1994) 142 (1981) 1680 197 285 367 411 653 1010 1350 2190 4980
2026-04-11 21:00 3.02 369 33700 (1994) 142 (1981) 1680 197 285 367 411 653 1010 1350 2190 4980
2026-04-11 20:30 3.01 366 33700 (1994) 142 (1981) 1680 197 285 367 411 653 1010 1350 2190 4980
2026-04-11 20:00 3.02 369 33700 (1994) 142 (1981) 1680 197 285 367 411 653 1010 1350 2190 4980
2026-04-11 19:30 3.03 372 33700 (1994) 142 (1981) 1680 197 285 367 411 653 1010 1350 2190 4980
2026-04-11 19:00 3.01 366 33700 (1994) 142 (1981) 1680 197 285 367 411 653 1010 1350 2190 4980
2026-04-11 18:30 3.02 369 33700 (1994) 142 (1981) 1680 197 285 367 411 653 1010 1350 2190 4980
2026-04-11 18:00 3.03 372 33700 (1994) 142 (1981) 1680 197 285 367 411 653 1010 1350 2190 4980
2026-04-11 17:30 3.04 375 33700 (1994) 142 (1981) 1680 197 285 367 411 653 1010 1350 2190 4980
2026-04-11 17:00 3.03 372 33700 (1994) 142 (1981) 1680 197 285 367 411 653 1010 1350 2190 4980
2026-04-11 16:30 3.04 375 33700 (1994) 142 (1981) 1680 197 285 367 411 653 1010 1350 2190 4980
2026-04-11 16:00 3.01 366 33700 (1994) 142 (1981) 1680 197 285 367 411 653 1010 1350 2190 4980
2026-04-11 15:30 3.02 369 33700 (1994) 142 (1981) 1680 197 285 367 411 653 1010 1350 2190 4980
2026-04-11 15:00 3.04 375 33700 (1994) 142 (1981) 1680 197 285 367 411 653 1010 1350 2190 4980
2026-04-11 14:30 3.03 372 33700 (1994) 142 (1981) 1680 197 285 367 411 653 1010 1350 2190 4980
2026-04-11 14:00 3.02 369 33700 (1994) 142 (1981) 1680 197 285 367 411 653 1010 1350 2190 4980
2026-04-11 13:30 3.04 375 33700 (1994) 142 (1981) 1680 197 285 367 411 653 1010 1350 2190 4980
2026-04-11 13:00 3.04 375 33700 (1994) 142 (1981) 1680 197 285 367 411 653 1010 1350 2190 4980
2026-04-11 12:30 3.03 372 33700 (1994) 142 (1981) 1680 197 285 367 411 653 1010 1350 2190 4980
2026-04-11 12:00 3.03 372 33700 (1994) 142 (1981) 1680 197 285 367 411 653 1010 1350 2190 4980
2026-04-11 11:30 3.04 375 33700 (1994) 142 (1981) 1680 197 285 367 411 653 1010 1350 2190 4980
2026-04-11 11:00 3.04 375 33700 (1994) 142 (1981) 1680 197 285 367 411 653 1010 1350 2190 4980
2026-04-11 10:30 3.04 375 33700 (1994) 142 (1981) 1680 197 285 367 411 653 1010 1350 2190 4980
2026-04-11 10:00 3.05 378 33700 (1994) 142 (1981) 1680 197 285 367 411 653 1010 1350 2190 4980
2026-04-11 09:30 3.04 375 33700 (1994) 142 (1981) 1680 197 285 367 411 653 1010 1350 2190 4980
2026-04-11 09:00 3.04 375 33700 (1994) 142 (1981) 1680 197 285 367 411 653 1010 1350 2190 4980
2026-04-11 08:30 3.06 380 33700 (1994) 142 (1981) 1680 197 285 367 411 653 1010 1350 2190 4980
2026-04-11 08:00 3.04 375 33700 (1994) 142 (1981) 1680 197 285 367 411 653 1010 1350 2190 4980
2026-04-11 07:30 3.06 380 33700 (1994) 142 (1981) 1680 197 285 367 411 653 1010 1350 2190 4980
2026-04-11 07:00 3.06 380 33700 (1994) 142 (1981) 1680 197 285 367 411 653 1010 1350 2190 4980
2026-04-11 06:30 3.05 378 33700 (1994) 142 (1981) 1680 197 285 367 411 653 1010 1350 2190 4980
2026-04-11 06:00 3.06 380 33700 (1994) 142 (1981) 1680 197 285 367 411 653 1010 1350 2190 4980
2026-04-11 05:30 3.05 378 33700 (1994) 142 (1981) 1680 197 285 367 411 653 1010 1350 2190 4980
2026-04-11 05:00 3.05 378 33700 (1994) 142 (1981) 1680 197 285 367 411 653 1010 1350 2190 4980
2026-04-11 04:30 3.06 380 33700 (1994) 142 (1981) 1680 197 285 367 411 653 1010 1350 2190 4980
2026-04-11 04:00 3.06 380 33700 (1994) 142 (1981) 1680 197 285 367 411 653 1010 1350 2190 4980
2026-04-11 03:30 3.08 386 33700 (1994) 142 (1981) 1680 197 285 367 411 653 1010 1350 2190 4980
2026-04-11 03:00 3.08 386 33700 (1994) 142 (1981) 1680 197 285 367 411 653 1010 1350 2190 4980
2026-04-11 02:30 3.08 386 33700 (1994) 142 (1981) 1680 197 285 367 411 653 1010 1350 2190 4980
2026-04-11 02:00 3.06 380 33700 (1994) 142 (1981) 1680 197 285 367 411 653 1010 1350 2190 4980
2026-04-11 01:30 3.06 380 33700 (1994) 142 (1981) 1680 197 285 367 411 653 1010 1350 2190 4980
2026-04-11 01:00 3.07 383 33700 (1994) 142 (1981) 1680 197 285 367 411 653 1010 1350 2190 4980
2026-04-11 00:30 3.07 383 33700 (1994) 142 (1981) 1680 197 285 367 411 653 1010 1350 2190 4980
2026-04-11 00:00 3.06 380 33700 (1994) 142 (1981) 1680 197 285 367 411 653 1010 1350 2190 4980
2026-04-10 23:30 3.08 386 33700 (1994) 142 (1981) 1680 197 285 367 411 653 1010 1350 2190 4980
2026-04-10 23:00 3.10 392 33700 (1994) 142 (1981) 1680 197 285 367 411 653 1010 1350 2190 4980
2026-04-10 22:30 3.07 383 10200 (1994) 147 (1981) 1120 197 271 347 384 693 1060 1200 1960 5240
2026-04-10 22:00 3.09 389 10200 (1994) 147 (1981) 1120 197 271 347 384 693 1060 1200 1960 5240
2026-04-10 21:30 3.10 392 10200 (1994) 147 (1981) 1120 197 271 347 384 693 1060 1200 1960 5240
2026-04-10 21:00 3.09 389 10200 (1994) 147 (1981) 1120 197 271 347 384 693 1060 1200 1960 5240
2026-04-10 20:30 3.08 386 10200 (1994) 147 (1981) 1120 197 271 347 384 693 1060 1200 1960 5240
2026-04-10 20:00 3.10 392 10200 (1994) 147 (1981) 1120 197 271 347 384 693 1060 1200 1960 5240
2026-04-10 19:30 3.09 389 10200 (1994) 147 (1981) 1120 197 271 347 384 693 1060 1200 1960 5240
2026-04-10 19:00 3.10 392 10200 (1994) 147 (1981) 1120 197 271 347 384 693 1060 1200 1960 5240
2026-04-10 18:30 3.11 395 10200 (1994) 147 (1981) 1120 197 271 347 384 693 1060 1200 1960 5240
2026-04-10 18:00 3.11 395 10200 (1994) 147 (1981) 1120 197 271 347 384 693 1060 1200 1960 5240
2026-04-10 17:30 3.09 389 10200 (1994) 147 (1981) 1120 197 271 347 384 693 1060 1200 1960 5240
2026-04-10 17:00 3.10 392 10200 (1994) 147 (1981) 1120 197 271 347 384 693 1060 1200 1960 5240
2026-04-10 16:30 3.10 392 10200 (1994) 147 (1981) 1120 197 271 347 384 693 1060 1200 1960 5240
2026-04-10 16:00 3.12 398 10200 (1994) 147 (1981) 1120 197 271 347 384 693 1060 1200 1960 5240
2026-04-10 15:30 3.11 395 10200 (1994) 147 (1981) 1120 197 271 347 384 693 1060 1200 1960 5240
2026-04-10 15:00 3.13 401 10200 (1994) 147 (1981) 1120 197 271 347 384 693 1060 1200 1960 5240
2026-04-10 14:30 3.10 392 10200 (1994) 147 (1981) 1120 197 271 347 384 693 1060 1200 1960 5240
2026-04-10 14:00 3.12 398 10200 (1994) 147 (1981) 1120 197 271 347 384 693 1060 1200 1960 5240
2026-04-10 13:30 3.12 398 10200 (1994) 147 (1981) 1120 197 271 347 384 693 1060 1200 1960 5240
2026-04-10 13:00 3.13 401 10200 (1994) 147 (1981) 1120 197 271 347 384 693 1060 1200 1960 5240
2026-04-10 12:30 3.14 404 10200 (1994) 147 (1981) 1120 197 271 347 384 693 1060 1200 1960 5240
2026-04-10 12:00 3.13 401 10200 (1994) 147 (1981) 1120 197 271 347 384 693 1060 1200 1960 5240
2026-04-10 11:30 3.14 404 10200 (1994) 147 (1981) 1120 197 271 347 384 693 1060 1200 1960 5240
2026-04-10 11:00 3.12 398 10200 (1994) 147 (1981) 1120 197 271 347 384 693 1060 1200 1960 5240
2026-04-10 10:30 3.14 404 10200 (1994) 147 (1981) 1120 197 271 347 384 693 1060 1200 1960 5240
2026-04-10 10:00 3.15 407 10200 (1994) 147 (1981) 1120 197 271 347 384 693 1060 1200 1960 5240
2026-04-10 09:30 3.15 407 10200 (1994) 147 (1981) 1120 197 271 347 384 693 1060 1200 1960 5240
2026-04-10 09:00 3.13 401 10200 (1994) 147 (1981) 1120 197 271 347 384 693 1060 1200 1960 5240
2026-04-10 08:30 3.14 404 10200 (1994) 147 (1981) 1120 197 271 347 384 693 1060 1200 1960 5240
2026-04-10 08:00 3.15 407 10200 (1994) 147 (1981) 1120 197 271 347 384 693 1060 1200 1960 5240
2026-04-10 07:30 3.14 404 10200 (1994) 147 (1981) 1120 197 271 347 384 693 1060 1200 1960 5240
2026-04-10 07:00 3.14 404 10200 (1994) 147 (1981) 1120 197 271 347 384 693 1060 1200 1960 5240
2026-04-10 06:30 3.17 414 10200 (1994) 147 (1981) 1120 197 271 347 384 693 1060 1200 1960 5240
2026-04-10 06:00 3.15 407 10200 (1994) 147 (1981) 1120 197 271 347 384 693 1060 1200 1960 5240
2026-04-10 05:30 3.15 407 10200 (1994) 147 (1981) 1120 197 271 347 384 693 1060 1200 1960 5240
2026-04-10 05:00 3.16 410 10200 (1994) 147 (1981) 1120 197 271 347 384 693 1060 1200 1960 5240
2026-04-10 04:30 3.18 417 10200 (1994) 147 (1981) 1120 197 271 347 384 693 1060 1200 1960 5240
2026-04-10 04:00 3.16 410 10200 (1994) 147 (1981) 1120 197 271 347 384 693 1060 1200 1960 5240
2026-04-10 03:30 3.16 410 10200 (1994) 147 (1981) 1120 197 271 347 384 693 1060 1200 1960 5240
2026-04-10 03:00 3.17 414 10200 (1994) 147 (1981) 1120 197 271 347 384 693 1060 1200 1960 5240
2026-04-10 02:30 3.17 414 10200 (1994) 147 (1981) 1120 197 271 347 384 693 1060 1200 1960 5240
2026-04-10 02:00 3.19 420 10200 (1994) 147 (1981) 1120 197 271 347 384 693 1060 1200 1960 5240
2026-04-10 01:30 3.18 417 10200 (1994) 147 (1981) 1120 197 271 347 384 693 1060 1200 1960 5240
2026-04-10 01:00 3.20 423 10200 (1994) 147 (1981) 1120 197 271 347 384 693 1060 1200 1960 5240
2026-04-10 00:30 3.18 417 10200 (1994) 147 (1981) 1120 197 271 347 384 693 1060 1200 1960 5240
2026-04-10 00:00 3.19 420 10200 (1994) 147 (1981) 1120 197 271 347 384 693 1060 1200 1960 5240
2026-04-09 23:30 3.19 420 10200 (1994) 147 (1981) 1120 197 271 347 384 693 1060 1200 1960 5240
2026-04-09 23:00 3.21 427 10200 (1994) 147 (1981) 1120 197 271 347 384 693 1060 1200 1960 5240
2026-04-09 22:30 3.20 423 17200 (2015) 157 (1981) 1110 187 279 376 411 687 1080 1170 1790 2590
2026-04-09 22:00 3.19 420 17200 (2015) 157 (1981) 1110 187 279 376 411 687 1080 1170 1790 2590
2026-04-09 21:30 3.21 427 17200 (2015) 157 (1981) 1110 187 279 376 411 687 1080 1170 1790 2590
2026-04-09 21:00 3.21 427 17200 (2015) 157 (1981) 1110 187 279 376 411 687 1080 1170 1790 2590
2026-04-09 20:30 3.19 420 17200 (2015) 157 (1981) 1110 187 279 376 411 687 1080 1170 1790 2590
2026-04-09 20:00 3.21 427 17200 (2015) 157 (1981) 1110 187 279 376 411 687 1080 1170 1790 2590
2026-04-09 19:30 3.21 427 17200 (2015) 157 (1981) 1110 187 279 376 411 687 1080 1170 1790 2590
2026-04-09 19:00 3.22 430 17200 (2015) 157 (1981) 1110 187 279 376 411 687 1080 1170 1790 2590
2026-04-09 18:30 3.21 427 17200 (2015) 157 (1981) 1110 187 279 376 411 687 1080 1170 1790 2590
2026-04-09 18:00 3.20 423 17200 (2015) 157 (1981) 1110 187 279 376 411 687 1080 1170 1790 2590
2026-04-09 17:30 3.21 427 17200 (2015) 157 (1981) 1110 187 279 376 411 687 1080 1170 1790 2590
2026-04-09 17:00 3.21 427 17200 (2015) 157 (1981) 1110 187 279 376 411 687 1080 1170 1790 2590
2026-04-09 16:30 3.21 427 17200 (2015) 157 (1981) 1110 187 279 376 411 687 1080 1170 1790 2590
2026-04-09 16:00 3.23 433 17200 (2015) 157 (1981) 1110 187 279 376 411 687 1080 1170 1790 2590
2026-04-09 15:30 3.23 433 17200 (2015) 157 (1981) 1110 187 279 376 411 687 1080 1170 1790 2590
2026-04-09 15:00 3.23 480 17200 (2015) 157 (1981) 1110 187 279 376 411 687 1080 1170 1790 2590
2026-04-09 14:30 3.24 484 17200 (2015) 157 (1981) 1110 187 279 376 411 687 1080 1170 1790 2590
2026-04-09 14:00 3.25 487 17200 (2015) 157 (1981) 1110 187 279 376 411 687 1080 1170 1790 2590
2026-04-09 13:30 3.24 484 17200 (2015) 157 (1981) 1110 187 279 376 411 687 1080 1170 1790 2590
2026-04-09 13:00 3.26 490 17200 (2015) 157 (1981) 1110 187 279 376 411 687 1080 1170 1790 2590
2026-04-09 12:30 3.26 490 17200 (2015) 157 (1981) 1110 187 279 376 411 687 1080 1170 1790 2590
2026-04-09 12:00 3.27 494 17200 (2015) 157 (1981) 1110 187 279 376 411 687 1080 1170 1790 2590
2026-04-09 11:30 3.26 490 17200 (2015) 157 (1981) 1110 187 279 376 411 687 1080 1170 1790 2590
2026-04-09 11:00 3.27 494 17200 (2015) 157 (1981) 1110 187 279 376 411 687 1080 1170 1790 2590
2026-04-09 10:30 3.29 500 17200 (2015) 157 (1981) 1110 187 279 376 411 687 1080 1170 1790 2590
2026-04-09 10:00 3.27 494 17200 (2015) 157 (1981) 1110 187 279 376 411 687 1080 1170 1790 2590
2026-04-09 09:30 3.28 497 17200 (2015) 157 (1981) 1110 187 279 376 411 687 1080 1170 1790 2590
2026-04-09 09:00 3.30 504 17200 (2015) 157 (1981) 1110 187 279 376 411 687 1080 1170 1790 2590
2026-04-09 08:30 3.29 500 17200 (2015) 157 (1981) 1110 187 279 376 411 687 1080 1170 1790 2590
2026-04-09 08:00 3.29 500 17200 (2015) 157 (1981) 1110 187 279 376 411 687 1080 1170 1790 2590
2026-04-09 07:30 3.27 494 17200 (2015) 157 (1981) 1110 187 279 376 411 687 1080 1170 1790 2590
2026-04-09 07:00 3.27 494 17200 (2015) 157 (1981) 1110 187 279 376 411 687 1080 1170 1790 2590
2026-04-09 06:30 3.28 497 17200 (2015) 157 (1981) 1110 187 279 376 411 687 1080 1170 1790 2590
2026-04-09 06:00 3.31 507 17200 (2015) 157 (1981) 1110 187 279 376 411 687 1080 1170 1790 2590
2026-04-09 05:30 3.32 510 17200 (2015) 157 (1981) 1110 187 279 376 411 687 1080 1170 1790 2590
2026-04-09 05:00 3.30 504 17200 (2015) 157 (1981) 1110 187 279 376 411 687 1080 1170 1790 2590
2026-04-09 04:30 3.30 504 17200 (2015) 157 (1981) 1110 187 279 376 411 687 1080 1170 1790 2590
2026-04-09 04:00 3.32 510 17200 (2015) 157 (1981) 1110 187 279 376 411 687 1080 1170 1790 2590
2026-04-09 03:30 3.30 504 17200 (2015) 157 (1981) 1110 187 279 376 411 687 1080 1170 1790 2590
2026-04-09 03:00 3.34 517 17200 (2015) 157 (1981) 1110 187 279 376 411 687 1080 1170 1790 2590
2026-04-09 02:30 3.31 507 17200 (2015) 157 (1981) 1110 187 279 376 411 687 1080 1170 1790 2590
2026-04-09 02:00 3.32 510 17200 (2015) 157 (1981) 1110 187 279 376 411 687 1080 1170 1790 2590
2026-04-09 01:30 3.34 517 17200 (2015) 157 (1981) 1110 187 279 376 411 687 1080 1170 1790 2590
2026-04-09 01:00 3.33 514 17200 (2015) 157 (1981) 1110 187 279 376 411 687 1080 1170 1790 2590
2026-04-09 00:30 3.35 520 17200 (2015) 157 (1981) 1110 187 279 376 411 687 1080 1170 1790 2590
2026-04-09 00:00 3.33 514 17200 (2015) 157 (1981) 1110 187 279 376 411 687 1080 1170 1790 2590
2026-04-08 23:30 3.36 524 17200 (2015) 157 (1981) 1110 187 279 376 411 687 1080 1170 1790 2590
2026-04-08 23:00 3.35 520 17200 (2015) 157 (1981) 1110 187 279 376 411 687 1080 1170 1790 2590
2026-04-08 22:30 3.36 524 13000 (2015) 154 (1956) 991 196 300 401 445 657 1210 1280 1690 2060
2026-04-08 22:00 3.34 517 13000 (2015) 154 (1956) 991 196 300 401 445 657 1210 1280 1690 2060
2026-04-08 21:30 3.36 524 13000 (2015) 154 (1956) 991 196 300 401 445 657 1210 1280 1690 2060
2026-04-08 21:00 3.36 524 13000 (2015) 154 (1956) 991 196 300 401 445 657 1210 1280 1690 2060
2026-04-08 20:30 3.36 524 13000 (2015) 154 (1956) 991 196 300 401 445 657 1210 1280 1690 2060
2026-04-08 20:00 3.39 534 13000 (2015) 154 (1956) 991 196 300 401 445 657 1210 1280 1690 2060
2026-04-08 19:30 3.38 530 13000 (2015) 154 (1956) 991 196 300 401 445 657 1210 1280 1690 2060
2026-04-08 19:00 3.38 530 13000 (2015) 154 (1956) 991 196 300 401 445 657 1210 1280 1690 2060
2026-04-08 18:30 3.38 530 13000 (2015) 154 (1956) 991 196 300 401 445 657 1210 1280 1690 2060
2026-04-08 18:00 3.41 541 13000 (2015) 154 (1956) 991 196 300 401 445 657 1210 1280 1690 2060
2026-04-08 17:30 3.41 541 13000 (2015) 154 (1956) 991 196 300 401 445 657 1210 1280 1690 2060
2026-04-08 17:00 3.41 541 13000 (2015) 154 (1956) 991 196 300 401 445 657 1210 1280 1690 2060
2026-04-08 16:30 3.42 544 13000 (2015) 154 (1956) 991 196 300 401 445 657 1210 1280 1690 2060
2026-04-08 16:00 3.43 547 13000 (2015) 154 (1956) 991 196 300 401 445 657 1210 1280 1690 2060
2026-04-08 15:30 3.42 544 13000 (2015) 154 (1956) 991 196 300 401 445 657 1210 1280 1690 2060
2026-04-08 15:00 3.43 547 13000 (2015) 154 (1956) 991 196 300 401 445 657 1210 1280 1690 2060
2026-04-08 14:30 3.41 541 13000 (2015) 154 (1956) 991 196 300 401 445 657 1210 1280 1690 2060
2026-04-08 14:00 3.43 547 13000 (2015) 154 (1956) 991 196 300 401 445 657 1210 1280 1690 2060
2026-04-08 13:30 3.45 554 13000 (2015) 154 (1956) 991 196 300 401 445 657 1210 1280 1690 2060
2026-04-08 13:00 3.43 547 13000 (2015) 154 (1956) 991 196 300 401 445 657 1210 1280 1690 2060
2026-04-08 12:30 3.46 558 13000 (2015) 154 (1956) 991 196 300 401 445 657 1210 1280 1690 2060
2026-04-08 11:30 3.46 558 13000 (2015) 154 (1956) 991 196 300 401 445 657 1210 1280 1690 2060
2026-04-08 11:00 3.46 558 13000 (2015) 154 (1956) 991 196 300 401 445 657 1210 1280 1690 2060
2026-04-08 10:30 3.45 554 13000 (2015) 154 (1956) 991 196 300 401 445 657 1210 1280 1690 2060
2026-04-08 10:00 3.46 558 13000 (2015) 154 (1956) 991 196 300 401 445 657 1210 1280 1690 2060
2026-04-08 09:30 3.47 561 13000 (2015) 154 (1956) 991 196 300 401 445 657 1210 1280 1690 2060
2026-04-08 09:00 3.47 561 13000 (2015) 154 (1956) 991 196 300 401 445 657 1210 1280 1690 2060
2026-04-08 08:30 3.50 572 13000 (2015) 154 (1956) 991 196 300 401 445 657 1210 1280 1690 2060
2026-04-08 08:00 3.50 572 13000 (2015) 154 (1956) 991 196 300 401 445 657 1210 1280 1690 2060
2026-04-08 07:30 3.49 568 13000 (2015) 154 (1956) 991 196 300 401 445 657 1210 1280 1690 2060
2026-04-08 07:00 3.49 568 13000 (2015) 154 (1956) 991 196 300 401 445 657 1210 1280 1690 2060
2026-04-08 06:30 3.48 565 13000 (2015) 154 (1956) 991 196 300 401 445 657 1210 1280 1690 2060
2026-04-08 06:00 3.52 579 13000 (2015) 154 (1956) 991 196 300 401 445 657 1210 1280 1690 2060
2026-04-08 05:30 3.51 575 13000 (2015) 154 (1956) 991 196 300 401 445 657 1210 1280 1690 2060
2026-04-08 05:00 3.51 575 13000 (2015) 154 (1956) 991 196 300 401 445 657 1210 1280 1690 2060
2026-04-08 04:30 3.53 582 13000 (2015) 154 (1956) 991 196 300 401 445 657 1210 1280 1690 2060
2026-04-08 04:00 3.55 589 13000 (2015) 154 (1956) 991 196 300 401 445 657 1210 1280 1690 2060
2026-04-08 03:30 3.53 582 13000 (2015) 154 (1956) 991 196 300 401 445 657 1210 1280 1690 2060
2026-04-08 03:00 3.52 579 13000 (2015) 154 (1956) 991 196 300 401 445 657 1210 1280 1690 2060
2026-04-08 02:30 3.54 586 13000 (2015) 154 (1956) 991 196 300 401 445 657 1210 1280 1690 2060
2026-04-08 02:00 3.56 593 13000 (2015) 154 (1956) 991 196 300 401 445 657 1210 1280 1690 2060
2026-04-08 01:30 3.55 589 13000 (2015) 154 (1956) 991 196 300 401 445 657 1210 1280 1690 2060
2026-04-08 01:00 3.57 596 13000 (2015) 154 (1956) 991 196 300 401 445 657 1210 1280 1690 2060
2026-04-08 00:30 3.56 593 13000 (2015) 154 (1956) 991 196 300 401 445 657 1210 1280 1690 2060
2026-04-08 00:00 3.59 603 13000 (2015) 154 (1956) 991 196 300 401 445 657 1210 1280 1690 2060
2026-04-07 23:30 3.57 596 13000 (2015) 154 (1956) 991 196 300 401 445 657 1210 1280 1690 2060
2026-04-07 23:00 3.58 600 13000 (2015) 154 (1956) 991 196 300 401 445 657 1210 1280 1690 2060
2026-04-07 22:30 3.57 596 6540 (1965) 164 (1954) 1030 183 300 409 429 636 1240 1460 1970 2720
2026-04-07 22:00 3.59 603 6540 (1965) 164 (1954) 1030 183 300 409 429 636 1240 1460 1970 2720
2026-04-07 21:30 3.60 607 6540 (1965) 164 (1954) 1030 183 300 409 429 636 1240 1460 1970 2720
2026-04-07 21:00 3.61 610 6540 (1965) 164 (1954) 1030 183 300 409 429 636 1240 1460 1970 2720
2026-04-07 20:30 3.62 614 6540 (1965) 164 (1954) 1030 183 300 409 429 636 1240 1460 1970 2720
2026-04-07 20:00 3.63 617 6540 (1965) 164 (1954) 1030 183 300 409 429 636 1240 1460 1970 2720
2026-04-07 19:30 3.63 617 6540 (1965) 164 (1954) 1030 183 300 409 429 636 1240 1460 1970 2720
2026-04-07 19:00 3.63 617 6540 (1965) 164 (1954) 1030 183 300 409 429 636 1240 1460 1970 2720
2026-04-07 18:30 3.63 617 6540 (1965) 164 (1954) 1030 183 300 409 429 636 1240 1460 1970 2720
2026-04-07 18:00 3.67 632 6540 (1965) 164 (1954) 1030 183 300 409 429 636 1240 1460 1970 2720
2026-04-07 17:30 3.65 624 6540 (1965) 164 (1954) 1030 183 300 409 429 636 1240 1460 1970 2720
2026-04-07 17:00 3.67 632 6540 (1965) 164 (1954) 1030 183 300 409 429 636 1240 1460 1970 2720
2026-04-07 16:30 3.67 632 6540 (1965) 164 (1954) 1030 183 300 409 429 636 1240 1460 1970 2720
2026-04-07 16:00 3.68 635 6540 (1965) 164 (1954) 1030 183 300 409 429 636 1240 1460 1970 2720
2026-04-07 15:30 3.71 646 6540 (1965) 164 (1954) 1030 183 300 409 429 636 1240 1460 1970 2720
2026-04-07 15:00 3.72 650 6540 (1965) 164 (1954) 1030 183 300 409 429 636 1240 1460 1970 2720
2026-04-07 14:30 3.71 646 6540 (1965) 164 (1954) 1030 183 300 409 429 636 1240 1460 1970 2720
2026-04-07 14:00 3.74 657 6540 (1965) 164 (1954) 1030 183 300 409 429 636 1240 1460 1970 2720
2026-04-07 13:30 3.73 653 6540 (1965) 164 (1954) 1030 183 300 409 429 636 1240 1460 1970 2720
2026-04-07 13:00 3.74 657 6540 (1965) 164 (1954) 1030 183 300 409 429 636 1240 1460 1970 2720
2026-04-07 12:30 3.75 661 6540 (1965) 164 (1954) 1030 183 300 409 429 636 1240 1460 1970 2720
2026-04-07 12:00 3.75 661 6540 (1965) 164 (1954) 1030 183 300 409 429 636 1240 1460 1970 2720
2026-04-07 11:30 3.76 664 6540 (1965) 164 (1954) 1030 183 300 409 429 636 1240 1460 1970 2720
2026-04-07 11:00 3.77 668 6540 (1965) 164 (1954) 1030 183 300 409 429 636 1240 1460 1970 2720
2026-04-07 10:30 3.77 668 6540 (1965) 164 (1954) 1030 183 300 409 429 636 1240 1460 1970 2720
2026-04-07 10:00 3.78 671 6540 (1965) 164 (1954) 1030 183 300 409 429 636 1240 1460 1970 2720
2026-04-07 09:30 3.81 682 6540 (1965) 164 (1954) 1030 183 300 409 429 636 1240 1460 1970 2720
2026-04-07 09:00 3.79 675 6540 (1965) 164 (1954) 1030 183 300 409 429 636 1240 1460 1970 2720
2026-04-07 08:30 3.79 675 6540 (1965) 164 (1954) 1030 183 300 409 429 636 1240 1460 1970 2720
2026-04-07 08:00 3.82 686 6540 (1965) 164 (1954) 1030 183 300 409 429 636 1240 1460 1970 2720
2026-04-07 07:30 3.82 686 6540 (1965) 164 (1954) 1030 183 300 409 429 636 1240 1460 1970 2720
2026-04-07 07:00 3.85 697 6540 (1965) 164 (1954) 1030 183 300 409 429 636 1240 1460 1970 2720
2026-04-07 06:30 3.84 694 6540 (1965) 164 (1954) 1030 183 300 409 429 636 1240 1460 1970 2720
2026-04-07 06:00 3.87 705 6540 (1965) 164 (1954) 1030 183 300 409 429 636 1240 1460 1970 2720
2026-04-07 05:30 3.85 697 6540 (1965) 164 (1954) 1030 183 300 409 429 636 1240 1460 1970 2720
2026-04-07 05:00 3.88 708 6540 (1965) 164 (1954) 1030 183 300 409 429 636 1240 1460 1970 2720
2026-04-07 04:30 3.88 708 6540 (1965) 164 (1954) 1030 183 300 409 429 636 1240 1460 1970 2720
2026-04-07 04:00 3.90 716 6540 (1965) 164 (1954) 1030 183 300 409 429 636 1240 1460 1970 2720
2026-04-07 03:30 3.88 708 6540 (1965) 164 (1954) 1030 183 300 409 429 636 1240 1460 1970 2720
2026-04-07 03:00 3.92 723 6540 (1965) 164 (1954) 1030 183 300 409 429 636 1240 1460 1970 2720
2026-04-07 02:30 3.92 723 6540 (1965) 164 (1954) 1030 183 300 409 429 636 1240 1460 1970 2720
2026-04-07 02:00 3.91 720 6540 (1965) 164 (1954) 1030 183 300 409 429 636 1240 1460 1970 2720
2026-04-07 01:30 3.95 735 6540 (1965) 164 (1954) 1030 183 300 409 429 636 1240 1460 1970 2720
2026-04-07 01:00 3.96 738 6540 (1965) 164 (1954) 1030 183 300 409 429 636 1240 1460 1970 2720
2026-04-07 00:30 3.95 735 6540 (1965) 164 (1954) 1030 183 300 409 429 636 1240 1460 1970 2720
2026-04-07 00:00 3.97 742 6540 (1965) 164 (1954) 1030 183 300 409 429 636 1240 1460 1970 2720
2026-04-06 23:30 3.97 742 6540 (1965) 164 (1954) 1030 183 300 409 429 636 1240 1460 1970 2720
2026-04-06 23:00 3.97 742 6540 (1965) 164 (1954) 1030 183 300 409 429 636 1240 1460 1970 2720
2026-04-06 22:30 3.98 746 24100 (2025) 138 (1954) 1600 204 312 417 446 704 1440 1550 3070 7230
2026-04-06 22:00 4.02 761 24100 (2025) 138 (1954) 1600 204 312 417 446 704 1440 1550 3070 7230
2026-04-06 21:30 4.02 761 24100 (2025) 138 (1954) 1600 204 312 417 446 704 1440 1550 3070 7230
2026-04-06 21:00 4.03 765 24100 (2025) 138 (1954) 1600 204 312 417 446 704 1440 1550 3070 7230
2026-04-06 20:30 4.02 761 24100 (2025) 138 (1954) 1600 204 312 417 446 704 1440 1550 3070 7230
2026-04-06 20:00 4.03 765 24100 (2025) 138 (1954) 1600 204 312 417 446 704 1440 1550 3070 7230
2026-04-06 19:30 4.04 769 24100 (2025) 138 (1954) 1600 204 312 417 446 704 1440 1550 3070 7230
2026-04-06 19:00 4.07 780 24100 (2025) 138 (1954) 1600 204 312 417 446 704 1440 1550 3070 7230
2026-04-06 18:30 4.07 780 24100 (2025) 138 (1954) 1600 204 312 417 446 704 1440 1550 3070 7230
2026-04-06 18:00 4.08 784 24100 (2025) 138 (1954) 1600 204 312 417 446 704 1440 1550 3070 7230
2026-04-06 17:30 4.10 792 24100 (2025) 138 (1954) 1600 204 312 417 446 704 1440 1550 3070 7230
2026-04-06 17:00 4.11 796 24100 (2025) 138 (1954) 1600 204 312 417 446 704 1440 1550 3070 7230
2026-04-06 16:30 4.13 803 24100 (2025) 138 (1954) 1600 204 312 417 446 704 1440 1550 3070 7230
2026-04-06 16:00 4.13 803 24100 (2025) 138 (1954) 1600 204 312 417 446 704 1440 1550 3070 7230
2026-04-06 15:30 4.14 807 24100 (2025) 138 (1954) 1600 204 312 417 446 704 1440 1550 3070 7230
2026-04-06 15:00 4.15 811 24100 (2025) 138 (1954) 1600 204 312 417 446 704 1440 1550 3070 7230
2026-04-06 14:30 4.16 815 24100 (2025) 138 (1954) 1600 204 312 417 446 704 1440 1550 3070 7230
2026-04-06 14:00 4.18 823 24100 (2025) 138 (1954) 1600 204 312 417 446 704 1440 1550 3070 7230
2026-04-06 13:30 4.17 819 24100 (2025) 138 (1954) 1600 204 312 417 446 704 1440 1550 3070 7230
2026-04-06 13:00 4.20 831 24100 (2025) 138 (1954) 1600 204 312 417 446 704 1440 1550 3070 7230
2026-04-06 12:30 4.21 835 24100 (2025) 138 (1954) 1600 204 312 417 446 704 1440 1550 3070 7230
2026-04-06 12:00 4.21 835 24100 (2025) 138 (1954) 1600 204 312 417 446 704 1440 1550 3070 7230
2026-04-06 11:30 4.23 842 24100 (2025) 138 (1954) 1600 204 312 417 446 704 1440 1550 3070 7230
2026-04-06 11:00 4.25 850 24100 (2025) 138 (1954) 1600 204 312 417 446 704 1440 1550 3070 7230
2026-04-06 10:30 4.22 838 24100 (2025) 138 (1954) 1600 204 312 417 446 704 1440 1550 3070 7230
2026-04-06 10:00 4.22 838 24100 (2025) 138 (1954) 1600 204 312 417 446 704 1440 1550 3070 7230
2026-04-06 09:30 4.26 854 24100 (2025) 138 (1954) 1600 204 312 417 446 704 1440 1550 3070 7230
2026-04-06 09:00 4.28 862 24100 (2025) 138 (1954) 1600 204 312 417 446 704 1440 1550 3070 7230
2026-04-06 08:30 4.28 862 24100 (2025) 138 (1954) 1600 204 312 417 446 704 1440 1550 3070 7230
2026-04-06 08:00 4.31 874 24100 (2025) 138 (1954) 1600 204 312 417 446 704 1440 1550 3070 7230
2026-04-06 07:30 4.29 866 24100 (2025) 138 (1954) 1600 204 312 417 446 704 1440 1550 3070 7230
2026-04-06 07:00 4.31 874 24100 (2025) 138 (1954) 1600 204 312 417 446 704 1440 1550 3070 7230
2026-04-06 06:30 4.33 882 24100 (2025) 138 (1954) 1600 204 312 417 446 704 1440 1550 3070 7230
2026-04-06 06:00 4.32 878 24100 (2025) 138 (1954) 1600 204 312 417 446 704 1440 1550 3070 7230
2026-04-06 05:30 4.33 882 24100 (2025) 138 (1954) 1600 204 312 417 446 704 1440 1550 3070 7230
2026-04-06 05:00 4.30 870 24100 (2025) 138 (1954) 1600 204 312 417 446 704 1440 1550 3070 7230
2026-04-06 04:30 4.33 882 24100 (2025) 138 (1954) 1600 204 312 417 446 704 1440 1550 3070 7230
2026-04-06 04:00 4.30 870 24100 (2025) 138 (1954) 1600 204 312 417 446 704 1440 1550 3070 7230
2026-04-06 03:30 4.30 870 24100 (2025) 138 (1954) 1600 204 312 417 446 704 1440 1550 3070 7230
2026-04-06 03:00 4.31 874 24100 (2025) 138 (1954) 1600 204 312 417 446 704 1440 1550 3070 7230
2026-04-06 02:30 4.29 866 24100 (2025) 138 (1954) 1600 204 312 417 446 704 1440 1550 3070 7230
2026-04-06 02:00 4.31 874 24100 (2025) 138 (1954) 1600 204 312 417 446 704 1440 1550 3070 7230
2026-04-06 01:30 4.29 866 24100 (2025) 138 (1954) 1600 204 312 417 446 704 1440 1550 3070 7230
2026-04-06 01:00 4.26 854 24100 (2025) 138 (1954) 1600 204 312 417 446 704 1440 1550 3070 7230
2026-04-06 00:30 4.28 862 24100 (2025) 138 (1954) 1600 204 312 417 446 704 1440 1550 3070 7230
2026-04-06 00:00 4.27 858 24100 (2025) 138 (1954) 1600 204 312 417 446 704 1440 1550 3070 7230
2026-04-05 23:30 4.26 854 24100 (2025) 138 (1954) 1600 204 312 417 446 704 1440 1550 3070 7230
2026-04-05 23:00 4.28 862 24100 (2025) 138 (1954) 1600 204 312 417 446 704 1440 1550 3070 7230
2026-04-05 22:30 4.27 858 21900 (2025) 106 (1954) 1740 229 302 417 465 740 1350 2000 4440 8030
2026-04-05 22:00 4.29 866 21900 (2025) 106 (1954) 1740 229 302 417 465 740 1350 2000 4440 8030
2026-04-05 21:30 4.30 870 21900 (2025) 106 (1954) 1740 229 302 417 465 740 1350 2000 4440 8030
2026-04-05 21:00 4.30 870 21900 (2025) 106 (1954) 1740 229 302 417 465 740 1350 2000 4440 8030
2026-04-05 20:30 4.33 882 21900 (2025) 106 (1954) 1740 229 302 417 465 740 1350 2000 4440 8030
2026-04-05 20:00 4.33 882 21900 (2025) 106 (1954) 1740 229 302 417 465 740 1350 2000 4440 8030
2026-04-05 19:30 4.35 890 21900 (2025) 106 (1954) 1740 229 302 417 465 740 1350 2000 4440 8030
2026-04-05 19:00 4.45 930 21900 (2025) 106 (1954) 1740 229 302 417 465 740 1350 2000 4440 8030
2026-04-05 18:30 4.46 934 21900 (2025) 106 (1954) 1740 229 302 417 465 740 1350 2000 4440 8030
2026-04-05 18:00 4.46 934 21900 (2025) 106 (1954) 1740 229 302 417 465 740 1350 2000 4440 8030
2026-04-05 17:30 4.47 938 21900 (2025) 106 (1954) 1740 229 302 417 465 740 1350 2000 4440 8030
2026-04-05 17:00 4.47 938 21900 (2025) 106 (1954) 1740 229 302 417 465 740 1350 2000 4440 8030
2026-04-05 16:30 4.50 951 21900 (2025) 106 (1954) 1740 229 302 417 465 740 1350 2000 4440 8030
2026-04-05 16:00 4.49 947 21900 (2025) 106 (1954) 1740 229 302 417 465 740 1350 2000 4440 8030
2026-04-05 15:30 4.50 951 21900 (2025) 106 (1954) 1740 229 302 417 465 740 1350 2000 4440 8030
2026-04-05 15:00 4.53 963 21900 (2025) 106 (1954) 1740 229 302 417 465 740 1350 2000 4440 8030
2026-04-05 14:30 4.55 971 21900 (2025) 106 (1954) 1740 229 302 417 465 740 1350 2000 4440 8030
2026-04-05 14:00 4.57 979 21900 (2025) 106 (1954) 1740 229 302 417 465 740 1350 2000 4440 8030
2026-04-05 13:30 4.57 979 21900 (2025) 106 (1954) 1740 229 302 417 465 740 1350 2000 4440 8030
2026-04-05 13:00 4.61 996 21900 (2025) 106 (1954) 1740 229 302 417 465 740 1350 2000 4440 8030
2026-04-05 12:30 4.64 1010 21900 (2025) 106 (1954) 1740 229 302 417 465 740 1350 2000 4440 8030
2026-04-05 12:00 4.64 1010 21900 (2025) 106 (1954) 1740 229 302 417 465 740 1350 2000 4440 8030
2026-04-05 11:30 4.66 1020 21900 (2025) 106 (1954) 1740 229 302 417 465 740 1350 2000 4440 8030
2026-04-05 11:00 4.69 1030 21900 (2025) 106 (1954) 1740 229 302 417 465 740 1350 2000 4440 8030
2026-04-05 10:30 4.71 1040 21900 (2025) 106 (1954) 1740 229 302 417 465 740 1350 2000 4440 8030
2026-04-05 10:00 4.73 1050 21900 (2025) 106 (1954) 1740 229 302 417 465 740 1350 2000 4440 8030
2026-04-05 09:30 4.73 1050 21900 (2025) 106 (1954) 1740 229 302 417 465 740 1350 2000 4440 8030
2026-04-05 09:00 4.78 1070 21900 (2025) 106 (1954) 1740 229 302 417 465 740 1350 2000 4440 8030
2026-04-05 08:30 4.81 1080 21900 (2025) 106 (1954) 1740 229 302 417 465 740 1350 2000 4440 8030
2026-04-05 08:00 4.84 1090 21900 (2025) 106 (1954) 1740 229 302 417 465 740 1350 2000 4440 8030
2026-04-05 07:30 4.85 1100 21900 (2025) 106 (1954) 1740 229 302 417 465 740 1350 2000 4440 8030
2026-04-05 07:00 4.89 1110 21900 (2025) 106 (1954) 1740 229 302 417 465 740 1350 2000 4440 8030
2026-04-05 06:30 4.93 1130 21900 (2025) 106 (1954) 1740 229 302 417 465 740 1350 2000 4440 8030
2026-04-05 06:00 4.96 1140 21900 (2025) 106 (1954) 1740 229 302 417 465 740 1350 2000 4440 8030
2026-04-05 05:00 5.02 21900 (2025) 106 (1954) 1740 229 302 417 465 740 1350 2000 4440 8030
2026-04-05 04:30 1180 21900 (2025) 106 (1954) 1740 229 302 417 465 740 1350 2000 4440 8030
2026-04-05 04:00 5.08 1200 21900 (2025) 106 (1954) 1740 229 302 417 465 740 1350 2000 4440 8030
2026-04-05 03:00 5.13 1220 21900 (2025) 106 (1954) 1740 229 302 417 465 740 1350 2000 4440 8030
2026-04-05 02:30 5.15 21900 (2025) 106 (1954) 1740 229 302 417 465 740 1350 2000 4440 8030
2026-04-05 02:00 1250 21900 (2025) 106 (1954) 1740 229 302 417 465 740 1350 2000 4440 8030
2026-04-05 01:30 5.23 1260 21900 (2025) 106 (1954) 1740 229 302 417 465 740 1350 2000 4440 8030
2026-04-05 01:00 5.25 1270 21900 (2025) 106 (1954) 1740 229 302 417 465 740 1350 2000 4440 8030
2026-04-05 00:30 5.25 1270 21900 (2025) 106 (1954) 1740 229 302 417 465 740 1350 2000 4440 8030
2026-04-05 00:00 5.28 1290 21900 (2025) 106 (1954) 1740 229 302 417 465 740 1350 2000 4440 8030
2026-04-04 23:30 5.24 1270 21900 (2025) 106 (1954) 1740 229 302 417 465 740 1350 2000 4440 8030
2026-04-04 23:00 5.27 1280 21900 (2025) 106 (1954) 1740 229 302 417 465 740 1350 2000 4440 8030
2026-04-04 22:30 5.27 1280 22200 (1957) 108 (1954) 1750 239 325 407 472 720 1470 1740 4700 7120
2026-04-04 22:00 5.25 1270 22200 (1957) 108 (1954) 1750 239 325 407 472 720 1470 1740 4700 7120
2026-04-04 21:30 5.22 1260 22200 (1957) 108 (1954) 1750 239 325 407 472 720 1470 1740 4700 7120
2026-04-04 21:00 5.17 1240 22200 (1957) 108 (1954) 1750 239 325 407 472 720 1470 1740 4700 7120
2026-04-04 20:30 5.05 1180 22200 (1957) 108 (1954) 1750 239 325 407 472 720 1470 1740 4700 7120
2026-04-04 20:00 4.96 1140 22200 (1957) 108 (1954) 1750 239 325 407 472 720 1470 1740 4700 7120
2026-04-04 19:30 4.82 1080 22200 (1957) 108 (1954) 1750 239 325 407 472 720 1470 1740 4700 7120
2026-04-04 19:00 4.72 1040 22200 (1957) 108 (1954) 1750 239 325 407 472 720 1470 1740 4700 7120
2026-04-04 18:30 4.63 1000 22200 (1957) 108 (1954) 1750 239 325 407 472 720 1470 1740 4700 7120
2026-04-04 18:00 4.48 943 22200 (1957) 108 (1954) 1750 239 325 407 472 720 1470 1740 4700 7120
2026-04-04 17:30 4.41 914 22200 (1957) 108 (1954) 1750 239 325 407 472 720 1470 1740 4700 7120
2026-04-04 17:00 4.30 870 22200 (1957) 108 (1954) 1750 239 325 407 472 720 1470 1740 4700 7120
2026-04-04 16:30 4.22 838 22200 (1957) 108 (1954) 1750 239 325 407 472 720 1470 1740 4700 7120
2026-04-04 16:00 4.18 823 22200 (1957) 108 (1954) 1750 239 325 407 472 720 1470 1740 4700 7120
2026-04-04 15:30 4.09 788 22200 (1957) 108 (1954) 1750 239 325 407 472 720 1470 1740 4700 7120
2026-04-04 15:00 3.98 746 22200 (1957) 108 (1954) 1750 239 325 407 472 720 1470 1740 4700 7120
2026-04-04 14:30 3.83 690 22200 (1957) 108 (1954) 1750 239 325 407 472 720 1470 1740 4700 7120
2026-04-04 14:00 3.62 614 22200 (1957) 108 (1954) 1750 239 325 407 472 720 1470 1740 4700 7120
2026-04-04 13:30 3.41 541 22200 (1957) 108 (1954) 1750 239 325 407 472 720 1470 1740 4700 7120
2026-04-04 13:00 3.22 477 22200 (1957) 108 (1954) 1750 239 325 407 472 720 1470 1740 4700 7120
2026-04-04 12:30 3.12 445 22200 (1957) 108 (1954) 1750 239 325 407 472 720 1470 1740 4700 7120
2026-04-04 12:00 3.08 432 22200 (1957) 108 (1954) 1750 239 325 407 472 720 1470 1740 4700 7120
2026-04-04 11:30 3.06 426 22200 (1957) 108 (1954) 1750 239 325 407 472 720 1470 1740 4700 7120
2026-04-04 11:00 3.03 416 22200 (1957) 108 (1954) 1750 239 325 407 472 720 1470 1740 4700 7120
2026-04-04 10:30 3.02 413 22200 (1957) 108 (1954) 1750 239 325 407 472 720 1470 1740 4700 7120
2026-04-04 10:00 3.01 410 22200 (1957) 108 (1954) 1750 239 325 407 472 720 1470 1740 4700 7120
2026-04-04 09:30 3.00 407 22200 (1957) 108 (1954) 1750 239 325 407 472 720 1470 1740 4700 7120
2026-04-04 09:00 3.00 407 22200 (1957) 108 (1954) 1750 239 325 407 472 720 1470 1740 4700 7120
2026-04-04 08:30 2.98 401 22200 (1957) 108 (1954) 1750 239 325 407 472 720 1470 1740 4700 7120
2026-04-04 08:00 3.00 407 22200 (1957) 108 (1954) 1750 239 325 407 472 720 1470 1740 4700 7120
2026-04-04 07:30 2.99 404 22200 (1957) 108 (1954) 1750 239 325 407 472 720 1470 1740 4700 7120
2026-04-04 07:00 2.98 401 22200 (1957) 108 (1954) 1750 239 325 407 472 720 1470 1740 4700 7120
2026-04-04 06:30 2.97 398 22200 (1957) 108 (1954) 1750 239 325 407 472 720 1470 1740 4700 7120
2026-04-04 06:00 2.98 401 22200 (1957) 108 (1954) 1750 239 325 407 472 720 1470 1740 4700 7120
2026-04-04 05:30 2.96 395 22200 (1957) 108 (1954) 1750 239 325 407 472 720 1470 1740 4700 7120
2026-04-04 05:00 2.95 392 22200 (1957) 108 (1954) 1750 239 325 407 472 720 1470 1740 4700 7120
2026-04-04 04:30 2.96 395 22200 (1957) 108 (1954) 1750 239 325 407 472 720 1470 1740 4700 7120
2026-04-04 04:00 2.95 392 22200 (1957) 108 (1954) 1750 239 325 407 472 720 1470 1740 4700 7120
2026-04-04 03:30 2.95 392 22200 (1957) 108 (1954) 1750 239 325 407 472 720 1470 1740 4700 7120
2026-04-04 03:00 2.95 392 22200 (1957) 108 (1954) 1750 239 325 407 472 720 1470 1740 4700 7120
2026-04-04 02:30 2.95 392 22200 (1957) 108 (1954) 1750 239 325 407 472 720 1470 1740 4700 7120
2026-04-04 02:00 2.96 395 22200 (1957) 108 (1954) 1750 239 325 407 472 720 1470 1740 4700 7120
2026-04-04 01:30 2.98 401 22200 (1957) 108 (1954) 1750 239 325 407 472 720 1470 1740 4700 7120
2026-04-04 01:00 2.98 401 22200 (1957) 108 (1954) 1750 239 325 407 472 720 1470 1740 4700 7120
2026-04-04 00:30 2.96 395 22200 (1957) 108 (1954) 1750 239 325 407 472 720 1470 1740 4700 7120
2026-04-04 00:00 2.97 398 22200 (1957) 108 (1954) 1750 239 325 407 472 720 1470 1740 4700 7120
2026-04-03 23:30 2.99 404 22200 (1957) 108 (1954) 1750 239 325 407 472 720 1470 1740 4700 7120
2026-04-03 23:00 2.97 398 22200 (1957) 108 (1954) 1750 239 325 407 472 720 1470 1740 4700 7120
2026-04-03 22:30 2.98 401 9640 (1957) 106 (1954) 1110 224 325 417 472 803 1310 1480 2150 2840
2026-04-03 22:00 2.99 404 9640 (1957) 106 (1954) 1110 224 325 417 472 803 1310 1480 2150 2840
2026-04-03 21:30 2.99 404 9640 (1957) 106 (1954) 1110 224 325 417 472 803 1310 1480 2150 2840
2026-04-03 21:00 3.00 407 9640 (1957) 106 (1954) 1110 224 325 417 472 803 1310 1480 2150 2840
2026-04-03 20:30 2.99 404 9640 (1957) 106 (1954) 1110 224 325 417 472 803 1310 1480 2150 2840
2026-04-03 20:00 2.99 404 9640 (1957) 106 (1954) 1110 224 325 417 472 803 1310 1480 2150 2840
2026-04-03 19:30 3.00 407 9640 (1957) 106 (1954) 1110 224 325 417 472 803 1310 1480 2150 2840
2026-04-03 19:00 3.06 426 9640 (1957) 106 (1954) 1110 224 325 417 472 803 1310 1480 2150 2840
2026-04-03 18:30 3.06 426 9640 (1957) 106 (1954) 1110 224 325 417 472 803 1310 1480 2150 2840
2026-04-03 18:00 3.05 422 9640 (1957) 106 (1954) 1110 224 325 417 472 803 1310 1480 2150 2840
2026-04-03 17:30 3.05 422 9640 (1957) 106 (1954) 1110 224 325 417 472 803 1310 1480 2150 2840
2026-04-03 17:00 3.06 426 9640 (1957) 106 (1954) 1110 224 325 417 472 803 1310 1480 2150 2840
2026-04-03 16:30 3.06 426 9640 (1957) 106 (1954) 1110 224 325 417 472 803 1310 1480 2150 2840
2026-04-03 16:00 3.06 426 9640 (1957) 106 (1954) 1110 224 325 417 472 803 1310 1480 2150 2840
2026-04-03 15:30 3.06 426 9640 (1957) 106 (1954) 1110 224 325 417 472 803 1310 1480 2150 2840
2026-04-03 15:00 3.06 426 9640 (1957) 106 (1954) 1110 224 325 417 472 803 1310 1480 2150 2840
2026-04-03 14:30 3.07 429 9640 (1957) 106 (1954) 1110 224 325 417 472 803 1310 1480 2150 2840
2026-04-03 14:00 3.07 429 9640 (1957) 106 (1954) 1110 224 325 417 472 803 1310 1480 2150 2840
2026-04-03 13:30 3.08 432 9640 (1957) 106 (1954) 1110 224 325 417 472 803 1310 1480 2150 2840
2026-04-03 13:00 3.08 432 9640 (1957) 106 (1954) 1110 224 325 417 472 803 1310 1480 2150 2840
2026-04-03 12:30 3.08 432 9640 (1957) 106 (1954) 1110 224 325 417 472 803 1310 1480 2150 2840
2026-04-03 12:00 3.08 432 9640 (1957) 106 (1954) 1110 224 325 417 472 803 1310 1480 2150 2840
2026-04-03 11:30 3.09 435 9640 (1957) 106 (1954) 1110 224 325 417 472 803 1310 1480 2150 2840
2026-04-03 11:00 3.11 441 9640 (1957) 106 (1954) 1110 224 325 417 472 803 1310 1480 2150 2840
2026-04-03 10:30 3.09 435 9640 (1957) 106 (1954) 1110 224 325 417 472 803 1310 1480 2150 2840
2026-04-03 10:00 3.09 435 9640 (1957) 106 (1954) 1110 224 325 417 472 803 1310 1480 2150 2840
2026-04-03 09:30 3.10 438 9640 (1957) 106 (1954) 1110 224 325 417 472 803 1310 1480 2150 2840
2026-04-03 09:00 3.11 441 9640 (1957) 106 (1954) 1110 224 325 417 472 803 1310 1480 2150 2840
2026-04-03 08:30 3.10 438 9640 (1957) 106 (1954) 1110 224 325 417 472 803 1310 1480 2150 2840
2026-04-03 08:00 3.11 441 9640 (1957) 106 (1954) 1110 224 325 417 472 803 1310 1480 2150 2840
2026-04-03 07:30 3.13 448 9640 (1957) 106 (1954) 1110 224 325 417 472 803 1310 1480 2150 2840
2026-04-03 07:00 3.11 441 9640 (1957) 106 (1954) 1110 224 325 417 472 803 1310 1480 2150 2840
2026-04-03 06:30 3.13 448 9640 (1957) 106 (1954) 1110 224 325 417 472 803 1310 1480 2150 2840
2026-04-03 06:00 3.12 445 9640 (1957) 106 (1954) 1110 224 325 417 472 803 1310 1480 2150 2840
2026-04-03 05:30 3.12 445 9640 (1957) 106 (1954) 1110 224 325 417 472 803 1310 1480 2150 2840
2026-04-03 05:00 3.14 451 9640 (1957) 106 (1954) 1110 224 325 417 472 803 1310 1480 2150 2840
2026-04-03 04:30 3.13 448 9640 (1957) 106 (1954) 1110 224 325 417 472 803 1310 1480 2150 2840
2026-04-03 04:00 3.14 451 9640 (1957) 106 (1954) 1110 224 325 417 472 803 1310 1480 2150 2840
2026-04-03 03:30 3.15 454 9640 (1957) 106 (1954) 1110 224 325 417 472 803 1310 1480 2150 2840
2026-04-03 03:00 3.15 454 9640 (1957) 106 (1954) 1110 224 325 417 472 803 1310 1480 2150 2840
2026-04-03 02:30 3.16 458 9640 (1957) 106 (1954) 1110 224 325 417 472 803 1310 1480 2150 2840
2026-04-03 02:00 3.15 454 9640 (1957) 106 (1954) 1110 224 325 417 472 803 1310 1480 2150 2840
2026-04-03 01:30 3.15 454 9640 (1957) 106 (1954) 1110 224 325 417 472 803 1310 1480 2150 2840
2026-04-03 01:00 3.17 461 9640 (1957) 106 (1954) 1110 224 325 417 472 803 1310 1480 2150 2840
2026-04-03 00:30 3.18 464 9640 (1957) 106 (1954) 1110 224 325 417 472 803 1310 1480 2150 2840
2026-04-03 00:00 3.17 461 9640 (1957) 106 (1954) 1110 224 325 417 472 803 1310 1480 2150 2840
2026-04-02 23:30 3.18 464 9640 (1957) 106 (1954) 1110 224 325 417 472 803 1310 1480 2150 2840
2026-04-02 23:00 3.19 467 9640 (1957) 106 (1954) 1110 224 325 417 472 803 1310 1480 2150 2840
2026-04-02 22:30 3.23 480 5730 (2008) 111 (1954) 958 230 280 404 438 718 1090 1490 1910 2340
2026-04-02 22:00 3.20 471 5730 (2008) 111 (1954) 958 230 280 404 438 718 1090 1490 1910 2340
2026-04-02 21:30 3.23 480 5730 (2008) 111 (1954) 958 230 280 404 438 718 1090 1490 1910 2340
2026-04-02 21:00 3.20 471 5730 (2008) 111 (1954) 958 230 280 404 438 718 1090 1490 1910 2340
2026-04-02 20:30 3.21 474 5730 (2008) 111 (1954) 958 230 280 404 438 718 1090 1490 1910 2340
2026-04-02 20:00 3.21 474 5730 (2008) 111 (1954) 958 230 280 404 438 718 1090 1490 1910 2340
2026-04-02 19:30 3.23 480 5730 (2008) 111 (1954) 958 230 280 404 438 718 1090 1490 1910 2340
2026-04-02 19:00 3.23 480 5730 (2008) 111 (1954) 958 230 280 404 438 718 1090 1490 1910 2340
2026-04-02 18:30 3.24 484 5730 (2008) 111 (1954) 958 230 280 404 438 718 1090 1490 1910 2340
2026-04-02 18:00 3.25 487 5730 (2008) 111 (1954) 958 230 280 404 438 718 1090 1490 1910 2340
2026-04-02 17:30 3.26 490 5730 (2008) 111 (1954) 958 230 280 404 438 718 1090 1490 1910 2340
2026-04-02 17:00 3.26 490 5730 (2008) 111 (1954) 958 230 280 404 438 718 1090 1490 1910 2340
2026-04-02 16:30 3.26 490 5730 (2008) 111 (1954) 958 230 280 404 438 718 1090 1490 1910 2340
2026-04-02 16:00 3.27 494 5730 (2008) 111 (1954) 958 230 280 404 438 718 1090 1490 1910 2340
2026-04-02 15:30 3.32 510 5730 (2008) 111 (1954) 958 230 280 404 438 718 1090 1490 1910 2340
2026-04-02 15:00 3.29 500 5730 (2008) 111 (1954) 958 230 280 404 438 718 1090 1490 1910 2340
2026-04-02 14:30 3.29 500 5730 (2008) 111 (1954) 958 230 280 404 438 718 1090 1490 1910 2340
2026-04-02 14:00 3.30 504 5730 (2008) 111 (1954) 958 230 280 404 438 718 1090 1490 1910 2340
2026-04-02 13:30 3.32 510 5730 (2008) 111 (1954) 958 230 280 404 438 718 1090 1490 1910 2340
2026-04-02 13:00 3.31 507 5730 (2008) 111 (1954) 958 230 280 404 438 718 1090 1490 1910 2340
2026-04-02 12:30 3.33 514 5730 (2008) 111 (1954) 958 230 280 404 438 718 1090 1490 1910 2340
2026-04-02 12:00 3.33 514 5730 (2008) 111 (1954) 958 230 280 404 438 718 1090 1490 1910 2340
2026-04-02 11:30 3.35 520 5730 (2008) 111 (1954) 958 230 280 404 438 718 1090 1490 1910 2340
2026-04-02 09:30 3.31 507 5730 (2008) 111 (1954) 958 230 280 404 438 718 1090 1490 1910 2340
2026-04-02 09:00 3.30 504 5730 (2008) 111 (1954) 958 230 280 404 438 718 1090 1490 1910 2340
2026-04-02 08:30 3.33 514 5730 (2008) 111 (1954) 958 230 280 404 438 718 1090 1490 1910 2340
2026-04-02 08:00 3.31 507 5730 (2008) 111 (1954) 958 230 280 404 438 718 1090 1490 1910 2340
2026-04-02 07:30 3.32 510 5730 (2008) 111 (1954) 958 230 280 404 438 718 1090 1490 1910 2340
2026-04-02 07:00 3.32 510 5730 (2008) 111 (1954) 958 230 280 404 438 718 1090 1490 1910 2340
2026-04-02 06:30 3.30 504 5730 (2008) 111 (1954) 958 230 280 404 438 718 1090 1490 1910 2340
2026-04-02 06:00 3.29 500 5730 (2008) 111 (1954) 958 230 280 404 438 718 1090 1490 1910 2340
2026-04-02 05:30 3.27 494 5730 (2008) 111 (1954) 958 230 280 404 438 718 1090 1490 1910 2340
2026-04-02 05:00 3.26 490 5730 (2008) 111 (1954) 958 230 280 404 438 718 1090 1490 1910 2340
2026-04-02 04:30 3.24 484 5730 (2008) 111 (1954) 958 230 280 404 438 718 1090 1490 1910 2340
2026-04-02 04:00 3.21 474 5730 (2008) 111 (1954) 958 230 280 404 438 718 1090 1490 1910 2340
2026-04-02 03:30 3.20 471 5730 (2008) 111 (1954) 958 230 280 404 438 718 1090 1490 1910 2340
2026-04-02 03:00 3.16 458 5730 (2008) 111 (1954) 958 230 280 404 438 718 1090 1490 1910 2340
2026-04-02 02:30 3.16 458 5730 (2008) 111 (1954) 958 230 280 404 438 718 1090 1490 1910 2340
2026-04-02 02:00 3.15 454 5730 (2008) 111 (1954) 958 230 280 404 438 718 1090 1490 1910 2340
2026-04-02 01:30 3.12 445 5730 (2008) 111 (1954) 958 230 280 404 438 718 1090 1490 1910 2340
2026-04-02 01:00 3.12 445 5730 (2008) 111 (1954) 958 230 280 404 438 718 1090 1490 1910 2340
2026-04-02 00:30 3.09 435 5730 (2008) 111 (1954) 958 230 280 404 438 718 1090 1490 1910 2340
2026-04-02 00:00 3.09 435 5730 (2008) 111 (1954) 958 230 280 404 438 718 1090 1490 1910 2340
2026-04-01 23:30 3.07 429 5730 (2008) 111 (1954) 958 230 280 404 438 718 1090 1490 1910 2340
2026-04-01 23:00 3.05 422 5730 (2008) 111 (1954) 958 230 280 404 438 718 1090 1490 1910 2340
2026-04-01 22:30 3.04 419 13700 (2008) 116 (1954) 1450 242 320 384 465 777 1360 1630 2850 6270
2026-04-01 22:00 3.04 419 13700 (2008) 116 (1954) 1450 242 320 384 465 777 1360 1630 2850 6270
2026-04-01 21:30 3.03 416 13700 (2008) 116 (1954) 1450 242 320 384 465 777 1360 1630 2850 6270
2026-04-01 21:00 3.01 410 13700 (2008) 116 (1954) 1450 242 320 384 465 777 1360 1630 2850 6270
2026-04-01 20:30 2.99 404 13700 (2008) 116 (1954) 1450 242 320 384 465 777 1360 1630 2850 6270
2026-04-01 20:00 2.98 401 13700 (2008) 116 (1954) 1450 242 320 384 465 777 1360 1630 2850 6270
2026-04-01 19:30 2.97 398 13700 (2008) 116 (1954) 1450 242 320 384 465 777 1360 1630 2850 6270
2026-04-01 19:00 3.01 410 13700 (2008) 116 (1954) 1450 242 320 384 465 777 1360 1630 2850 6270
2026-04-01 18:30 3.00 407 13700 (2008) 116 (1954) 1450 242 320 384 465 777 1360 1630 2850 6270
2026-04-01 18:00 2.98 401 13700 (2008) 116 (1954) 1450 242 320 384 465 777 1360 1630 2850 6270
2026-04-01 17:30 2.97 398 13700 (2008) 116 (1954) 1450 242 320 384 465 777 1360 1630 2850 6270
2026-04-01 17:00 2.97 398 13700 (2008) 116 (1954) 1450 242 320 384 465 777 1360 1630 2850 6270
2026-04-01 16:30 2.95 392 13700 (2008) 116 (1954) 1450 242 320 384 465 777 1360 1630 2850 6270
2026-04-01 16:00 2.94 389 13700 (2008) 116 (1954) 1450 242 320 384 465 777 1360 1630 2850 6270
2026-04-01 15:30 2.95 392 13700 (2008) 116 (1954) 1450 242 320 384 465 777 1360 1630 2850 6270
2026-04-01 15:00 2.94 389 13700 (2008) 116 (1954) 1450 242 320 384 465 777 1360 1630 2850 6270
2026-04-01 14:30 2.92 384 13700 (2008) 116 (1954) 1450 242 320 384 465 777 1360 1630 2850 6270
2026-04-01 14:00 2.92 384 13700 (2008) 116 (1954) 1450 242 320 384 465 777 1360 1630 2850 6270
2026-04-01 13:30 2.91 381 13700 (2008) 116 (1954) 1450 242 320 384 465 777 1360 1630 2850 6270
2026-04-01 13:00 2.90 378 13700 (2008) 116 (1954) 1450 242 320 384 465 777 1360 1630 2850 6270
2026-04-01 12:30 2.90 378 13700 (2008) 116 (1954) 1450 242 320 384 465 777 1360 1630 2850 6270
2026-04-01 12:00 2.88 373 13700 (2008) 116 (1954) 1450 242 320 384 465 777 1360 1630 2850 6270
2026-04-01 11:30 2.88 373 13700 (2008) 116 (1954) 1450 242 320 384 465 777 1360 1630 2850 6270
2026-04-01 11:00 2.88 373 13700 (2008) 116 (1954) 1450 242 320 384 465 777 1360 1630 2850 6270
2026-04-01 10:30 2.86 367 13700 (2008) 116 (1954) 1450 242 320 384 465 777 1360 1630 2850 6270
2026-04-01 10:00 2.86 367 13700 (2008) 116 (1954) 1450 242 320 384 465 777 1360 1630 2850 6270
2026-04-01 09:30 2.84 362 13700 (2008) 116 (1954) 1450 242 320 384 465 777 1360 1630 2850 6270
2026-04-01 09:00 2.79 348 13700 (2008) 116 (1954) 1450 242 320 384 465 777 1360 1630 2850 6270
2026-04-01 08:30 2.80 351 13700 (2008) 116 (1954) 1450 242 320 384 465 777 1360 1630 2850 6270
2026-04-01 08:00 2.81 354 13700 (2008) 116 (1954) 1450 242 320 384 465 777 1360 1630 2850 6270
2026-04-01 07:30 2.79 348 13700 (2008) 116 (1954) 1450 242 320 384 465 777 1360 1630 2850 6270
2026-04-01 07:00 2.80 351 13700 (2008) 116 (1954) 1450 242 320 384 465 777 1360 1630 2850 6270
2026-04-01 06:30 2.80 351 13700 (2008) 116 (1954) 1450 242 320 384 465 777 1360 1630 2850 6270
2026-04-01 06:00 2.81 354 13700 (2008) 116 (1954) 1450 242 320 384 465 777 1360 1630 2850 6270
2026-04-01 05:30 2.80 351 13700 (2008) 116 (1954) 1450 242 320 384 465 777 1360 1630 2850 6270
2026-04-01 05:00 2.80 351 13700 (2008) 116 (1954) 1450 242 320 384 465 777 1360 1630 2850 6270
2026-04-01 04:30 2.81 354 13700 (2008) 116 (1954) 1450 242 320 384 465 777 1360 1630 2850 6270
2026-04-01 04:00 2.80 351 13700 (2008) 116 (1954) 1450 242 320 384 465 777 1360 1630 2850 6270
2026-04-01 03:30 2.80 351 13700 (2008) 116 (1954) 1450 242 320 384 465 777 1360 1630 2850 6270
2026-04-01 03:00 2.81 354 13700 (2008) 116 (1954) 1450 242 320 384 465 777 1360 1630 2850 6270
2026-04-01 02:30 2.81 354 13700 (2008) 116 (1954) 1450 242 320 384 465 777 1360 1630 2850 6270
2026-04-01 02:00 2.80 351 13700 (2008) 116 (1954) 1450 242 320 384 465 777 1360 1630 2850 6270
2026-04-01 01:30 2.80 351 13700 (2008) 116 (1954) 1450 242 320 384 465 777 1360 1630 2850 6270
2026-04-01 01:00 2.81 354 13700 (2008) 116 (1954) 1450 242 320 384 465 777 1360 1630 2850 6270
2026-04-01 00:30 2.82 356 13700 (2008) 116 (1954) 1450 242 320 384 465 777 1360 1630 2850 6270
2026-04-01 00:00 2.82 356 13700 (2008) 116 (1954) 1450 242 320 384 465 777 1360 1630 2850 6270
2026-03-31 23:30 2.81 354 13700 (2008) 116 (1954) 1450 242 320 384 465 777 1360 1630 2850 6270
2026-03-31 23:00 2.81 354 13700 (2008) 116 (1954) 1450 242 320 384 465 777 1360 1630 2850 6270
2026-03-31 22:30 2.82 356 24600 (1985) 130 (1956) 1810 246 334 410 454 770 1760 1940 4070 5010
2026-03-31 22:00 2.83 359 24600 (1985) 130 (1956) 1810 246 334 410 454 770 1760 1940 4070 5010
2026-03-31 21:30 2.83 359 24600 (1985) 130 (1956) 1810 246 334 410 454 770 1760 1940 4070 5010
2026-03-31 21:00 2.81 354 24600 (1985) 130 (1956) 1810 246 334 410 454 770 1760 1940 4070 5010
2026-03-31 20:30 2.83 359 24600 (1985) 130 (1956) 1810 246 334 410 454 770 1760 1940 4070 5010
2026-03-31 20:00 2.81 354 24600 (1985) 130 (1956) 1810 246 334 410 454 770 1760 1940 4070 5010
2026-03-31 19:30 2.83 359 24600 (1985) 130 (1956) 1810 246 334 410 454 770 1760 1940 4070 5010
2026-03-31 19:00 2.83 359 24600 (1985) 130 (1956) 1810 246 334 410 454 770 1760 1940 4070 5010
2026-03-31 18:30 2.85 365 24600 (1985) 130 (1956) 1810 246 334 410 454 770 1760 1940 4070 5010
2026-03-31 18:00 2.84 362 24600 (1985) 130 (1956) 1810 246 334 410 454 770 1760 1940 4070 5010
2026-03-31 17:30 2.81 354 24600 (1985) 130 (1956) 1810 246 334 410 454 770 1760 1940 4070 5010
2026-03-31 17:00 2.83 359 24600 (1985) 130 (1956) 1810 246 334 410 454 770 1760 1940 4070 5010
2026-03-31 16:30 2.83 359 24600 (1985) 130 (1956) 1810 246 334 410 454 770 1760 1940 4070 5010
2026-03-31 16:00 2.82 356 24600 (1985) 130 (1956) 1810 246 334 410 454 770 1760 1940 4070 5010
2026-03-31 15:30 2.82 356 24600 (1985) 130 (1956) 1810 246 334 410 454 770 1760 1940 4070 5010
2026-03-31 15:00 2.83 359 24600 (1985) 130 (1956) 1810 246 334 410 454 770 1760 1940 4070 5010
2026-03-31 14:30 2.83 359 24600 (1985) 130 (1956) 1810 246 334 410 454 770 1760 1940 4070 5010
2026-03-31 14:00 2.83 359 24600 (1985) 130 (1956) 1810 246 334 410 454 770 1760 1940 4070 5010
2026-03-31 13:30 2.83 359 24600 (1985) 130 (1956) 1810 246 334 410 454 770 1760 1940 4070 5010
2026-03-31 13:00 2.83 359 24600 (1985) 130 (1956) 1810 246 334 410 454 770 1760 1940 4070 5010
2026-03-31 12:30 2.84 362 24600 (1985) 130 (1956) 1810 246 334 410 454 770 1760 1940 4070 5010
2026-03-31 12:00 2.85 365 24600 (1985) 130 (1956) 1810 246 334 410 454 770 1760 1940 4070 5010
2026-03-31 11:30 2.83 359 24600 (1985) 130 (1956) 1810 246 334 410 454 770 1760 1940 4070 5010
2026-03-31 11:00 2.84 362 24600 (1985) 130 (1956) 1810 246 334 410 454 770 1760 1940 4070 5010
2026-03-31 10:30 2.83 359 24600 (1985) 130 (1956) 1810 246 334 410 454 770 1760 1940 4070 5010
2026-03-31 10:00 2.84 362 24600 (1985) 130 (1956) 1810 246 334 410 454 770 1760 1940 4070 5010
2026-03-31 09:30 2.84 362 24600 (1985) 130 (1956) 1810 246 334 410 454 770 1760 1940 4070 5010
2026-03-31 09:00 2.89 376 24600 (1985) 130 (1956) 1810 246 334 410 454 770 1760 1940 4070 5010
2026-03-31 08:30 2.89 376 24600 (1985) 130 (1956) 1810 246 334 410 454 770 1760 1940 4070 5010
2026-03-31 08:00 2.84 362 24600 (1985) 130 (1956) 1810 246 334 410 454 770 1760 1940 4070 5010
2026-03-31 07:30 2.86 367 24600 (1985) 130 (1956) 1810 246 334 410 454 770 1760 1940 4070 5010
2026-03-31 07:00 2.86 367 24600 (1985) 130 (1956) 1810 246 334 410 454 770 1760 1940 4070 5010
2026-03-31 06:30 2.85 365 24600 (1985) 130 (1956) 1810 246 334 410 454 770 1760 1940 4070 5010
2026-03-31 06:00 2.88 373 24600 (1985) 130 (1956) 1810 246 334 410 454 770 1760 1940 4070 5010
2026-03-31 05:30 2.85 365 24600 (1985) 130 (1956) 1810 246 334 410 454 770 1760 1940 4070 5010
2026-03-31 05:00 2.86 367 24600 (1985) 130 (1956) 1810 246 334 410 454 770 1760 1940 4070 5010
2026-03-31 04:30 2.90 378 24600 (1985) 130 (1956) 1810 246 334 410 454 770 1760 1940 4070 5010
2026-03-31 04:00 2.87 370 24600 (1985) 130 (1956) 1810 246 334 410 454 770 1760 1940 4070 5010
2026-03-31 03:30 2.86 367 24600 (1985) 130 (1956) 1810 246 334 410 454 770 1760 1940 4070 5010
2026-03-31 03:00 2.90 378 24600 (1985) 130 (1956) 1810 246 334 410 454 770 1760 1940 4070 5010
2026-03-31 02:30 2.86 367 24600 (1985) 130 (1956) 1810 246 334 410 454 770 1760 1940 4070 5010
2026-03-31 02:00 2.87 370 24600 (1985) 130 (1956) 1810 246 334 410 454 770 1760 1940 4070 5010
2026-03-31 01:30 2.84 362 24600 (1985) 130 (1956) 1810 246 334 410 454 770 1760 1940 4070 5010
2026-03-31 01:00 2.88 373 24600 (1985) 130 (1956) 1810 246 334 410 454 770 1760 1940 4070 5010
2026-03-31 00:30 2.87 370 24600 (1985) 130 (1956) 1810 246 334 410 454 770 1760 1940 4070 5010
2026-03-31 00:00 2.81 354 24600 (1985) 130 (1956) 1810 246 334 410 454 770 1760 1940 4070 5010
2026-03-30 23:30 2.83 359 24600 (1985) 130 (1956) 1810 246 334 410 454 770 1760 1940 4070 5010
2026-03-30 23:00 2.81 354 24600 (1985) 130 (1956) 1810 246 334 410 454 770 1760 1940 4070 5010
2026-03-30 22:30 2.82 356 19700 (1985) 140 (1956) 1590 245 341 426 480 780 1600 1750 2750 5470
2026-03-30 22:00 2.81 354 19700 (1985) 140 (1956) 1590 245 341 426 480 780 1600 1750 2750 5470
2026-03-30 21:30 2.83 359 19700 (1985) 140 (1956) 1590 245 341 426 480 780 1600 1750 2750 5470
2026-03-30 21:00 2.81 354 19700 (1985) 140 (1956) 1590 245 341 426 480 780 1600 1750 2750 5470
2026-03-30 20:30 2.81 354 19700 (1985) 140 (1956) 1590 245 341 426 480 780 1600 1750 2750 5470
2026-03-30 20:00 2.81 354 19700 (1985) 140 (1956) 1590 245 341 426 480 780 1600 1750 2750 5470
2026-03-30 19:30 2.83 359 19700 (1985) 140 (1956) 1590 245 341 426 480 780 1600 1750 2750 5470
2026-03-30 19:00 2.86 367 19700 (1985) 140 (1956) 1590 245 341 426 480 780 1600 1750 2750 5470
2026-03-30 18:30 2.86 367 19700 (1985) 140 (1956) 1590 245 341 426 480 780 1600 1750 2750 5470
2026-03-30 18:00 2.86 367 19700 (1985) 140 (1956) 1590 245 341 426 480 780 1600 1750 2750 5470
2026-03-30 17:30 2.86 367 19700 (1985) 140 (1956) 1590 245 341 426 480 780 1600 1750 2750 5470
2026-03-30 17:00 2.86 367 19700 (1985) 140 (1956) 1590 245 341 426 480 780 1600 1750 2750 5470
2026-03-30 16:30 2.86 367 19700 (1985) 140 (1956) 1590 245 341 426 480 780 1600 1750 2750 5470
2026-03-30 16:00 2.86 367 19700 (1985) 140 (1956) 1590 245 341 426 480 780 1600 1750 2750 5470
2026-03-30 15:30 2.86 367 19700 (1985) 140 (1956) 1590 245 341 426 480 780 1600 1750 2750 5470
2026-03-30 15:00 2.86 367 19700 (1985) 140 (1956) 1590 245 341 426 480 780 1600 1750 2750 5470
2026-03-30 14:30 2.87 370 19700 (1985) 140 (1956) 1590 245 341 426 480 780 1600 1750 2750 5470
2026-03-30 14:00 2.87 370 19700 (1985) 140 (1956) 1590 245 341 426 480 780 1600 1750 2750 5470
2026-03-30 13:30 2.88 373 19700 (1985) 140 (1956) 1590 245 341 426 480 780 1600 1750 2750 5470
2026-03-30 13:00 2.89 376 19700 (1985) 140 (1956) 1590 245 341 426 480 780 1600 1750 2750 5470
2026-03-30 12:30 2.87 370 19700 (1985) 140 (1956) 1590 245 341 426 480 780 1600 1750 2750 5470
2026-03-30 12:00 2.86 367 19700 (1985) 140 (1956) 1590 245 341 426 480 780 1600 1750 2750 5470
2026-03-30 11:30 2.87 370 19700 (1985) 140 (1956) 1590 245 341 426 480 780 1600 1750 2750 5470
2026-03-30 11:00 2.87 370 19700 (1985) 140 (1956) 1590 245 341 426 480 780 1600 1750 2750 5470
2026-03-30 10:30 2.86 367 19700 (1985) 140 (1956) 1590 245 341 426 480 780 1600 1750 2750 5470
2026-03-30 10:00 2.88 373 19700 (1985) 140 (1956) 1590 245 341 426 480 780 1600 1750 2750 5470
2026-03-30 09:30 2.87 370 19700 (1985) 140 (1956) 1590 245 341 426 480 780 1600 1750 2750 5470
2026-03-30 09:00 2.87 370 19700 (1985) 140 (1956) 1590 245 341 426 480 780 1600 1750 2750 5470
2026-03-30 08:30 2.88 373 19700 (1985) 140 (1956) 1590 245 341 426 480 780 1600 1750 2750 5470
2026-03-30 08:00 2.87 370 19700 (1985) 140 (1956) 1590 245 341 426 480 780 1600 1750 2750 5470
2026-03-30 07:30 2.87 370 19700 (1985) 140 (1956) 1590 245 341 426 480 780 1600 1750 2750 5470
2026-03-30 07:00 2.88 373 19700 (1985) 140 (1956) 1590 245 341 426 480 780 1600 1750 2750 5470
2026-03-30 06:30 2.87 370 19700 (1985) 140 (1956) 1590 245 341 426 480 780 1600 1750 2750 5470
2026-03-30 06:00 2.88 373 19700 (1985) 140 (1956) 1590 245 341 426 480 780 1600 1750 2750 5470
2026-03-30 05:30 2.88 373 19700 (1985) 140 (1956) 1590 245 341 426 480 780 1600 1750 2750 5470
2026-03-30 05:00 2.88 373 19700 (1985) 140 (1956) 1590 245 341 426 480 780 1600 1750 2750 5470
2026-03-30 04:30 2.88 373 19700 (1985) 140 (1956) 1590 245 341 426 480 780 1600 1750 2750 5470
2026-03-30 04:00 2.87 370 19700 (1985) 140 (1956) 1590 245 341 426 480 780 1600 1750 2750 5470
2026-03-30 03:30 2.88 373 19700 (1985) 140 (1956) 1590 245 341 426 480 780 1600 1750 2750 5470
2026-03-30 03:00 2.90 378 19700 (1985) 140 (1956) 1590 245 341 426 480 780 1600 1750 2750 5470
2026-03-30 02:30 2.91 381 19700 (1985) 140 (1956) 1590 245 341 426 480 780 1600 1750 2750 5470
2026-03-30 02:00 2.89 376 19700 (1985) 140 (1956) 1590 245 341 426 480 780 1600 1750 2750 5470
2026-03-30 01:30 2.89 376 19700 (1985) 140 (1956) 1590 245 341 426 480 780 1600 1750 2750 5470
2026-03-30 01:00 2.90 378 19700 (1985) 140 (1956) 1590 245 341 426 480 780 1600 1750 2750 5470
2026-03-30 00:30 2.91 381 19700 (1985) 140 (1956) 1590 245 341 426 480 780 1600 1750 2750 5470
2026-03-30 00:00 2.90 378 19700 (1985) 140 (1956) 1590 245 341 426 480 780 1600 1750 2750 5470
2026-03-29 23:30 2.89 376 19700 (1985) 140 (1956) 1590 245 341 426 480 780 1600 1750 2750 5470
2026-03-29 23:00 2.90 378 19700 (1985) 140 (1956) 1590 245 341 426 480 780 1600 1750 2750 5470
2026-03-29 22:30 2.89 376 20400 (1977) 142 (1956) 1490 249 323 423 464 795 1290 1430 3210 6000
2026-03-29 22:00 2.89 376 20400 (1977) 142 (1956) 1490 249 323 423 464 795 1290 1430 3210 6000
2026-03-29 21:30 2.89 376 20400 (1977) 142 (1956) 1490 249 323 423 464 795 1290 1430 3210 6000
2026-03-29 21:00 2.94 389 20400 (1977) 142 (1956) 1490 249 323 423 464 795 1290 1430 3210 6000
2026-03-29 20:30 2.89 376 20400 (1977) 142 (1956) 1490 249 323 423 464 795 1290 1430 3210 6000
2026-03-29 20:00 2.93 387 20400 (1977) 142 (1956) 1490 249 323 423 464 795 1290 1430 3210 6000
2026-03-29 19:30 2.91 381 20400 (1977) 142 (1956) 1490 249 323 423 464 795 1290 1430 3210 6000
2026-03-29 19:00 2.90 378 20400 (1977) 142 (1956) 1490 249 323 423 464 795 1290 1430 3210 6000
2026-03-29 18:30 2.91 381 20400 (1977) 142 (1956) 1490 249 323 423 464 795 1290 1430 3210 6000
2026-03-29 18:00 2.91 381 20400 (1977) 142 (1956) 1490 249 323 423 464 795 1290 1430 3210 6000
2026-03-29 17:30 2.92 384 20400 (1977) 142 (1956) 1490 249 323 423 464 795 1290 1430 3210 6000
2026-03-29 17:00 2.90 378 20400 (1977) 142 (1956) 1490 249 323 423 464 795 1290 1430 3210 6000
2026-03-29 16:30 2.90 378 20400 (1977) 142 (1956) 1490 249 323 423 464 795 1290 1430 3210 6000
2026-03-29 16:00 2.91 381 20400 (1977) 142 (1956) 1490 249 323 423 464 795 1290 1430 3210 6000
2026-03-29 15:30 2.91 381 20400 (1977) 142 (1956) 1490 249 323 423 464 795 1290 1430 3210 6000
2026-03-29 15:00 2.92 384 20400 (1977) 142 (1956) 1490 249 323 423 464 795 1290 1430 3210 6000
2026-03-29 14:30 2.91 381 20400 (1977) 142 (1956) 1490 249 323 423 464 795 1290 1430 3210 6000
2026-03-29 14:00 2.91 381 20400 (1977) 142 (1956) 1490 249 323 423 464 795 1290 1430 3210 6000
2026-03-29 13:30 2.91 381 20400 (1977) 142 (1956) 1490 249 323 423 464 795 1290 1430 3210 6000
2026-03-29 13:00 2.90 378 20400 (1977) 142 (1956) 1490 249 323 423 464 795 1290 1430 3210 6000
2026-03-29 12:30 2.92 384 20400 (1977) 142 (1956) 1490 249 323 423 464 795 1290 1430 3210 6000
2026-03-29 12:00 2.91 381 20400 (1977) 142 (1956) 1490 249 323 423 464 795 1290 1430 3210 6000
2026-03-29 11:30 2.92 384 20400 (1977) 142 (1956) 1490 249 323 423 464 795 1290 1430 3210 6000
2026-03-29 11:00 2.92 384 20400 (1977) 142 (1956) 1490 249 323 423 464 795 1290 1430 3210 6000
2026-03-29 10:30 2.92 384 20400 (1977) 142 (1956) 1490 249 323 423 464 795 1290 1430 3210 6000
2026-03-29 10:00 2.92 384 20400 (1977) 142 (1956) 1490 249 323 423 464 795 1290 1430 3210 6000
2026-03-29 09:30 2.92 384 20400 (1977) 142 (1956) 1490 249 323 423 464 795 1290 1430 3210 6000
2026-03-29 09:00 2.91 381 20400 (1977) 142 (1956) 1490 249 323 423 464 795 1290 1430 3210 6000
2026-03-29 08:30 2.93 387 20400 (1977) 142 (1956) 1490 249 323 423 464 795 1290 1430 3210 6000
2026-03-29 08:00 2.92 384 20400 (1977) 142 (1956) 1490 249 323 423 464 795 1290 1430 3210 6000
2026-03-29 07:30 2.93 387 20400 (1977) 142 (1956) 1490 249 323 423 464 795 1290 1430 3210 6000
2026-03-29 07:00 2.92 384 20400 (1977) 142 (1956) 1490 249 323 423 464 795 1290 1430 3210 6000
2026-03-29 06:30 2.91 381 20400 (1977) 142 (1956) 1490 249 323 423 464 795 1290 1430 3210 6000
2026-03-29 06:00 2.93 387 20400 (1977) 142 (1956) 1490 249 323 423 464 795 1290 1430 3210 6000
2026-03-29 05:30 2.92 384 20400 (1977) 142 (1956) 1490 249 323 423 464 795 1290 1430 3210 6000
2026-03-29 05:00 2.93 387 20400 (1977) 142 (1956) 1490 249 323 423 464 795 1290 1430 3210 6000
2026-03-29 04:30 2.92 384 20400 (1977) 142 (1956) 1490 249 323 423 464 795 1290 1430 3210 6000
2026-03-29 04:00 2.92 384 20400 (1977) 142 (1956) 1490 249 323 423 464 795 1290 1430 3210 6000
2026-03-29 03:30 2.94 389 20400 (1977) 142 (1956) 1490 249 323 423 464 795 1290 1430 3210 6000
2026-03-29 03:00 2.93 387 20400 (1977) 142 (1956) 1490 249 323 423 464 795 1290 1430 3210 6000
2026-03-29 02:30 2.93 387 20400 (1977) 142 (1956) 1490 249 323 423 464 795 1290 1430 3210 6000
2026-03-29 02:00 2.92 384 20400 (1977) 142 (1956) 1490 249 323 423 464 795 1290 1430 3210 6000
2026-03-29 01:30 2.94 389 20400 (1977) 142 (1956) 1490 249 323 423 464 795 1290 1430 3210 6000
2026-03-29 01:00 2.98 401 20400 (1977) 142 (1956) 1490 249 323 423 464 795 1290 1430 3210 6000
2026-03-29 00:30 2.93 387 20400 (1977) 142 (1956) 1490 249 323 423 464 795 1290 1430 3210 6000
2026-03-29 00:00 2.93 387 20400 (1977) 142 (1956) 1490 249 323 423 464 795 1290 1430 3210 6000
2026-03-28 23:30 2.95 392 20400 (1977) 142 (1956) 1490 249 323 423 464 795 1290 1430 3210 6000
2026-03-28 23:00 2.97 398 20400 (1977) 142 (1956) 1490 249 323 423 464 795 1290 1430 3210 6000
2026-03-28 22:30 2.96 395 19700 (1977) 105 (1981) 1380 211 304 420 469 791 1420 1550 2240 5330
2026-03-28 22:00 2.95 392 19700 (1977) 105 (1981) 1380 211 304 420 469 791 1420 1550 2240 5330
2026-03-28 21:30 2.96 395 19700 (1977) 105 (1981) 1380 211 304 420 469 791 1420 1550 2240 5330
2026-03-28 21:00 2.98 401 19700 (1977) 105 (1981) 1380 211 304 420 469 791 1420 1550 2240 5330
2026-03-28 20:30 2.95 392 19700 (1977) 105 (1981) 1380 211 304 420 469 791 1420 1550 2240 5330
2026-03-28 20:00 2.98 401 19700 (1977) 105 (1981) 1380 211 304 420 469 791 1420 1550 2240 5330
2026-03-28 19:30 2.95 392 19700 (1977) 105 (1981) 1380 211 304 420 469 791 1420 1550 2240 5330
2026-03-28 19:00 2.95 392 19700 (1977) 105 (1981) 1380 211 304 420 469 791 1420 1550 2240 5330
2026-03-28 18:30 2.96 395 19700 (1977) 105 (1981) 1380 211 304 420 469 791 1420 1550 2240 5330
2026-03-28 18:00 2.96 395 19700 (1977) 105 (1981) 1380 211 304 420 469 791 1420 1550 2240 5330
2026-03-28 17:30 2.94 389 19700 (1977) 105 (1981) 1380 211 304 420 469 791 1420 1550 2240 5330
2026-03-28 17:00 2.95 392 19700 (1977) 105 (1981) 1380 211 304 420 469 791 1420 1550 2240 5330
2026-03-28 16:30 2.95 392 19700 (1977) 105 (1981) 1380 211 304 420 469 791 1420 1550 2240 5330
2026-03-28 16:00 2.96 395 19700 (1977) 105 (1981) 1380 211 304 420 469 791 1420 1550 2240 5330
2026-03-28 15:30 2.97 398 19700 (1977) 105 (1981) 1380 211 304 420 469 791 1420 1550 2240 5330
2026-03-28 15:00 2.96 395 19700 (1977) 105 (1981) 1380 211 304 420 469 791 1420 1550 2240 5330
2026-03-28 14:30 2.96 395 19700 (1977) 105 (1981) 1380 211 304 420 469 791 1420 1550 2240 5330
2026-03-28 14:00 2.96 395 19700 (1977) 105 (1981) 1380 211 304 420 469 791 1420 1550 2240 5330
2026-03-28 13:30 2.97 398 19700 (1977) 105 (1981) 1380 211 304 420 469 791 1420 1550 2240 5330
2026-03-28 13:00 2.97 398 19700 (1977) 105 (1981) 1380 211 304 420 469 791 1420 1550 2240 5330
2026-03-28 12:30 2.99 404 19700 (1977) 105 (1981) 1380 211 304 420 469 791 1420 1550 2240 5330
2026-03-28 12:00 2.98 401 19700 (1977) 105 (1981) 1380 211 304 420 469 791 1420 1550 2240 5330
2026-03-28 11:30 2.97 398 19700 (1977) 105 (1981) 1380 211 304 420 469 791 1420 1550 2240 5330
2026-03-28 11:00 2.97 398 19700 (1977) 105 (1981) 1380 211 304 420 469 791 1420 1550 2240 5330
2026-03-28 10:30 2.98 401 19700 (1977) 105 (1981) 1380 211 304 420 469 791 1420 1550 2240 5330
2026-03-28 10:00 2.96 395 19700 (1977) 105 (1981) 1380 211 304 420 469 791 1420 1550 2240 5330
2026-03-28 09:30 2.98 401 19700 (1977) 105 (1981) 1380 211 304 420 469 791 1420 1550 2240 5330
2026-03-28 09:00 2.98 401 19700 (1977) 105 (1981) 1380 211 304 420 469 791 1420 1550 2240 5330
2026-03-28 08:30 2.97 398 19700 (1977) 105 (1981) 1380 211 304 420 469 791 1420 1550 2240 5330
2026-03-28 08:00 2.99 404 19700 (1977) 105 (1981) 1380 211 304 420 469 791 1420 1550 2240 5330
2026-03-28 07:30 2.98 401 19700 (1977) 105 (1981) 1380 211 304 420 469 791 1420 1550 2240 5330
2026-03-28 07:00 3.00 407 19700 (1977) 105 (1981) 1380 211 304 420 469 791 1420 1550 2240 5330
2026-03-28 06:30 2.99 404 19700 (1977) 105 (1981) 1380 211 304 420 469 791 1420 1550 2240 5330
2026-03-28 06:00 3.02 413 19700 (1977) 105 (1981) 1380 211 304 420 469 791 1420 1550 2240 5330
2026-03-28 05:30 3.00 407 19700 (1977) 105 (1981) 1380 211 304 420 469 791 1420 1550 2240 5330
2026-03-28 05:00 3.00 407 19700 (1977) 105 (1981) 1380 211 304 420 469 791 1420 1550 2240 5330
2026-03-28 04:30 2.99 404 19700 (1977) 105 (1981) 1380 211 304 420 469 791 1420 1550 2240 5330
2026-03-28 04:00 2.99 404 19700 (1977) 105 (1981) 1380 211 304 420 469 791 1420 1550 2240 5330
2026-03-28 03:30 3.00 407 19700 (1977) 105 (1981) 1380 211 304 420 469 791 1420 1550 2240 5330
2026-03-28 03:00 3.04 419 19700 (1977) 105 (1981) 1380 211 304 420 469 791 1420 1550 2240 5330
2026-03-28 02:30 3.03 416 19700 (1977) 105 (1981) 1380 211 304 420 469 791 1420 1550 2240 5330
2026-03-28 02:00 3.01 410 19700 (1977) 105 (1981) 1380 211 304 420 469 791 1420 1550 2240 5330
2026-03-28 01:30 3.00 407 19700 (1977) 105 (1981) 1380 211 304 420 469 791 1420 1550 2240 5330
2026-03-28 01:00 3.05 422 19700 (1977) 105 (1981) 1380 211 304 420 469 791 1420 1550 2240 5330
2026-03-28 00:30 3.02 413 19700 (1977) 105 (1981) 1380 211 304 420 469 791 1420 1550 2240 5330
2026-03-28 00:00 3.02 413 19700 (1977) 105 (1981) 1380 211 304 420 469 791 1420 1550 2240 5330
2026-03-27 23:30 3.03 416 19700 (1977) 105 (1981) 1380 211 304 420 469 791 1420 1550 2240 5330
2026-03-27 23:00 3.01 410 19700 (1977) 105 (1981) 1380 211 304 420 469 791 1420 1550 2240 5330
2026-03-27 22:30 3.04 419 5440 (2004) 107 (1981) 1110 192 311 446 526 851 1470 1790 2480 2600
2026-03-27 22:00 3.05 422 5440 (2004) 107 (1981) 1110 192 311 446 526 851 1470 1790 2480 2600
2026-03-27 21:30 3.04 419 5440 (2004) 107 (1981) 1110 192 311 446 526 851 1470 1790 2480 2600
2026-03-27 21:00 3.05 422 5440 (2004) 107 (1981) 1110 192 311 446 526 851 1470 1790 2480 2600
2026-03-27 20:30 3.04 419 5440 (2004) 107 (1981) 1110 192 311 446 526 851 1470 1790 2480 2600
2026-03-27 20:00 3.00 407 5440 (2004) 107 (1981) 1110 192 311 446 526 851 1470 1790 2480 2600
2026-03-27 19:30 3.02 413 5440 (2004) 107 (1981) 1110 192 311 446 526 851 1470 1790 2480 2600
2026-03-27 19:00 3.04 419 5440 (2004) 107 (1981) 1110 192 311 446 526 851 1470 1790 2480 2600
2026-03-27 18:30 3.05 422 5440 (2004) 107 (1981) 1110 192 311 446 526 851 1470 1790 2480 2600
2026-03-27 18:00 3.05 422 5440 (2004) 107 (1981) 1110 192 311 446 526 851 1470 1790 2480 2600
2026-03-27 17:30 3.06 426 5440 (2004) 107 (1981) 1110 192 311 446 526 851 1470 1790 2480 2600
2026-03-27 17:00 3.06 426 5440 (2004) 107 (1981) 1110 192 311 446 526 851 1470 1790 2480 2600
2026-03-27 16:30 3.06 426 5440 (2004) 107 (1981) 1110 192 311 446 526 851 1470 1790 2480 2600
2026-03-27 16:00 3.07 429 5440 (2004) 107 (1981) 1110 192 311 446 526 851 1470 1790 2480 2600
2026-03-27 15:30 3.06 426 5440 (2004) 107 (1981) 1110 192 311 446 526 851 1470 1790 2480 2600
2026-03-27 15:00 3.07 429 5440 (2004) 107 (1981) 1110 192 311 446 526 851 1470 1790 2480 2600
2026-03-27 14:30 3.06 426 5440 (2004) 107 (1981) 1110 192 311 446 526 851 1470 1790 2480 2600
2026-03-27 14:00 3.05 422 5440 (2004) 107 (1981) 1110 192 311 446 526 851 1470 1790 2480 2600
2026-03-27 13:30 3.05 422 5440 (2004) 107 (1981) 1110 192 311 446 526 851 1470 1790 2480 2600
2026-03-27 13:00 3.06 426 5440 (2004) 107 (1981) 1110 192 311 446 526 851 1470 1790 2480 2600
2026-03-27 12:30 3.06 426 5440 (2004) 107 (1981) 1110 192 311 446 526 851 1470 1790 2480 2600
2026-03-27 12:00 3.06 426 5440 (2004) 107 (1981) 1110 192 311 446 526 851 1470 1790 2480 2600
2026-03-27 11:30 3.07 429 5440 (2004) 107 (1981) 1110 192 311 446 526 851 1470 1790 2480 2600
2026-03-27 11:00 3.05 422 5440 (2004) 107 (1981) 1110 192 311 446 526 851 1470 1790 2480 2600
2026-03-27 10:30 3.07 429 5440 (2004) 107 (1981) 1110 192 311 446 526 851 1470 1790 2480 2600
2026-03-27 10:00 3.09 435 5440 (2004) 107 (1981) 1110 192 311 446 526 851 1470 1790 2480 2600
2026-03-27 09:30 3.07 429 5440 (2004) 107 (1981) 1110 192 311 446 526 851 1470 1790 2480 2600
2026-03-27 09:00 3.07 429 5440 (2004) 107 (1981) 1110 192 311 446 526 851 1470 1790 2480 2600
2026-03-27 08:30 3.07 429 5440 (2004) 107 (1981) 1110 192 311 446 526 851 1470 1790 2480 2600
2026-03-27 08:00 3.07 429 5440 (2004) 107 (1981) 1110 192 311 446 526 851 1470 1790 2480 2600
2026-03-27 07:30 3.13 448 5440 (2004) 107 (1981) 1110 192 311 446 526 851 1470 1790 2480 2600
2026-03-27 07:00 3.07 429 5440 (2004) 107 (1981) 1110 192 311 446 526 851 1470 1790 2480 2600
2026-03-27 06:30 3.12 445 5440 (2004) 107 (1981) 1110 192 311 446 526 851 1470 1790 2480 2600
2026-03-27 06:00 3.07 429 5440 (2004) 107 (1981) 1110 192 311 446 526 851 1470 1790 2480 2600
2026-03-27 05:30 3.09 435 5440 (2004) 107 (1981) 1110 192 311 446 526 851 1470 1790 2480 2600
2026-03-27 05:00 3.08 432 5440 (2004) 107 (1981) 1110 192 311 446 526 851 1470 1790 2480 2600
2026-03-27 04:30 3.08 432 5440 (2004) 107 (1981) 1110 192 311 446 526 851 1470 1790 2480 2600
2026-03-27 04:00 3.10 438 5440 (2004) 107 (1981) 1110 192 311 446 526 851 1470 1790 2480 2600
2026-03-27 03:30 3.07 429 5440 (2004) 107 (1981) 1110 192 311 446 526 851 1470 1790 2480 2600
2026-03-27 03:00 3.10 438 5440 (2004) 107 (1981) 1110 192 311 446 526 851 1470 1790 2480 2600
2026-03-27 02:30 3.08 432 5440 (2004) 107 (1981) 1110 192 311 446 526 851 1470 1790 2480 2600
2026-03-27 02:00 3.11 441 5440 (2004) 107 (1981) 1110 192 311 446 526 851 1470 1790 2480 2600
2026-03-27 01:30 3.10 438 5440 (2004) 107 (1981) 1110 192 311 446 526 851 1470 1790 2480 2600
2026-03-27 01:00 3.09 435 5440 (2004) 107 (1981) 1110 192 311 446 526 851 1470 1790 2480 2600
2026-03-27 00:30 3.09 435 5440 (2004) 107 (1981) 1110 192 311 446 526 851 1470 1790 2480 2600
2026-03-27 00:00 3.09 435 5440 (2004) 107 (1981) 1110 192 311 446 526 851 1470 1790 2480 2600
2026-03-26 23:30 3.09 435 5440 (2004) 107 (1981) 1110 192 311 446 526 851 1470 1790 2480 2600
2026-03-26 23:00 3.10 438 5440 (2004) 107 (1981) 1110 192 311 446 526 851 1470 1790 2480 2600
2026-03-26 22:30 3.12 445 8980 (1957) 109 (1981) 1320 202 315 432 468 771 1410 1700 3240 4870
2026-03-26 22:00 3.11 441 8980 (1957) 109 (1981) 1320 202 315 432 468 771 1410 1700 3240 4870
2026-03-26 21:30 3.09 435 8980 (1957) 109 (1981) 1320 202 315 432 468 771 1410 1700 3240 4870
2026-03-26 21:00 3.10 438 8980 (1957) 109 (1981) 1320 202 315 432 468 771 1410 1700 3240 4870
2026-03-26 20:30 3.12 445 8980 (1957) 109 (1981) 1320 202 315 432 468 771 1410 1700 3240 4870
2026-03-26 20:00 3.10 438 8980 (1957) 109 (1981) 1320 202 315 432 468 771 1410 1700 3240 4870
2026-03-26 19:30 3.10 438 8980 (1957) 109 (1981) 1320 202 315 432 468 771 1410 1700 3240 4870
2026-03-26 19:00 3.10 438 8980 (1957) 109 (1981) 1320 202 315 432 468 771 1410 1700 3240 4870
2026-03-26 18:30 3.10 438 8980 (1957) 109 (1981) 1320 202 315 432 468 771 1410 1700 3240 4870
2026-03-26 18:00 3.11 441 8980 (1957) 109 (1981) 1320 202 315 432 468 771 1410 1700 3240 4870
2026-03-26 17:30 3.10 438 8980 (1957) 109 (1981) 1320 202 315 432 468 771 1410 1700 3240 4870
2026-03-26 17:00 3.12 445 8980 (1957) 109 (1981) 1320 202 315 432 468 771 1410 1700 3240 4870
2026-03-26 16:30 3.11 441 8980 (1957) 109 (1981) 1320 202 315 432 468 771 1410 1700 3240 4870
2026-03-26 16:00 3.10 438 8980 (1957) 109 (1981) 1320 202 315 432 468 771 1410 1700 3240 4870
2026-03-26 15:30 3.10 438 8980 (1957) 109 (1981) 1320 202 315 432 468 771 1410 1700 3240 4870
2026-03-26 15:00 3.10 438 8980 (1957) 109 (1981) 1320 202 315 432 468 771 1410 1700 3240 4870
2026-03-26 14:30 3.11 441 8980 (1957) 109 (1981) 1320 202 315 432 468 771 1410 1700 3240 4870
2026-03-26 14:00 3.11 441 8980 (1957) 109 (1981) 1320 202 315 432 468 771 1410 1700 3240 4870
2026-03-26 13:30 3.11 441 8980 (1957) 109 (1981) 1320 202 315 432 468 771 1410 1700 3240 4870
2026-03-26 13:00 3.11 441 8980 (1957) 109 (1981) 1320 202 315 432 468 771 1410 1700 3240 4870
2026-03-26 12:30 3.12 445 8980 (1957) 109 (1981) 1320 202 315 432 468 771 1410 1700 3240 4870
2026-03-26 12:00 3.12 445 8980 (1957) 109 (1981) 1320 202 315 432 468 771 1410 1700 3240 4870
2026-03-26 11:30 3.10 438 8980 (1957) 109 (1981) 1320 202 315 432 468 771 1410 1700 3240 4870
2026-03-26 11:00 3.14 451 8980 (1957) 109 (1981) 1320 202 315 432 468 771 1410 1700 3240 4870
2026-03-26 10:30 3.10 438 8980 (1957) 109 (1981) 1320 202 315 432 468 771 1410 1700 3240 4870
2026-03-26 10:00 3.16 458 8980 (1957) 109 (1981) 1320 202 315 432 468 771 1410 1700 3240 4870
2026-03-26 09:30 3.11 441 8980 (1957) 109 (1981) 1320 202 315 432 468 771 1410 1700 3240 4870
2026-03-26 09:00 3.13 448 8980 (1957) 109 (1981) 1320 202 315 432 468 771 1410 1700 3240 4870
2026-03-26 08:30 3.12 445 8980 (1957) 109 (1981) 1320 202 315 432 468 771 1410 1700 3240 4870
2026-03-26 08:00 3.10 438 8980 (1957) 109 (1981) 1320 202 315 432 468 771 1410 1700 3240 4870
2026-03-26 07:30 3.16 458 8980 (1957) 109 (1981) 1320 202 315 432 468 771 1410 1700 3240 4870
2026-03-26 07:00 3.12 445 8980 (1957) 109 (1981) 1320 202 315 432 468 771 1410 1700 3240 4870
2026-03-26 06:30 3.14 451 8980 (1957) 109 (1981) 1320 202 315 432 468 771 1410 1700 3240 4870
2026-03-26 06:00 3.17 461 8980 (1957) 109 (1981) 1320 202 315 432 468 771 1410 1700 3240 4870
2026-03-26 05:30 3.17 461 8980 (1957) 109 (1981) 1320 202 315 432 468 771 1410 1700 3240 4870
2026-03-26 05:00 3.12 445 8980 (1957) 109 (1981) 1320 202 315 432 468 771 1410 1700 3240 4870
2026-03-26 04:30 3.13 448 8980 (1957) 109 (1981) 1320 202 315 432 468 771 1410 1700 3240 4870
2026-03-26 04:00 3.12 445 8980 (1957) 109 (1981) 1320 202 315 432 468 771 1410 1700 3240 4870
2026-03-26 03:30 3.15 454 8980 (1957) 109 (1981) 1320 202 315 432 468 771 1410 1700 3240 4870
2026-03-26 02:30 3.17 461 8980 (1957) 109 (1981) 1320 202 315 432 468 771 1410 1700 3240 4870
2026-03-26 02:00 3.14 451 8980 (1957) 109 (1981) 1320 202 315 432 468 771 1410 1700 3240 4870
2026-03-26 01:30 3.15 454 8980 (1957) 109 (1981) 1320 202 315 432 468 771 1410 1700 3240 4870
2026-03-26 01:00 3.16 458 8980 (1957) 109 (1981) 1320 202 315 432 468 771 1410 1700 3240 4870
2026-03-26 00:30 3.16 458 8980 (1957) 109 (1981) 1320 202 315 432 468 771 1410 1700 3240 4870
2026-03-26 00:00 3.15 454 8980 (1957) 109 (1981) 1320 202 315 432 468 771 1410 1700 3240 4870
2026-03-25 23:30 3.16 458 8980 (1957) 109 (1981) 1320 202 315 432 468 771 1410 1700 3240 4870
2026-03-25 23:00 3.18 464 8980 (1957) 109 (1981) 1320 202 315 432 468 771 1410 1700 3240 4870
2026-03-25 22:30 3.17 461 20400 (2023) 109 (1981) 1660 197 301 387 437 815 1220 1420 2600 10900
2026-03-25 22:00 3.15 454 20400 (2023) 109 (1981) 1660 197 301 387 437 815 1220 1420 2600 10900
2026-03-25 21:00 3.19 467 20400 (2023) 109 (1981) 1660 197 301 387 437 815 1220 1420 2600 10900
2026-03-25 20:30 3.17 461 20400 (2023) 109 (1981) 1660 197 301 387 437 815 1220 1420 2600 10900
2026-03-25 20:00 3.16 458 20400 (2023) 109 (1981) 1660 197 301 387 437 815 1220 1420 2600 10900
2026-03-25 19:30 3.16 458 20400 (2023) 109 (1981) 1660 197 301 387 437 815 1220 1420 2600 10900
2026-03-25 19:00 3.15 454 20400 (2023) 109 (1981) 1660 197 301 387 437 815 1220 1420 2600 10900
2026-03-25 18:30 3.15 454 20400 (2023) 109 (1981) 1660 197 301 387 437 815 1220 1420 2600 10900
2026-03-25 18:00 3.19 467 20400 (2023) 109 (1981) 1660 197 301 387 437 815 1220 1420 2600 10900
2026-03-25 17:30 3.16 458 20400 (2023) 109 (1981) 1660 197 301 387 437 815 1220 1420 2600 10900
2026-03-25 17:00 3.16 458 20400 (2023) 109 (1981) 1660 197 301 387 437 815 1220 1420 2600 10900
2026-03-25 16:30 3.19 467 20400 (2023) 109 (1981) 1660 197 301 387 437 815 1220 1420 2600 10900
2026-03-25 16:00 3.15 454 20400 (2023) 109 (1981) 1660 197 301 387 437 815 1220 1420 2600 10900
2026-03-25 15:30 3.16 458 20400 (2023) 109 (1981) 1660 197 301 387 437 815 1220 1420 2600 10900
2026-03-25 15:00 3.16 458 20400 (2023) 109 (1981) 1660 197 301 387 437 815 1220 1420 2600 10900
2026-03-25 14:30 3.18 464 20400 (2023) 109 (1981) 1660 197 301 387 437 815 1220 1420 2600 10900
2026-03-25 14:00 3.21 474 20400 (2023) 109 (1981) 1660 197 301 387 437 815 1220 1420 2600 10900
2026-03-25 13:30 3.18 464 20400 (2023) 109 (1981) 1660 197 301 387 437 815 1220 1420 2600 10900
2026-03-25 13:00 3.17 461 20400 (2023) 109 (1981) 1660 197 301 387 437 815 1220 1420 2600 10900
2026-03-25 12:30 3.22 477 20400 (2023) 109 (1981) 1660 197 301 387 437 815 1220 1420 2600 10900
2026-03-25 12:00 3.20 471 20400 (2023) 109 (1981) 1660 197 301 387 437 815 1220 1420 2600 10900
2026-03-25 11:30 3.21 474 20400 (2023) 109 (1981) 1660 197 301 387 437 815 1220 1420 2600 10900
2026-03-25 11:00 3.20 471 20400 (2023) 109 (1981) 1660 197 301 387 437 815 1220 1420 2600 10900
2026-03-25 10:30 3.20 471 20400 (2023) 109 (1981) 1660 197 301 387 437 815 1220 1420 2600 10900
2026-03-25 10:00 3.20 471 20400 (2023) 109 (1981) 1660 197 301 387 437 815 1220 1420 2600 10900
2026-03-25 09:30 3.19 467 20400 (2023) 109 (1981) 1660 197 301 387 437 815 1220 1420 2600 10900
2026-03-25 09:00 3.22 477 20400 (2023) 109 (1981) 1660 197 301 387 437 815 1220 1420 2600 10900
2026-03-25 08:30 3.20 471 20400 (2023) 109 (1981) 1660 197 301 387 437 815 1220 1420 2600 10900
2026-03-25 08:00 3.24 484 20400 (2023) 109 (1981) 1660 197 301 387 437 815 1220 1420 2600 10900
2026-03-25 07:30 3.21 474 20400 (2023) 109 (1981) 1660 197 301 387 437 815 1220 1420 2600 10900
2026-03-25 07:00 3.22 477 20400 (2023) 109 (1981) 1660 197 301 387 437 815 1220 1420 2600 10900
2026-03-25 06:30 3.20 471 20400 (2023) 109 (1981) 1660 197 301 387 437 815 1220 1420 2600 10900
2026-03-25 06:00 3.22 477 20400 (2023) 109 (1981) 1660 197 301 387 437 815 1220 1420 2600 10900
2026-03-25 05:30 3.22 477 20400 (2023) 109 (1981) 1660 197 301 387 437 815 1220 1420 2600 10900
2026-03-25 05:00 3.20 471 20400 (2023) 109 (1981) 1660 197 301 387 437 815 1220 1420 2600 10900
2026-03-25 04:30 3.21 474 20400 (2023) 109 (1981) 1660 197 301 387 437 815 1220 1420 2600 10900
2026-03-25 04:00 3.22 477 20400 (2023) 109 (1981) 1660 197 301 387 437 815 1220 1420 2600 10900
2026-03-25 03:30 3.23 480 20400 (2023) 109 (1981) 1660 197 301 387 437 815 1220 1420 2600 10900
2026-03-25 03:00 3.22 477 20400 (2023) 109 (1981) 1660 197 301 387 437 815 1220 1420 2600 10900
2026-03-25 02:30 3.23 480 20400 (2023) 109 (1981) 1660 197 301 387 437 815 1220 1420 2600 10900
2026-03-25 02:00 3.25 487 20400 (2023) 109 (1981) 1660 197 301 387 437 815 1220 1420 2600 10900
2026-03-25 01:30 3.26 490 20400 (2023) 109 (1981) 1660 197 301 387 437 815 1220 1420 2600 10900
2026-03-25 01:00 3.23 480 20400 (2023) 109 (1981) 1660 197 301 387 437 815 1220 1420 2600 10900
2026-03-25 00:30 3.23 480 20400 (2023) 109 (1981) 1660 197 301 387 437 815 1220 1420 2600 10900
2026-03-25 00:00 3.25 487 20400 (2023) 109 (1981) 1660 197 301 387 437 815 1220 1420 2600 10900
2026-03-24 23:30 3.23 480 20400 (2023) 109 (1981) 1660 197 301 387 437 815 1220 1420 2600 10900
2026-03-24 23:00 3.28 497 20400 (2023) 109 (1981) 1660 197 301 387 437 815 1220 1420 2600 10900
2026-03-24 22:30 3.24 484 11700 (2023) 110 (1981) 1260 198 251 363 428 757 1360 1510 2090 4630
2026-03-24 22:00 3.27 494 11700 (2023) 110 (1981) 1260 198 251 363 428 757 1360 1510 2090 4630
2026-03-24 21:30 3.23 480 11700 (2023) 110 (1981) 1260 198 251 363 428 757 1360 1510 2090 4630
2026-03-24 21:00 3.24 484 11700 (2023) 110 (1981) 1260 198 251 363 428 757 1360 1510 2090 4630
2026-03-24 20:30 3.29 500 11700 (2023) 110 (1981) 1260 198 251 363 428 757 1360 1510 2090 4630
2026-03-24 20:00 3.26 490 11700 (2023) 110 (1981) 1260 198 251 363 428 757 1360 1510 2090 4630
2026-03-24 19:30 3.24 484 11700 (2023) 110 (1981) 1260 198 251 363 428 757 1360 1510 2090 4630
2026-03-24 19:00 3.30 504 11700 (2023) 110 (1981) 1260 198 251 363 428 757 1360 1510 2090 4630
2026-03-24 18:30 3.29 500 11700 (2023) 110 (1981) 1260 198 251 363 428 757 1360 1510 2090 4630
2026-03-24 18:00 3.29 500 11700 (2023) 110 (1981) 1260 198 251 363 428 757 1360 1510 2090 4630
2026-03-24 17:30 3.32 510 11700 (2023) 110 (1981) 1260 198 251 363 428 757 1360 1510 2090 4630
2026-03-24 17:00 3.31 507 11700 (2023) 110 (1981) 1260 198 251 363 428 757 1360 1510 2090 4630
2026-03-24 16:30 3.32 510 11700 (2023) 110 (1981) 1260 198 251 363 428 757 1360 1510 2090 4630
2026-03-24 16:00 3.28 497 11700 (2023) 110 (1981) 1260 198 251 363 428 757 1360 1510 2090 4630
2026-03-24 15:30 3.33 514 11700 (2023) 110 (1981) 1260 198 251 363 428 757 1360 1510 2090 4630
2026-03-24 15:00 3.30 504 11700 (2023) 110 (1981) 1260 198 251 363 428 757 1360 1510 2090 4630
2026-03-24 14:30 3.30 504 11700 (2023) 110 (1981) 1260 198 251 363 428 757 1360 1510 2090 4630
2026-03-24 14:00 3.30 504 11700 (2023) 110 (1981) 1260 198 251 363 428 757 1360 1510 2090 4630
2026-03-24 13:30 3.30 504 11700 (2023) 110 (1981) 1260 198 251 363 428 757 1360 1510 2090 4630
2026-03-24 13:00 3.30 504 11700 (2023) 110 (1981) 1260 198 251 363 428 757 1360 1510 2090 4630
2026-03-24 12:30 3.32 510 11700 (2023) 110 (1981) 1260 198 251 363 428 757 1360 1510 2090 4630
2026-03-24 12:00 3.34 517 11700 (2023) 110 (1981) 1260 198 251 363 428 757 1360 1510 2090 4630
2026-03-24 11:30 3.35 520 11700 (2023) 110 (1981) 1260 198 251 363 428 757 1360 1510 2090 4630
2026-03-24 11:00 3.35 520 11700 (2023) 110 (1981) 1260 198 251 363 428 757 1360 1510 2090 4630
2026-03-24 10:30 3.36 524 11700 (2023) 110 (1981) 1260 198 251 363 428 757 1360 1510 2090 4630
2026-03-24 10:00 3.35 520 11700 (2023) 110 (1981) 1260 198 251 363 428 757 1360 1510 2090 4630
2026-03-24 09:30 3.34 517 11700 (2023) 110 (1981) 1260 198 251 363 428 757 1360 1510 2090 4630
2026-03-24 09:00 3.35 520 11700 (2023) 110 (1981) 1260 198 251 363 428 757 1360 1510 2090 4630
2026-03-24 08:30 3.36 524 11700 (2023) 110 (1981) 1260 198 251 363 428 757 1360 1510 2090 4630
2026-03-24 08:00 3.34 517 11700 (2023) 110 (1981) 1260 198 251 363 428 757 1360 1510 2090 4630
2026-03-24 07:30 3.34 517 11700 (2023) 110 (1981) 1260 198 251 363 428 757 1360 1510 2090 4630
2026-03-24 07:00 3.36 524 11700 (2023) 110 (1981) 1260 198 251 363 428 757 1360 1510 2090 4630
2026-03-24 06:30 3.37 527 11700 (2023) 110 (1981) 1260 198 251 363 428 757 1360 1510 2090 4630
2026-03-24 06:00 3.37 527 11700 (2023) 110 (1981) 1260 198 251 363 428 757 1360 1510 2090 4630
2026-03-24 05:30 3.36 524 11700 (2023) 110 (1981) 1260 198 251 363 428 757 1360 1510 2090 4630
2026-03-24 05:00 3.39 534 11700 (2023) 110 (1981) 1260 198 251 363 428 757 1360 1510 2090 4630
2026-03-24 04:30 3.39 534 11700 (2023) 110 (1981) 1260 198 251 363 428 757 1360 1510 2090 4630
2026-03-24 04:00 3.37 527 11700 (2023) 110 (1981) 1260 198 251 363 428 757 1360 1510 2090 4630
2026-03-24 03:30 3.38 530 11700 (2023) 110 (1981) 1260 198 251 363 428 757 1360 1510 2090 4630
2026-03-24 03:00 3.39 534 11700 (2023) 110 (1981) 1260 198 251 363 428 757 1360 1510 2090 4630
2026-03-24 02:30 3.38 530 11700 (2023) 110 (1981) 1260 198 251 363 428 757 1360 1510 2090 4630
2026-03-24 02:00 3.39 534 11700 (2023) 110 (1981) 1260 198 251 363 428 757 1360 1510 2090 4630
2026-03-24 01:30 3.39 534 11700 (2023) 110 (1981) 1260 198 251 363 428 757 1360 1510 2090 4630
2026-03-24 01:00 3.39 534 11700 (2023) 110 (1981) 1260 198 251 363 428 757 1360 1510 2090 4630
2026-03-24 00:30 3.40 537 11700 (2023) 110 (1981) 1260 198 251 363 428 757 1360 1510 2090 4630
2026-03-24 00:00 3.39 534 11700 (2023) 110 (1981) 1260 198 251 363 428 757 1360 1510 2090 4630
2026-03-23 23:30 3.40 537 11700 (2023) 110 (1981) 1260 198 251 363 428 757 1360 1510 2090 4630
2026-03-23 23:00 3.42 544 11700 (2023) 110 (1981) 1260 198 251 363 428 757 1360 1510 2090 4630
2026-03-23 22:30 3.42 544 5840 (1979) 114 (1981) 1010 201 232 366 424 734 1350 1430 2070 2950
2026-03-23 22:00 3.41 541 5840 (1979) 114 (1981) 1010 201 232 366 424 734 1350 1430 2070 2950
2026-03-23 21:30 3.41 541 5840 (1979) 114 (1981) 1010 201 232 366 424 734 1350 1430 2070 2950
2026-03-23 21:00 3.41 541 5840 (1979) 114 (1981) 1010 201 232 366 424 734 1350 1430 2070 2950
2026-03-23 20:30 3.45 554 5840 (1979) 114 (1981) 1010 201 232 366 424 734 1350 1430 2070 2950
2026-03-23 20:00 3.45 554 5840 (1979) 114 (1981) 1010 201 232 366 424 734 1350 1430 2070 2950
2026-03-23 19:30 3.45 554 5840 (1979) 114 (1981) 1010 201 232 366 424 734 1350 1430 2070 2950
2026-03-23 19:00 3.42 544 5840 (1979) 114 (1981) 1010 201 232 366 424 734 1350 1430 2070 2950
2026-03-23 18:30 3.44 551 5840 (1979) 114 (1981) 1010 201 232 366 424 734 1350 1430 2070 2950
2026-03-23 18:00 3.47 561 5840 (1979) 114 (1981) 1010 201 232 366 424 734 1350 1430 2070 2950
2026-03-23 17:30 3.44 551 5840 (1979) 114 (1981) 1010 201 232 366 424 734 1350 1430 2070 2950
2026-03-23 17:00 3.46 558 5840 (1979) 114 (1981) 1010 201 232 366 424 734 1350 1430 2070 2950
2026-03-23 16:30 3.44 551 5840 (1979) 114 (1981) 1010 201 232 366 424 734 1350 1430 2070 2950
2026-03-23 16:00 3.49 568 5840 (1979) 114 (1981) 1010 201 232 366 424 734 1350 1430 2070 2950
2026-03-23 15:30 3.47 561 5840 (1979) 114 (1981) 1010 201 232 366 424 734 1350 1430 2070 2950
2026-03-23 15:00 3.45 554 5840 (1979) 114 (1981) 1010 201 232 366 424 734 1350 1430 2070 2950
2026-03-23 14:30 3.46 558 5840 (1979) 114 (1981) 1010 201 232 366 424 734 1350 1430 2070 2950
2026-03-23 14:00 3.49 568 5840 (1979) 114 (1981) 1010 201 232 366 424 734 1350 1430 2070 2950
2026-03-23 13:30 3.45 554 5840 (1979) 114 (1981) 1010 201 232 366 424 734 1350 1430 2070 2950
2026-03-23 13:00 3.50 572 5840 (1979) 114 (1981) 1010 201 232 366 424 734 1350 1430 2070 2950
2026-03-23 12:30 3.50 572 5840 (1979) 114 (1981) 1010 201 232 366 424 734 1350 1430 2070 2950
2026-03-23 12:00 3.50 572 5840 (1979) 114 (1981) 1010 201 232 366 424 734 1350 1430 2070 2950
2026-03-23 11:30 3.48 565 5840 (1979) 114 (1981) 1010 201 232 366 424 734 1350 1430 2070 2950
2026-03-23 11:00 3.50 572 5840 (1979) 114 (1981) 1010 201 232 366 424 734 1350 1430 2070 2950
2026-03-23 10:30 3.48 565 5840 (1979) 114 (1981) 1010 201 232 366 424 734 1350 1430 2070 2950
2026-03-23 10:00 3.49 568 5840 (1979) 114 (1981) 1010 201 232 366 424 734 1350 1430 2070 2950
2026-03-23 09:30 3.48 565 5840 (1979) 114 (1981) 1010 201 232 366 424 734 1350 1430 2070 2950
2026-03-23 09:00 3.50 572 5840 (1979) 114 (1981) 1010 201 232 366 424 734 1350 1430 2070 2950
2026-03-23 08:30 3.51 575 5840 (1979) 114 (1981) 1010 201 232 366 424 734 1350 1430 2070 2950
2026-03-23 08:00 3.49 568 5840 (1979) 114 (1981) 1010 201 232 366 424 734 1350 1430 2070 2950
2026-03-23 07:30 3.52 579 5840 (1979) 114 (1981) 1010 201 232 366 424 734 1350 1430 2070 2950
2026-03-23 07:00 3.52 579 5840 (1979) 114 (1981) 1010 201 232 366 424 734 1350 1430 2070 2950
2026-03-23 06:30 3.52 579 5840 (1979) 114 (1981) 1010 201 232 366 424 734 1350 1430 2070 2950
2026-03-23 06:00 3.53 582 5840 (1979) 114 (1981) 1010 201 232 366 424 734 1350 1430 2070 2950
2026-03-23 05:30 3.50 572 5840 (1979) 114 (1981) 1010 201 232 366 424 734 1350 1430 2070 2950
2026-03-23 05:00 3.51 575 5840 (1979) 114 (1981) 1010 201 232 366 424 734 1350 1430 2070 2950
2026-03-23 04:30 3.51 575 5840 (1979) 114 (1981) 1010 201 232 366 424 734 1350 1430 2070 2950
2026-03-23 04:00 3.56 593 5840 (1979) 114 (1981) 1010 201 232 366 424 734 1350 1430 2070 2950
2026-03-23 03:30 3.53 582 5840 (1979) 114 (1981) 1010 201 232 366 424 734 1350 1430 2070 2950
2026-03-23 03:00 3.53 582 5840 (1979) 114 (1981) 1010 201 232 366 424 734 1350 1430 2070 2950
2026-03-23 02:30 3.56 593 5840 (1979) 114 (1981) 1010 201 232 366 424 734 1350 1430 2070 2950
2026-03-23 02:00 3.57 596 5840 (1979) 114 (1981) 1010 201 232 366 424 734 1350 1430 2070 2950
2026-03-23 01:30 3.55 589 5840 (1979) 114 (1981) 1010 201 232 366 424 734 1350 1430 2070 2950
2026-03-23 01:00 3.56 593 5840 (1979) 114 (1981) 1010 201 232 366 424 734 1350 1430 2070 2950
2026-03-23 00:30 3.55 589 5840 (1979) 114 (1981) 1010 201 232 366 424 734 1350 1430 2070 2950
2026-03-23 00:00 3.57 596 5840 (1979) 114 (1981) 1010 201 232 366 424 734 1350 1430 2070 2950
2026-03-22 23:30 3.56 593 5840 (1979) 114 (1981) 1010 201 232 366 424 734 1350 1430 2070 2950
2026-03-22 23:00 3.60 607 5840 (1979) 114 (1981) 1010 201 232 366 424 734 1350 1430 2070 2950
2026-03-22 22:30 3.54 586 6950 (1955) 114 (1981) 1110 209 236 370 451 715 1570 1740 2250 2780
2026-03-22 22:00 3.59 603 6950 (1955) 114 (1981) 1110 209 236 370 451 715 1570 1740 2250 2780
2026-03-22 21:30 3.60 607 6950 (1955) 114 (1981) 1110 209 236 370 451 715 1570 1740 2250 2780
2026-03-22 21:00 3.60 607 6950 (1955) 114 (1981) 1110 209 236 370 451 715 1570 1740 2250 2780
2026-03-22 20:30 3.58 600 6950 (1955) 114 (1981) 1110 209 236 370 451 715 1570 1740 2250 2780
2026-03-22 20:00 3.60 607 6950 (1955) 114 (1981) 1110 209 236 370 451 715 1570 1740 2250 2780
2026-03-22 19:30 3.59 603 6950 (1955) 114 (1981) 1110 209 236 370 451 715 1570 1740 2250 2780
2026-03-22 19:00 3.61 610 6950 (1955) 114 (1981) 1110 209 236 370 451 715 1570 1740 2250 2780
2026-03-22 18:30 3.62 614 6950 (1955) 114 (1981) 1110 209 236 370 451 715 1570 1740 2250 2780
2026-03-22 18:00 3.61 610 6950 (1955) 114 (1981) 1110 209 236 370 451 715 1570 1740 2250 2780
2026-03-22 17:30 3.59 603 6950 (1955) 114 (1981) 1110 209 236 370 451 715 1570 1740 2250 2780
2026-03-22 17:00 3.63 617 6950 (1955) 114 (1981) 1110 209 236 370 451 715 1570 1740 2250 2780
2026-03-22 16:30 3.59 603 6950 (1955) 114 (1981) 1110 209 236 370 451 715 1570 1740 2250 2780
2026-03-22 16:00 3.61 610 6950 (1955) 114 (1981) 1110 209 236 370 451 715 1570 1740 2250 2780
2026-03-22 15:30 3.61 610 6950 (1955) 114 (1981) 1110 209 236 370 451 715 1570 1740 2250 2780
2026-03-22 15:00 3.60 607 6950 (1955) 114 (1981) 1110 209 236 370 451 715 1570 1740 2250 2780
2026-03-22 14:30 3.63 617 6950 (1955) 114 (1981) 1110 209 236 370 451 715 1570 1740 2250 2780
2026-03-22 14:00 3.62 614 6950 (1955) 114 (1981) 1110 209 236 370 451 715 1570 1740 2250 2780
2026-03-22 13:30 3.65 624 6950 (1955) 114 (1981) 1110 209 236 370 451 715 1570 1740 2250 2780
2026-03-22 13:00 3.66 628 6950 (1955) 114 (1981) 1110 209 236 370 451 715 1570 1740 2250 2780
2026-03-22 12:30 3.65 624 6950 (1955) 114 (1981) 1110 209 236 370 451 715 1570 1740 2250 2780
2026-03-22 12:00 3.65 624 6950 (1955) 114 (1981) 1110 209 236 370 451 715 1570 1740 2250 2780
2026-03-22 11:30 3.66 628 6950 (1955) 114 (1981) 1110 209 236 370 451 715 1570 1740 2250 2780
2026-03-22 11:00 3.68 635 6950 (1955) 114 (1981) 1110 209 236 370 451 715 1570 1740 2250 2780
2026-03-22 10:30 3.65 624 6950 (1955) 114 (1981) 1110 209 236 370 451 715 1570 1740 2250 2780
2026-03-22 10:00 3.67 632 6950 (1955) 114 (1981) 1110 209 236 370 451 715 1570 1740 2250 2780
2026-03-22 09:30 3.66 628 6950 (1955) 114 (1981) 1110 209 236 370 451 715 1570 1740 2250 2780
2026-03-22 09:00 3.67 632 6950 (1955) 114 (1981) 1110 209 236 370 451 715 1570 1740 2250 2780
2026-03-22 08:30 3.69 639 6950 (1955) 114 (1981) 1110 209 236 370 451 715 1570 1740 2250 2780
2026-03-22 08:00 3.68 635 6950 (1955) 114 (1981) 1110 209 236 370 451 715 1570 1740 2250 2780
2026-03-22 07:30 3.68 635 6950 (1955) 114 (1981) 1110 209 236 370 451 715 1570 1740 2250 2780
2026-03-22 07:00 3.68 635 6950 (1955) 114 (1981) 1110 209 236 370 451 715 1570 1740 2250 2780
2026-03-22 06:30 3.69 639 6950 (1955) 114 (1981) 1110 209 236 370 451 715 1570 1740 2250 2780
2026-03-22 06:00 3.67 632 6950 (1955) 114 (1981) 1110 209 236 370 451 715 1570 1740 2250 2780
2026-03-22 05:30 3.69 639 6950 (1955) 114 (1981) 1110 209 236 370 451 715 1570 1740 2250 2780
2026-03-22 05:00 3.68 635 6950 (1955) 114 (1981) 1110 209 236 370 451 715 1570 1740 2250 2780
2026-03-22 04:30 3.69 639 6950 (1955) 114 (1981) 1110 209 236 370 451 715 1570 1740 2250 2780
2026-03-22 04:00 3.69 639 6950 (1955) 114 (1981) 1110 209 236 370 451 715 1570 1740 2250 2780
2026-03-22 03:30 3.70 642 6950 (1955) 114 (1981) 1110 209 236 370 451 715 1570 1740 2250 2780
2026-03-22 03:00 3.68 635 6950 (1955) 114 (1981) 1110 209 236 370 451 715 1570 1740 2250 2780
2026-03-22 02:30 3.68 635 6950 (1955) 114 (1981) 1110 209 236 370 451 715 1570 1740 2250 2780
2026-03-22 02:00 3.71 646 6950 (1955) 114 (1981) 1110 209 236 370 451 715 1570 1740 2250 2780
2026-03-22 01:30 3.69 639 6950 (1955) 114 (1981) 1110 209 236 370 451 715 1570 1740 2250 2780
2026-03-22 01:00 3.72 650 6950 (1955) 114 (1981) 1110 209 236 370 451 715 1570 1740 2250 2780
2026-03-22 00:30 3.71 646 6950 (1955) 114 (1981) 1110 209 236 370 451 715 1570 1740 2250 2780
2026-03-22 00:00 3.73 653 6950 (1955) 114 (1981) 1110 209 236 370 451 715 1570 1740 2250 2780
2026-03-21 23:30 3.73 653 6950 (1955) 114 (1981) 1110 209 236 370 451 715 1570 1740 2250 2780
2026-03-21 23:00 3.74 657 6950 (1955) 114 (1981) 1110 209 236 370 451 715 1570 1740 2250 2780
2026-03-21 22:30 3.74 657 13900 (1962) 109 (1981) 1590 205 242 389 479 816 1400 1970 3600 6280
2026-03-21 22:00 3.74 657 13900 (1962) 109 (1981) 1590 205 242 389 479 816 1400 1970 3600 6280
2026-03-21 21:30 3.75 661 13900 (1962) 109 (1981) 1590 205 242 389 479 816 1400 1970 3600 6280
2026-03-21 21:00 3.74 657 13900 (1962) 109 (1981) 1590 205 242 389 479 816 1400 1970 3600 6280
2026-03-21 20:30 3.74 657 13900 (1962) 109 (1981) 1590 205 242 389 479 816 1400 1970 3600 6280
2026-03-21 20:00 3.76 664 13900 (1962) 109 (1981) 1590 205 242 389 479 816 1400 1970 3600 6280
2026-03-21 19:30 3.76 664 13900 (1962) 109 (1981) 1590 205 242 389 479 816 1400 1970 3600 6280
2026-03-21 19:00 3.74 657 13900 (1962) 109 (1981) 1590 205 242 389 479 816 1400 1970 3600 6280
2026-03-21 18:30 3.78 671 13900 (1962) 109 (1981) 1590 205 242 389 479 816 1400 1970 3600 6280
2026-03-21 18:00 3.78 671 13900 (1962) 109 (1981) 1590 205 242 389 479 816 1400 1970 3600 6280
2026-03-21 17:30 3.75 661 13900 (1962) 109 (1981) 1590 205 242 389 479 816 1400 1970 3600 6280
2026-03-21 17:00 3.74 657 13900 (1962) 109 (1981) 1590 205 242 389 479 816 1400 1970 3600 6280
2026-03-21 16:30 3.77 668 13900 (1962) 109 (1981) 1590 205 242 389 479 816 1400 1970 3600 6280
2026-03-21 16:00 3.78 671 13900 (1962) 109 (1981) 1590 205 242 389 479 816 1400 1970 3600 6280
2026-03-21 15:30 3.77 668 13900 (1962) 109 (1981) 1590 205 242 389 479 816 1400 1970 3600 6280
2026-03-21 15:00 3.79 675 13900 (1962) 109 (1981) 1590 205 242 389 479 816 1400 1970 3600 6280
2026-03-21 14:30 3.78 671 13900 (1962) 109 (1981) 1590 205 242 389 479 816 1400 1970 3600 6280
2026-03-21 14:00 3.80 679 13900 (1962) 109 (1981) 1590 205 242 389 479 816 1400 1970 3600 6280
2026-03-21 13:30 3.82 686 13900 (1962) 109 (1981) 1590 205 242 389 479 816 1400 1970 3600 6280
2026-03-21 13:00 3.80 679 13900 (1962) 109 (1981) 1590 205 242 389 479 816 1400 1970 3600 6280
2026-03-21 12:30 3.80 679 13900 (1962) 109 (1981) 1590 205 242 389 479 816 1400 1970 3600 6280
2026-03-21 12:00 3.81 682 13900 (1962) 109 (1981) 1590 205 242 389 479 816 1400 1970 3600 6280
2026-03-21 11:30 3.81 682 13900 (1962) 109 (1981) 1590 205 242 389 479 816 1400 1970 3600 6280
2026-03-21 11:00 3.82 686 13900 (1962) 109 (1981) 1590 205 242 389 479 816 1400 1970 3600 6280
2026-03-21 10:30 3.84 694 13900 (1962) 109 (1981) 1590 205 242 389 479 816 1400 1970 3600 6280
2026-03-21 10:00 3.83 690 13900 (1962) 109 (1981) 1590 205 242 389 479 816 1400 1970 3600 6280
2026-03-21 09:30 3.83 690 13900 (1962) 109 (1981) 1590 205 242 389 479 816 1400 1970 3600 6280
2026-03-21 09:00 3.82 686 13900 (1962) 109 (1981) 1590 205 242 389 479 816 1400 1970 3600 6280
2026-03-21 08:30 3.83 690 13900 (1962) 109 (1981) 1590 205 242 389 479 816 1400 1970 3600 6280
2026-03-21 08:00 3.82 686 13900 (1962) 109 (1981) 1590 205 242 389 479 816 1400 1970 3600 6280
2026-03-21 07:30 3.83 690 13900 (1962) 109 (1981) 1590 205 242 389 479 816 1400 1970 3600 6280
2026-03-21 07:00 3.83 690 13900 (1962) 109 (1981) 1590 205 242 389 479 816 1400 1970 3600 6280
2026-03-21 06:30 3.84 694 13900 (1962) 109 (1981) 1590 205 242 389 479 816 1400 1970 3600 6280
2026-03-21 06:00 3.84 694 13900 (1962) 109 (1981) 1590 205 242 389 479 816 1400 1970 3600 6280
2026-03-21 05:30 3.86 701 13900 (1962) 109 (1981) 1590 205 242 389 479 816 1400 1970 3600 6280
2026-03-21 05:00 3.85 697 13900 (1962) 109 (1981) 1590 205 242 389 479 816 1400 1970 3600 6280
2026-03-21 04:30 3.86 701 13900 (1962) 109 (1981) 1590 205 242 389 479 816 1400 1970 3600 6280
2026-03-21 04:00 3.86 701 13900 (1962) 109 (1981) 1590 205 242 389 479 816 1400 1970 3600 6280
2026-03-21 03:30 3.87 705 13900 (1962) 109 (1981) 1590 205 242 389 479 816 1400 1970 3600 6280
2026-03-21 03:00 3.86 701 13900 (1962) 109 (1981) 1590 205 242 389 479 816 1400 1970 3600 6280
2026-03-21 02:30 3.87 705 13900 (1962) 109 (1981) 1590 205 242 389 479 816 1400 1970 3600 6280
2026-03-21 02:00 3.87 705 13900 (1962) 109 (1981) 1590 205 242 389 479 816 1400 1970 3600 6280
2026-03-21 01:30 3.90 716 13900 (1962) 109 (1981) 1590 205 242 389 479 816 1400 1970 3600 6280
2026-03-21 01:00 3.89 712 13900 (1962) 109 (1981) 1590 205 242 389 479 816 1400 1970 3600 6280
2026-03-21 00:30 3.90 716 13900 (1962) 109 (1981) 1590 205 242 389 479 816 1400 1970 3600 6280
2026-03-21 00:00 3.89 712 13900 (1962) 109 (1981) 1590 205 242 389 479 816 1400 1970 3600 6280
2026-03-20 23:30 3.90 716 13900 (1962) 109 (1981) 1590 205 242 389 479 816 1400 1970 3600 6280
2026-03-20 23:00 3.89 712 13900 (1962) 109 (1981) 1590 205 242 389 479 816 1400 1970 3600 6280
2026-03-20 22:30 3.91 720 34600 (2008) 110 (1981) 1920 218 258 407 467 793 1710 1980 3080 7750
2026-03-20 22:00 3.91 720 34600 (2008) 110 (1981) 1920 218 258 407 467 793 1710 1980 3080 7750
2026-03-20 21:30 3.92 723 34600 (2008) 110 (1981) 1920 218 258 407 467 793 1710 1980 3080 7750
2026-03-20 21:00 3.92 723 34600 (2008) 110 (1981) 1920 218 258 407 467 793 1710 1980 3080 7750
2026-03-20 20:30 3.92 723 34600 (2008) 110 (1981) 1920 218 258 407 467 793 1710 1980 3080 7750
2026-03-20 20:00 3.93 727 34600 (2008) 110 (1981) 1920 218 258 407 467 793 1710 1980 3080 7750
2026-03-20 19:30 3.94 731 34600 (2008) 110 (1981) 1920 218 258 407 467 793 1710 1980 3080 7750
2026-03-20 19:00 3.94 731 34600 (2008) 110 (1981) 1920 218 258 407 467 793 1710 1980 3080 7750
2026-03-20 18:30 3.93 727 34600 (2008) 110 (1981) 1920 218 258 407 467 793 1710 1980 3080 7750
2026-03-20 18:00 3.94 731 34600 (2008) 110 (1981) 1920 218 258 407 467 793 1710 1980 3080 7750
2026-03-20 17:30 3.94 731 34600 (2008) 110 (1981) 1920 218 258 407 467 793 1710 1980 3080 7750
2026-03-20 17:00 3.95 735 34600 (2008) 110 (1981) 1920 218 258 407 467 793 1710 1980 3080 7750
2026-03-20 16:30 3.96 738 34600 (2008) 110 (1981) 1920 218 258 407 467 793 1710 1980 3080 7750
2026-03-20 16:00 3.94 731 34600 (2008) 110 (1981) 1920 218 258 407 467 793 1710 1980 3080 7750
2026-03-20 15:30 3.95 735 34600 (2008) 110 (1981) 1920 218 258 407 467 793 1710 1980 3080 7750
2026-03-20 15:00 3.95 735 34600 (2008) 110 (1981) 1920 218 258 407 467 793 1710 1980 3080 7750
2026-03-20 14:30 3.96 738 34600 (2008) 110 (1981) 1920 218 258 407 467 793 1710 1980 3080 7750
2026-03-20 14:00 3.97 742 34600 (2008) 110 (1981) 1920 218 258 407 467 793 1710 1980 3080 7750
2026-03-20 13:30 3.96 738 34600 (2008) 110 (1981) 1920 218 258 407 467 793 1710 1980 3080 7750
2026-03-20 13:00 3.97 742 34600 (2008) 110 (1981) 1920 218 258 407 467 793 1710 1980 3080 7750
2026-03-20 12:30 3.97 742 34600 (2008) 110 (1981) 1920 218 258 407 467 793 1710 1980 3080 7750
2026-03-20 12:00 3.98 746 34600 (2008) 110 (1981) 1920 218 258 407 467 793 1710 1980 3080 7750
2026-03-20 11:30 3.96 738 34600 (2008) 110 (1981) 1920 218 258 407 467 793 1710 1980 3080 7750
2026-03-20 11:00 3.99 750 34600 (2008) 110 (1981) 1920 218 258 407 467 793 1710 1980 3080 7750
2026-03-20 10:30 3.98 746 34600 (2008) 110 (1981) 1920 218 258 407 467 793 1710 1980 3080 7750
2026-03-20 10:00 3.98 746 34600 (2008) 110 (1981) 1920 218 258 407 467 793 1710 1980 3080 7750
2026-03-20 09:30 3.98 746 34600 (2008) 110 (1981) 1920 218 258 407 467 793 1710 1980 3080 7750
2026-03-20 09:00 4.01 757 34600 (2008) 110 (1981) 1920 218 258 407 467 793 1710 1980 3080 7750
2026-03-20 08:30 3.99 750 34600 (2008) 110 (1981) 1920 218 258 407 467 793 1710 1980 3080 7750
2026-03-20 08:00 3.99 750 34600 (2008) 110 (1981) 1920 218 258 407 467 793 1710 1980 3080 7750
2026-03-20 07:30 4.01 757 34600 (2008) 110 (1981) 1920 218 258 407 467 793 1710 1980 3080 7750
2026-03-20 07:00 4.01 757 34600 (2008) 110 (1981) 1920 218 258 407 467 793 1710 1980 3080 7750
2026-03-20 06:30 4.00 753 34600 (2008) 110 (1981) 1920 218 258 407 467 793 1710 1980 3080 7750
2026-03-20 06:00 4.02 761 34600 (2008) 110 (1981) 1920 218 258 407 467 793 1710 1980 3080 7750
2026-03-20 05:30 4.02 761 34600 (2008) 110 (1981) 1920 218 258 407 467 793 1710 1980 3080 7750
2026-03-20 05:00 4.02 761 34600 (2008) 110 (1981) 1920 218 258 407 467 793 1710 1980 3080 7750
2026-03-20 04:30 4.03 765 34600 (2008) 110 (1981) 1920 218 258 407 467 793 1710 1980 3080 7750
2026-03-20 04:00 4.03 765 34600 (2008) 110 (1981) 1920 218 258 407 467 793 1710 1980 3080 7750
2026-03-20 03:30 4.05 773 34600 (2008) 110 (1981) 1920 218 258 407 467 793 1710 1980 3080 7750
2026-03-20 03:00 4.04 769 34600 (2008) 110 (1981) 1920 218 258 407 467 793 1710 1980 3080 7750
2026-03-20 02:30 4.04 769 34600 (2008) 110 (1981) 1920 218 258 407 467 793 1710 1980 3080 7750
2026-03-20 02:00 4.04 769 34600 (2008) 110 (1981) 1920 218 258 407 467 793 1710 1980 3080 7750
2026-03-20 01:30 4.05 773 34600 (2008) 110 (1981) 1920 218 258 407 467 793 1710 1980 3080 7750
2026-03-20 01:00 4.06 776 34600 (2008) 110 (1981) 1920 218 258 407 467 793 1710 1980 3080 7750
2026-03-20 00:30 4.05 773 34600 (2008) 110 (1981) 1920 218 258 407 467 793 1710 1980 3080 7750
2026-03-20 00:00 4.07 780 34600 (2008) 110 (1981) 1920 218 258 407 467 793 1710 1980 3080 7750
2026-03-19 23:30 4.07 780 34600 (2008) 110 (1981) 1920 218 258 407 467 793 1710 1980 3080 7750
2026-03-19 23:00 4.08 784 34600 (2008) 110 (1981) 1920 218 258 407 467 793 1710 1980 3080 7750
2026-03-19 22:30 4.06 776 47400 (2008) 104 (1954) 1980 212 251 354 423 705 1280 1500 3180 8500
2026-03-19 22:00 4.08 784 47400 (2008) 104 (1954) 1980 212 251 354 423 705 1280 1500 3180 8500
2026-03-19 21:30 4.07 780 47400 (2008) 104 (1954) 1980 212 251 354 423 705 1280 1500 3180 8500
2026-03-19 21:00 4.10 792 47400 (2008) 104 (1954) 1980 212 251 354 423 705 1280 1500 3180 8500
2026-03-19 20:30 4.11 796 47400 (2008) 104 (1954) 1980 212 251 354 423 705 1280 1500 3180 8500
2026-03-19 20:00 4.10 792 47400 (2008) 104 (1954) 1980 212 251 354 423 705 1280 1500 3180 8500
2026-03-19 19:30 4.10 792 47400 (2008) 104 (1954) 1980 212 251 354 423 705 1280 1500 3180 8500
2026-03-19 19:00 4.11 796 47400 (2008) 104 (1954) 1980 212 251 354 423 705 1280 1500 3180 8500
2026-03-19 18:30 4.12 799 47400 (2008) 104 (1954) 1980 212 251 354 423 705 1280 1500 3180 8500
2026-03-19 18:00 4.12 799 47400 (2008) 104 (1954) 1980 212 251 354 423 705 1280 1500 3180 8500
2026-03-19 17:30 4.12 799 47400 (2008) 104 (1954) 1980 212 251 354 423 705 1280 1500 3180 8500
2026-03-19 17:00 4.13 803 47400 (2008) 104 (1954) 1980 212 251 354 423 705 1280 1500 3180 8500
2026-03-19 16:30 4.12 799 47400 (2008) 104 (1954) 1980 212 251 354 423 705 1280 1500 3180 8500
2026-03-19 16:00 4.12 799 47400 (2008) 104 (1954) 1980 212 251 354 423 705 1280 1500 3180 8500
2026-03-19 15:30 4.12 799 47400 (2008) 104 (1954) 1980 212 251 354 423 705 1280 1500 3180 8500
2026-03-19 15:00 4.15 811 47400 (2008) 104 (1954) 1980 212 251 354 423 705 1280 1500 3180 8500
2026-03-19 14:30 4.14 807 47400 (2008) 104 (1954) 1980 212 251 354 423 705 1280 1500 3180 8500
2026-03-19 14:00 4.15 811 47400 (2008) 104 (1954) 1980 212 251 354 423 705 1280 1500 3180 8500
2026-03-19 13:30 4.16 815 47400 (2008) 104 (1954) 1980 212 251 354 423 705 1280 1500 3180 8500
2026-03-19 13:00 4.18 823 47400 (2008) 104 (1954) 1980 212 251 354 423 705 1280 1500 3180 8500
2026-03-19 12:30 4.16 815 47400 (2008) 104 (1954) 1980 212 251 354 423 705 1280 1500 3180 8500
2026-03-19 12:00 4.17 819 47400 (2008) 104 (1954) 1980 212 251 354 423 705 1280 1500 3180 8500
2026-03-19 11:30 4.17 819 47400 (2008) 104 (1954) 1980 212 251 354 423 705 1280 1500 3180 8500
2026-03-19 11:00 4.16 815 47400 (2008) 104 (1954) 1980 212 251 354 423 705 1280 1500 3180 8500
2026-03-19 10:30 4.17 819 47400 (2008) 104 (1954) 1980 212 251 354 423 705 1280 1500 3180 8500
2026-03-19 10:00 4.19 827 47400 (2008) 104 (1954) 1980 212 251 354 423 705 1280 1500 3180 8500
2026-03-19 09:30 4.20 831 47400 (2008) 104 (1954) 1980 212 251 354 423 705 1280 1500 3180 8500
2026-03-19 09:00 4.19 827 47400 (2008) 104 (1954) 1980 212 251 354 423 705 1280 1500 3180 8500
2026-03-19 08:30 4.20 831 47400 (2008) 104 (1954) 1980 212 251 354 423 705 1280 1500 3180 8500
2026-03-19 08:00 4.20 831 47400 (2008) 104 (1954) 1980 212 251 354 423 705 1280 1500 3180 8500
2026-03-19 07:30 4.20 831 47400 (2008) 104 (1954) 1980 212 251 354 423 705 1280 1500 3180 8500
2026-03-19 07:00 4.20 831 47400 (2008) 104 (1954) 1980 212 251 354 423 705 1280 1500 3180 8500
2026-03-19 06:30 4.21 835 47400 (2008) 104 (1954) 1980 212 251 354 423 705 1280 1500 3180 8500
2026-03-19 06:00 4.21 835 47400 (2008) 104 (1954) 1980 212 251 354 423 705 1280 1500 3180 8500
2026-03-19 05:30 4.23 842 47400 (2008) 104 (1954) 1980 212 251 354 423 705 1280 1500 3180 8500
2026-03-19 05:00 4.22 838 47400 (2008) 104 (1954) 1980 212 251 354 423 705 1280 1500 3180 8500
2026-03-19 04:30 4.24 846 47400 (2008) 104 (1954) 1980 212 251 354 423 705 1280 1500 3180 8500
2026-03-19 04:00 4.24 846 47400 (2008) 104 (1954) 1980 212 251 354 423 705 1280 1500 3180 8500
2026-03-19 03:30 4.25 850 47400 (2008) 104 (1954) 1980 212 251 354 423 705 1280 1500 3180 8500
2026-03-19 03:00 4.26 854 47400 (2008) 104 (1954) 1980 212 251 354 423 705 1280 1500 3180 8500
2026-03-19 02:30 4.25 850 47400 (2008) 104 (1954) 1980 212 251 354 423 705 1280 1500 3180 8500
2026-03-19 02:00 4.25 850 47400 (2008) 104 (1954) 1980 212 251 354 423 705 1280 1500 3180 8500
2026-03-19 01:30 4.27 858 47400 (2008) 104 (1954) 1980 212 251 354 423 705 1280 1500 3180 8500
2026-03-19 01:00 4.27 858 47400 (2008) 104 (1954) 1980 212 251 354 423 705 1280 1500 3180 8500
2026-03-19 00:30 4.27 858 47400 (2008) 104 (1954) 1980 212 251 354 423 705 1280 1500 3180 8500
2026-03-19 00:00 4.29 866 47400 (2008) 104 (1954) 1980 212 251 354 423 705 1280 1500 3180 8500
2026-03-18 23:30 4.29 866 47400 (2008) 104 (1954) 1980 212 251 354 423 705 1280 1500 3180 8500
2026-03-18 23:00 4.30 870 47400 (2008) 104 (1954) 1980 212 251 354 423 705 1280 1500 3180 8500
2026-03-18 22:30 4.30 870 25100 (2013) 89 (1954) 1550 202 257 353 397 659 1230 1470 2410 8590
2026-03-18 22:00 4.29 866 25100 (2013) 89 (1954) 1550 202 257 353 397 659 1230 1470 2410 8590
2026-03-18 21:30 4.30 870 25100 (2013) 89 (1954) 1550 202 257 353 397 659 1230 1470 2410 8590
2026-03-18 21:00 4.31 874 25100 (2013) 89 (1954) 1550 202 257 353 397 659 1230 1470 2410 8590
2026-03-18 20:30 4.31 874 25100 (2013) 89 (1954) 1550 202 257 353 397 659 1230 1470 2410 8590
2026-03-18 20:00 4.31 874 25100 (2013) 89 (1954) 1550 202 257 353 397 659 1230 1470 2410 8590
2026-03-18 19:30 4.34 886 25100 (2013) 89 (1954) 1550 202 257 353 397 659 1230 1470 2410 8590
2026-03-18 19:00 4.34 886 25100 (2013) 89 (1954) 1550 202 257 353 397 659 1230 1470 2410 8590
2026-03-18 18:30 4.33 882 25100 (2013) 89 (1954) 1550 202 257 353 397 659 1230 1470 2410 8590
2026-03-18 18:00 4.34 886 25100 (2013) 89 (1954) 1550 202 257 353 397 659 1230 1470 2410 8590
2026-03-18 17:30 4.33 882 25100 (2013) 89 (1954) 1550 202 257 353 397 659 1230 1470 2410 8590
2026-03-18 17:00 4.34 886 25100 (2013) 89 (1954) 1550 202 257 353 397 659 1230 1470 2410 8590
2026-03-18 16:30 4.37 898 25100 (2013) 89 (1954) 1550 202 257 353 397 659 1230 1470 2410 8590
2026-03-18 16:00 4.39 906 25100 (2013) 89 (1954) 1550 202 257 353 397 659 1230 1470 2410 8590
2026-03-18 15:30 4.36 894 25100 (2013) 89 (1954) 1550 202 257 353 397 659 1230 1470 2410 8590
2026-03-18 15:00 4.38 902 25100 (2013) 89 (1954) 1550 202 257 353 397 659 1230 1470 2410 8590
2026-03-18 14:30 4.39 906 25100 (2013) 89 (1954) 1550 202 257 353 397 659 1230 1470 2410 8590
2026-03-18 14:00 4.39 906 25100 (2013) 89 (1954) 1550 202 257 353 397 659 1230 1470 2410 8590
2026-03-18 13:30 4.39 906 25100 (2013) 89 (1954) 1550 202 257 353 397 659 1230 1470 2410 8590
2026-03-18 13:00 4.41 914 25100 (2013) 89 (1954) 1550 202 257 353 397 659 1230 1470 2410 8590
2026-03-18 12:30 4.42 918 25100 (2013) 89 (1954) 1550 202 257 353 397 659 1230 1470 2410 8590
2026-03-18 12:00 4.45 930 25100 (2013) 89 (1954) 1550 202 257 353 397 659 1230 1470 2410 8590
2026-03-18 11:30 4.44 926 25100 (2013) 89 (1954) 1550 202 257 353 397 659 1230 1470 2410 8590
2026-03-18 11:00 4.44 926 25100 (2013) 89 (1954) 1550 202 257 353 397 659 1230 1470 2410 8590
2026-03-18 10:30 4.44 926 25100 (2013) 89 (1954) 1550 202 257 353 397 659 1230 1470 2410 8590
2026-03-18 10:00 4.46 934 25100 (2013) 89 (1954) 1550 202 257 353 397 659 1230 1470 2410 8590
2026-03-18 09:30 4.45 930 25100 (2013) 89 (1954) 1550 202 257 353 397 659 1230 1470 2410 8590
2026-03-18 09:00 4.48 943 25100 (2013) 89 (1954) 1550 202 257 353 397 659 1230 1470 2410 8590
2026-03-18 08:30 4.47 938 25100 (2013) 89 (1954) 1550 202 257 353 397 659 1230 1470 2410 8590
2026-03-18 08:00 4.48 943 25100 (2013) 89 (1954) 1550 202 257 353 397 659 1230 1470 2410 8590
2026-03-18 07:30 4.50 951 25100 (2013) 89 (1954) 1550 202 257 353 397 659 1230 1470 2410 8590
2026-03-18 07:00 4.50 951 25100 (2013) 89 (1954) 1550 202 257 353 397 659 1230 1470 2410 8590
2026-03-18 06:30 4.50 951 25100 (2013) 89 (1954) 1550 202 257 353 397 659 1230 1470 2410 8590
2026-03-18 06:00 4.51 955 25100 (2013) 89 (1954) 1550 202 257 353 397 659 1230 1470 2410 8590
2026-03-18 05:30 4.53 963 25100 (2013) 89 (1954) 1550 202 257 353 397 659 1230 1470 2410 8590
2026-03-18 05:00 4.53 963 25100 (2013) 89 (1954) 1550 202 257 353 397 659 1230 1470 2410 8590
2026-03-18 04:30 4.55 971 25100 (2013) 89 (1954) 1550 202 257 353 397 659 1230 1470 2410 8590
2026-03-18 04:00 4.56 975 25100 (2013) 89 (1954) 1550 202 257 353 397 659 1230 1470 2410 8590
2026-03-18 03:30 4.57 979 25100 (2013) 89 (1954) 1550 202 257 353 397 659 1230 1470 2410 8590
2026-03-18 03:00 4.57 25100 (2013) 89 (1954) 1550 202 257 353 397 659 1230 1470 2410 8590
2026-03-18 02:30 4.58 984 25100 (2013) 89 (1954) 1550 202 257 353 397 659 1230 1470 2410 8590
2026-03-18 02:00 4.58 984 25100 (2013) 89 (1954) 1550 202 257 353 397 659 1230 1470 2410 8590
2026-03-18 01:30 4.60 992 25100 (2013) 89 (1954) 1550 202 257 353 397 659 1230 1470 2410 8590
2026-03-18 01:00 4.60 992 25100 (2013) 89 (1954) 1550 202 257 353 397 659 1230 1470 2410 8590
2026-03-18 00:30 4.61 996 25100 (2013) 89 (1954) 1550 202 257 353 397 659 1230 1470 2410 8590
2026-03-18 00:00 4.63 1000 25100 (2013) 89 (1954) 1550 202 257 353 397 659 1230 1470 2410 8590
2026-03-17 23:30 4.58 984 25100 (2013) 89 (1954) 1550 202 257 353 397 659 1230 1470 2410 8590
2026-03-17 23:00 4.63 1000 25100 (2013) 89 (1954) 1550 202 257 353 397 659 1230 1470 2410 8590
2026-03-17 22:30 4.67 1020 5390 (2013) 91 (1954) 1020 207 245 357 386 675 1370 1450 2350 3030
2026-03-17 22:00 4.61 996 5390 (2013) 91 (1954) 1020 207 245 357 386 675 1370 1450 2350 3030
2026-03-17 21:30 4.64 1010 5390 (2013) 91 (1954) 1020 207 245 357 386 675 1370 1450 2350 3030
2026-03-17 21:00 4.67 1020 5390 (2013) 91 (1954) 1020 207 245 357 386 675 1370 1450 2350 3030
2026-03-17 20:30 4.70 1030 5390 (2013) 91 (1954) 1020 207 245 357 386 675 1370 1450 2350 3030
2026-03-17 20:00 4.70 1030 5390 (2013) 91 (1954) 1020 207 245 357 386 675 1370 1450 2350 3030
2026-03-17 19:30 4.69 1030 5390 (2013) 91 (1954) 1020 207 245 357 386 675 1370 1450 2350 3030
2026-03-17 19:00 4.69 1030 5390 (2013) 91 (1954) 1020 207 245 357 386 675 1370 1450 2350 3030
2026-03-17 18:30 4.72 1040 5390 (2013) 91 (1954) 1020 207 245 357 386 675 1370 1450 2350 3030
2026-03-17 18:00 4.75 1050 5390 (2013) 91 (1954) 1020 207 245 357 386 675 1370 1450 2350 3030
2026-03-17 17:30 4.77 1060 5390 (2013) 91 (1954) 1020 207 245 357 386 675 1370 1450 2350 3030
2026-03-17 17:00 4.74 1050 5390 (2013) 91 (1954) 1020 207 245 357 386 675 1370 1450 2350 3030
2026-03-17 16:30 4.81 1080 5390 (2013) 91 (1954) 1020 207 245 357 386 675 1370 1450 2350 3030
2026-03-17 16:00 4.80 1080 5390 (2013) 91 (1954) 1020 207 245 357 386 675 1370 1450 2350 3030
2026-03-17 15:30 4.80 1080 5390 (2013) 91 (1954) 1020 207 245 357 386 675 1370 1450 2350 3030
2026-03-17 15:00 4.83 1090 5390 (2013) 91 (1954) 1020 207 245 357 386 675 1370 1450 2350 3030
2026-03-17 14:30 4.84 1090 5390 (2013) 91 (1954) 1020 207 245 357 386 675 1370 1450 2350 3030
2026-03-17 14:00 4.88 1110 5390 (2013) 91 (1954) 1020 207 245 357 386 675 1370 1450 2350 3030
2026-03-17 13:30 4.89 1110 5390 (2013) 91 (1954) 1020 207 245 357 386 675 1370 1450 2350 3030
2026-03-17 13:00 4.90 1120 5390 (2013) 91 (1954) 1020 207 245 357 386 675 1370 1450 2350 3030
2026-03-17 12:30 4.88 1110 5390 (2013) 91 (1954) 1020 207 245 357 386 675 1370 1450 2350 3030
2026-03-17 12:00 4.92 1130 5390 (2013) 91 (1954) 1020 207 245 357 386 675 1370 1450 2350 3030
2026-03-17 11:30 4.91 1120 5390 (2013) 91 (1954) 1020 207 245 357 386 675 1370 1450 2350 3030
2026-03-17 11:00 4.94 1140 5390 (2013) 91 (1954) 1020 207 245 357 386 675 1370 1450 2350 3030
2026-03-17 10:30 4.90 1120 5390 (2013) 91 (1954) 1020 207 245 357 386 675 1370 1450 2350 3030
2026-03-17 10:00 4.96 1140 5390 (2013) 91 (1954) 1020 207 245 357 386 675 1370 1450 2350 3030
2026-03-17 09:30 4.98 1150 5390 (2013) 91 (1954) 1020 207 245 357 386 675 1370 1450 2350 3030
2026-03-17 09:00 4.95 1140 5390 (2013) 91 (1954) 1020 207 245 357 386 675 1370 1450 2350 3030
2026-03-17 08:30 4.99 1160 5390 (2013) 91 (1954) 1020 207 245 357 386 675 1370 1450 2350 3030
2026-03-17 08:00 4.97 1150 5390 (2013) 91 (1954) 1020 207 245 357 386 675 1370 1450 2350 3030
2026-03-17 07:30 4.99 1160 5390 (2013) 91 (1954) 1020 207 245 357 386 675 1370 1450 2350 3030
2026-03-17 07:00 4.99 1160 5390 (2013) 91 (1954) 1020 207 245 357 386 675 1370 1450 2350 3030
2026-03-17 06:30 5.00 1160 5390 (2013) 91 (1954) 1020 207 245 357 386 675 1370 1450 2350 3030
2026-03-17 06:00 4.99 1160 5390 (2013) 91 (1954) 1020 207 245 357 386 675 1370 1450 2350 3030
2026-03-17 05:30 4.99 1160 5390 (2013) 91 (1954) 1020 207 245 357 386 675 1370 1450 2350 3030
2026-03-17 05:00 4.98 1150 5390 (2013) 91 (1954) 1020 207 245 357 386 675 1370 1450 2350 3030
2026-03-17 04:30 4.97 1150 5390 (2013) 91 (1954) 1020 207 245 357 386 675 1370 1450 2350 3030
2026-03-17 04:00 4.99 1160 5390 (2013) 91 (1954) 1020 207 245 357 386 675 1370 1450 2350 3030
2026-03-17 03:30 5.00 1160 5390 (2013) 91 (1954) 1020 207 245 357 386 675 1370 1450 2350 3030
2026-03-17 02:30 4.98 1150 5390 (2013) 91 (1954) 1020 207 245 357 386 675 1370 1450 2350 3030
2026-03-17 02:00 5.00 1160 5390 (2013) 91 (1954) 1020 207 245 357 386 675 1370 1450 2350 3030
2026-03-17 01:30 4.99 1160 5390 (2013) 91 (1954) 1020 207 245 357 386 675 1370 1450 2350 3030
2026-03-17 01:00 5.01 1170 5390 (2013) 91 (1954) 1020 207 245 357 386 675 1370 1450 2350 3030
2026-03-17 00:30 5.03 1180 5390 (2013) 91 (1954) 1020 207 245 357 386 675 1370 1450 2350 3030
2026-03-17 00:00 5.04 1180 5390 (2013) 91 (1954) 1020 207 245 357 386 675 1370 1450 2350 3030
2026-03-16 23:30 5.06 1190 5390 (2013) 91 (1954) 1020 207 245 357 386 675 1370 1450 2350 3030
2026-03-16 23:00 5.04 1180 5390 (2013) 91 (1954) 1020 207 245 357 386 675 1370 1450 2350 3030
2026-03-16 22:30 5.06 1190 9810 (1968) 101 (1954) 1100 213 239 331 400 754 1440 1700 2040 4050
2026-03-16 22:00 5.06 1190 9810 (1968) 101 (1954) 1100 213 239 331 400 754 1440 1700 2040 4050
2026-03-16 21:30 5.03 1180 9810 (1968) 101 (1954) 1100 213 239 331 400 754 1440 1700 2040 4050
2026-03-16 21:00 5.04 1180 9810 (1968) 101 (1954) 1100 213 239 331 400 754 1440 1700 2040 4050
2026-03-16 20:30 5.05 1180 9810 (1968) 101 (1954) 1100 213 239 331 400 754 1440 1700 2040 4050
2026-03-16 20:00 5.05 1180 9810 (1968) 101 (1954) 1100 213 239 331 400 754 1440 1700 2040 4050
2026-03-16 19:30 5.06 1190 9810 (1968) 101 (1954) 1100 213 239 331 400 754 1440 1700 2040 4050
2026-03-16 19:00 4.96 1140 9810 (1968) 101 (1954) 1100 213 239 331 400 754 1440 1700 2040 4050
2026-03-16 18:30 4.97 1150 9810 (1968) 101 (1954) 1100 213 239 331 400 754 1440 1700 2040 4050
2026-03-16 18:00 4.93 1130 9810 (1968) 101 (1954) 1100 213 239 331 400 754 1440 1700 2040 4050
2026-03-16 17:30 5.00 1160 9810 (1968) 101 (1954) 1100 213 239 331 400 754 1440 1700 2040 4050
2026-03-16 17:00 4.96 1140 9810 (1968) 101 (1954) 1100 213 239 331 400 754 1440 1700 2040 4050
2026-03-16 16:30 4.93 1130 9810 (1968) 101 (1954) 1100 213 239 331 400 754 1440 1700 2040 4050
2026-03-16 16:00 4.94 1140 9810 (1968) 101 (1954) 1100 213 239 331 400 754 1440 1700 2040 4050
2026-03-16 15:30 4.87 1110 9810 (1968) 101 (1954) 1100 213 239 331 400 754 1440 1700 2040 4050
2026-03-16 15:00 4.89 1110 9810 (1968) 101 (1954) 1100 213 239 331 400 754 1440 1700 2040 4050
2026-03-16 14:30 4.86 1100 9810 (1968) 101 (1954) 1100 213 239 331 400 754 1440 1700 2040 4050
2026-03-16 14:00 4.83 1090 9810 (1968) 101 (1954) 1100 213 239 331 400 754 1440 1700 2040 4050
2026-03-16 13:30 4.82 1080 9810 (1968) 101 (1954) 1100 213 239 331 400 754 1440 1700 2040 4050
2026-03-16 13:00 4.80 1080 9810 (1968) 101 (1954) 1100 213 239 331 400 754 1440 1700 2040 4050
2026-03-16 12:30 4.79 1070 9810 (1968) 101 (1954) 1100 213 239 331 400 754 1440 1700 2040 4050
2026-03-16 12:00 4.83 1090 9810 (1968) 101 (1954) 1100 213 239 331 400 754 1440 1700 2040 4050
2026-03-16 11:30 4.76 1060 9810 (1968) 101 (1954) 1100 213 239 331 400 754 1440 1700 2040 4050
2026-03-16 11:00 4.79 1070 9810 (1968) 101 (1954) 1100 213 239 331 400 754 1440 1700 2040 4050
2026-03-16 10:30 4.76 1060 9810 (1968) 101 (1954) 1100 213 239 331 400 754 1440 1700 2040 4050
2026-03-16 10:00 4.74 1050 9810 (1968) 101 (1954) 1100 213 239 331 400 754 1440 1700 2040 4050
2026-03-16 09:30 4.71 1040 9810 (1968) 101 (1954) 1100 213 239 331 400 754 1440 1700 2040 4050
2026-03-16 09:00 4.72 1040 9810 (1968) 101 (1954) 1100 213 239 331 400 754 1440 1700 2040 4050
2026-03-16 08:30 4.68 1030 9810 (1968) 101 (1954) 1100 213 239 331 400 754 1440 1700 2040 4050
2026-03-16 08:00 4.68 1030 9810 (1968) 101 (1954) 1100 213 239 331 400 754 1440 1700 2040 4050
2026-03-16 07:30 4.66 1020 9810 (1968) 101 (1954) 1100 213 239 331 400 754 1440 1700 2040 4050
2026-03-16 07:00 4.68 1030 9810 (1968) 101 (1954) 1100 213 239 331 400 754 1440 1700 2040 4050
2026-03-16 06:30 4.66 1020 9810 (1968) 101 (1954) 1100 213 239 331 400 754 1440 1700 2040 4050
2026-03-16 06:00 4.63 1000 9810 (1968) 101 (1954) 1100 213 239 331 400 754 1440 1700 2040 4050
2026-03-16 05:30 4.67 1020 9810 (1968) 101 (1954) 1100 213 239 331 400 754 1440 1700 2040 4050
2026-03-16 05:00 4.67 1020 9810 (1968) 101 (1954) 1100 213 239 331 400 754 1440 1700 2040 4050
2026-03-16 04:30 4.65 1010 9810 (1968) 101 (1954) 1100 213 239 331 400 754 1440 1700 2040 4050
2026-03-16 04:00 4.60 992 9810 (1968) 101 (1954) 1100 213 239 331 400 754 1440 1700 2040 4050
2026-03-16 03:30 4.60 992 9810 (1968) 101 (1954) 1100 213 239 331 400 754 1440 1700 2040 4050
2026-03-16 03:00 4.63 1000 9810 (1968) 101 (1954) 1100 213 239 331 400 754 1440 1700 2040 4050
2026-03-16 02:30 4.62 1000 9810 (1968) 101 (1954) 1100 213 239 331 400 754 1440 1700 2040 4050
2026-03-16 02:00 4.63 1000 9810 (1968) 101 (1954) 1100 213 239 331 400 754 1440 1700 2040 4050
2026-03-16 01:30 4.61 996 9810 (1968) 101 (1954) 1100 213 239 331 400 754 1440 1700 2040 4050
2026-03-16 01:00 4.60 992 9810 (1968) 101 (1954) 1100 213 239 331 400 754 1440 1700 2040 4050
2026-03-16 00:30 4.56 975 9810 (1968) 101 (1954) 1100 213 239 331 400 754 1440 1700 2040 4050
2026-03-16 00:00 4.60 992 9810 (1968) 101 (1954) 1100 213 239 331 400 754 1440 1700 2040 4050
2026-03-15 23:30 4.60 992 9810 (1968) 101 (1954) 1100 213 239 331 400 754 1440 1700 2040 4050
2026-03-15 23:00 4.58 984 9810 (1968) 101 (1954) 1100 213 239 331 400 754 1440 1700 2040 4050
2026-03-15 22:30 4.58 984 9790 (2011) 101 (1954) 1200 210 242 331 361 721 1260 1790 2840 4170
2026-03-15 22:00 4.56 975 9790 (2011) 101 (1954) 1200 210 242 331 361 721 1260 1790 2840 4170
2026-03-15 21:30 4.57 979 9790 (2011) 101 (1954) 1200 210 242 331 361 721 1260 1790 2840 4170
2026-03-15 21:00 4.55 971 9790 (2011) 101 (1954) 1200 210 242 331 361 721 1260 1790 2840 4170
2026-03-15 20:30 4.54 967 9790 (2011) 101 (1954) 1200 210 242 331 361 721 1260 1790 2840 4170
2026-03-15 20:00 4.54 967 9790 (2011) 101 (1954) 1200 210 242 331 361 721 1260 1790 2840 4170
2026-03-15 19:30 4.54 967 9790 (2011) 101 (1954) 1200 210 242 331 361 721 1260 1790 2840 4170
2026-03-15 19:00 4.44 926 9790 (2011) 101 (1954) 1200 210 242 331 361 721 1260 1790 2840 4170
2026-03-15 18:30 4.52 959 9790 (2011) 101 (1954) 1200 210 242 331 361 721 1260 1790 2840 4170
2026-03-15 18:00 4.53 963 9790 (2011) 101 (1954) 1200 210 242 331 361 721 1260 1790 2840 4170
2026-03-15 17:30 4.52 959 9790 (2011) 101 (1954) 1200 210 242 331 361 721 1260 1790 2840 4170
2026-03-15 17:00 4.50 951 9790 (2011) 101 (1954) 1200 210 242 331 361 721 1260 1790 2840 4170
2026-03-15 16:30 4.50 951 9790 (2011) 101 (1954) 1200 210 242 331 361 721 1260 1790 2840 4170
2026-03-15 16:00 4.51 955 9790 (2011) 101 (1954) 1200 210 242 331 361 721 1260 1790 2840 4170
2026-03-15 15:30 4.49 947 9790 (2011) 101 (1954) 1200 210 242 331 361 721 1260 1790 2840 4170
2026-03-15 15:00 4.53 963 9790 (2011) 101 (1954) 1200 210 242 331 361 721 1260 1790 2840 4170
2026-03-15 14:30 4.52 959 9790 (2011) 101 (1954) 1200 210 242 331 361 721 1260 1790 2840 4170
2026-03-15 14:00 4.55 971 9790 (2011) 101 (1954) 1200 210 242 331 361 721 1260 1790 2840 4170
2026-03-15 13:30 4.53 963 9790 (2011) 101 (1954) 1200 210 242 331 361 721 1260 1790 2840 4170
2026-03-15 13:00 4.54 967 9790 (2011) 101 (1954) 1200 210 242 331 361 721 1260 1790 2840 4170
2026-03-15 12:30 4.55 971 9790 (2011) 101 (1954) 1200 210 242 331 361 721 1260 1790 2840 4170
2026-03-15 12:00 4.56 975 9790 (2011) 101 (1954) 1200 210 242 331 361 721 1260 1790 2840 4170
2026-03-15 11:30 4.58 984 9790 (2011) 101 (1954) 1200 210 242 331 361 721 1260 1790 2840 4170
2026-03-15 11:00 4.56 975 9790 (2011) 101 (1954) 1200 210 242 331 361 721 1260 1790 2840 4170
2026-03-15 10:30 4.58 984 9790 (2011) 101 (1954) 1200 210 242 331 361 721 1260 1790 2840 4170
2026-03-15 10:00 4.60 992 9790 (2011) 101 (1954) 1200 210 242 331 361 721 1260 1790 2840 4170
2026-03-15 09:30 4.61 996 9790 (2011) 101 (1954) 1200 210 242 331 361 721 1260 1790 2840 4170
2026-03-15 09:00 4.61 996 9790 (2011) 101 (1954) 1200 210 242 331 361 721 1260 1790 2840 4170
2026-03-15 08:30 4.61 996 9790 (2011) 101 (1954) 1200 210 242 331 361 721 1260 1790 2840 4170
2026-03-15 08:00 4.61 996 9790 (2011) 101 (1954) 1200 210 242 331 361 721 1260 1790 2840 4170
2026-03-15 07:30 4.64 1010 9790 (2011) 101 (1954) 1200 210 242 331 361 721 1260 1790 2840 4170
2026-03-15 07:00 4.62 1000 9790 (2011) 101 (1954) 1200 210 242 331 361 721 1260 1790 2840 4170
2026-03-15 06:30 4.62 1000 9790 (2011) 101 (1954) 1200 210 242 331 361 721 1260 1790 2840 4170
2026-03-15 06:00 4.65 1010 9790 (2011) 101 (1954) 1200 210 242 331 361 721 1260 1790 2840 4170
2026-03-15 05:30 4.65 1010 9790 (2011) 101 (1954) 1200 210 242 331 361 721 1260 1790 2840 4170
2026-03-15 05:00 4.63 1000 9790 (2011) 101 (1954) 1200 210 242 331 361 721 1260 1790 2840 4170
2026-03-15 04:30 4.65 1010 9790 (2011) 101 (1954) 1200 210 242 331 361 721 1260 1790 2840 4170
2026-03-15 04:00 4.67 1020 9790 (2011) 101 (1954) 1200 210 242 331 361 721 1260 1790 2840 4170
2026-03-15 03:30 4.69 1030 9790 (2011) 101 (1954) 1200 210 242 331 361 721 1260 1790 2840 4170
2026-03-15 03:00 4.69 1030 9790 (2011) 101 (1954) 1200 210 242 331 361 721 1260 1790 2840 4170
2026-03-15 02:30 4.71 1040 9790 (2011) 101 (1954) 1200 210 242 331 361 721 1260 1790 2840 4170
2026-03-15 02:00 4.69 1030 9790 (2011) 101 (1954) 1200 210 242 331 361 721 1260 1790 2840 4170
2026-03-15 01:30 4.72 1040 9790 (2011) 101 (1954) 1200 210 242 331 361 721 1260 1790 2840 4170
2026-03-15 01:00 4.73 1050 9790 (2011) 101 (1954) 1200 210 242 331 361 721 1260 1790 2840 4170
2026-03-15 00:30 4.74 1050 9790 (2011) 101 (1954) 1200 210 242 331 361 721 1260 1790 2840 4170
2026-03-15 00:00 4.71 1040 9790 (2011) 101 (1954) 1200 210 242 331 361 721 1260 1790 2840 4170
2026-03-14 23:30 4.74 1050 9790 (2011) 101 (1954) 1200 210 242 331 361 721 1260 1790 2840 4170
2026-03-14 23:00 4.73 1050 9790 (2011) 101 (1954) 1200 210 242 331 361 721 1260 1790 2840 4170
2026-03-14 22:30 4.76 1060 9240 (1978) 101 (1954) 1250 200 241 336 361 715 1270 1600 3180 5110
2026-03-14 22:00 4.74 1050 9240 (1978) 101 (1954) 1250 200 241 336 361 715 1270 1600 3180 5110
2026-03-14 21:30 4.77 1060 9240 (1978) 101 (1954) 1250 200 241 336 361 715 1270 1600 3180 5110
2026-03-14 21:00 4.76 1060 9240 (1978) 101 (1954) 1250 200 241 336 361 715 1270 1600 3180 5110
2026-03-14 20:30 4.76 1060 9240 (1978) 101 (1954) 1250 200 241 336 361 715 1270 1600 3180 5110
2026-03-14 20:00 4.78 1070 9240 (1978) 101 (1954) 1250 200 241 336 361 715 1270 1600 3180 5110
2026-03-14 19:30 4.80 1080 9240 (1978) 101 (1954) 1250 200 241 336 361 715 1270 1600 3180 5110
2026-03-14 19:00 4.74 1050 9240 (1978) 101 (1954) 1250 200 241 336 361 715 1270 1600 3180 5110
2026-03-14 18:30 4.77 1060 9240 (1978) 101 (1954) 1250 200 241 336 361 715 1270 1600 3180 5110
2026-03-14 18:00 4.82 1080 9240 (1978) 101 (1954) 1250 200 241 336 361 715 1270 1600 3180 5110
2026-03-14 17:30 4.85 1100 9240 (1978) 101 (1954) 1250 200 241 336 361 715 1270 1600 3180 5110
2026-03-14 17:00 4.77 1060 9240 (1978) 101 (1954) 1250 200 241 336 361 715 1270 1600 3180 5110
2026-03-14 16:30 4.76 1060 9240 (1978) 101 (1954) 1250 200 241 336 361 715 1270 1600 3180 5110
2026-03-14 16:00 4.86 1100 9240 (1978) 101 (1954) 1250 200 241 336 361 715 1270 1600 3180 5110
2026-03-14 15:30 4.88 1110 9240 (1978) 101 (1954) 1250 200 241 336 361 715 1270 1600 3180 5110
2026-03-14 15:00 4.88 1110 9240 (1978) 101 (1954) 1250 200 241 336 361 715 1270 1600 3180 5110
2026-03-14 14:30 4.88 1110 9240 (1978) 101 (1954) 1250 200 241 336 361 715 1270 1600 3180 5110
2026-03-14 14:00 4.88 1110 9240 (1978) 101 (1954) 1250 200 241 336 361 715 1270 1600 3180 5110
2026-03-14 13:30 4.89 1110 9240 (1978) 101 (1954) 1250 200 241 336 361 715 1270 1600 3180 5110
2026-03-14 13:00 4.90 1120 9240 (1978) 101 (1954) 1250 200 241 336 361 715 1270 1600 3180 5110
2026-03-14 12:30 4.91 1120 9240 (1978) 101 (1954) 1250 200 241 336 361 715 1270 1600 3180 5110
2026-03-14 12:00 4.93 1130 9240 (1978) 101 (1954) 1250 200 241 336 361 715 1270 1600 3180 5110
2026-03-14 11:30 4.94 1140 9240 (1978) 101 (1954) 1250 200 241 336 361 715 1270 1600 3180 5110
2026-03-14 11:00 4.94 1140 9240 (1978) 101 (1954) 1250 200 241 336 361 715 1270 1600 3180 5110
2026-03-14 10:30 4.95 1140 9240 (1978) 101 (1954) 1250 200 241 336 361 715 1270 1600 3180 5110
2026-03-14 10:00 4.98 1150 9240 (1978) 101 (1954) 1250 200 241 336 361 715 1270 1600 3180 5110
2026-03-14 09:30 4.97 1150 9240 (1978) 101 (1954) 1250 200 241 336 361 715 1270 1600 3180 5110
2026-03-14 09:00 5.01 1170 9240 (1978) 101 (1954) 1250 200 241 336 361 715 1270 1600 3180 5110
2026-03-14 08:30 5.00 1160 9240 (1978) 101 (1954) 1250 200 241 336 361 715 1270 1600 3180 5110
2026-03-14 08:00 5.01 1170 9240 (1978) 101 (1954) 1250 200 241 336 361 715 1270 1600 3180 5110
2026-03-14 07:30 5.00 1160 9240 (1978) 101 (1954) 1250 200 241 336 361 715 1270 1600 3180 5110
2026-03-14 07:00 5.04 1180 9240 (1978) 101 (1954) 1250 200 241 336 361 715 1270 1600 3180 5110
2026-03-14 06:30 5.06 1190 9240 (1978) 101 (1954) 1250 200 241 336 361 715 1270 1600 3180 5110
2026-03-14 06:00 5.06 1190 9240 (1978) 101 (1954) 1250 200 241 336 361 715 1270 1600 3180 5110
2026-03-14 05:30 5.06 1190 9240 (1978) 101 (1954) 1250 200 241 336 361 715 1270 1600 3180 5110
2026-03-14 05:00 5.08 1200 9240 (1978) 101 (1954) 1250 200 241 336 361 715 1270 1600 3180 5110
2026-03-14 04:30 5.05 1180 9240 (1978) 101 (1954) 1250 200 241 336 361 715 1270 1600 3180 5110
2026-03-14 04:00 5.09 1200 9240 (1978) 101 (1954) 1250 200 241 336 361 715 1270 1600 3180 5110
2026-03-14 03:30 5.11 1210 9240 (1978) 101 (1954) 1250 200 241 336 361 715 1270 1600 3180 5110
2026-03-14 03:00 5.13 1220 9240 (1978) 101 (1954) 1250 200 241 336 361 715 1270 1600 3180 5110
2026-03-14 02:30 5.15 1230 9240 (1978) 101 (1954) 1250 200 241 336 361 715 1270 1600 3180 5110
2026-03-14 02:00 5.14 1220 9240 (1978) 101 (1954) 1250 200 241 336 361 715 1270 1600 3180 5110
2026-03-14 01:30 5.16 1230 9240 (1978) 101 (1954) 1250 200 241 336 361 715 1270 1600 3180 5110
2026-03-14 01:00 5.18 1240 9240 (1978) 101 (1954) 1250 200 241 336 361 715 1270 1600 3180 5110
2026-03-14 00:30 5.19 1250 9240 (1978) 101 (1954) 1250 200 241 336 361 715 1270 1600 3180 5110
2026-03-14 00:00 5.20 1250 9240 (1978) 101 (1954) 1250 200 241 336 361 715 1270 1600 3180 5110
2026-03-13 23:30 5.20 1250 9240 (1978) 101 (1954) 1250 200 241 336 361 715 1270 1600 3180 5110
2026-03-13 23:00 5.22 1260 9240 (1978) 101 (1954) 1250 200 241 336 361 715 1270 1600 3180 5110
2026-03-13 22:30 5.23 1260 13000 (2006) 98 (1954) 1340 200 256 321 365 730 1460 1620 2430 5980
2026-03-13 22:00 5.25 1270 13000 (2006) 98 (1954) 1340 200 256 321 365 730 1460 1620 2430 5980
2026-03-13 21:30 5.24 1270 13000 (2006) 98 (1954) 1340 200 256 321 365 730 1460 1620 2430 5980
2026-03-13 21:00 5.28 1290 13000 (2006) 98 (1954) 1340 200 256 321 365 730 1460 1620 2430 5980
2026-03-13 20:30 5.26 1280 13000 (2006) 98 (1954) 1340 200 256 321 365 730 1460 1620 2430 5980
2026-03-13 20:00 5.31 1300 13000 (2006) 98 (1954) 1340 200 256 321 365 730 1460 1620 2430 5980
2026-03-13 19:30 5.31 1300 13000 (2006) 98 (1954) 1340 200 256 321 365 730 1460 1620 2430 5980
2026-03-13 19:00 5.33 1310 13000 (2006) 98 (1954) 1340 200 256 321 365 730 1460 1620 2430 5980
2026-03-13 18:30 5.35 1320 13000 (2006) 98 (1954) 1340 200 256 321 365 730 1460 1620 2430 5980
2026-03-13 18:00 5.34 1310 13000 (2006) 98 (1954) 1340 200 256 321 365 730 1460 1620 2430 5980
2026-03-13 17:30 5.32 1300 13000 (2006) 98 (1954) 1340 200 256 321 365 730 1460 1620 2430 5980
2026-03-13 17:00 5.36 1320 13000 (2006) 98 (1954) 1340 200 256 321 365 730 1460 1620 2430 5980
2026-03-13 16:30 5.39 1340 13000 (2006) 98 (1954) 1340 200 256 321 365 730 1460 1620 2430 5980
2026-03-13 16:00 5.40 1340 13000 (2006) 98 (1954) 1340 200 256 321 365 730 1460 1620 2430 5980
2026-03-13 15:30 5.42 1350 13000 (2006) 98 (1954) 1340 200 256 321 365 730 1460 1620 2430 5980
2026-03-13 15:00 5.46 1370 13000 (2006) 98 (1954) 1340 200 256 321 365 730 1460 1620 2430 5980
2026-03-13 14:30 5.44 1360 13000 (2006) 98 (1954) 1340 200 256 321 365 730 1460 1620 2430 5980
2026-03-13 14:00 5.43 1350 13000 (2006) 98 (1954) 1340 200 256 321 365 730 1460 1620 2430 5980
2026-03-13 13:30 5.48 1380 13000 (2006) 98 (1954) 1340 200 256 321 365 730 1460 1620 2430 5980
2026-03-13 13:00 5.50 1390 13000 (2006) 98 (1954) 1340 200 256 321 365 730 1460 1620 2430 5980
2026-03-13 12:30 5.50 1390 13000 (2006) 98 (1954) 1340 200 256 321 365 730 1460 1620 2430 5980
2026-03-13 12:00 5.52 1400 13000 (2006) 98 (1954) 1340 200 256 321 365 730 1460 1620 2430 5980
2026-03-13 11:30 5.56 1410 13000 (2006) 98 (1954) 1340 200 256 321 365 730 1460 1620 2430 5980
2026-03-13 11:00 5.59 1430 13000 (2006) 98 (1954) 1340 200 256 321 365 730 1460 1620 2430 5980
2026-03-13 10:30 5.53 1400 13000 (2006) 98 (1954) 1340 200 256 321 365 730 1460 1620 2430 5980
2026-03-13 10:00 5.60 1430 13000 (2006) 98 (1954) 1340 200 256 321 365 730 1460 1620 2430 5980
2026-03-13 09:30 5.62 1440 13000 (2006) 98 (1954) 1340 200 256 321 365 730 1460 1620 2430 5980
2026-03-13 09:00 5.62 1440 13000 (2006) 98 (1954) 1340 200 256 321 365 730 1460 1620 2430 5980
2026-03-13 08:30 5.64 1450 13000 (2006) 98 (1954) 1340 200 256 321 365 730 1460 1620 2430 5980
2026-03-13 08:00 5.62 1440 13000 (2006) 98 (1954) 1340 200 256 321 365 730 1460 1620 2430 5980
2026-03-13 07:30 5.70 1480 13000 (2006) 98 (1954) 1340 200 256 321 365 730 1460 1620 2430 5980
2026-03-13 07:00 5.70 1480 13000 (2006) 98 (1954) 1340 200 256 321 365 730 1460 1620 2430 5980
2026-03-13 06:30 5.76 1500 13000 (2006) 98 (1954) 1340 200 256 321 365 730 1460 1620 2430 5980
2026-03-13 06:00 5.74 1500 13000 (2006) 98 (1954) 1340 200 256 321 365 730 1460 1620 2430 5980
2026-03-13 05:30 5.78 1510 13000 (2006) 98 (1954) 1340 200 256 321 365 730 1460 1620 2430 5980
2026-03-13 05:00 5.83 1540 13000 (2006) 98 (1954) 1340 200 256 321 365 730 1460 1620 2430 5980
2026-03-13 04:30 5.79 1520 13000 (2006) 98 (1954) 1340 200 256 321 365 730 1460 1620 2430 5980
2026-03-13 04:00 5.82 1530 13000 (2006) 98 (1954) 1340 200 256 321 365 730 1460 1620 2430 5980
2026-03-13 03:30 5.82 1530 13000 (2006) 98 (1954) 1340 200 256 321 365 730 1460 1620 2430 5980
2026-03-13 03:00 5.86 1550 13000 (2006) 98 (1954) 1340 200 256 321 365 730 1460 1620 2430 5980
2026-03-13 02:30 5.91 1580 13000 (2006) 98 (1954) 1340 200 256 321 365 730 1460 1620 2430 5980
2026-03-13 02:00 5.92 1580 13000 (2006) 98 (1954) 1340 200 256 321 365 730 1460 1620 2430 5980
2026-03-13 01:30 5.96 1600 13000 (2006) 98 (1954) 1340 200 256 321 365 730 1460 1620 2430 5980
2026-03-13 01:00 5.98 1610 13000 (2006) 98 (1954) 1340 200 256 321 365 730 1460 1620 2430 5980
2026-03-13 00:30 6.01 1630 13000 (2006) 98 (1954) 1340 200 256 321 365 730 1460 1620 2430 5980
2026-03-13 00:00 6.03 1640 13000 (2006) 98 (1954) 1340 200 256 321 365 730 1460 1620 2430 5980
2026-03-12 23:30 6.06 1650 13000 (2006) 98 (1954) 1340 200 256 321 365 730 1460 1620 2430 5980
2026-03-12 23:00 6.09 1660 13000 (2006) 98 (1954) 1340 200 256 321 365 730 1460 1620 2430 5980
2026-03-12 22:30 6.11 1670 19100 (2006) 104 (1954) 1740 201 266 330 376 659 1280 1840 4250 8980
2026-03-12 22:00 6.14 1690 19100 (2006) 104 (1954) 1740 201 266 330 376 659 1280 1840 4250 8980
2026-03-12 21:30 6.16 1700 19100 (2006) 104 (1954) 1740 201 266 330 376 659 1280 1840 4250 8980
2026-03-12 21:00 6.18 1710 19100 (2006) 104 (1954) 1740 201 266 330 376 659 1280 1840 4250 8980
2026-03-12 20:30 6.23 1730 19100 (2006) 104 (1954) 1740 201 266 330 376 659 1280 1840 4250 8980
2026-03-12 20:00 6.23 1730 19100 (2006) 104 (1954) 1740 201 266 330 376 659 1280 1840 4250 8980
2026-03-12 19:30 6.26 1750 19100 (2006) 104 (1954) 1740 201 266 330 376 659 1280 1840 4250 8980
2026-03-12 19:00 6.28 1760 19100 (2006) 104 (1954) 1740 201 266 330 376 659 1280 1840 4250 8980
2026-03-12 18:30 6.31 1770 19100 (2006) 104 (1954) 1740 201 266 330 376 659 1280 1840 4250 8980
2026-03-12 18:00 6.34 1790 19100 (2006) 104 (1954) 1740 201 266 330 376 659 1280 1840 4250 8980
2026-03-12 17:30 6.37 1800 19100 (2006) 104 (1954) 1740 201 266 330 376 659 1280 1840 4250 8980
2026-03-12 17:00 6.41 1820 19100 (2006) 104 (1954) 1740 201 266 330 376 659 1280 1840 4250 8980
2026-03-12 16:30 6.43 1840 19100 (2006) 104 (1954) 1740 201 266 330 376 659 1280 1840 4250 8980
2026-03-12 16:00 6.43 1840 19100 (2006) 104 (1954) 1740 201 266 330 376 659 1280 1840 4250 8980
2026-03-12 15:30 6.46 1850 19100 (2006) 104 (1954) 1740 201 266 330 376 659 1280 1840 4250 8980
2026-03-12 15:00 6.46 1850 19100 (2006) 104 (1954) 1740 201 266 330 376 659 1280 1840 4250 8980
2026-03-12 14:30 6.49 1870 19100 (2006) 104 (1954) 1740 201 266 330 376 659 1280 1840 4250 8980
2026-03-12 14:00 6.51 1880 19100 (2006) 104 (1954) 1740 201 266 330 376 659 1280 1840 4250 8980
2026-03-12 13:30 6.52 1880 19100 (2006) 104 (1954) 1740 201 266 330 376 659 1280 1840 4250 8980
2026-03-12 13:00 6.55 1900 19100 (2006) 104 (1954) 1740 201 266 330 376 659 1280 1840 4250 8980
2026-03-12 12:30 6.51 1880 19100 (2006) 104 (1954) 1740 201 266 330 376 659 1280 1840 4250 8980
2026-03-12 12:00 6.54 1890 19100 (2006) 104 (1954) 1740 201 266 330 376 659 1280 1840 4250 8980
2026-03-12 11:30 6.55 1900 19100 (2006) 104 (1954) 1740 201 266 330 376 659 1280 1840 4250 8980
2026-03-12 11:00 6.54 1890 19100 (2006) 104 (1954) 1740 201 266 330 376 659 1280 1840 4250 8980
2026-03-12 10:30 6.52 1880 19100 (2006) 104 (1954) 1740 201 266 330 376 659 1280 1840 4250 8980
2026-03-12 10:00 6.55 1900 19100 (2006) 104 (1954) 1740 201 266 330 376 659 1280 1840 4250 8980
2026-03-12 09:30 6.54 1890 19100 (2006) 104 (1954) 1740 201 266 330 376 659 1280 1840 4250 8980
2026-03-12 09:00 6.54 1890 19100 (2006) 104 (1954) 1740 201 266 330 376 659 1280 1840 4250 8980
2026-03-12 08:30 6.53 1890 19100 (2006) 104 (1954) 1740 201 266 330 376 659 1280 1840 4250 8980
2026-03-12 08:00 6.52 1880 19100 (2006) 104 (1954) 1740 201 266 330 376 659 1280 1840 4250 8980
2026-03-12 07:30 6.53 1890 19100 (2006) 104 (1954) 1740 201 266 330 376 659 1280 1840 4250 8980
2026-03-12 07:00 6.56 1900 19100 (2006) 104 (1954) 1740 201 266 330 376 659 1280 1840 4250 8980
2026-03-12 06:30 6.51 1880 19100 (2006) 104 (1954) 1740 201 266 330 376 659 1280 1840 4250 8980
2026-03-12 06:00 6.58 1910 19100 (2006) 104 (1954) 1740 201 266 330 376 659 1280 1840 4250 8980
2026-03-12 05:30 6.61 1930 19100 (2006) 104 (1954) 1740 201 266 330 376 659 1280 1840 4250 8980
2026-03-12 05:00 6.55 1900 19100 (2006) 104 (1954) 1740 201 266 330 376 659 1280 1840 4250 8980
2026-03-12 04:30 6.62 1930 19100 (2006) 104 (1954) 1740 201 266 330 376 659 1280 1840 4250 8980
2026-03-12 04:00 6.62 1930 19100 (2006) 104 (1954) 1740 201 266 330 376 659 1280 1840 4250 8980
2026-03-12 03:30 6.61 1930 19100 (2006) 104 (1954) 1740 201 266 330 376 659 1280 1840 4250 8980
2026-03-12 02:30 6.64 1940 19100 (2006) 104 (1954) 1740 201 266 330 376 659 1280 1840 4250 8980
2026-03-12 02:00 6.68 1970 19100 (2006) 104 (1954) 1740 201 266 330 376 659 1280 1840 4250 8980
2026-03-12 01:30 6.61 1930 19100 (2006) 104 (1954) 1740 201 266 330 376 659 1280 1840 4250 8980
2026-03-12 01:00 6.68 1970 19100 (2006) 104 (1954) 1740 201 266 330 376 659 1280 1840 4250 8980
2026-03-12 00:30 6.69 1970 19100 (2006) 104 (1954) 1740 201 266 330 376 659 1280 1840 4250 8980
2026-03-12 00:00 6.74 2000 19100 (2006) 104 (1954) 1740 201 266 330 376 659 1280 1840 4250 8980
2026-03-11 23:30 6.75 2010 19100 (2006) 104 (1954) 1740 201 266 330 376 659 1280 1840 4250 8980
2026-03-11 23:00 6.75 2010 19100 (2006) 104 (1954) 1740 201 266 330 376 659 1280 1840 4250 8980
2026-03-11 22:30 6.78 2020 13300 (1973) 101 (1954) 1440 200 268 346 379 635 1390 1700 3710 6110
2026-03-11 22:00 6.85 2070 13300 (1973) 101 (1954) 1440 200 268 346 379 635 1390 1700 3710 6110
2026-03-11 21:30 6.87 2080 13300 (1973) 101 (1954) 1440 200 268 346 379 635 1390 1700 3710 6110
2026-03-11 21:00 6.93 2120 13300 (1973) 101 (1954) 1440 200 268 346 379 635 1390 1700 3710 6110
2026-03-11 20:30 6.93 2120 13300 (1973) 101 (1954) 1440 200 268 346 379 635 1390 1700 3710 6110
2026-03-11 20:00 6.95 2130 13300 (1973) 101 (1954) 1440 200 268 346 379 635 1390 1700 3710 6110
2026-03-11 19:30 6.92 2110 13300 (1973) 101 (1954) 1440 200 268 346 379 635 1390 1700 3710 6110
2026-03-11 19:00 6.97 2140 13300 (1973) 101 (1954) 1440 200 268 346 379 635 1390 1700 3710 6110
2026-03-11 18:30 6.93 2120 13300 (1973) 101 (1954) 1440 200 268 346 379 635 1390 1700 3710 6110
2026-03-11 18:00 6.89 2090 13300 (1973) 101 (1954) 1440 200 268 346 379 635 1390 1700 3710 6110
2026-03-11 17:30 6.86 2070 13300 (1973) 101 (1954) 1440 200 268 346 379 635 1390 1700 3710 6110
2026-03-11 17:00 6.80 2040 13300 (1973) 101 (1954) 1440 200 268 346 379 635 1390 1700 3710 6110
2026-03-11 16:30 6.74 2000 13300 (1973) 101 (1954) 1440 200 268 346 379 635 1390 1700 3710 6110
2026-03-11 16:00 6.55 1900 13300 (1973) 101 (1954) 1440 200 268 346 379 635 1390 1700 3710 6110
2026-03-11 15:30 6.51 1880 13300 (1973) 101 (1954) 1440 200 268 346 379 635 1390 1700 3710 6110
2026-03-11 15:00 6.34 1790 13300 (1973) 101 (1954) 1440 200 268 346 379 635 1390 1700 3710 6110
2026-03-11 14:30 6.27 1750 13300 (1973) 101 (1954) 1440 200 268 346 379 635 1390 1700 3710 6110
2026-03-11 14:00 6.23 1730 13300 (1973) 101 (1954) 1440 200 268 346 379 635 1390 1700 3710 6110
2026-03-11 13:30 6.15 1690 13300 (1973) 101 (1954) 1440 200 268 346 379 635 1390 1700 3710 6110
2026-03-11 13:00 6.08 1660 13300 (1973) 101 (1954) 1440 200 268 346 379 635 1390 1700 3710 6110
2026-03-11 12:30 6.06 1650 13300 (1973) 101 (1954) 1440 200 268 346 379 635 1390 1700 3710 6110
2026-03-11 12:00 6.00 1620 13300 (1973) 101 (1954) 1440 200 268 346 379 635 1390 1700 3710 6110
2026-03-11 11:30 5.95 1600 13300 (1973) 101 (1954) 1440 200 268 346 379 635 1390 1700 3710 6110
2026-03-11 11:00 5.93 1590 13300 (1973) 101 (1954) 1440 200 268 346 379 635 1390 1700 3710 6110
2026-03-11 10:30 5.84 1540 13300 (1973) 101 (1954) 1440 200 268 346 379 635 1390 1700 3710 6110
2026-03-11 10:00 5.85 1550 13300 (1973) 101 (1954) 1440 200 268 346 379 635 1390 1700 3710 6110
2026-03-11 09:30 5.81 1530 13300 (1973) 101 (1954) 1440 200 268 346 379 635 1390 1700 3710 6110
2026-03-11 09:00 5.81 1530 13300 (1973) 101 (1954) 1440 200 268 346 379 635 1390 1700 3710 6110
2026-03-11 08:30 5.77 1510 13300 (1973) 101 (1954) 1440 200 268 346 379 635 1390 1700 3710 6110
2026-03-11 08:00 5.76 1500 13300 (1973) 101 (1954) 1440 200 268 346 379 635 1390 1700 3710 6110
2026-03-11 07:30 5.78 1510 13300 (1973) 101 (1954) 1440 200 268 346 379 635 1390 1700 3710 6110
2026-03-11 07:00 5.80 1520 13300 (1973) 101 (1954) 1440 200 268 346 379 635 1390 1700 3710 6110
2026-03-11 06:30 5.77 1510 13300 (1973) 101 (1954) 1440 200 268 346 379 635 1390 1700 3710 6110
2026-03-11 06:00 5.80 1520 13300 (1973) 101 (1954) 1440 200 268 346 379 635 1390 1700 3710 6110
2026-03-11 05:30 5.78 1510 13300 (1973) 101 (1954) 1440 200 268 346 379 635 1390 1700 3710 6110
2026-03-11 05:00 5.81 1530 13300 (1973) 101 (1954) 1440 200 268 346 379 635 1390 1700 3710 6110
2026-03-11 04:30 5.82 1530 13300 (1973) 101 (1954) 1440 200 268 346 379 635 1390 1700 3710 6110
2026-03-11 04:00 5.77 1510 13300 (1973) 101 (1954) 1440 200 268 346 379 635 1390 1700 3710 6110
2026-03-11 03:30 5.84 1540 13300 (1973) 101 (1954) 1440 200 268 346 379 635 1390 1700 3710 6110
2026-03-11 03:00 5.84 1540 13300 (1973) 101 (1954) 1440 200 268 346 379 635 1390 1700 3710 6110
2026-03-11 02:30 5.83 1540 13300 (1973) 101 (1954) 1440 200 268 346 379 635 1390 1700 3710 6110
2026-03-11 02:00 5.91 1580 13300 (1973) 101 (1954) 1440 200 268 346 379 635 1390 1700 3710 6110
2026-03-11 01:30 5.89 1570 13300 (1973) 101 (1954) 1440 200 268 346 379 635 1390 1700 3710 6110
2026-03-11 01:00 5.89 1570 13300 (1973) 101 (1954) 1440 200 268 346 379 635 1390 1700 3710 6110
2026-03-11 00:30 5.92 1580 13300 (1973) 101 (1954) 1440 200 268 346 379 635 1390 1700 3710 6110
2026-03-11 00:00 5.98 1610 13300 (1973) 101 (1954) 1440 200 268 346 379 635 1390 1700 3710 6110
2026-03-10 23:30 5.97 1610 13300 (1973) 101 (1954) 1440 200 268 346 379 635 1390 1700 3710 6110
2026-03-10 23:00 5.98 1610 13300 (1973) 101 (1954) 1440 200 268 346 379 635 1390 1700 3710 6110
2026-03-10 22:30 6.01 1630 15100 (1964) 104 (1954) 1260 210 278 349 368 594 1390 1750 2560 5080
2026-03-10 22:00 6.02 1630 15100 (1964) 104 (1954) 1260 210 278 349 368 594 1390 1750 2560 5080
2026-03-10 21:30 6.06 1650 15100 (1964) 104 (1954) 1260 210 278 349 368 594 1390 1750 2560 5080
2026-03-10 21:00 6.08 1660 15100 (1964) 104 (1954) 1260 210 278 349 368 594 1390 1750 2560 5080
2026-03-10 20:30 6.07 1660 15100 (1964) 104 (1954) 1260 210 278 349 368 594 1390 1750 2560 5080
2026-03-10 20:00 6.03 1640 15100 (1964) 104 (1954) 1260 210 278 349 368 594 1390 1750 2560 5080
2026-03-10 19:30 6.07 1660 15100 (1964) 104 (1954) 1260 210 278 349 368 594 1390 1750 2560 5080
2026-03-10 19:00 6.12 1680 15100 (1964) 104 (1954) 1260 210 278 349 368 594 1390 1750 2560 5080
2026-03-10 18:30 6.16 1700 15100 (1964) 104 (1954) 1260 210 278 349 368 594 1390 1750 2560 5080
2026-03-10 18:00 6.20 1720 15100 (1964) 104 (1954) 1260 210 278 349 368 594 1390 1750 2560 5080
2026-03-10 17:30 6.21 1720 15100 (1964) 104 (1954) 1260 210 278 349 368 594 1390 1750 2560 5080
2026-03-10 17:00 6.21 1720 15100 (1964) 104 (1954) 1260 210 278 349 368 594 1390 1750 2560 5080
2026-03-10 16:30 6.26 1750 15100 (1964) 104 (1954) 1260 210 278 349 368 594 1390 1750 2560 5080
2026-03-10 16:00 6.26 1750 15100 (1964) 104 (1954) 1260 210 278 349 368 594 1390 1750 2560 5080
2026-03-10 15:30 6.30 1770 15100 (1964) 104 (1954) 1260 210 278 349 368 594 1390 1750 2560 5080
2026-03-10 15:00 6.33 1780 15100 (1964) 104 (1954) 1260 210 278 349 368 594 1390 1750 2560 5080
2026-03-10 14:30 6.37 1800 15100 (1964) 104 (1954) 1260 210 278 349 368 594 1390 1750 2560 5080
2026-03-10 14:00 6.36 1800 15100 (1964) 104 (1954) 1260 210 278 349 368 594 1390 1750 2560 5080
2026-03-10 13:30 6.40 1820 15100 (1964) 104 (1954) 1260 210 278 349 368 594 1390 1750 2560 5080
2026-03-10 13:00 6.40 1820 15100 (1964) 104 (1954) 1260 210 278 349 368 594 1390 1750 2560 5080
2026-03-10 12:30 6.46 1850 15100 (1964) 104 (1954) 1260 210 278 349 368 594 1390 1750 2560 5080
2026-03-10 12:00 6.46 1850 15100 (1964) 104 (1954) 1260 210 278 349 368 594 1390 1750 2560 5080
2026-03-10 11:30 6.45 1850 15100 (1964) 104 (1954) 1260 210 278 349 368 594 1390 1750 2560 5080
2026-03-10 11:00 6.51 1880 15100 (1964) 104 (1954) 1260 210 278 349 368 594 1390 1750 2560 5080
2026-03-10 10:30 6.53 1890 15100 (1964) 104 (1954) 1260 210 278 349 368 594 1390 1750 2560 5080
2026-03-10 10:00 6.56 1900 15100 (1964) 104 (1954) 1260 210 278 349 368 594 1390 1750 2560 5080
2026-03-10 09:30 6.59 1920 15100 (1964) 104 (1954) 1260 210 278 349 368 594 1390 1750 2560 5080
2026-03-10 09:00 6.58 1910 15100 (1964) 104 (1954) 1260 210 278 349 368 594 1390 1750 2560 5080
2026-03-10 08:30 6.69 1970 15100 (1964) 104 (1954) 1260 210 278 349 368 594 1390 1750 2560 5080
2026-03-10 08:00 6.65 1950 15100 (1964) 104 (1954) 1260 210 278 349 368 594 1390 1750 2560 5080
2026-03-10 07:30 6.73 1990 15100 (1964) 104 (1954) 1260 210 278 349 368 594 1390 1750 2560 5080
2026-03-10 07:00 6.73 1990 15100 (1964) 104 (1954) 1260 210 278 349 368 594 1390 1750 2560 5080
2026-03-10 06:30 6.74 2000 15100 (1964) 104 (1954) 1260 210 278 349 368 594 1390 1750 2560 5080
2026-03-10 06:00 6.79 2030 15100 (1964) 104 (1954) 1260 210 278 349 368 594 1390 1750 2560 5080
2026-03-10 05:30 6.79 2030 15100 (1964) 104 (1954) 1260 210 278 349 368 594 1390 1750 2560 5080
2026-03-10 05:00 6.84 2060 15100 (1964) 104 (1954) 1260 210 278 349 368 594 1390 1750 2560 5080
2026-03-10 04:30 6.84 2060 15100 (1964) 104 (1954) 1260 210 278 349 368 594 1390 1750 2560 5080
2026-03-10 04:00 6.89 2090 15100 (1964) 104 (1954) 1260 210 278 349 368 594 1390 1750 2560 5080
2026-03-10 03:30 6.92 2110 15100 (1964) 104 (1954) 1260 210 278 349 368 594 1390 1750 2560 5080
2026-03-10 03:00 6.95 2130 15100 (1964) 104 (1954) 1260 210 278 349 368 594 1390 1750 2560 5080
2026-03-10 02:30 6.97 2140 15100 (1964) 104 (1954) 1260 210 278 349 368 594 1390 1750 2560 5080
2026-03-10 02:00 6.99 2150 15100 (1964) 104 (1954) 1260 210 278 349 368 594 1390 1750 2560 5080
2026-03-10 01:30 7.06 2200 15100 (1964) 104 (1954) 1260 210 278 349 368 594 1390 1750 2560 5080
2026-03-10 01:00 7.05 2190 15100 (1964) 104 (1954) 1260 210 278 349 368 594 1390 1750 2560 5080
2026-03-10 00:30 7.12 2240 15100 (1964) 104 (1954) 1260 210 278 349 368 594 1390 1750 2560 5080
2026-03-10 00:00 7.15 2260 15100 (1964) 104 (1954) 1260 210 278 349 368 594 1390 1750 2560 5080
2026-03-09 23:30 7.08 2210 15100 (1964) 104 (1954) 1260 210 278 349 368 594 1390 1750 2560 5080
2026-03-09 23:00 7.15 2260 15100 (1964) 104 (1954) 1260 210 278 349 368 594 1390 1750 2560 5080
2026-03-09 22:30 7.23 2310 9850 (1964) 114 (1954) 1170 225 278 357 376 585 1040 1740 2950 4320
2026-03-09 22:00 7.24 2320 9850 (1964) 114 (1954) 1170 225 278 357 376 585 1040 1740 2950 4320
2026-03-09 21:30 7.28 2350 9850 (1964) 114 (1954) 1170 225 278 357 376 585 1040 1740 2950 4320
2026-03-09 21:00 7.34 2390 9850 (1964) 114 (1954) 1170 225 278 357 376 585 1040 1740 2950 4320
2026-03-09 20:30 7.37 2410 9850 (1964) 114 (1954) 1170 225 278 357 376 585 1040 1740 2950 4320
2026-03-09 20:00 7.42 2440 9850 (1964) 114 (1954) 1170 225 278 357 376 585 1040 1740 2950 4320
2026-03-09 19:30 7.45 2460 9850 (1964) 114 (1954) 1170 225 278 357 376 585 1040 1740 2950 4320
2026-03-09 19:00 7.56 2540 9850 (1964) 114 (1954) 1170 225 278 357 376 585 1040 1740 2950 4320
2026-03-09 18:30 7.63 2590 9850 (1964) 114 (1954) 1170 225 278 357 376 585 1040 1740 2950 4320
2026-03-09 18:00 7.65 2610 9850 (1964) 114 (1954) 1170 225 278 357 376 585 1040 1740 2950 4320
2026-03-09 17:30 7.73 2660 9850 (1964) 114 (1954) 1170 225 278 357 376 585 1040 1740 2950 4320
2026-03-09 17:00 7.76 2690 9850 (1964) 114 (1954) 1170 225 278 357 376 585 1040 1740 2950 4320
2026-03-09 16:30 7.83 2740 9850 (1964) 114 (1954) 1170 225 278 357 376 585 1040 1740 2950 4320
2026-03-09 16:00 7.89 2780 9850 (1964) 114 (1954) 1170 225 278 357 376 585 1040 1740 2950 4320
2026-03-09 15:30 7.93 2810 9850 (1964) 114 (1954) 1170 225 278 357 376 585 1040 1740 2950 4320
2026-03-09 15:00 7.98 2850 9850 (1964) 114 (1954) 1170 225 278 357 376 585 1040 1740 2950 4320
2026-03-09 14:30 8.02 2880 9850 (1964) 114 (1954) 1170 225 278 357 376 585 1040 1740 2950 4320
2026-03-09 14:00 8.10 2940 9850 (1964) 114 (1954) 1170 225 278 357 376 585 1040 1740 2950 4320
2026-03-09 13:30 8.14 2970 9850 (1964) 114 (1954) 1170 225 278 357 376 585 1040 1740 2950 4320
2026-03-09 13:00 8.20 3010 9850 (1964) 114 (1954) 1170 225 278 357 376 585 1040 1740 2950 4320
2026-03-09 12:30 8.25 3050 9850 (1964) 114 (1954) 1170 225 278 357 376 585 1040 1740 2950 4320
2026-03-09 12:00 8.32 3100 9850 (1964) 114 (1954) 1170 225 278 357 376 585 1040 1740 2950 4320
2026-03-09 11:30 8.39 3160 9850 (1964) 114 (1954) 1170 225 278 357 376 585 1040 1740 2950 4320
2026-03-09 11:00 8.47 3220 9850 (1964) 114 (1954) 1170 225 278 357 376 585 1040 1740 2950 4320
2026-03-09 10:30 8.54 3270 9850 (1964) 114 (1954) 1170 225 278 357 376 585 1040 1740 2950 4320
2026-03-09 10:00 8.61 3330 9850 (1964) 114 (1954) 1170 225 278 357 376 585 1040 1740 2950 4320
2026-03-09 09:30 8.70 3400 9850 (1964) 114 (1954) 1170 225 278 357 376 585 1040 1740 2950 4320
2026-03-09 09:00 8.76 3450 9850 (1964) 114 (1954) 1170 225 278 357 376 585 1040 1740 2950 4320
2026-03-09 08:30 8.82 3500 9850 (1964) 114 (1954) 1170 225 278 357 376 585 1040 1740 2950 4320
2026-03-09 08:00 8.95 3600 9850 (1964) 114 (1954) 1170 225 278 357 376 585 1040 1740 2950 4320
2026-03-09 07:30 9.06 3690 9850 (1964) 114 (1954) 1170 225 278 357 376 585 1040 1740 2950 4320
2026-03-09 07:00 9.15 3770 9850 (1964) 114 (1954) 1170 225 278 357 376 585 1040 1740 2950 4320
2026-03-09 06:30 9.27 3870 9850 (1964) 114 (1954) 1170 225 278 357 376 585 1040 1740 2950 4320
2026-03-09 06:00 9.40 3980 9850 (1964) 114 (1954) 1170 225 278 357 376 585 1040 1740 2950 4320
2026-03-09 05:30 9.54 4100 9850 (1964) 114 (1954) 1170 225 278 357 376 585 1040 1740 2950 4320
2026-03-09 05:00 9.71 4240 9850 (1964) 114 (1954) 1170 225 278 357 376 585 1040 1740 2950 4320
2026-03-09 04:30 9.91 4420 9850 (1964) 114 (1954) 1170 225 278 357 376 585 1040 1740 2950 4320
2026-03-09 04:00 10.19 4670 9850 (1964) 114 (1954) 1170 225 278 357 376 585 1040 1740 2950 4320
2026-03-09 03:30 10.52 4970 9850 (1964) 114 (1954) 1170 225 278 357 376 585 1040 1740 2950 4320
2026-03-09 02:30 11.34 5760 9850 (1964) 114 (1954) 1170 225 278 357 376 585 1040 1740 2950 4320
2026-03-09 02:00 11.89 6310 9850 (1964) 114 (1954) 1170 225 278 357 376 585 1040 1740 2950 4320
2026-03-09 01:30 12.49 6930 9850 (1964) 114 (1954) 1170 225 278 357 376 585 1040 1740 2950 4320
2026-03-09 01:00 13.16 7660 9850 (1964) 114 (1954) 1170 225 278 357 376 585 1040 1740 2950 4320
2026-03-09 00:30 13.88 8470 9850 (1964) 114 (1954) 1170 225 278 357 376 585 1040 1740 2950 4320
2026-03-09 00:00 14.55 9260 9850 (1964) 114 (1954) 1170 225 278 357 376 585 1040 1740 2950 4320
2026-03-08 23:30 15.22 10100 9850 (1964) 114 (1954) 1170 225 278 357 376 585 1040 1740 2950 4320
2026-03-08 23:00 15.83 10800 9850 (1964) 114 (1954) 1170 225 278 357 376 585 1040 1740 2950 4320
2026-03-08 22:30 16.42 11800 12100 (1995) 114 (1954) 1110 212 242 381 392 613 981 1180 1780 4230
2026-03-08 22:00 16.91 12700 12100 (1995) 114 (1954) 1110 212 242 381 392 613 981 1180 1780 4230
2026-03-08 21:30 17.34 13500 12100 (1995) 114 (1954) 1110 212 242 381 392 613 981 1180 1780 4230
2026-03-08 21:00 17.74 14200 12100 (1995) 114 (1954) 1110 212 242 381 392 613 981 1180 1780 4230
2026-03-08 20:30 18.04 14800 12100 (1995) 114 (1954) 1110 212 242 381 392 613 981 1180 1780 4230
2026-03-08 20:00 18.32 15400 12100 (1995) 114 (1954) 1110 212 242 381 392 613 981 1180 1780 4230
2026-03-08 19:30 18.52 15800 12100 (1995) 114 (1954) 1110 212 242 381 392 613 981 1180 1780 4230
2026-03-08 19:00 18.77 16300 12100 (1995) 114 (1954) 1110 212 242 381 392 613 981 1180 1780 4230
2026-03-08 18:30 18.89 16600 12100 (1995) 114 (1954) 1110 212 242 381 392 613 981 1180 1780 4230
2026-03-08 18:00 19.00 16800 12100 (1995) 114 (1954) 1110 212 242 381 392 613 981 1180 1780 4230
2026-03-08 17:30 19.11 17000 12100 (1995) 114 (1954) 1110 212 242 381 392 613 981 1180 1780 4230
2026-03-08 17:00 19.14 17100 12100 (1995) 114 (1954) 1110 212 242 381 392 613 981 1180 1780 4230
2026-03-08 16:30 19.20 17200 12100 (1995) 114 (1954) 1110 212 242 381 392 613 981 1180 1780 4230
2026-03-08 16:00 19.23 17300 12100 (1995) 114 (1954) 1110 212 242 381 392 613 981 1180 1780 4230
2026-03-08 15:30 19.23 17300 12100 (1995) 114 (1954) 1110 212 242 381 392 613 981 1180 1780 4230
2026-03-08 15:00 19.26 17400 12100 (1995) 114 (1954) 1110 212 242 381 392 613 981 1180 1780 4230
2026-03-08 14:30 19.24 17300 12100 (1995) 114 (1954) 1110 212 242 381 392 613 981 1180 1780 4230
2026-03-08 14:00 19.28 17400 12100 (1995) 114 (1954) 1110 212 242 381 392 613 981 1180 1780 4230
2026-03-08 13:30 19.29 17400 12100 (1995) 114 (1954) 1110 212 242 381 392 613 981 1180 1780 4230
2026-03-08 13:00 19.25 17300 12100 (1995) 114 (1954) 1110 212 242 381 392 613 981 1180 1780 4230
2026-03-08 12:30 19.28 17400 12100 (1995) 114 (1954) 1110 212 242 381 392 613 981 1180 1780 4230
2026-03-08 12:00 19.26 17400 12100 (1995) 114 (1954) 1110 212 242 381 392 613 981 1180 1780 4230
2026-03-08 11:30 19.27 17400 12100 (1995) 114 (1954) 1110 212 242 381 392 613 981 1180 1780 4230
2026-03-08 11:00 19.30 17500 12100 (1995) 114 (1954) 1110 212 242 381 392 613 981 1180 1780 4230
2026-03-08 10:30 19.27 17400 12100 (1995) 114 (1954) 1110 212 242 381 392 613 981 1180 1780 4230
2026-03-08 10:00 19.31 17500 12100 (1995) 114 (1954) 1110 212 242 381 392 613 981 1180 1780 4230
2026-03-08 09:30 19.30 17500 12100 (1995) 114 (1954) 1110 212 242 381 392 613 981 1180 1780 4230
2026-03-08 09:00 19.31 17500 12100 (1995) 114 (1954) 1110 212 242 381 392 613 981 1180 1780 4230
2026-03-08 08:30 19.31 17500 12100 (1995) 114 (1954) 1110 212 242 381 392 613 981 1180 1780 4230
2026-03-08 08:00 19.30 17500 12100 (1995) 114 (1954) 1110 212 242 381 392 613 981 1180 1780 4230
2026-03-08 07:30 19.33 17500 12100 (1995) 114 (1954) 1110 212 242 381 392 613 981 1180 1780 4230
2026-03-08 07:00 19.32 17500 12100 (1995) 114 (1954) 1110 212 242 381 392 613 981 1180 1780 4230
2026-03-08 06:30 19.35 17600 12100 (1995) 114 (1954) 1110 212 242 381 392 613 981 1180 1780 4230
2026-03-08 06:00 19.32 17500 12100 (1995) 114 (1954) 1110 212 242 381 392 613 981 1180 1780 4230
2026-03-08 05:30 19.32 17500 12100 (1995) 114 (1954) 1110 212 242 381 392 613 981 1180 1780 4230
2026-03-08 05:00 19.35 17600 12100 (1995) 114 (1954) 1110 212 242 381 392 613 981 1180 1780 4230
2026-03-08 04:30 19.36 17600 12100 (1995) 114 (1954) 1110 212 242 381 392 613 981 1180 1780 4230
2026-03-08 04:00 19.29 17400 12100 (1995) 114 (1954) 1110 212 242 381 392 613 981 1180 1780 4230
2026-03-08 03:30 19.33 17500 12100 (1995) 114 (1954) 1110 212 242 381 392 613 981 1180 1780 4230
2026-03-08 03:00 19.33 17500 12100 (1995) 114 (1954) 1110 212 242 381 392 613 981 1180 1780 4230
2026-03-08 01:30 19.28 17400 12100 (1995) 114 (1954) 1110 212 242 381 392 613 981 1180 1780 4230
2026-03-08 01:00 19.30 17500 12100 (1995) 114 (1954) 1110 212 242 381 392 613 981 1180 1780 4230
2026-03-08 00:30 19.23 17300 12100 (1995) 114 (1954) 1110 212 242 381 392 613 981 1180 1780 4230
2026-03-08 00:00 19.24 17300 12100 (1995) 114 (1954) 1110 212 242 381 392 613 981 1180 1780 4230
2026-03-07 23:30 19.22 17300 12100 (1995) 114 (1954) 1110 212 242 381 392 613 981 1180 1780 4230
2026-03-07 23:00 19.15 17100 12100 (1995) 114 (1954) 1110 212 242 381 392 613 981 1180 1780 4230
2026-03-07 22:30 19.08 17000 10400 (1995) 108 (1954) 1130 184 214 332 401 649 1110 1170 2110 5490
2026-03-07 22:00 18.99 16800 10400 (1995) 108 (1954) 1130 184 214 332 401 649 1110 1170 2110 5490
2026-03-07 21:30 18.88 16600 10400 (1995) 108 (1954) 1130 184 214 332 401 649 1110 1170 2110 5490
2026-03-07 21:00 18.76 16300 10400 (1995) 108 (1954) 1130 184 214 332 401 649 1110 1170 2110 5490
2026-03-07 20:30 18.66 16100 10400 (1995) 108 (1954) 1130 184 214 332 401 649 1110 1170 2110 5490
2026-03-07 20:00 18.44 15600 10400 (1995) 108 (1954) 1130 184 214 332 401 649 1110 1170 2110 5490
2026-03-07 19:30 18.28 15300 10400 (1995) 108 (1954) 1130 184 214 332 401 649 1110 1170 2110 5490
2026-03-07 19:00 18.03 14800 10400 (1995) 108 (1954) 1130 184 214 332 401 649 1110 1170 2110 5490
2026-03-07 18:30 17.77 14300 10400 (1995) 108 (1954) 1130 184 214 332 401 649 1110 1170 2110 5490
2026-03-07 18:00 17.53 13800 10400 (1995) 108 (1954) 1130 184 214 332 401 649 1110 1170 2110 5490
2026-03-07 17:30 17.28 13400 10400 (1995) 108 (1954) 1130 184 214 332 401 649 1110 1170 2110 5490
2026-03-07 17:00 16.99 12800 10400 (1995) 108 (1954) 1130 184 214 332 401 649 1110 1170 2110 5490
2026-03-07 16:30 16.65 12200 10400 (1995) 108 (1954) 1130 184 214 332 401 649 1110 1170 2110 5490
2026-03-07 16:00 16.29 11600 10400 (1995) 108 (1954) 1130 184 214 332 401 649 1110 1170 2110 5490
2026-03-07 15:30 16.02 11100 10400 (1995) 108 (1954) 1130 184 214 332 401 649 1110 1170 2110 5490
2026-03-07 15:00 15.65 10600 10400 (1995) 108 (1954) 1130 184 214 332 401 649 1110 1170 2110 5490
2026-03-07 14:30 15.29 10200 10400 (1995) 108 (1954) 1130 184 214 332 401 649 1110 1170 2110 5490
2026-03-07 14:00 14.91 9690 10400 (1995) 108 (1954) 1130 184 214 332 401 649 1110 1170 2110 5490
2026-03-07 13:30 14.46 9150 10400 (1995) 108 (1954) 1130 184 214 332 401 649 1110 1170 2110 5490
2026-03-07 13:00 14.02 8630 10400 (1995) 108 (1954) 1130 184 214 332 401 649 1110 1170 2110 5490
2026-03-07 12:30 13.49 8030 10400 (1995) 108 (1954) 1130 184 214 332 401 649 1110 1170 2110 5490
2026-03-07 12:00 12.88 7350 10400 (1995) 108 (1954) 1130 184 214 332 401 649 1110 1170 2110 5490
2026-03-07 11:30 12.20 6630 10400 (1995) 108 (1954) 1130 184 214 332 401 649 1110 1170 2110 5490
2026-03-07 11:00 11.52 5940 10400 (1995) 108 (1954) 1130 184 214 332 401 649 1110 1170 2110 5490
2026-03-07 10:30 10.83 5260 10400 (1995) 108 (1954) 1130 184 214 332 401 649 1110 1170 2110 5490
2026-03-07 10:00 10.23 4710 10400 (1995) 108 (1954) 1130 184 214 332 401 649 1110 1170 2110 5490
2026-03-07 09:30 9.81 4330 10400 (1995) 108 (1954) 1130 184 214 332 401 649 1110 1170 2110 5490
2026-03-07 09:00 9.46 4030 10400 (1995) 108 (1954) 1130 184 214 332 401 649 1110 1170 2110 5490
2026-03-07 08:30 9.22 3830 10400 (1995) 108 (1954) 1130 184 214 332 401 649 1110 1170 2110 5490
2026-03-07 08:00 9.06 3690 10400 (1995) 108 (1954) 1130 184 214 332 401 649 1110 1170 2110 5490
2026-03-07 07:30 8.93 3590 10400 (1995) 108 (1954) 1130 184 214 332 401 649 1110 1170 2110 5490
2026-03-07 07:00 8.85 3520 10400 (1995) 108 (1954) 1130 184 214 332 401 649 1110 1170 2110 5490
2026-03-07 06:30 8.78 3460 10400 (1995) 108 (1954) 1130 184 214 332 401 649 1110 1170 2110 5490
2026-03-07 06:00 8.72 3420 10400 (1995) 108 (1954) 1130 184 214 332 401 649 1110 1170 2110 5490
2026-03-07 05:30 8.68 3380 10400 (1995) 108 (1954) 1130 184 214 332 401 649 1110 1170 2110 5490
2026-03-07 05:00 8.71 3410 10400 (1995) 108 (1954) 1130 184 214 332 401 649 1110 1170 2110 5490
2026-03-07 04:30 8.86 3530 10400 (1995) 108 (1954) 1130 184 214 332 401 649 1110 1170 2110 5490
2026-03-07 04:00 8.95 3600 10400 (1995) 108 (1954) 1130 184 214 332 401 649 1110 1170 2110 5490
2026-03-07 03:30 9.05 3680 10400 (1995) 108 (1954) 1130 184 214 332 401 649 1110 1170 2110 5490
2026-03-07 02:30 9.42 3990 10400 (1995) 108 (1954) 1130 184 214 332 401 649 1110 1170 2110 5490
2026-03-07 02:00 9.67 4210 10400 (1995) 108 (1954) 1130 184 214 332 401 649 1110 1170 2110 5490
2026-03-07 01:30 10.03 4530 10400 (1995) 108 (1954) 1130 184 214 332 401 649 1110 1170 2110 5490
2026-03-07 01:00 10.41 4870 10400 (1995) 108 (1954) 1130 184 214 332 401 649 1110 1170 2110 5490
2026-03-07 00:30 10.89 5320 10400 (1995) 108 (1954) 1130 184 214 332 401 649 1110 1170 2110 5490
2026-03-07 00:00 11.46 5880 10400 (1995) 108 (1954) 1130 184 214 332 401 649 1110 1170 2110 5490
2026-03-06 23:30 12.12 6550 10400 (1995) 108 (1954) 1130 184 214 332 401 649 1110 1170 2110 5490
2026-03-06 23:00 12.84 7310 10400 (1995) 108 (1954) 1130 184 214 332 401 649 1110 1170 2110 5490
2026-03-06 22:30 13.60 8150 14200 (1961) 108 (1954) 1080 194 227 325 421 678 1100 1310 2100 3420
2026-03-06 22:00 14.40 9080 14200 (1961) 108 (1954) 1080 194 227 325 421 678 1100 1310 2100 3420
2026-03-06 21:30 15.18 10000 14200 (1961) 108 (1954) 1080 194 227 325 421 678 1100 1310 2100 3420
2026-03-06 21:00 15.94 11000 14200 (1961) 108 (1954) 1080 194 227 325 421 678 1100 1310 2100 3420
2026-03-06 20:30 16.66 12200 14200 (1961) 108 (1954) 1080 194 227 325 421 678 1100 1310 2100 3420
2026-03-06 20:00 17.33 13500 14200 (1961) 108 (1954) 1080 194 227 325 421 678 1100 1310 2100 3420
2026-03-06 19:30 17.88 14500 14200 (1961) 108 (1954) 1080 194 227 325 421 678 1100 1310 2100 3420
2026-03-06 19:00 18.42 15600 14200 (1961) 108 (1954) 1080 194 227 325 421 678 1100 1310 2100 3420
2026-03-06 18:30 18.85 16500 14200 (1961) 108 (1954) 1080 194 227 325 421 678 1100 1310 2100 3420
2026-03-06 18:00 19.26 17400 14200 (1961) 108 (1954) 1080 194 227 325 421 678 1100 1310 2100 3420
2026-03-06 17:30 19.61 18100 14200 (1961) 108 (1954) 1080 194 227 325 421 678 1100 1310 2100 3420
2026-03-06 17:00 19.90 18800 14200 (1961) 108 (1954) 1080 194 227 325 421 678 1100 1310 2100 3420
2026-03-06 16:30 20.16 19500 14200 (1961) 108 (1954) 1080 194 227 325 421 678 1100 1310 2100 3420
2026-03-06 16:00 20.37 20000 14200 (1961) 108 (1954) 1080 194 227 325 421 678 1100 1310 2100 3420
2026-03-06 15:30 20.55 20500 14200 (1961) 108 (1954) 1080 194 227 325 421 678 1100 1310 2100 3420
2026-03-06 15:00 20.74 21000 14200 (1961) 108 (1954) 1080 194 227 325 421 678 1100 1310 2100 3420
2026-03-06 14:30 20.84 21200 14200 (1961) 108 (1954) 1080 194 227 325 421 678 1100 1310 2100 3420
2026-03-06 14:00 20.95 21500 14200 (1961) 108 (1954) 1080 194 227 325 421 678 1100 1310 2100 3420
2026-03-06 13:30 21.03 21700 14200 (1961) 108 (1954) 1080 194 227 325 421 678 1100 1310 2100 3420
2026-03-06 13:00 21.15 22100 14200 (1961) 108 (1954) 1080 194 227 325 421 678 1100 1310 2100 3420
2026-03-06 12:30 21.20 22200 14200 (1961) 108 (1954) 1080 194 227 325 421 678 1100 1310 2100 3420
2026-03-06 12:00 21.26 22400 14200 (1961) 108 (1954) 1080 194 227 325 421 678 1100 1310 2100 3420
2026-03-06 11:30 21.31 22500 14200 (1961) 108 (1954) 1080 194 227 325 421 678 1100 1310 2100 3420
2026-03-06 11:00 21.33 22600 14200 (1961) 108 (1954) 1080 194 227 325 421 678 1100 1310 2100 3420
2026-03-06 10:30 21.35 22600 14200 (1961) 108 (1954) 1080 194 227 325 421 678 1100 1310 2100 3420
2026-03-06 10:00 21.39 22700 14200 (1961) 108 (1954) 1080 194 227 325 421 678 1100 1310 2100 3420
2026-03-06 09:30 21.38 22700 14200 (1961) 108 (1954) 1080 194 227 325 421 678 1100 1310 2100 3420
2026-03-06 09:00 21.43 22800 14200 (1961) 108 (1954) 1080 194 227 325 421 678 1100 1310 2100 3420
2026-03-06 08:30 21.44 22900 14200 (1961) 108 (1954) 1080 194 227 325 421 678 1100 1310 2100 3420
2026-03-06 08:00 21.47 22900 14200 (1961) 108 (1954) 1080 194 227 325 421 678 1100 1310 2100 3420
2026-03-06 07:30 21.47 22900 14200 (1961) 108 (1954) 1080 194 227 325 421 678 1100 1310 2100 3420
2026-03-06 07:00 21.47 22900 14200 (1961) 108 (1954) 1080 194 227 325 421 678 1100 1310 2100 3420
2026-03-06 06:30 21.48 23000 14200 (1961) 108 (1954) 1080 194 227 325 421 678 1100 1310 2100 3420
2026-03-06 06:00 21.50 23000 14200 (1961) 108 (1954) 1080 194 227 325 421 678 1100 1310 2100 3420
2026-03-06 05:30 21.53 23100 14200 (1961) 108 (1954) 1080 194 227 325 421 678 1100 1310 2100 3420
2026-03-06 05:00 21.57 23200 14200 (1961) 108 (1954) 1080 194 227 325 421 678 1100 1310 2100 3420
2026-03-06 04:30 21.59 23300 14200 (1961) 108 (1954) 1080 194 227 325 421 678 1100 1310 2100 3420
2026-03-06 04:00 21.60 23300 14200 (1961) 108 (1954) 1080 194 227 325 421 678 1100 1310 2100 3420
2026-03-06 03:30 21.61 23300 14200 (1961) 108 (1954) 1080 194 227 325 421 678 1100 1310 2100 3420
2026-03-06 03:00 21.64 23400 14200 (1961) 108 (1954) 1080 194 227 325 421 678 1100 1310 2100 3420
2026-03-06 02:30 21.66 23500 14200 (1961) 108 (1954) 1080 194 227 325 421 678 1100 1310 2100 3420
2026-03-06 02:00 21.70 23600 14200 (1961) 108 (1954) 1080 194 227 325 421 678 1100 1310 2100 3420
2026-03-06 01:30 21.77 23800 14200 (1961) 108 (1954) 1080 194 227 325 421 678 1100 1310 2100 3420
2026-03-06 01:00 21.79 23900 14200 (1961) 108 (1954) 1080 194 227 325 421 678 1100 1310 2100 3420
2026-03-06 00:30 21.84 24000 14200 (1961) 108 (1954) 1080 194 227 325 421 678 1100 1310 2100 3420
2026-03-06 00:00 21.89 24100 14200 (1961) 108 (1954) 1080 194 227 325 421 678 1100 1310 2100 3420
2026-03-05 23:30 21.92 24200 14200 (1961) 108 (1954) 1080 194 227 325 421 678 1100 1310 2100 3420
2026-03-05 23:00 21.97 24400 14200 (1961) 108 (1954) 1080 194 227 325 421 678 1100 1310 2100 3420
2026-03-05 22:30 21.99 24400 7690 (1984) 111 (1954) 1120 187 224 300 342 609 878 1430 3530 4640
2026-03-05 22:00 22.07 24700 7690 (1984) 111 (1954) 1120 187 224 300 342 609 878 1430 3530 4640
2026-03-05 21:30 22.11 24800 7690 (1984) 111 (1954) 1120 187 224 300 342 609 878 1430 3530 4640
2026-03-05 21:00 22.14 24900 7690 (1984) 111 (1954) 1120 187 224 300 342 609 878 1430 3530 4640
2026-03-05 20:30 22.15 24900 7690 (1984) 111 (1954) 1120 187 224 300 342 609 878 1430 3530 4640
2026-03-05 20:00 22.14 24900 7690 (1984) 111 (1954) 1120 187 224 300 342 609 878 1430 3530 4640
2026-03-05 19:30 22.13 24800 7690 (1984) 111 (1954) 1120 187 224 300 342 609 878 1430 3530 4640
2026-03-05 19:00 22.09 24700 7690 (1984) 111 (1954) 1120 187 224 300 342 609 878 1430 3530 4640
2026-03-05 18:30 21.99 24400 7690 (1984) 111 (1954) 1120 187 224 300 342 609 878 1430 3530 4640
2026-03-05 18:00 21.96 24300 7690 (1984) 111 (1954) 1120 187 224 300 342 609 878 1430 3530 4640
2026-03-05 17:30 21.86 24100 7690 (1984) 111 (1954) 1120 187 224 300 342 609 878 1430 3530 4640
2026-03-05 17:00 21.73 23700 7690 (1984) 111 (1954) 1120 187 224 300 342 609 878 1430 3530 4640
2026-03-05 16:30 21.52 23100 7690 (1984) 111 (1954) 1120 187 224 300 342 609 878 1430 3530 4640
2026-03-05 16:00 21.33 22600 7690 (1984) 111 (1954) 1120 187 224 300 342 609 878 1430 3530 4640
2026-03-05 15:30 21.05 21800 7690 (1984) 111 (1954) 1120 187 224 300 342 609 878 1430 3530 4640
2026-03-05 15:00 20.76 21000 7690 (1984) 111 (1954) 1120 187 224 300 342 609 878 1430 3530 4640
2026-03-05 14:30 20.50 20300 7690 (1984) 111 (1954) 1120 187 224 300 342 609 878 1430 3530 4640
2026-03-05 14:00 20.14 19400 7690 (1984) 111 (1954) 1120 187 224 300 342 609 878 1430 3530 4640
2026-03-05 13:30 19.83 18600 7690 (1984) 111 (1954) 1120 187 224 300 342 609 878 1430 3530 4640
2026-03-05 13:00 19.51 17900 7690 (1984) 111 (1954) 1120 187 224 300 342 609 878 1430 3530 4640
2026-03-05 12:30 19.18 17200 7690 (1984) 111 (1954) 1120 187 224 300 342 609 878 1430 3530 4640
2026-03-05 12:00 18.87 16500 7690 (1984) 111 (1954) 1120 187 224 300 342 609 878 1430 3530 4640
2026-03-05 11:30 18.57 15900 7690 (1984) 111 (1954) 1120 187 224 300 342 609 878 1430 3530 4640
2026-03-05 11:00 18.27 15300 7690 (1984) 111 (1954) 1120 187 224 300 342 609 878 1430 3530 4640
2026-03-05 10:30 17.99 14700 7690 (1984) 111 (1954) 1120 187 224 300 342 609 878 1430 3530 4640
2026-03-05 10:00 17.68 14100 7690 (1984) 111 (1954) 1120 187 224 300 342 609 878 1430 3530 4640
2026-03-05 09:30 17.36 13500 7690 (1984) 111 (1954) 1120 187 224 300 342 609 878 1430 3530 4640
2026-03-05 09:00 17.03 12900 7690 (1984) 111 (1954) 1120 187 224 300 342 609 878 1430 3530 4640
2026-03-05 08:30 16.65 12200 7690 (1984) 111 (1954) 1120 187 224 300 342 609 878 1430 3530 4640
2026-03-05 08:00 16.29 11600 7690 (1984) 111 (1954) 1120 187 224 300 342 609 878 1430 3530 4640
2026-03-05 07:30 15.88 10900 7690 (1984) 111 (1954) 1120 187 224 300 342 609 878 1430 3530 4640
2026-03-05 07:00 15.46 10400 7690 (1984) 111 (1954) 1120 187 224 300 342 609 878 1430 3530 4640
2026-03-05 06:30 15.03 9840 7690 (1984) 111 (1954) 1120 187 224 300 342 609 878 1430 3530 4640
2026-03-05 06:00 14.56 9270 7690 (1984) 111 (1954) 1120 187 224 300 342 609 878 1430 3530 4640
2026-03-05 05:30 14.06 8680 7690 (1984) 111 (1954) 1120 187 224 300 342 609 878 1430 3530 4640
2026-03-05 05:00 13.49 8030 7690 (1984) 111 (1954) 1120 187 224 300 342 609 878 1430 3530 4640
2026-03-05 04:30 12.85 7320 7690 (1984) 111 (1954) 1120 187 224 300 342 609 878 1430 3530 4640
2026-03-05 04:00 12.20 6630 7690 (1984) 111 (1954) 1120 187 224 300 342 609 878 1430 3530 4640
2026-03-05 03:30 11.65 6070 7690 (1984) 111 (1954) 1120 187 224 300 342 609 878 1430 3530 4640
2026-03-05 03:00 11.12 5540 7690 (1984) 111 (1954) 1120 187 224 300 342 609 878 1430 3530 4640
2026-03-05 02:30 10.69 5130 7690 (1984) 111 (1954) 1120 187 224 300 342 609 878 1430 3530 4640
2026-03-05 02:00 10.25 4720 7690 (1984) 111 (1954) 1120 187 224 300 342 609 878 1430 3530 4640
2026-03-05 01:30 9.85 4370 7690 (1984) 111 (1954) 1120 187 224 300 342 609 878 1430 3530 4640
2026-03-05 01:00 9.42 3990 7690 (1984) 111 (1954) 1120 187 224 300 342 609 878 1430 3530 4640
2026-03-05 00:30 9.02 3660 7690 (1984) 111 (1954) 1120 187 224 300 342 609 878 1430 3530 4640
2026-03-05 00:00 8.52 3260 7690 (1984) 111 (1954) 1120 187 224 300 342 609 878 1430 3530 4640
2026-03-04 23:30 8.01 2870 7690 (1984) 111 (1954) 1120 187 224 300 342 609 878 1430 3530 4640
2026-03-04 23:00 7.51 2510 7690 (1984) 111 (1954) 1120 187 224 300 342 609 878 1430 3530 4640
2026-03-04 22:30 6.94 2120 15500 (2023) 116 (1954) 1230 175 207 295 348 602 918 980 3200 4960
2026-03-04 22:00 6.43 1840 15500 (2023) 116 (1954) 1230 175 207 295 348 602 918 980 3200 4960
2026-03-04 21:30 5.95 1600 15500 (2023) 116 (1954) 1230 175 207 295 348 602 918 980 3200 4960
2026-03-04 21:00 5.51 1390 15500 (2023) 116 (1954) 1230 175 207 295 348 602 918 980 3200 4960
2026-03-04 20:30 5.19 1240 15500 (2023) 116 (1954) 1230 175 207 295 348 602 918 980 3200 4960
2026-03-04 20:00 4.91 1120 15500 (2023) 116 (1954) 1230 175 207 295 348 602 918 980 3200 4960
2026-03-04 19:30 4.69 1020 15500 (2023) 116 (1954) 1230 175 207 295 348 602 918 980 3200 4960
2026-03-04 19:00 4.56 970 15500 (2023) 116 (1954) 1230 175 207 295 348 602 918 980 3200 4960
2026-03-04 18:30 4.48 937 15500 (2023) 116 (1954) 1230 175 207 295 348 602 918 980 3200 4960
2026-03-04 18:00 4.43 916 15500 (2023) 116 (1954) 1230 175 207 295 348 602 918 980 3200 4960
2026-03-04 17:30 4.37 892 15500 (2023) 116 (1954) 1230 175 207 295 348 602 918 980 3200 4960
2026-03-04 17:00 4.32 872 15500 (2023) 116 (1954) 1230 175 207 295 348 602 918 980 3200 4960
2026-03-04 16:30 4.24 840 15500 (2023) 116 (1954) 1230 175 207 295 348 602 918 980 3200 4960
2026-03-04 16:00 4.20 824 15500 (2023) 116 (1954) 1230 175 207 295 348 602 918 980 3200 4960
2026-03-04 15:30 4.17 813 15500 (2023) 116 (1954) 1230 175 207 295 348 602 918 980 3200 4960
2026-03-04 15:00 4.18 817 15500 (2023) 116 (1954) 1230 175 207 295 348 602 918 980 3200 4960
2026-03-04 14:30 4.15 805 15500 (2023) 116 (1954) 1230 175 207 295 348 602 918 980 3200 4960
2026-03-04 14:00 4.16 809 15500 (2023) 116 (1954) 1230 175 207 295 348 602 918 980 3200 4960
2026-03-04 13:30 4.18 817 15500 (2023) 116 (1954) 1230 175 207 295 348 602 918 980 3200 4960
2026-03-04 13:00 4.18 817 15500 (2023) 116 (1954) 1230 175 207 295 348 602 918 980 3200 4960
2026-03-04 12:30 4.16 809 15500 (2023) 116 (1954) 1230 175 207 295 348 602 918 980 3200 4960
2026-03-04 12:00 4.20 824 15500 (2023) 116 (1954) 1230 175 207 295 348 602 918 980 3200 4960
2026-03-04 11:30 4.22 832 15500 (2023) 116 (1954) 1230 175 207 295 348 602 918 980 3200 4960
2026-03-04 11:00 4.24 840 15500 (2023) 116 (1954) 1230 175 207 295 348 602 918 980 3200 4960
2026-03-04 10:30 4.26 848 15500 (2023) 116 (1954) 1230 175 207 295 348 602 918 980 3200 4960
2026-03-04 10:00 4.26 848 15500 (2023) 116 (1954) 1230 175 207 295 348 602 918 980 3200 4960
2026-03-04 09:30 4.26 848 15500 (2023) 116 (1954) 1230 175 207 295 348 602 918 980 3200 4960
2026-03-04 09:00 4.28 856 15500 (2023) 116 (1954) 1230 175 207 295 348 602 918 980 3200 4960
2026-03-04 08:30 4.30 864 15500 (2023) 116 (1954) 1230 175 207 295 348 602 918 980 3200 4960
2026-03-04 08:00 4.33 876 15500 (2023) 116 (1954) 1230 175 207 295 348 602 918 980 3200 4960
2026-03-04 07:30 4.35 884 15500 (2023) 116 (1954) 1230 175 207 295 348 602 918 980 3200 4960
2026-03-04 07:00 4.38 896 15500 (2023) 116 (1954) 1230 175 207 295 348 602 918 980 3200 4960
2026-03-04 06:30 4.39 900 15500 (2023) 116 (1954) 1230 175 207 295 348 602 918 980 3200 4960
2026-03-04 06:00 4.41 908 15500 (2023) 116 (1954) 1230 175 207 295 348 602 918 980 3200 4960
2026-03-04 05:30 4.43 916 15500 (2023) 116 (1954) 1230 175 207 295 348 602 918 980 3200 4960
2026-03-04 05:00 4.46 929 15500 (2023) 116 (1954) 1230 175 207 295 348 602 918 980 3200 4960
2026-03-04 04:30 4.47 933 15500 (2023) 116 (1954) 1230 175 207 295 348 602 918 980 3200 4960
2026-03-04 04:00 4.50 945 15500 (2023) 116 (1954) 1230 175 207 295 348 602 918 980 3200 4960
2026-03-04 03:30 4.51 949 15500 (2023) 116 (1954) 1230 175 207 295 348 602 918 980 3200 4960
2026-03-04 03:00 4.56 970 15500 (2023) 116 (1954) 1230 175 207 295 348 602 918 980 3200 4960
2026-03-04 02:30 4.58 978 15500 (2023) 116 (1954) 1230 175 207 295 348 602 918 980 3200 4960
2026-03-04 02:00 4.61 990 15500 (2023) 116 (1954) 1230 175 207 295 348 602 918 980 3200 4960
2026-03-04 01:30 4.64 1000 15500 (2023) 116 (1954) 1230 175 207 295 348 602 918 980 3200 4960
2026-03-04 01:00 4.63 999 15500 (2023) 116 (1954) 1230 175 207 295 348 602 918 980 3200 4960
2026-03-04 00:30 4.69 1020 15500 (2023) 116 (1954) 1230 175 207 295 348 602 918 980 3200 4960
2026-03-04 00:00 4.74 1050 15500 (2023) 116 (1954) 1230 175 207 295 348 602 918 980 3200 4960
2026-03-03 23:30 4.78 1060 15500 (2023) 116 (1954) 1230 175 207 295 348 602 918 980 3200 4960
2026-03-03 23:00 4.81 1070 15500 (2023) 116 (1954) 1230 175 207 295 348 602 918 980 3200 4960
2026-03-03 22:30 4.85 1090 6060 (1993) 124 (1954) 889 173 196 293 354 562 980 1060 1400 3450
2026-03-03 22:00 4.87 1100 6060 (1993) 124 (1954) 889 173 196 293 354 562 980 1060 1400 3450
2026-03-03 21:30 4.89 1110 6060 (1993) 124 (1954) 889 173 196 293 354 562 980 1060 1400 3450
2026-03-03 21:00 4.96 1140 6060 (1993) 124 (1954) 889 173 196 293 354 562 980 1060 1400 3450
2026-03-03 20:30 5.00 1160 6060 (1993) 124 (1954) 889 173 196 293 354 562 980 1060 1400 3450
2026-03-03 20:00 5.03 1170 6060 (1993) 124 (1954) 889 173 196 293 354 562 980 1060 1400 3450
2026-03-03 19:30 5.06 1180 6060 (1993) 124 (1954) 889 173 196 293 354 562 980 1060 1400 3450
2026-03-03 19:00 5.11 1210 6060 (1993) 124 (1954) 889 173 196 293 354 562 980 1060 1400 3450
2026-03-03 18:30 5.13 1210 6060 (1993) 124 (1954) 889 173 196 293 354 562 980 1060 1400 3450
2026-03-03 18:00 5.21 1250 6060 (1993) 124 (1954) 889 173 196 293 354 562 980 1060 1400 3450
2026-03-03 17:30 5.23 1260 6060 (1993) 124 (1954) 889 173 196 293 354 562 980 1060 1400 3450
2026-03-03 17:00 5.29 1290 6060 (1993) 124 (1954) 889 173 196 293 354 562 980 1060 1400 3450
2026-03-03 16:30 5.35 1310 6060 (1993) 124 (1954) 889 173 196 293 354 562 980 1060 1400 3450
2026-03-03 16:00 5.37 1320 6060 (1993) 124 (1954) 889 173 196 293 354 562 980 1060 1400 3450
2026-03-03 15:30 5.39 1330 6060 (1993) 124 (1954) 889 173 196 293 354 562 980 1060 1400 3450
2026-03-03 15:00 5.46 1360 6060 (1993) 124 (1954) 889 173 196 293 354 562 980 1060 1400 3450
2026-03-03 14:30 5.47 1370 6060 (1993) 124 (1954) 889 173 196 293 354 562 980 1060 1400 3450
2026-03-03 14:00 5.51 1390 6060 (1993) 124 (1954) 889 173 196 293 354 562 980 1060 1400 3450
2026-03-03 13:30 5.54 1400 6060 (1993) 124 (1954) 889 173 196 293 354 562 980 1060 1400 3450
2026-03-03 13:00 5.53 1400 6060 (1993) 124 (1954) 889 173 196 293 354 562 980 1060 1400 3450
2026-03-03 12:30 5.56 1410 6060 (1993) 124 (1954) 889 173 196 293 354 562 980 1060 1400 3450
2026-03-03 12:00 5.53 1400 6060 (1993) 124 (1954) 889 173 196 293 354 562 980 1060 1400 3450
2026-03-03 11:30 5.51 1390 6060 (1993) 124 (1954) 889 173 196 293 354 562 980 1060 1400 3450
2026-03-03 11:00 5.55 1410 6060 (1993) 124 (1954) 889 173 196 293 354 562 980 1060 1400 3450
2026-03-03 10:30 5.46 1360 6060 (1993) 124 (1954) 889 173 196 293 354 562 980 1060 1400 3450
2026-03-03 10:00 5.44 1350 6060 (1993) 124 (1954) 889 173 196 293 354 562 980 1060 1400 3450
2026-03-03 09:30 5.42 1350 6060 (1993) 124 (1954) 889 173 196 293 354 562 980 1060 1400 3450
2026-03-03 09:00 5.35 1310 6060 (1993) 124 (1954) 889 173 196 293 354 562 980 1060 1400 3450
2026-03-03 08:30 5.30 1290 6060 (1993) 124 (1954) 889 173 196 293 354 562 980 1060 1400 3450
2026-03-03 08:00 5.22 1250 6060 (1993) 124 (1954) 889 173 196 293 354 562 980 1060 1400 3450
2026-03-03 07:30 5.16 1230 6060 (1993) 124 (1954) 889 173 196 293 354 562 980 1060 1400 3450
2026-03-03 07:00 5.07 1190 6060 (1993) 124 (1954) 889 173 196 293 354 562 980 1060 1400 3450
2026-03-03 06:30 5.02 1170 6060 (1993) 124 (1954) 889 173 196 293 354 562 980 1060 1400 3450
2026-03-03 06:00 4.99 1150 6060 (1993) 124 (1954) 889 173 196 293 354 562 980 1060 1400 3450
2026-03-03 05:30 4.93 1130 6060 (1993) 124 (1954) 889 173 196 293 354 562 980 1060 1400 3450
2026-03-03 05:00 4.88 1100 6060 (1993) 124 (1954) 889 173 196 293 354 562 980 1060 1400 3450
2026-03-03 04:30 4.82 1080 6060 (1993) 124 (1954) 889 173 196 293 354 562 980 1060 1400 3450
2026-03-03 04:00 4.81 1070 6060 (1993) 124 (1954) 889 173 196 293 354 562 980 1060 1400 3450
2026-03-03 03:30 4.77 1060 6060 (1993) 124 (1954) 889 173 196 293 354 562 980 1060 1400 3450
2026-03-03 03:00 4.74 1050 6060 (1993) 124 (1954) 889 173 196 293 354 562 980 1060 1400 3450
2026-03-03 02:30 4.66 1010 6060 (1993) 124 (1954) 889 173 196 293 354 562 980 1060 1400 3450
2026-03-03 02:00 4.53 957 6060 (1993) 124 (1954) 889 173 196 293 354 562 980 1060 1400 3450
2026-03-03 01:30 4.36 888 6060 (1993) 124 (1954) 889 173 196 293 354 562 980 1060 1400 3450
2026-03-03 01:00 4.13 797 6060 (1993) 124 (1954) 889 173 196 293 354 562 980 1060 1400 3450
2026-03-03 00:30 3.73 647 6060 (1993) 124 (1954) 889 173 196 293 354 562 980 1060 1400 3450
2026-03-03 00:00 3.20 463 6060 (1993) 124 (1954) 889 173 196 293 354 562 980 1060 1400 3450
2026-03-02 23:30 2.72 323 6060 (1993) 124 (1954) 889 173 196 293 354 562 980 1060 1400 3450
2026-03-02 23:00 2.44 251 6060 (1993) 124 (1954) 889 173 196 293 354 562 980 1060 1400 3450
2026-03-02 22:30 2.38 236 3620 (1997) 128 (1954) 767 165 201 296 353 540 946 1080 1560 2290
2026-03-02 22:00 2.37 233 3620 (1997) 128 (1954) 767 165 201 296 353 540 946 1080 1560 2290
2026-03-02 21:30 2.37 233 3620 (1997) 128 (1954) 767 165 201 296 353 540 946 1080 1560 2290
2026-03-02 21:00 2.35 228 3620 (1997) 128 (1954) 767 165 201 296 353 540 946 1080 1560 2290
2026-03-02 20:30 2.33 223 3620 (1997) 128 (1954) 767 165 201 296 353 540 946 1080 1560 2290
2026-03-02 20:00 2.34 226 3620 (1997) 128 (1954) 767 165 201 296 353 540 946 1080 1560 2290
2026-03-02 19:30 2.32 221 3620 (1997) 128 (1954) 767 165 201 296 353 540 946 1080 1560 2290
2026-03-02 19:00 2.33 223 3620 (1997) 128 (1954) 767 165 201 296 353 540 946 1080 1560 2290
2026-03-02 18:30 2.31 219 3620 (1997) 128 (1954) 767 165 201 296 353 540 946 1080 1560 2290
2026-03-02 18:00 2.31 219 3620 (1997) 128 (1954) 767 165 201 296 353 540 946 1080 1560 2290
2026-03-02 17:30 2.32 221 3620 (1997) 128 (1954) 767 165 201 296 353 540 946 1080 1560 2290
2026-03-02 17:00 2.31 219 3620 (1997) 128 (1954) 767 165 201 296 353 540 946 1080 1560 2290
2026-03-02 16:30 2.29 214 3620 (1997) 128 (1954) 767 165 201 296 353 540 946 1080 1560 2290
2026-03-02 16:00 2.30 216 3620 (1997) 128 (1954) 767 165 201 296 353 540 946 1080 1560 2290
2026-03-02 15:30 2.29 214 3620 (1997) 128 (1954) 767 165 201 296 353 540 946 1080 1560 2290
2026-03-02 15:00 2.29 214 3620 (1997) 128 (1954) 767 165 201 296 353 540 946 1080 1560 2290
2026-03-02 14:30 2.28 211 3620 (1997) 128 (1954) 767 165 201 296 353 540 946 1080 1560 2290
2026-03-02 14:00 2.27 209 3620 (1997) 128 (1954) 767 165 201 296 353 540 946 1080 1560 2290
2026-03-02 13:30 2.27 209 3620 (1997) 128 (1954) 767 165 201 296 353 540 946 1080 1560 2290
2026-03-02 13:00 2.26 207 3620 (1997) 128 (1954) 767 165 201 296 353 540 946 1080 1560 2290
2026-03-02 12:30 2.27 209 3620 (1997) 128 (1954) 767 165 201 296 353 540 946 1080 1560 2290
2026-03-02 12:00 2.26 207 3620 (1997) 128 (1954) 767 165 201 296 353 540 946 1080 1560 2290
2026-03-02 11:30 2.24 202 3620 (1997) 128 (1954) 767 165 201 296 353 540 946 1080 1560 2290
2026-03-02 11:00 2.26 207 3620 (1997) 128 (1954) 767 165 201 296 353 540 946 1080 1560 2290
2026-03-02 10:30 2.25 204 3620 (1997) 128 (1954) 767 165 201 296 353 540 946 1080 1560 2290
2026-03-02 10:00 2.25 204 3620 (1997) 128 (1954) 767 165 201 296 353 540 946 1080 1560 2290
2026-03-02 09:30 2.24 202 3620 (1997) 128 (1954) 767 165 201 296 353 540 946 1080 1560 2290
2026-03-02 09:00 2.25 204 3620 (1997) 128 (1954) 767 165 201 296 353 540 946 1080 1560 2290
2026-03-02 08:30 2.24 202 3620 (1997) 128 (1954) 767 165 201 296 353 540 946 1080 1560 2290
2026-03-02 08:00 2.23 199 3620 (1997) 128 (1954) 767 165 201 296 353 540 946 1080 1560 2290
2026-03-02 07:30 2.24 202 3620 (1997) 128 (1954) 767 165 201 296 353 540 946 1080 1560 2290
2026-03-02 07:00 2.23 199 3620 (1997) 128 (1954) 767 165 201 296 353 540 946 1080 1560 2290
2026-03-02 06:30 2.24 202 3620 (1997) 128 (1954) 767 165 201 296 353 540 946 1080 1560 2290
2026-03-02 06:00 2.23 199 3620 (1997) 128 (1954) 767 165 201 296 353 540 946 1080 1560 2290
2026-03-02 05:30 2.22 197 3620 (1997) 128 (1954) 767 165 201 296 353 540 946 1080 1560 2290
2026-03-02 05:00 2.23 199 3620 (1997) 128 (1954) 767 165 201 296 353 540 946 1080 1560 2290
2026-03-02 04:30 2.22 197 3620 (1997) 128 (1954) 767 165 201 296 353 540 946 1080 1560 2290
2026-03-02 04:00 2.21 195 3620 (1997) 128 (1954) 767 165 201 296 353 540 946 1080 1560 2290
2026-03-02 03:30 2.21 195 3620 (1997) 128 (1954) 767 165 201 296 353 540 946 1080 1560 2290
2026-03-02 03:00 2.20 192 3620 (1997) 128 (1954) 767 165 201 296 353 540 946 1080 1560 2290
2026-03-02 02:30 2.21 195 3620 (1997) 128 (1954) 767 165 201 296 353 540 946 1080 1560 2290
2026-03-02 02:00 2.20 192 3620 (1997) 128 (1954) 767 165 201 296 353 540 946 1080 1560 2290
2026-03-02 01:30 2.20 192 3620 (1997) 128 (1954) 767 165 201 296 353 540 946 1080 1560 2290
2026-03-02 01:00 2.20 192 3620 (1997) 128 (1954) 767 165 201 296 353 540 946 1080 1560 2290
2026-03-02 00:30 2.20 192 3620 (1997) 128 (1954) 767 165 201 296 353 540 946 1080 1560 2290
2026-03-02 00:00 2.21 195 3620 (1997) 128 (1954) 767 165 201 296 353 540 946 1080 1560 2290
2026-03-01 23:30 2.20 192 3620 (1997) 128 (1954) 767 165 201 296 353 540 946 1080 1560 2290
2026-03-01 23:00 2.21 195 3620 (1997) 128 (1954) 767 165 201 296 353 540 946 1080 1560 2290
2026-03-01 22:30 2.18 188 3900 (1987) 126 (1954) 830 169 205 299 327 555 1090 1330 1710 2440
2026-03-01 22:00 2.17 185 3900 (1987) 126 (1954) 830 169 205 299 327 555 1090 1330 1710 2440
2026-03-01 21:30 2.18 188 3900 (1987) 126 (1954) 830 169 205 299 327 555 1090 1330 1710 2440
2026-03-01 21:00 2.16 183 3900 (1987) 126 (1954) 830 169 205 299 327 555 1090 1330 1710 2440
2026-03-01 20:30 2.17 185 3900 (1987) 126 (1954) 830 169 205 299 327 555 1090 1330 1710 2440
2026-03-01 20:00 2.15 181 3900 (1987) 126 (1954) 830 169 205 299 327 555 1090 1330 1710 2440
2026-03-01 19:30 2.16 183 3900 (1987) 126 (1954) 830 169 205 299 327 555 1090 1330 1710 2440
2026-03-01 19:00 2.15 181 3900 (1987) 126 (1954) 830 169 205 299 327 555 1090 1330 1710 2440
2026-03-01 18:30 2.17 185 3900 (1987) 126 (1954) 830 169 205 299 327 555 1090 1330 1710 2440
2026-03-01 18:00 2.17 185 3900 (1987) 126 (1954) 830 169 205 299 327 555 1090 1330 1710 2440
2026-03-01 17:30 2.17 185 3900 (1987) 126 (1954) 830 169 205 299 327 555 1090 1330 1710 2440
2026-03-01 17:00 2.16 183 3900 (1987) 126 (1954) 830 169 205 299 327 555 1090 1330 1710 2440
2026-03-01 16:30 2.16 183 3900 (1987) 126 (1954) 830 169 205 299 327 555 1090 1330 1710 2440
2026-03-01 16:00 2.17 185 3900 (1987) 126 (1954) 830 169 205 299 327 555 1090 1330 1710 2440
2026-03-01 15:30 2.18 188 3900 (1987) 126 (1954) 830 169 205 299 327 555 1090 1330 1710 2440
2026-03-01 15:00 2.18 188 3900 (1987) 126 (1954) 830 169 205 299 327 555 1090 1330 1710 2440
2026-03-01 14:30 2.18 188 3900 (1987) 126 (1954) 830 169 205 299 327 555 1090 1330 1710 2440
2026-03-01 14:00 2.18 188 3900 (1987) 126 (1954) 830 169 205 299 327 555 1090 1330 1710 2440
2026-03-01 13:30 2.17 185 3900 (1987) 126 (1954) 830 169 205 299 327 555 1090 1330 1710 2440
2026-03-01 13:00 2.17 185 3900 (1987) 126 (1954) 830 169 205 299 327 555 1090 1330 1710 2440
2026-03-01 12:30 2.17 185 3900 (1987) 126 (1954) 830 169 205 299 327 555 1090 1330 1710 2440
2026-03-01 12:00 2.17 185 3900 (1987) 126 (1954) 830 169 205 299 327 555 1090 1330 1710 2440
2026-03-01 11:30 2.17 185 3900 (1987) 126 (1954) 830 169 205 299 327 555 1090 1330 1710 2440
2026-03-01 11:00 2.18 188 3900 (1987) 126 (1954) 830 169 205 299 327 555 1090 1330 1710 2440
2026-03-01 10:30 2.17 185 3900 (1987) 126 (1954) 830 169 205 299 327 555 1090 1330 1710 2440
2026-03-01 10:00 2.18 188 3900 (1987) 126 (1954) 830 169 205 299 327 555 1090 1330 1710 2440
2026-03-01 09:30 2.18 188 3900 (1987) 126 (1954) 830 169 205 299 327 555 1090 1330 1710 2440
2026-03-01 09:00 2.19 190 3900 (1987) 126 (1954) 830 169 205 299 327 555 1090 1330 1710 2440
2026-03-01 08:30 2.17 185 3900 (1987) 126 (1954) 830 169 205 299 327 555 1090 1330 1710 2440
2026-03-01 08:00 2.19 190 3900 (1987) 126 (1954) 830 169 205 299 327 555 1090 1330 1710 2440
2026-03-01 07:30 2.18 188 3900 (1987) 126 (1954) 830 169 205 299 327 555 1090 1330 1710 2440
2026-03-01 07:00 2.17 185 3900 (1987) 126 (1954) 830 169 205 299 327 555 1090 1330 1710 2440
2026-03-01 06:30 2.19 190 3900 (1987) 126 (1954) 830 169 205 299 327 555 1090 1330 1710 2440
2026-03-01 06:00 2.18 188 3900 (1987) 126 (1954) 830 169 205 299 327 555 1090 1330 1710 2440
2026-03-01 05:30 2.18 188 3900 (1987) 126 (1954) 830 169 205 299 327 555 1090 1330 1710 2440
2026-03-01 05:00 2.18 188 3900 (1987) 126 (1954) 830 169 205 299 327 555 1090 1330 1710 2440
2026-03-01 04:30 2.18 188 3900 (1987) 126 (1954) 830 169 205 299 327 555 1090 1330 1710 2440
2026-03-01 04:00 2.19 190 3900 (1987) 126 (1954) 830 169 205 299 327 555 1090 1330 1710 2440
2026-03-01 03:30 2.19 190 3900 (1987) 126 (1954) 830 169 205 299 327 555 1090 1330 1710 2440
2026-03-01 03:00 2.18 188 3900 (1987) 126 (1954) 830 169 205 299 327 555 1090 1330 1710 2440
2026-03-01 02:30 2.20 192 3900 (1987) 126 (1954) 830 169 205 299 327 555 1090 1330 1710 2440
2026-03-01 02:00 2.18 188 3900 (1987) 126 (1954) 830 169 205 299 327 555 1090 1330 1710 2440
2026-03-01 01:30 2.20 192 3900 (1987) 126 (1954) 830 169 205 299 327 555 1090 1330 1710 2440
2026-03-01 01:00 2.19 190 3900 (1987) 126 (1954) 830 169 205 299 327 555 1090 1330 1710 2440
2026-03-01 00:30 2.19 190 3900 (1987) 126 (1954) 830 169 205 299 327 555 1090 1330 1710 2440
2026-03-01 00:00 2.19 190 3900 (1987) 126 (1954) 830 169 205 299 327 555 1090 1330 1710 2440
2026-02-28 23:30 2.19 190 3900 (1987) 126 (1954) 830 169 205 299 327 555 1090 1330 1710 2440
2026-02-28 23:00 2.19 190 3900 (1987) 126 (1954) 830 169 205 299 327 555 1090 1330 1710 2440
2026-02-28 22:30 2.20 192 7450 (1997) 116 (1954) 936 181 203 297 341 590 1070 1150 1710 3220
2026-02-28 22:00 2.20 192 7450 (1997) 116 (1954) 936 181 203 297 341 590 1070 1150 1710 3220
2026-02-28 21:30 2.19 190 7450 (1997) 116 (1954) 936 181 203 297 341 590 1070 1150 1710 3220
2026-02-28 21:00 2.20 192 7450 (1997) 116 (1954) 936 181 203 297 341 590 1070 1150 1710 3220
2026-02-28 20:30 2.19 190 7450 (1997) 116 (1954) 936 181 203 297 341 590 1070 1150 1710 3220
2026-02-28 20:00 2.20 192 7450 (1997) 116 (1954) 936 181 203 297 341 590 1070 1150 1710 3220
2026-02-28 19:30 2.20 192 7450 (1997) 116 (1954) 936 181 203 297 341 590 1070 1150 1710 3220
2026-02-28 19:00 2.19 190 7450 (1997) 116 (1954) 936 181 203 297 341 590 1070 1150 1710 3220
2026-02-28 18:30 2.20 192 7450 (1997) 116 (1954) 936 181 203 297 341 590 1070 1150 1710 3220
2026-02-28 18:00 2.20 192 7450 (1997) 116 (1954) 936 181 203 297 341 590 1070 1150 1710 3220
2026-02-28 17:30 2.20 192 7450 (1997) 116 (1954) 936 181 203 297 341 590 1070 1150 1710 3220
2026-02-28 17:00 2.19 190 7450 (1997) 116 (1954) 936 181 203 297 341 590 1070 1150 1710 3220
2026-02-28 16:30 2.19 190 7450 (1997) 116 (1954) 936 181 203 297 341 590 1070 1150 1710 3220
2026-02-28 16:00 2.21 195 7450 (1997) 116 (1954) 936 181 203 297 341 590 1070 1150 1710 3220
2026-02-28 15:30 2.21 195 7450 (1997) 116 (1954) 936 181 203 297 341 590 1070 1150 1710 3220
2026-02-28 15:00 2.19 190 7450 (1997) 116 (1954) 936 181 203 297 341 590 1070 1150 1710 3220
2026-02-28 14:30 2.20 192 7450 (1997) 116 (1954) 936 181 203 297 341 590 1070 1150 1710 3220
2026-02-28 14:00 2.21 195 7450 (1997) 116 (1954) 936 181 203 297 341 590 1070 1150 1710 3220
2026-02-28 13:30 2.21 195 7450 (1997) 116 (1954) 936 181 203 297 341 590 1070 1150 1710 3220
2026-02-28 13:00 2.20 192 7450 (1997) 116 (1954) 936 181 203 297 341 590 1070 1150 1710 3220
2026-02-28 12:30 2.21 195 7450 (1997) 116 (1954) 936 181 203 297 341 590 1070 1150 1710 3220
2026-02-28 12:00 2.20 192 7450 (1997) 116 (1954) 936 181 203 297 341 590 1070 1150 1710 3220
2026-02-28 11:30 2.20 192 7450 (1997) 116 (1954) 936 181 203 297 341 590 1070 1150 1710 3220
2026-02-28 11:00 2.21 195 7450 (1997) 116 (1954) 936 181 203 297 341 590 1070 1150 1710 3220
2026-02-28 10:30 2.22 197 7450 (1997) 116 (1954) 936 181 203 297 341 590 1070 1150 1710 3220
2026-02-28 10:00 2.21 195 7450 (1997) 116 (1954) 936 181 203 297 341 590 1070 1150 1710 3220
2026-02-28 09:30 2.20 192 7450 (1997) 116 (1954) 936 181 203 297 341 590 1070 1150 1710 3220
2026-02-28 09:00 2.21 195 7450 (1997) 116 (1954) 936 181 203 297 341 590 1070 1150 1710 3220
2026-02-28 08:30 2.20 192 7450 (1997) 116 (1954) 936 181 203 297 341 590 1070 1150 1710 3220
2026-02-28 08:00 2.21 195 7450 (1997) 116 (1954) 936 181 203 297 341 590 1070 1150 1710 3220
2026-02-28 07:30 2.21 195 7450 (1997) 116 (1954) 936 181 203 297 341 590 1070 1150 1710 3220
2026-02-28 07:00 2.22 197 7450 (1997) 116 (1954) 936 181 203 297 341 590 1070 1150 1710 3220
2026-02-28 06:30 2.21 195 7450 (1997) 116 (1954) 936 181 203 297 341 590 1070 1150 1710 3220
2026-02-28 06:00 2.20 192 7450 (1997) 116 (1954) 936 181 203 297 341 590 1070 1150 1710 3220
2026-02-28 05:30 2.22 197 7450 (1997) 116 (1954) 936 181 203 297 341 590 1070 1150 1710 3220
2026-02-28 05:00 2.21 195 7450 (1997) 116 (1954) 936 181 203 297 341 590 1070 1150 1710 3220
2026-02-28 04:30 2.20 192 7450 (1997) 116 (1954) 936 181 203 297 341 590 1070 1150 1710 3220
2026-02-28 04:00 2.21 195 7450 (1997) 116 (1954) 936 181 203 297 341 590 1070 1150 1710 3220
2026-02-28 03:30 2.21 195 7450 (1997) 116 (1954) 936 181 203 297 341 590 1070 1150 1710 3220
2026-02-28 03:00 2.22 197 7450 (1997) 116 (1954) 936 181 203 297 341 590 1070 1150 1710 3220
2026-02-28 02:30 2.21 195 7450 (1997) 116 (1954) 936 181 203 297 341 590 1070 1150 1710 3220
2026-02-28 02:00 2.21 195 7450 (1997) 116 (1954) 936 181 203 297 341 590 1070 1150 1710 3220
2026-02-28 01:30 2.22 197 7450 (1997) 116 (1954) 936 181 203 297 341 590 1070 1150 1710 3220
2026-02-28 01:00 2.21 195 7450 (1997) 116 (1954) 936 181 203 297 341 590 1070 1150 1710 3220
2026-02-28 00:30 2.23 199 7450 (1997) 116 (1954) 936 181 203 297 341 590 1070 1150 1710 3220
2026-02-28 00:00 2.21 195 7450 (1997) 116 (1954) 936 181 203 297 341 590 1070 1150 1710 3220
2026-02-27 23:30 2.23 199 7450 (1997) 116 (1954) 936 181 203 297 341 590 1070 1150 1710 3220
2026-02-27 23:00 2.22 197 7450 (1997) 116 (1954) 936 181 203 297 341 590 1070 1150 1710 3220
2026-02-27 22:30 2.21 195 15500 (1997) 106 (1954) 1180 178 206 311 327 507 1030 1240 1890 5310
2026-02-27 22:00 2.22 197 15500 (1997) 106 (1954) 1180 178 206 311 327 507 1030 1240 1890 5310
2026-02-27 21:30 2.21 195 15500 (1997) 106 (1954) 1180 178 206 311 327 507 1030 1240 1890 5310
2026-02-27 21:00 2.22 197 15500 (1997) 106 (1954) 1180 178 206 311 327 507 1030 1240 1890 5310
2026-02-27 20:30 2.22 197 15500 (1997) 106 (1954) 1180 178 206 311 327 507 1030 1240 1890 5310
2026-02-27 20:00 2.22 197 15500 (1997) 106 (1954) 1180 178 206 311 327 507 1030 1240 1890 5310
2026-02-27 19:30 2.23 199 15500 (1997) 106 (1954) 1180 178 206 311 327 507 1030 1240 1890 5310
2026-02-27 19:00 2.21 195 15500 (1997) 106 (1954) 1180 178 206 311 327 507 1030 1240 1890 5310
2026-02-27 18:30 2.22 197 15500 (1997) 106 (1954) 1180 178 206 311 327 507 1030 1240 1890 5310
2026-02-27 18:00 2.22 197 15500 (1997) 106 (1954) 1180 178 206 311 327 507 1030 1240 1890 5310
2026-02-27 17:30 2.22 197 15500 (1997) 106 (1954) 1180 178 206 311 327 507 1030 1240 1890 5310
2026-02-27 17:00 2.22 197 15500 (1997) 106 (1954) 1180 178 206 311 327 507 1030 1240 1890 5310
2026-02-27 16:30 2.22 197 15500 (1997) 106 (1954) 1180 178 206 311 327 507 1030 1240 1890 5310
2026-02-27 16:00 2.22 197 15500 (1997) 106 (1954) 1180 178 206 311 327 507 1030 1240 1890 5310
2026-02-27 15:30 2.22 197 15500 (1997) 106 (1954) 1180 178 206 311 327 507 1030 1240 1890 5310
2026-02-27 15:00 2.23 199 15500 (1997) 106 (1954) 1180 178 206 311 327 507 1030 1240 1890 5310
2026-02-27 14:30 2.22 197 15500 (1997) 106 (1954) 1180 178 206 311 327 507 1030 1240 1890 5310
2026-02-27 14:00 2.23 199 15500 (1997) 106 (1954) 1180 178 206 311 327 507 1030 1240 1890 5310
2026-02-27 13:30 2.23 199 15500 (1997) 106 (1954) 1180 178 206 311 327 507 1030 1240 1890 5310
2026-02-27 13:00 2.23 199 15500 (1997) 106 (1954) 1180 178 206 311 327 507 1030 1240 1890 5310
2026-02-27 12:30 2.23 199 15500 (1997) 106 (1954) 1180 178 206 311 327 507 1030 1240 1890 5310
2026-02-27 12:00 2.25 204 15500 (1997) 106 (1954) 1180 178 206 311 327 507 1030 1240 1890 5310
2026-02-27 11:30 2.24 202 15500 (1997) 106 (1954) 1180 178 206 311 327 507 1030 1240 1890 5310
2026-02-27 11:00 2.23 199 15500 (1997) 106 (1954) 1180 178 206 311 327 507 1030 1240 1890 5310
2026-02-27 10:30 2.25 204 15500 (1997) 106 (1954) 1180 178 206 311 327 507 1030 1240 1890 5310
2026-02-27 10:00 2.24 202 15500 (1997) 106 (1954) 1180 178 206 311 327 507 1030 1240 1890 5310
2026-02-27 09:30 2.24 202 15500 (1997) 106 (1954) 1180 178 206 311 327 507 1030 1240 1890 5310
2026-02-27 09:00 2.24 202 15500 (1997) 106 (1954) 1180 178 206 311 327 507 1030 1240 1890 5310
2026-02-27 08:30 2.24 202 15500 (1997) 106 (1954) 1180 178 206 311 327 507 1030 1240 1890 5310
2026-02-27 08:00 2.23 199 15500 (1997) 106 (1954) 1180 178 206 311 327 507 1030 1240 1890 5310
2026-02-27 07:30 2.25 204 15500 (1997) 106 (1954) 1180 178 206 311 327 507 1030 1240 1890 5310
2026-02-27 07:00 2.24 202 15500 (1997) 106 (1954) 1180 178 206 311 327 507 1030 1240 1890 5310
2026-02-27 06:30 2.24 202 15500 (1997) 106 (1954) 1180 178 206 311 327 507 1030 1240 1890 5310
2026-02-27 06:00 2.23 199 15500 (1997) 106 (1954) 1180 178 206 311 327 507 1030 1240 1890 5310
2026-02-27 05:30 2.25 204 15500 (1997) 106 (1954) 1180 178 206 311 327 507 1030 1240 1890 5310
2026-02-27 05:00 2.24 202 15500 (1997) 106 (1954) 1180 178 206 311 327 507 1030 1240 1890 5310
2026-02-27 04:30 2.23 199 15500 (1997) 106 (1954) 1180 178 206 311 327 507 1030 1240 1890 5310
2026-02-27 04:00 2.25 204 15500 (1997) 106 (1954) 1180 178 206 311 327 507 1030 1240 1890 5310
2026-02-27 03:30 2.24 202 15500 (1997) 106 (1954) 1180 178 206 311 327 507 1030 1240 1890 5310
2026-02-27 03:00 2.24 202 15500 (1997) 106 (1954) 1180 178 206 311 327 507 1030 1240 1890 5310
2026-02-27 02:30 2.25 204 15500 (1997) 106 (1954) 1180 178 206 311 327 507 1030 1240 1890 5310
2026-02-27 02:00 2.24 202 15500 (1997) 106 (1954) 1180 178 206 311 327 507 1030 1240 1890 5310
2026-02-27 01:30 2.25 204 15500 (1997) 106 (1954) 1180 178 206 311 327 507 1030 1240 1890 5310
2026-02-27 01:00 2.25 204 15500 (1997) 106 (1954) 1180 178 206 311 327 507 1030 1240 1890 5310
2026-02-27 00:30 2.25 204 15500 (1997) 106 (1954) 1180 178 206 311 327 507 1030 1240 1890 5310
2026-02-27 00:00 2.26 207 15500 (1997) 106 (1954) 1180 178 206 311 327 507 1030 1240 1890 5310
2026-02-26 23:30 2.25 204 15500 (1997) 106 (1954) 1180 178 206 311 327 507 1030 1240 1890 5310
2026-02-26 23:00 2.25 204 15500 (1997) 106 (1954) 1180 178 206 311 327 507 1030 1240 1890 5310
2026-02-26 22:30 2.26 207 8750 (2018) 111 (1954) 1000 167 213 299 338 510 1030 1220 2120 4500
2026-02-26 22:00 2.25 204 8750 (2018) 111 (1954) 1000 167 213 299 338 510 1030 1220 2120 4500
2026-02-26 21:30 2.26 207 8750 (2018) 111 (1954) 1000 167 213 299 338 510 1030 1220 2120 4500
2026-02-26 21:00 2.25 204 8750 (2018) 111 (1954) 1000 167 213 299 338 510 1030 1220 2120 4500
2026-02-26 20:30 2.26 207 8750 (2018) 111 (1954) 1000 167 213 299 338 510 1030 1220 2120 4500
2026-02-26 20:00 2.26 207 8750 (2018) 111 (1954) 1000 167 213 299 338 510 1030 1220 2120 4500
2026-02-26 19:30 2.26 207 8750 (2018) 111 (1954) 1000 167 213 299 338 510 1030 1220 2120 4500
2026-02-26 19:00 2.25 204 8750 (2018) 111 (1954) 1000 167 213 299 338 510 1030 1220 2120 4500
2026-02-26 18:30 2.25 204 8750 (2018) 111 (1954) 1000 167 213 299 338 510 1030 1220 2120 4500
2026-02-26 18:00 2.25 204 8750 (2018) 111 (1954) 1000 167 213 299 338 510 1030 1220 2120 4500
2026-02-26 17:30 2.27 209 8750 (2018) 111 (1954) 1000 167 213 299 338 510 1030 1220 2120 4500
2026-02-26 17:00 2.26 207 8750 (2018) 111 (1954) 1000 167 213 299 338 510 1030 1220 2120 4500
2026-02-26 16:30 2.25 204 8750 (2018) 111 (1954) 1000 167 213 299 338 510 1030 1220 2120 4500
2026-02-26 16:00 2.26 207 8750 (2018) 111 (1954) 1000 167 213 299 338 510 1030 1220 2120 4500
2026-02-26 15:30 2.26 207 8750 (2018) 111 (1954) 1000 167 213 299 338 510 1030 1220 2120 4500
2026-02-26 15:00 2.27 209 8750 (2018) 111 (1954) 1000 167 213 299 338 510 1030 1220 2120 4500
2026-02-26 14:30 2.27 209 8750 (2018) 111 (1954) 1000 167 213 299 338 510 1030 1220 2120 4500
2026-02-26 14:00 2.27 209 8750 (2018) 111 (1954) 1000 167 213 299 338 510 1030 1220 2120 4500
2026-02-26 13:30 2.26 207 8750 (2018) 111 (1954) 1000 167 213 299 338 510 1030 1220 2120 4500
2026-02-26 13:00 2.27 209 8750 (2018) 111 (1954) 1000 167 213 299 338 510 1030 1220 2120 4500
2026-02-26 12:30 2.27 209 8750 (2018) 111 (1954) 1000 167 213 299 338 510 1030 1220 2120 4500
2026-02-26 12:00 2.26 207 8750 (2018) 111 (1954) 1000 167 213 299 338 510 1030 1220 2120 4500
2026-02-26 11:30 2.27 209 8750 (2018) 111 (1954) 1000 167 213 299 338 510 1030 1220 2120 4500
2026-02-26 11:00 2.29 214 8750 (2018) 111 (1954) 1000 167 213 299 338 510 1030 1220 2120 4500
2026-02-26 10:30 2.27 209 8750 (2018) 111 (1954) 1000 167 213 299 338 510 1030 1220 2120 4500
2026-02-26 10:00 2.28 211 8750 (2018) 111 (1954) 1000 167 213 299 338 510 1030 1220 2120 4500
2026-02-26 09:30 2.28 211 8750 (2018) 111 (1954) 1000 167 213 299 338 510 1030 1220 2120 4500
2026-02-26 09:00 2.29 214 8750 (2018) 111 (1954) 1000 167 213 299 338 510 1030 1220 2120 4500
2026-02-26 08:30 2.28 211 8750 (2018) 111 (1954) 1000 167 213 299 338 510 1030 1220 2120 4500
2026-02-26 08:00 2.27 209 8750 (2018) 111 (1954) 1000 167 213 299 338 510 1030 1220 2120 4500
2026-02-26 07:30 2.28 211 8750 (2018) 111 (1954) 1000 167 213 299 338 510 1030 1220 2120 4500
2026-02-26 07:00 2.28 211 8750 (2018) 111 (1954) 1000 167 213 299 338 510 1030 1220 2120 4500
2026-02-26 06:30 2.29 214 8750 (2018) 111 (1954) 1000 167 213 299 338 510 1030 1220 2120 4500
2026-02-26 06:00 2.28 211 8750 (2018) 111 (1954) 1000 167 213 299 338 510 1030 1220 2120 4500
2026-02-26 05:30 2.27 209 8750 (2018) 111 (1954) 1000 167 213 299 338 510 1030 1220 2120 4500
2026-02-26 05:00 2.29 214 8750 (2018) 111 (1954) 1000 167 213 299 338 510 1030 1220 2120 4500
2026-02-26 04:30 2.28 211 8750 (2018) 111 (1954) 1000 167 213 299 338 510 1030 1220 2120 4500
2026-02-26 04:00 2.29 214 8750 (2018) 111 (1954) 1000 167 213 299 338 510 1030 1220 2120 4500
2026-02-26 03:30 2.28 211 8750 (2018) 111 (1954) 1000 167 213 299 338 510 1030 1220 2120 4500
2026-02-26 03:00 2.29 214 8750 (2018) 111 (1954) 1000 167 213 299 338 510 1030 1220 2120 4500
2026-02-26 02:30 2.28 211 8750 (2018) 111 (1954) 1000 167 213 299 338 510 1030 1220 2120 4500
2026-02-26 01:30 2.29 214 8750 (2018) 111 (1954) 1000 167 213 299 338 510 1030 1220 2120 4500
2026-02-26 01:00 2.28 211 8750 (2018) 111 (1954) 1000 167 213 299 338 510 1030 1220 2120 4500
2026-02-26 00:30 2.30 216 8750 (2018) 111 (1954) 1000 167 213 299 338 510 1030 1220 2120 4500
2026-02-26 00:00 2.29 214 8750 (2018) 111 (1954) 1000 167 213 299 338 510 1030 1220 2120 4500
2026-02-25 23:30 2.29 214 8750 (2018) 111 (1954) 1000 167 213 299 338 510 1030 1220 2120 4500
2026-02-25 23:00 2.29 214 8750 (2018) 111 (1954) 1000 167 213 299 338 510 1030 1220 2120 4500
2026-02-25 22:30 2.30 216 24500 (2018) 116 (1954) 1260 166 211 280 334 533 1200 1270 1910 4270
2026-02-25 22:00 2.30 216 24500 (2018) 116 (1954) 1260 166 211 280 334 533 1200 1270 1910 4270
2026-02-25 21:30 2.30 216 24500 (2018) 116 (1954) 1260 166 211 280 334 533 1200 1270 1910 4270
2026-02-25 21:00 2.30 216 24500 (2018) 116 (1954) 1260 166 211 280 334 533 1200 1270 1910 4270
2026-02-25 20:30 2.30 216 24500 (2018) 116 (1954) 1260 166 211 280 334 533 1200 1270 1910 4270
2026-02-25 20:00 2.29 214 24500 (2018) 116 (1954) 1260 166 211 280 334 533 1200 1270 1910 4270
2026-02-25 19:30 2.31 219 24500 (2018) 116 (1954) 1260 166 211 280 334 533 1200 1270 1910 4270
2026-02-25 19:00 2.29 214 24500 (2018) 116 (1954) 1260 166 211 280 334 533 1200 1270 1910 4270
2026-02-25 18:30 2.30 216 24500 (2018) 116 (1954) 1260 166 211 280 334 533 1200 1270 1910 4270
2026-02-25 18:00 2.31 219 24500 (2018) 116 (1954) 1260 166 211 280 334 533 1200 1270 1910 4270
2026-02-25 17:30 2.31 219 24500 (2018) 116 (1954) 1260 166 211 280 334 533 1200 1270 1910 4270
2026-02-25 17:00 2.30 216 24500 (2018) 116 (1954) 1260 166 211 280 334 533 1200 1270 1910 4270
2026-02-25 16:30 2.30 216 24500 (2018) 116 (1954) 1260 166 211 280 334 533 1200 1270 1910 4270
2026-02-25 16:00 2.32 221 24500 (2018) 116 (1954) 1260 166 211 280 334 533 1200 1270 1910 4270
2026-02-25 15:30 2.30 216 24500 (2018) 116 (1954) 1260 166 211 280 334 533 1200 1270 1910 4270
2026-02-25 15:00 2.30 216 24500 (2018) 116 (1954) 1260 166 211 280 334 533 1200 1270 1910 4270
2026-02-25 14:30 2.31 219 24500 (2018) 116 (1954) 1260 166 211 280 334 533 1200 1270 1910 4270
2026-02-25 14:00 2.30 216 24500 (2018) 116 (1954) 1260 166 211 280 334 533 1200 1270 1910 4270
2026-02-25 13:30 2.32 221 24500 (2018) 116 (1954) 1260 166 211 280 334 533 1200 1270 1910 4270
2026-02-25 13:00 2.32 221 24500 (2018) 116 (1954) 1260 166 211 280 334 533 1200 1270 1910 4270
2026-02-25 12:30 2.31 219 24500 (2018) 116 (1954) 1260 166 211 280 334 533 1200 1270 1910 4270
2026-02-25 12:00 2.31 219 24500 (2018) 116 (1954) 1260 166 211 280 334 533 1200 1270 1910 4270
2026-02-25 11:30 2.32 221 24500 (2018) 116 (1954) 1260 166 211 280 334 533 1200 1270 1910 4270
2026-02-25 11:00 2.31 219 24500 (2018) 116 (1954) 1260 166 211 280 334 533 1200 1270 1910 4270
2026-02-25 10:30 2.32 221 24500 (2018) 116 (1954) 1260 166 211 280 334 533 1200 1270 1910 4270
2026-02-25 10:00 2.31 219 24500 (2018) 116 (1954) 1260 166 211 280 334 533 1200 1270 1910 4270
2026-02-25 09:30 2.32 221 24500 (2018) 116 (1954) 1260 166 211 280 334 533 1200 1270 1910 4270
2026-02-25 09:00 2.31 219 24500 (2018) 116 (1954) 1260 166 211 280 334 533 1200 1270 1910 4270
2026-02-25 08:30 2.32 221 24500 (2018) 116 (1954) 1260 166 211 280 334 533 1200 1270 1910 4270
2026-02-25 08:00 2.32 221 24500 (2018) 116 (1954) 1260 166 211 280 334 533 1200 1270 1910 4270
2026-02-25 07:30 2.31 219 24500 (2018) 116 (1954) 1260 166 211 280 334 533 1200 1270 1910 4270
2026-02-25 07:00 2.33 223 24500 (2018) 116 (1954) 1260 166 211 280 334 533 1200 1270 1910 4270
2026-02-25 06:30 2.32 221 24500 (2018) 116 (1954) 1260 166 211 280 334 533 1200 1270 1910 4270
2026-02-25 06:00 2.32 221 24500 (2018) 116 (1954) 1260 166 211 280 334 533 1200 1270 1910 4270
2026-02-25 05:30 2.33 223 24500 (2018) 116 (1954) 1260 166 211 280 334 533 1200 1270 1910 4270
2026-02-25 05:00 2.32 221 24500 (2018) 116 (1954) 1260 166 211 280 334 533 1200 1270 1910 4270
2026-02-25 04:30 2.32 221 24500 (2018) 116 (1954) 1260 166 211 280 334 533 1200 1270 1910 4270
2026-02-25 04:00 2.33 223 24500 (2018) 116 (1954) 1260 166 211 280 334 533 1200 1270 1910 4270
2026-02-25 03:30 2.33 223 24500 (2018) 116 (1954) 1260 166 211 280 334 533 1200 1270 1910 4270
2026-02-25 03:00 2.33 223 24500 (2018) 116 (1954) 1260 166 211 280 334 533 1200 1270 1910 4270
2026-02-25 02:30 2.33 223 24500 (2018) 116 (1954) 1260 166 211 280 334 533 1200 1270 1910 4270
2026-02-25 02:00 2.33 223 24500 (2018) 116 (1954) 1260 166 211 280 334 533 1200 1270 1910 4270
2026-02-25 01:30 2.33 223 24500 (2018) 116 (1954) 1260 166 211 280 334 533 1200 1270 1910 4270
2026-02-25 01:00 2.34 226 24500 (2018) 116 (1954) 1260 166 211 280 334 533 1200 1270 1910 4270
2026-02-25 00:30 2.33 223 24500 (2018) 116 (1954) 1260 166 211 280 334 533 1200 1270 1910 4270
2026-02-25 00:00 2.35 228 24500 (2018) 116 (1954) 1260 166 211 280 334 533 1200 1270 1910 4270
2026-02-24 23:30 2.34 226 24500 (2018) 116 (1954) 1260 166 211 280 334 533 1200 1270 1910 4270
2026-02-24 23:00 2.35 228 24500 (2018) 116 (1954) 1260 166 211 280 334 533 1200 1270 1910 4270
2026-02-24 22:30 2.34 226 26700 (1985) 128 (1954) 1370 173 216 277 333 502 950 1450 2020 5440
2026-02-24 22:00 2.33 223 26700 (1985) 128 (1954) 1370 173 216 277 333 502 950 1450 2020 5440
2026-02-24 21:30 2.35 228 26700 (1985) 128 (1954) 1370 173 216 277 333 502 950 1450 2020 5440
2026-02-24 21:00 2.35 228 26700 (1985) 128 (1954) 1370 173 216 277 333 502 950 1450 2020 5440
2026-02-24 20:30 2.34 226 26700 (1985) 128 (1954) 1370 173 216 277 333 502 950 1450 2020 5440
2026-02-24 20:00 2.35 228 26700 (1985) 128 (1954) 1370 173 216 277 333 502 950 1450 2020 5440
2026-02-24 19:30 2.34 226 26700 (1985) 128 (1954) 1370 173 216 277 333 502 950 1450 2020 5440
2026-02-24 19:00 2.36 231 26700 (1985) 128 (1954) 1370 173 216 277 333 502 950 1450 2020 5440
2026-02-24 18:30 2.35 228 26700 (1985) 128 (1954) 1370 173 216 277 333 502 950 1450 2020 5440
2026-02-24 18:00 2.36 231 26700 (1985) 128 (1954) 1370 173 216 277 333 502 950 1450 2020 5440
2026-02-24 17:30 2.35 228 26700 (1985) 128 (1954) 1370 173 216 277 333 502 950 1450 2020 5440
2026-02-24 17:00 2.35 228 26700 (1985) 128 (1954) 1370 173 216 277 333 502 950 1450 2020 5440
2026-02-24 16:30 2.37 233 26700 (1985) 128 (1954) 1370 173 216 277 333 502 950 1450 2020 5440
2026-02-24 16:00 2.35 228 26700 (1985) 128 (1954) 1370 173 216 277 333 502 950 1450 2020 5440
2026-02-24 15:30 2.36 231 26700 (1985) 128 (1954) 1370 173 216 277 333 502 950 1450 2020 5440
2026-02-24 15:00 2.36 231 26700 (1985) 128 (1954) 1370 173 216 277 333 502 950 1450 2020 5440
2026-02-24 14:30 2.36 231 26700 (1985) 128 (1954) 1370 173 216 277 333 502 950 1450 2020 5440
2026-02-24 14:00 2.37 233 26700 (1985) 128 (1954) 1370 173 216 277 333 502 950 1450 2020 5440
2026-02-24 13:30 2.38 236 26700 (1985) 128 (1954) 1370 173 216 277 333 502 950 1450 2020 5440
2026-02-24 13:00 2.36 231 26700 (1985) 128 (1954) 1370 173 216 277 333 502 950 1450 2020 5440
2026-02-24 12:30 2.36 231 26700 (1985) 128 (1954) 1370 173 216 277 333 502 950 1450 2020 5440
2026-02-24 12:00 2.39 238 26700 (1985) 128 (1954) 1370 173 216 277 333 502 950 1450 2020 5440
2026-02-24 11:30 2.36 231 26700 (1985) 128 (1954) 1370 173 216 277 333 502 950 1450 2020 5440
2026-02-24 11:00 2.38 236 26700 (1985) 128 (1954) 1370 173 216 277 333 502 950 1450 2020 5440
2026-02-24 10:30 2.36 231 26700 (1985) 128 (1954) 1370 173 216 277 333 502 950 1450 2020 5440
2026-02-24 10:00 2.37 233 26700 (1985) 128 (1954) 1370 173 216 277 333 502 950 1450 2020 5440
2026-02-24 09:30 2.39 238 26700 (1985) 128 (1954) 1370 173 216 277 333 502 950 1450 2020 5440
2026-02-24 09:00 2.38 236 26700 (1985) 128 (1954) 1370 173 216 277 333 502 950 1450 2020 5440
2026-02-24 08:30 2.37 233 26700 (1985) 128 (1954) 1370 173 216 277 333 502 950 1450 2020 5440
2026-02-24 08:00 2.39 238 26700 (1985) 128 (1954) 1370 173 216 277 333 502 950 1450 2020 5440
2026-02-24 07:30 2.38 236 26700 (1985) 128 (1954) 1370 173 216 277 333 502 950 1450 2020 5440
2026-02-24 07:00 2.38 236 26700 (1985) 128 (1954) 1370 173 216 277 333 502 950 1450 2020 5440
2026-02-24 06:30 2.38 236 26700 (1985) 128 (1954) 1370 173 216 277 333 502 950 1450 2020 5440
2026-02-24 06:00 2.39 238 26700 (1985) 128 (1954) 1370 173 216 277 333 502 950 1450 2020 5440
2026-02-24 05:30 2.39 238 26700 (1985) 128 (1954) 1370 173 216 277 333 502 950 1450 2020 5440
2026-02-24 05:00 2.38 236 26700 (1985) 128 (1954) 1370 173 216 277 333 502 950 1450 2020 5440
2026-02-24 04:30 2.38 236 26700 (1985) 128 (1954) 1370 173 216 277 333 502 950 1450 2020 5440
2026-02-24 04:00 2.40 241 26700 (1985) 128 (1954) 1370 173 216 277 333 502 950 1450 2020 5440
2026-02-24 03:30 2.40 241 26700 (1985) 128 (1954) 1370 173 216 277 333 502 950 1450 2020 5440
2026-02-24 03:00 2.39 238 26700 (1985) 128 (1954) 1370 173 216 277 333 502 950 1450 2020 5440
2026-02-24 02:30 2.39 238 26700 (1985) 128 (1954) 1370 173 216 277 333 502 950 1450 2020 5440
2026-02-24 02:00 2.41 243 26700 (1985) 128 (1954) 1370 173 216 277 333 502 950 1450 2020 5440
2026-02-24 01:30 2.41 243 26700 (1985) 128 (1954) 1370 173 216 277 333 502 950 1450 2020 5440
2026-02-24 01:00 2.40 241 26700 (1985) 128 (1954) 1370 173 216 277 333 502 950 1450 2020 5440
2026-02-24 00:30 2.40 241 26700 (1985) 128 (1954) 1370 173 216 277 333 502 950 1450 2020 5440
2026-02-24 00:00 2.41 243 26700 (1985) 128 (1954) 1370 173 216 277 333 502 950 1450 2020 5440
2026-02-23 23:30 2.41 243 26700 (1985) 128 (1954) 1370 173 216 277 333 502 950 1450 2020 5440
2026-02-23 23:00 2.41 243 26700 (1985) 128 (1954) 1370 173 216 277 333 502 950 1450 2020 5440
2026-02-23 22:30 2.40 241 18600 (1975) 146 (1954) 1450 177 203 277 316 507 1100 1490 2480 7100
2026-02-23 22:00 2.42 246 18600 (1975) 146 (1954) 1450 177 203 277 316 507 1100 1490 2480 7100
2026-02-23 21:30 2.42 246 18600 (1975) 146 (1954) 1450 177 203 277 316 507 1100 1490 2480 7100
2026-02-23 21:00 2.41 243 18600 (1975) 146 (1954) 1450 177 203 277 316 507 1100 1490 2480 7100
2026-02-23 20:30 2.42 246 18600 (1975) 146 (1954) 1450 177 203 277 316 507 1100 1490 2480 7100
2026-02-23 20:00 2.42 246 18600 (1975) 146 (1954) 1450 177 203 277 316 507 1100 1490 2480 7100
2026-02-23 19:30 2.41 243 18600 (1975) 146 (1954) 1450 177 203 277 316 507 1100 1490 2480 7100
2026-02-23 19:00 2.42 246 18600 (1975) 146 (1954) 1450 177 203 277 316 507 1100 1490 2480 7100
2026-02-23 18:30 2.43 248 18600 (1975) 146 (1954) 1450 177 203 277 316 507 1100 1490 2480 7100
2026-02-23 18:00 2.43 248 18600 (1975) 146 (1954) 1450 177 203 277 316 507 1100 1490 2480 7100
2026-02-23 17:30 2.43 248 18600 (1975) 146 (1954) 1450 177 203 277 316 507 1100 1490 2480 7100
2026-02-23 17:00 2.43 248 18600 (1975) 146 (1954) 1450 177 203 277 316 507 1100 1490 2480 7100
2026-02-23 16:30 2.44 251 18600 (1975) 146 (1954) 1450 177 203 277 316 507 1100 1490 2480 7100
2026-02-23 16:00 2.45 253 18600 (1975) 146 (1954) 1450 177 203 277 316 507 1100 1490 2480 7100
2026-02-23 15:30 2.44 251 18600 (1975) 146 (1954) 1450 177 203 277 316 507 1100 1490 2480 7100
2026-02-23 15:00 2.44 251 18600 (1975) 146 (1954) 1450 177 203 277 316 507 1100 1490 2480 7100
2026-02-23 14:30 2.45 253 18600 (1975) 146 (1954) 1450 177 203 277 316 507 1100 1490 2480 7100
2026-02-23 14:00 2.45 253 18600 (1975) 146 (1954) 1450 177 203 277 316 507 1100 1490 2480 7100
2026-02-23 13:30 2.47 258 18600 (1975) 146 (1954) 1450 177 203 277 316 507 1100 1490 2480 7100
2026-02-23 13:00 2.45 253 18600 (1975) 146 (1954) 1450 177 203 277 316 507 1100 1490 2480 7100
2026-02-23 12:30 2.45 253 18600 (1975) 146 (1954) 1450 177 203 277 316 507 1100 1490 2480 7100
2026-02-23 12:00 2.45 253 18600 (1975) 146 (1954) 1450 177 203 277 316 507 1100 1490 2480 7100
2026-02-23 11:30 2.47 258 18600 (1975) 146 (1954) 1450 177 203 277 316 507 1100 1490 2480 7100
2026-02-23 11:00 2.47 258 18600 (1975) 146 (1954) 1450 177 203 277 316 507 1100 1490 2480 7100
2026-02-23 10:30 2.46 256 18600 (1975) 146 (1954) 1450 177 203 277 316 507 1100 1490 2480 7100
2026-02-23 10:00 2.46 256 18600 (1975) 146 (1954) 1450 177 203 277 316 507 1100 1490 2480 7100
2026-02-23 09:30 2.47 258 18600 (1975) 146 (1954) 1450 177 203 277 316 507 1100 1490 2480 7100
2026-02-23 09:00 2.46 256 18600 (1975) 146 (1954) 1450 177 203 277 316 507 1100 1490 2480 7100
2026-02-23 08:30 2.46 256 18600 (1975) 146 (1954) 1450 177 203 277 316 507 1100 1490 2480 7100
2026-02-23 08:00 2.48 261 18600 (1975) 146 (1954) 1450 177 203 277 316 507 1100 1490 2480 7100
2026-02-23 07:30 2.48 261 18600 (1975) 146 (1954) 1450 177 203 277 316 507 1100 1490 2480 7100
2026-02-23 07:00 2.48 261 18600 (1975) 146 (1954) 1450 177 203 277 316 507 1100 1490 2480 7100
2026-02-23 06:30 2.48 261 18600 (1975) 146 (1954) 1450 177 203 277 316 507 1100 1490 2480 7100
2026-02-23 06:00 2.48 261 18600 (1975) 146 (1954) 1450 177 203 277 316 507 1100 1490 2480 7100
2026-02-23 05:30 2.50 266 18600 (1975) 146 (1954) 1450 177 203 277 316 507 1100 1490 2480 7100
2026-02-23 05:00 2.49 263 18600 (1975) 146 (1954) 1450 177 203 277 316 507 1100 1490 2480 7100
2026-02-23 04:30 2.50 266 18600 (1975) 146 (1954) 1450 177 203 277 316 507 1100 1490 2480 7100
2026-02-23 04:00 2.49 263 18600 (1975) 146 (1954) 1450 177 203 277 316 507 1100 1490 2480 7100
2026-02-23 03:30 2.49 263 18600 (1975) 146 (1954) 1450 177 203 277 316 507 1100 1490 2480 7100
2026-02-23 03:00 2.51 268 18600 (1975) 146 (1954) 1450 177 203 277 316 507 1100 1490 2480 7100
2026-02-23 02:30 2.50 266 18600 (1975) 146 (1954) 1450 177 203 277 316 507 1100 1490 2480 7100
2026-02-23 02:00 2.49 263 18600 (1975) 146 (1954) 1450 177 203 277 316 507 1100 1490 2480 7100
2026-02-23 01:30 2.50 266 18600 (1975) 146 (1954) 1450 177 203 277 316 507 1100 1490 2480 7100
2026-02-23 01:00 2.52 271 18600 (1975) 146 (1954) 1450 177 203 277 316 507 1100 1490 2480 7100
2026-02-23 00:30 2.51 268 18600 (1975) 146 (1954) 1450 177 203 277 316 507 1100 1490 2480 7100
2026-02-23 00:00 2.51 268 18600 (1975) 146 (1954) 1450 177 203 277 316 507 1100 1490 2480 7100
2026-02-22 23:30 2.52 271 18600 (1975) 146 (1954) 1450 177 203 277 316 507 1100 1490 2480 7100
2026-02-22 23:00 2.52 271 18600 (1975) 146 (1954) 1450 177 203 277 316 507 1100 1490 2480 7100
2026-02-22 22:30 2.52 271 14200 (1974) 137 (1977) 1190 167 210 304 343 528 1120 1320 3590 4160
2026-02-22 22:00 2.53 273 14200 (1974) 137 (1977) 1190 167 210 304 343 528 1120 1320 3590 4160
2026-02-22 21:30 2.52 271 14200 (1974) 137 (1977) 1190 167 210 304 343 528 1120 1320 3590 4160
2026-02-22 21:00 2.52 271 14200 (1974) 137 (1977) 1190 167 210 304 343 528 1120 1320 3590 4160
2026-02-22 20:30 2.54 276 14200 (1974) 137 (1977) 1190 167 210 304 343 528 1120 1320 3590 4160
2026-02-22 20:00 2.53 273 14200 (1974) 137 (1977) 1190 167 210 304 343 528 1120 1320 3590 4160
2026-02-22 19:30 2.53 273 14200 (1974) 137 (1977) 1190 167 210 304 343 528 1120 1320 3590 4160
2026-02-22 19:00 2.53 273 14200 (1974) 137 (1977) 1190 167 210 304 343 528 1120 1320 3590 4160
2026-02-22 18:30 2.53 273 14200 (1974) 137 (1977) 1190 167 210 304 343 528 1120 1320 3590 4160
2026-02-22 18:00 2.53 273 14200 (1974) 137 (1977) 1190 167 210 304 343 528 1120 1320 3590 4160
2026-02-22 17:30 2.54 276 14200 (1974) 137 (1977) 1190 167 210 304 343 528 1120 1320 3590 4160
2026-02-22 17:00 2.54 276 14200 (1974) 137 (1977) 1190 167 210 304 343 528 1120 1320 3590 4160
2026-02-22 16:30 2.56 281 14200 (1974) 137 (1977) 1190 167 210 304 343 528 1120 1320 3590 4160
2026-02-22 16:00 2.54 276 14200 (1974) 137 (1977) 1190 167 210 304 343 528 1120 1320 3590 4160
2026-02-22 15:30 2.55 278 14200 (1974) 137 (1977) 1190 167 210 304 343 528 1120 1320 3590 4160
2026-02-22 15:00 2.56 281 14200 (1974) 137 (1977) 1190 167 210 304 343 528 1120 1320 3590 4160
2026-02-22 14:30 2.56 281 14200 (1974) 137 (1977) 1190 167 210 304 343 528 1120 1320 3590 4160
2026-02-22 14:00 2.57 284 14200 (1974) 137 (1977) 1190 167 210 304 343 528 1120 1320 3590 4160
2026-02-22 13:30 2.56 281 14200 (1974) 137 (1977) 1190 167 210 304 343 528 1120 1320 3590 4160
2026-02-22 13:00 2.56 281 14200 (1974) 137 (1977) 1190 167 210 304 343 528 1120 1320 3590 4160
2026-02-22 12:30 2.57 284 14200 (1974) 137 (1977) 1190 167 210 304 343 528 1120 1320 3590 4160
2026-02-22 12:00 2.57 284 14200 (1974) 137 (1977) 1190 167 210 304 343 528 1120 1320 3590 4160
2026-02-22 11:30 2.58 286 14200 (1974) 137 (1977) 1190 167 210 304 343 528 1120 1320 3590 4160
2026-02-22 11:00 2.59 289 14200 (1974) 137 (1977) 1190 167 210 304 343 528 1120 1320 3590 4160
2026-02-22 10:30 2.58 286 14200 (1974) 137 (1977) 1190 167 210 304 343 528 1120 1320 3590 4160
2026-02-22 10:00 2.58 286 14200 (1974) 137 (1977) 1190 167 210 304 343 528 1120 1320 3590 4160
2026-02-22 09:30 2.59 289 14200 (1974) 137 (1977) 1190 167 210 304 343 528 1120 1320 3590 4160
2026-02-22 09:00 2.59 289 14200 (1974) 137 (1977) 1190 167 210 304 343 528 1120 1320 3590 4160
2026-02-22 08:30 2.59 289 14200 (1974) 137 (1977) 1190 167 210 304 343 528 1120 1320 3590 4160
2026-02-22 08:00 2.58 286 14200 (1974) 137 (1977) 1190 167 210 304 343 528 1120 1320 3590 4160
2026-02-22 07:30 2.59 289 14200 (1974) 137 (1977) 1190 167 210 304 343 528 1120 1320 3590 4160
2026-02-22 07:00 2.60 291 14200 (1974) 137 (1977) 1190 167 210 304 343 528 1120 1320 3590 4160
2026-02-22 06:30 2.60 291 14200 (1974) 137 (1977) 1190 167 210 304 343 528 1120 1320 3590 4160
2026-02-22 06:00 2.60 291 14200 (1974) 137 (1977) 1190 167 210 304 343 528 1120 1320 3590 4160
2026-02-22 05:30 2.61 294 14200 (1974) 137 (1977) 1190 167 210 304 343 528 1120 1320 3590 4160
2026-02-22 05:00 2.61 294 14200 (1974) 137 (1977) 1190 167 210 304 343 528 1120 1320 3590 4160
2026-02-22 04:30 2.61 294 14200 (1974) 137 (1977) 1190 167 210 304 343 528 1120 1320 3590 4160
2026-02-22 04:00 2.61 294 14200 (1974) 137 (1977) 1190 167 210 304 343 528 1120 1320 3590 4160
2026-02-22 03:30 2.62 297 14200 (1974) 137 (1977) 1190 167 210 304 343 528 1120 1320 3590 4160
2026-02-22 03:00 2.62 297 14200 (1974) 137 (1977) 1190 167 210 304 343 528 1120 1320 3590 4160
2026-02-22 02:30 2.62 297 14200 (1974) 137 (1977) 1190 167 210 304 343 528 1120 1320 3590 4160
2026-02-22 02:00 2.61 294 14200 (1974) 137 (1977) 1190 167 210 304 343 528 1120 1320 3590 4160
2026-02-22 01:30 2.65 304 14200 (1974) 137 (1977) 1190 167 210 304 343 528 1120 1320 3590 4160
2026-02-22 01:00 2.64 302 14200 (1974) 137 (1977) 1190 167 210 304 343 528 1120 1320 3590 4160
2026-02-22 00:30 2.64 302 14200 (1974) 137 (1977) 1190 167 210 304 343 528 1120 1320 3590 4160
2026-02-22 00:00 2.63 299 14200 (1974) 137 (1977) 1190 167 210 304 343 528 1120 1320 3590 4160
2026-02-21 23:30 2.64 302 14200 (1974) 137 (1977) 1190 167 210 304 343 528 1120 1320 3590 4160
2026-02-21 23:00 2.65 304 14200 (1974) 137 (1977) 1190 167 210 304 343 528 1120 1320 3590 4160
2026-02-21 22:30 2.64 302 10300 (1951) 135 (1977) 992 167 212 295 369 528 757 1010 2740 3580
2026-02-21 22:00 2.65 304 10300 (1951) 135 (1977) 992 167 212 295 369 528 757 1010 2740 3580
2026-02-21 21:30 2.65 304 10300 (1951) 135 (1977) 992 167 212 295 369 528 757 1010 2740 3580
2026-02-21 21:00 2.65 304 10300 (1951) 135 (1977) 992 167 212 295 369 528 757 1010 2740 3580
2026-02-21 20:30 2.66 307 10300 (1951) 135 (1977) 992 167 212 295 369 528 757 1010 2740 3580
2026-02-21 20:00 2.66 307 10300 (1951) 135 (1977) 992 167 212 295 369 528 757 1010 2740 3580
2026-02-21 19:30 2.66 307 10300 (1951) 135 (1977) 992 167 212 295 369 528 757 1010 2740 3580
2026-02-21 19:00 2.67 310 10300 (1951) 135 (1977) 992 167 212 295 369 528 757 1010 2740 3580
2026-02-21 18:30 2.66 307 10300 (1951) 135 (1977) 992 167 212 295 369 528 757 1010 2740 3580
2026-02-21 18:00 2.68 312 10300 (1951) 135 (1977) 992 167 212 295 369 528 757 1010 2740 3580
2026-02-21 17:30 2.67 310 10300 (1951) 135 (1977) 992 167 212 295 369 528 757 1010 2740 3580
2026-02-21 17:00 2.68 312 10300 (1951) 135 (1977) 992 167 212 295 369 528 757 1010 2740 3580
2026-02-21 16:30 2.68 312 10300 (1951) 135 (1977) 992 167 212 295 369 528 757 1010 2740 3580
2026-02-21 16:00 2.68 312 10300 (1951) 135 (1977) 992 167 212 295 369 528 757 1010 2740 3580
2026-02-21 15:30 2.70 318 10300 (1951) 135 (1977) 992 167 212 295 369 528 757 1010 2740 3580
2026-02-21 15:00 2.70 318 10300 (1951) 135 (1977) 992 167 212 295 369 528 757 1010 2740 3580
2026-02-21 14:30 2.71 320 10300 (1951) 135 (1977) 992 167 212 295 369 528 757 1010 2740 3580
2026-02-21 14:00 2.71 320 10300 (1951) 135 (1977) 992 167 212 295 369 528 757 1010 2740 3580
2026-02-21 13:30 2.70 318 10300 (1951) 135 (1977) 992 167 212 295 369 528 757 1010 2740 3580
2026-02-21 13:00 2.71 320 10300 (1951) 135 (1977) 992 167 212 295 369 528 757 1010 2740 3580
2026-02-21 12:30 2.72 323 10300 (1951) 135 (1977) 992 167 212 295 369 528 757 1010 2740 3580
2026-02-21 12:00 2.72 323 10300 (1951) 135 (1977) 992 167 212 295 369 528 757 1010 2740 3580
2026-02-21 11:30 2.71 320 10300 (1951) 135 (1977) 992 167 212 295 369 528 757 1010 2740 3580
2026-02-21 11:00 2.72 323 10300 (1951) 135 (1977) 992 167 212 295 369 528 757 1010 2740 3580
2026-02-21 10:30 2.71 320 10300 (1951) 135 (1977) 992 167 212 295 369 528 757 1010 2740 3580
2026-02-21 10:00 2.73 326 10300 (1951) 135 (1977) 992 167 212 295 369 528 757 1010 2740 3580
2026-02-21 09:30 2.73 326 10300 (1951) 135 (1977) 992 167 212 295 369 528 757 1010 2740 3580
2026-02-21 09:00 2.72 323 10300 (1951) 135 (1977) 992 167 212 295 369 528 757 1010 2740 3580
2026-02-21 08:30 2.75 331 10300 (1951) 135 (1977) 992 167 212 295 369 528 757 1010 2740 3580
2026-02-21 08:00 2.74 328 10300 (1951) 135 (1977) 992 167 212 295 369 528 757 1010 2740 3580
2026-02-21 07:30 2.74 328 10300 (1951) 135 (1977) 992 167 212 295 369 528 757 1010 2740 3580
2026-02-21 07:00 2.74 328 10300 (1951) 135 (1977) 992 167 212 295 369 528 757 1010 2740 3580
2026-02-21 06:30 2.76 334 10300 (1951) 135 (1977) 992 167 212 295 369 528 757 1010 2740 3580
2026-02-21 06:00 2.76 334 10300 (1951) 135 (1977) 992 167 212 295 369 528 757 1010 2740 3580
2026-02-21 05:30 2.75 331 10300 (1951) 135 (1977) 992 167 212 295 369 528 757 1010 2740 3580
2026-02-21 05:00 2.77 336 10300 (1951) 135 (1977) 992 167 212 295 369 528 757 1010 2740 3580
2026-02-21 04:30 2.76 334 10300 (1951) 135 (1977) 992 167 212 295 369 528 757 1010 2740 3580
2026-02-21 04:00 2.76 334 10300 (1951) 135 (1977) 992 167 212 295 369 528 757 1010 2740 3580
2026-02-21 03:30 2.78 339 10300 (1951) 135 (1977) 992 167 212 295 369 528 757 1010 2740 3580
2026-02-21 03:00 2.77 336 10300 (1951) 135 (1977) 992 167 212 295 369 528 757 1010 2740 3580
2026-02-21 02:30 2.78 339 10300 (1951) 135 (1977) 992 167 212 295 369 528 757 1010 2740 3580
2026-02-21 02:00 2.80 344 10300 (1951) 135 (1977) 992 167 212 295 369 528 757 1010 2740 3580
2026-02-21 01:30 2.80 344 10300 (1951) 135 (1977) 992 167 212 295 369 528 757 1010 2740 3580
2026-02-21 01:00 2.79 342 10300 (1951) 135 (1977) 992 167 212 295 369 528 757 1010 2740 3580
2026-02-21 00:30 2.79 342 10300 (1951) 135 (1977) 992 167 212 295 369 528 757 1010 2740 3580
2026-02-21 00:00 2.80 344 10300 (1951) 135 (1977) 992 167 212 295 369 528 757 1010 2740 3580
2026-02-20 23:30 2.80 344 10300 (1951) 135 (1977) 992 167 212 295 369 528 757 1010 2740 3580
2026-02-20 23:00 2.80 344 10300 (1951) 135 (1977) 992 167 212 295 369 528 757 1010 2740 3580
2026-02-20 22:30 2.80 344 6470 (1951) 144 (1977) 934 177 213 272 335 550 840 952 2380 4230
2026-02-20 22:00 2.81 347 6470 (1951) 144 (1977) 934 177 213 272 335 550 840 952 2380 4230
2026-02-20 21:30 2.82 350 6470 (1951) 144 (1977) 934 177 213 272 335 550 840 952 2380 4230
2026-02-20 21:00 2.82 350 6470 (1951) 144 (1977) 934 177 213 272 335 550 840 952 2380 4230
2026-02-20 20:30 2.84 355 6470 (1951) 144 (1977) 934 177 213 272 335 550 840 952 2380 4230
2026-02-20 20:00 2.83 353 6470 (1951) 144 (1977) 934 177 213 272 335 550 840 952 2380 4230
2026-02-20 19:30 2.83 353 6470 (1951) 144 (1977) 934 177 213 272 335 550 840 952 2380 4230
2026-02-20 19:00 2.85 358 6470 (1951) 144 (1977) 934 177 213 272 335 550 840 952 2380 4230
2026-02-20 18:30 2.84 355 6470 (1951) 144 (1977) 934 177 213 272 335 550 840 952 2380 4230
2026-02-20 18:00 2.85 358 6470 (1951) 144 (1977) 934 177 213 272 335 550 840 952 2380 4230
2026-02-20 17:30 2.84 355 6470 (1951) 144 (1977) 934 177 213 272 335 550 840 952 2380 4230
2026-02-20 17:00 2.86 361 6470 (1951) 144 (1977) 934 177 213 272 335 550 840 952 2380 4230
2026-02-20 16:30 2.87 364 6470 (1951) 144 (1977) 934 177 213 272 335 550 840 952 2380 4230
2026-02-20 16:00 2.87 364 6470 (1951) 144 (1977) 934 177 213 272 335 550 840 952 2380 4230
2026-02-20 15:30 2.87 364 6470 (1951) 144 (1977) 934 177 213 272 335 550 840 952 2380 4230
2026-02-20 15:00 2.88 366 6470 (1951) 144 (1977) 934 177 213 272 335 550 840 952 2380 4230
2026-02-20 14:30 2.89 369 6470 (1951) 144 (1977) 934 177 213 272 335 550 840 952 2380 4230
2026-02-20 14:00 2.88 366 6470 (1951) 144 (1977) 934 177 213 272 335 550 840 952 2380 4230
2026-02-20 13:30 2.90 372 6470 (1951) 144 (1977) 934 177 213 272 335 550 840 952 2380 4230
2026-02-20 13:00 2.89 369 6470 (1951) 144 (1977) 934 177 213 272 335 550 840 952 2380 4230
2026-02-20 12:30 2.90 372 6470 (1951) 144 (1977) 934 177 213 272 335 550 840 952 2380 4230
2026-02-20 12:00 2.92 377 6470 (1951) 144 (1977) 934 177 213 272 335 550 840 952 2380 4230
2026-02-20 11:30 2.91 375 6470 (1951) 144 (1977) 934 177 213 272 335 550 840 952 2380 4230
2026-02-20 11:00 2.91 375 6470 (1951) 144 (1977) 934 177 213 272 335 550 840 952 2380 4230
2026-02-20 10:30 2.91 375 6470 (1951) 144 (1977) 934 177 213 272 335 550 840 952 2380 4230
2026-02-20 10:00 2.91 375 6470 (1951) 144 (1977) 934 177 213 272 335 550 840 952 2380 4230
2026-02-20 09:30 2.93 380 6470 (1951) 144 (1977) 934 177 213 272 335 550 840 952 2380 4230
2026-02-20 09:00 2.94 383 6470 (1951) 144 (1977) 934 177 213 272 335 550 840 952 2380 4230
2026-02-20 08:30 2.93 380 6470 (1951) 144 (1977) 934 177 213 272 335 550 840 952 2380 4230
2026-02-20 08:00 2.94 383 6470 (1951) 144 (1977) 934 177 213 272 335 550 840 952 2380 4230
2026-02-20 07:30 2.93 380 6470 (1951) 144 (1977) 934 177 213 272 335 550 840 952 2380 4230
2026-02-20 07:00 2.95 386 6470 (1951) 144 (1977) 934 177 213 272 335 550 840 952 2380 4230
2026-02-20 06:30 2.96 388 6470 (1951) 144 (1977) 934 177 213 272 335 550 840 952 2380 4230
2026-02-20 06:00 2.97 391 6470 (1951) 144 (1977) 934 177 213 272 335 550 840 952 2380 4230
2026-02-20 05:30 2.96 388 6470 (1951) 144 (1977) 934 177 213 272 335 550 840 952 2380 4230
2026-02-20 05:00 2.97 391 6470 (1951) 144 (1977) 934 177 213 272 335 550 840 952 2380 4230
2026-02-20 04:30 2.96 388 6470 (1951) 144 (1977) 934 177 213 272 335 550 840 952 2380 4230
2026-02-20 04:00 2.99 397 6470 (1951) 144 (1977) 934 177 213 272 335 550 840 952 2380 4230
2026-02-20 03:30 2.99 397 6470 (1951) 144 (1977) 934 177 213 272 335 550 840 952 2380 4230
2026-02-20 03:00 2.98 394 6470 (1951) 144 (1977) 934 177 213 272 335 550 840 952 2380 4230
2026-02-20 02:30 3.00 400 6470 (1951) 144 (1977) 934 177 213 272 335 550 840 952 2380 4230
2026-02-20 02:00 2.99 397 6470 (1951) 144 (1977) 934 177 213 272 335 550 840 952 2380 4230
2026-02-20 01:30 3.01 403 6470 (1951) 144 (1977) 934 177 213 272 335 550 840 952 2380 4230
2026-02-20 01:00 3.00 400 6470 (1951) 144 (1977) 934 177 213 272 335 550 840 952 2380 4230
2026-02-20 00:30 3.00 400 6470 (1951) 144 (1977) 934 177 213 272 335 550 840 952 2380 4230
2026-02-20 00:00 3.02 406 6470 (1951) 144 (1977) 934 177 213 272 335 550 840 952 2380 4230
2026-02-19 23:30 3.02 406 6470 (1951) 144 (1977) 934 177 213 272 335 550 840 952 2380 4230
2026-02-19 23:00 3.03 409 6470 (1951) 144 (1977) 934 177 213 272 335 550 840 952 2380 4230
2026-02-19 22:30 3.03 409 11200 (1951) 160 (1963) 954 186 206 247 295 558 861 1150 1660 4050
2026-02-19 22:00 3.03 409 11200 (1951) 160 (1963) 954 186 206 247 295 558 861 1150 1660 4050
2026-02-19 21:30 3.05 415 11200 (1951) 160 (1963) 954 186 206 247 295 558 861 1150 1660 4050
2026-02-19 21:00 3.04 412 11200 (1951) 160 (1963) 954 186 206 247 295 558 861 1150 1660 4050
2026-02-19 20:30 3.06 418 11200 (1951) 160 (1963) 954 186 206 247 295 558 861 1150 1660 4050
2026-02-19 20:00 3.04 412 11200 (1951) 160 (1963) 954 186 206 247 295 558 861 1150 1660 4050
2026-02-19 19:30 3.07 422 11200 (1951) 160 (1963) 954 186 206 247 295 558 861 1150 1660 4050
2026-02-19 19:00 3.06 418 11200 (1951) 160 (1963) 954 186 206 247 295 558 861 1150 1660 4050
2026-02-19 18:30 3.07 422 11200 (1951) 160 (1963) 954 186 206 247 295 558 861 1150 1660 4050
2026-02-19 18:00 3.08 425 11200 (1951) 160 (1963) 954 186 206 247 295 558 861 1150 1660 4050
2026-02-19 17:30 3.08 425 11200 (1951) 160 (1963) 954 186 206 247 295 558 861 1150 1660 4050
2026-02-19 17:00 3.09 428 11200 (1951) 160 (1963) 954 186 206 247 295 558 861 1150 1660 4050
2026-02-19 16:30 3.10 431 11200 (1951) 160 (1963) 954 186 206 247 295 558 861 1150 1660 4050
2026-02-19 16:00 3.09 428 11200 (1951) 160 (1963) 954 186 206 247 295 558 861 1150 1660 4050
2026-02-19 15:30 3.11 434 11200 (1951) 160 (1963) 954 186 206 247 295 558 861 1150 1660 4050
2026-02-19 15:00 3.11 434 11200 (1951) 160 (1963) 954 186 206 247 295 558 861 1150 1660 4050
2026-02-19 14:30 3.11 434 11200 (1951) 160 (1963) 954 186 206 247 295 558 861 1150 1660 4050
2026-02-19 14:00 3.13 441 11200 (1951) 160 (1963) 954 186 206 247 295 558 861 1150 1660 4050
2026-02-19 13:30 3.13 441 11200 (1951) 160 (1963) 954 186 206 247 295 558 861 1150 1660 4050
2026-02-19 13:00 3.14 444 11200 (1951) 160 (1963) 954 186 206 247 295 558 861 1150 1660 4050
2026-02-19 12:30 3.15 447 11200 (1951) 160 (1963) 954 186 206 247 295 558 861 1150 1660 4050
2026-02-19 12:00 3.14 444 11200 (1951) 160 (1963) 954 186 206 247 295 558 861 1150 1660 4050
2026-02-19 11:30 3.15 447 11200 (1951) 160 (1963) 954 186 206 247 295 558 861 1150 1660 4050
2026-02-19 11:00 3.16 450 11200 (1951) 160 (1963) 954 186 206 247 295 558 861 1150 1660 4050
2026-02-19 10:30 3.16 450 11200 (1951) 160 (1963) 954 186 206 247 295 558 861 1150 1660 4050
2026-02-19 10:00 3.16 450 11200 (1951) 160 (1963) 954 186 206 247 295 558 861 1150 1660 4050
2026-02-19 09:30 3.18 457 11200 (1951) 160 (1963) 954 186 206 247 295 558 861 1150 1660 4050
2026-02-19 09:00 3.18 457 11200 (1951) 160 (1963) 954 186 206 247 295 558 861 1150 1660 4050
2026-02-19 08:30 3.18 457 11200 (1951) 160 (1963) 954 186 206 247 295 558 861 1150 1660 4050
2026-02-19 08:00 3.20 463 11200 (1951) 160 (1963) 954 186 206 247 295 558 861 1150 1660 4050
2026-02-19 07:30 3.21 467 11200 (1951) 160 (1963) 954 186 206 247 295 558 861 1150 1660 4050
2026-02-19 07:00 3.20 463 11200 (1951) 160 (1963) 954 186 206 247 295 558 861 1150 1660 4050
2026-02-19 06:30 3.21 467 11200 (1951) 160 (1963) 954 186 206 247 295 558 861 1150 1660 4050
2026-02-19 06:00 3.22 470 11200 (1951) 160 (1963) 954 186 206 247 295 558 861 1150 1660 4050
2026-02-19 05:30 3.23 473 11200 (1951) 160 (1963) 954 186 206 247 295 558 861 1150 1660 4050
2026-02-19 05:00 3.23 473 11200 (1951) 160 (1963) 954 186 206 247 295 558 861 1150 1660 4050
2026-02-19 04:30 3.23 473 11200 (1951) 160 (1963) 954 186 206 247 295 558 861 1150 1660 4050
2026-02-19 04:00 3.26 483 11200 (1951) 160 (1963) 954 186 206 247 295 558 861 1150 1660 4050
2026-02-19 03:30 3.26 483 11200 (1951) 160 (1963) 954 186 206 247 295 558 861 1150 1660 4050
2026-02-19 03:00 3.26 483 11200 (1951) 160 (1963) 954 186 206 247 295 558 861 1150 1660 4050
2026-02-19 02:30 3.27 487 11200 (1951) 160 (1963) 954 186 206 247 295 558 861 1150 1660 4050
2026-02-19 02:00 3.29 493 11200 (1951) 160 (1963) 954 186 206 247 295 558 861 1150 1660 4050
2026-02-19 01:30 3.28 490 11200 (1951) 160 (1963) 954 186 206 247 295 558 861 1150 1660 4050
2026-02-19 01:00 3.29 493 11200 (1951) 160 (1963) 954 186 206 247 295 558 861 1150 1660 4050
2026-02-19 00:30 3.31 500 11200 (1951) 160 (1963) 954 186 206 247 295 558 861 1150 1660 4050
2026-02-19 00:00 3.31 500 11200 (1951) 160 (1963) 954 186 206 247 295 558 861 1150 1660 4050
2026-02-18 23:30 3.32 503 11200 (1951) 160 (1963) 954 186 206 247 295 558 861 1150 1660 4050
2026-02-18 23:00 3.32 503 11200 (1951) 160 (1963) 954 186 206 247 295 558 861 1150 1660 4050
2026-02-18 22:30 3.34 510 17900 (2022) 132 (1955) 1170 187 214 260 334 573 817 1070 1600 6360
2026-02-18 22:00 3.34 510 17900 (2022) 132 (1955) 1170 187 214 260 334 573 817 1070 1600 6360
2026-02-18 21:30 3.35 513 17900 (2022) 132 (1955) 1170 187 214 260 334 573 817 1070 1600 6360
2026-02-18 21:00 3.36 517 17900 (2022) 132 (1955) 1170 187 214 260 334 573 817 1070 1600 6360
2026-02-18 20:30 3.36 517 17900 (2022) 132 (1955) 1170 187 214 260 334 573 817 1070 1600 6360
2026-02-18 20:00 3.38 523 17900 (2022) 132 (1955) 1170 187 214 260 334 573 817 1070 1600 6360
2026-02-18 19:30 3.38 523 17900 (2022) 132 (1955) 1170 187 214 260 334 573 817 1070 1600 6360
2026-02-18 19:00 3.39 527 17900 (2022) 132 (1955) 1170 187 214 260 334 573 817 1070 1600 6360
2026-02-18 18:30 3.40 530 17900 (2022) 132 (1955) 1170 187 214 260 334 573 817 1070 1600 6360
2026-02-18 18:00 3.41 534 17900 (2022) 132 (1955) 1170 187 214 260 334 573 817 1070 1600 6360
2026-02-18 17:30 3.41 534 17900 (2022) 132 (1955) 1170 187 214 260 334 573 817 1070 1600 6360
2026-02-18 17:00 3.43 541 17900 (2022) 132 (1955) 1170 187 214 260 334 573 817 1070 1600 6360
2026-02-18 16:30 3.43 541 17900 (2022) 132 (1955) 1170 187 214 260 334 573 817 1070 1600 6360
2026-02-18 16:00 3.44 544 17900 (2022) 132 (1955) 1170 187 214 260 334 573 817 1070 1600 6360
2026-02-18 15:30 3.46 551 17900 (2022) 132 (1955) 1170 187 214 260 334 573 817 1070 1600 6360
2026-02-18 15:00 3.47 554 17900 (2022) 132 (1955) 1170 187 214 260 334 573 817 1070 1600 6360
2026-02-18 14:30 3.47 554 17900 (2022) 132 (1955) 1170 187 214 260 334 573 817 1070 1600 6360
2026-02-18 14:00 3.47 554 17900 (2022) 132 (1955) 1170 187 214 260 334 573 817 1070 1600 6360
2026-02-18 13:30 3.49 561 17900 (2022) 132 (1955) 1170 187 214 260 334 573 817 1070 1600 6360
2026-02-18 13:00 3.49 561 17900 (2022) 132 (1955) 1170 187 214 260 334 573 817 1070 1600 6360
2026-02-18 12:30 3.51 568 17900 (2022) 132 (1955) 1170 187 214 260 334 573 817 1070 1600 6360
2026-02-18 12:00 3.51 568 17900 (2022) 132 (1955) 1170 187 214 260 334 573 817 1070 1600 6360
2026-02-18 11:30 3.52 572 17900 (2022) 132 (1955) 1170 187 214 260 334 573 817 1070 1600 6360
2026-02-18 11:00 3.52 572 17900 (2022) 132 (1955) 1170 187 214 260 334 573 817 1070 1600 6360
2026-02-18 10:30 3.55 582 17900 (2022) 132 (1955) 1170 187 214 260 334 573 817 1070 1600 6360
2026-02-18 10:00 3.56 586 17900 (2022) 132 (1955) 1170 187 214 260 334 573 817 1070 1600 6360
2026-02-18 09:30 3.56 586 17900 (2022) 132 (1955) 1170 187 214 260 334 573 817 1070 1600 6360
2026-02-18 08:30 3.58 593 17900 (2022) 132 (1955) 1170 187 214 260 334 573 817 1070 1600 6360
2026-02-18 08:00 3.59 596 17900 (2022) 132 (1955) 1170 187 214 260 334 573 817 1070 1600 6360
2026-02-18 07:30 3.60 600 17900 (2022) 132 (1955) 1170 187 214 260 334 573 817 1070 1600 6360
2026-02-18 07:00 3.61 603 17900 (2022) 132 (1955) 1170 187 214 260 334 573 817 1070 1600 6360
2026-02-18 06:30 3.63 611 17900 (2022) 132 (1955) 1170 187 214 260 334 573 817 1070 1600 6360
2026-02-18 06:00 3.64 614 17900 (2022) 132 (1955) 1170 187 214 260 334 573 817 1070 1600 6360
2026-02-18 05:30 3.63 611 17900 (2022) 132 (1955) 1170 187 214 260 334 573 817 1070 1600 6360
2026-02-18 05:00 3.66 621 17900 (2022) 132 (1955) 1170 187 214 260 334 573 817 1070 1600 6360
2026-02-18 04:30 3.66 621 17900 (2022) 132 (1955) 1170 187 214 260 334 573 817 1070 1600 6360
2026-02-18 04:00 3.68 628 17900 (2022) 132 (1955) 1170 187 214 260 334 573 817 1070 1600 6360
2026-02-18 03:30 3.69 632 17900 (2022) 132 (1955) 1170 187 214 260 334 573 817 1070 1600 6360
2026-02-18 03:00 3.69 632 17900 (2022) 132 (1955) 1170 187 214 260 334 573 817 1070 1600 6360
2026-02-18 02:30 3.72 643 17900 (2022) 132 (1955) 1170 187 214 260 334 573 817 1070 1600 6360
2026-02-18 02:00 3.71 639 17900 (2022) 132 (1955) 1170 187 214 260 334 573 817 1070 1600 6360
2026-02-18 01:30 3.74 650 17900 (2022) 132 (1955) 1170 187 214 260 334 573 817 1070 1600 6360
2026-02-18 01:00 3.73 647 17900 (2022) 132 (1955) 1170 187 214 260 334 573 817 1070 1600 6360
2026-02-18 00:30 3.77 661 17900 (2022) 132 (1955) 1170 187 214 260 334 573 817 1070 1600 6360
2026-02-18 00:00 3.77 661 17900 (2022) 132 (1955) 1170 187 214 260 334 573 817 1070 1600 6360
2026-02-17 23:30 3.79 668 17900 (2022) 132 (1955) 1170 187 214 260 334 573 817 1070 1600 6360
2026-02-17 23:00 3.79 668 17900 (2022) 132 (1955) 1170 187 214 260 334 573 817 1070 1600 6360
2026-02-17 22:30 3.79 668 12500 (1982) 121 (2000) 1050 185 217 253 285 580 874 932 2080 4130
2026-02-17 22:00 3.82 679 12500 (1982) 121 (2000) 1050 185 217 253 285 580 874 932 2080 4130
2026-02-17 21:30 3.83 683 12500 (1982) 121 (2000) 1050 185 217 253 285 580 874 932 2080 4130
2026-02-17 21:00 3.86 694 12500 (1982) 121 (2000) 1050 185 217 253 285 580 874 932 2080 4130
2026-02-17 20:30 3.86 694 12500 (1982) 121 (2000) 1050 185 217 253 285 580 874 932 2080 4130
2026-02-17 20:00 3.89 706 12500 (1982) 121 (2000) 1050 185 217 253 285 580 874 932 2080 4130
2026-02-17 19:30 3.90 709 12500 (1982) 121 (2000) 1050 185 217 253 285 580 874 932 2080 4130
2026-02-17 19:00 3.91 713 12500 (1982) 121 (2000) 1050 185 217 253 285 580 874 932 2080 4130
2026-02-17 18:30 3.92 717 12500 (1982) 121 (2000) 1050 185 217 253 285 580 874 932 2080 4130
2026-02-17 18:00 3.93 721 12500 (1982) 121 (2000) 1050 185 217 253 285 580 874 932 2080 4130
2026-02-17 17:30 3.95 728 12500 (1982) 121 (2000) 1050 185 217 253 285 580 874 932 2080 4130
2026-02-17 17:00 3.96 732 12500 (1982) 121 (2000) 1050 185 217 253 285 580 874 932 2080 4130
2026-02-17 16:30 3.97 736 12500 (1982) 121 (2000) 1050 185 217 253 285 580 874 932 2080 4130
2026-02-17 16:00 3.98 739 12500 (1982) 121 (2000) 1050 185 217 253 285 580 874 932 2080 4130
2026-02-17 15:30 4.01 751 12500 (1982) 121 (2000) 1050 185 217 253 285 580 874 932 2080 4130
2026-02-17 15:00 4.02 755 12500 (1982) 121 (2000) 1050 185 217 253 285 580 874 932 2080 4130
2026-02-17 14:30 4.04 762 12500 (1982) 121 (2000) 1050 185 217 253 285 580 874 932 2080 4130
2026-02-17 14:00 4.05 766 12500 (1982) 121 (2000) 1050 185 217 253 285 580 874 932 2080 4130
2026-02-17 13:30 4.08 778 12500 (1982) 121 (2000) 1050 185 217 253 285 580 874 932 2080 4130
2026-02-17 13:00 4.09 782 12500 (1982) 121 (2000) 1050 185 217 253 285 580 874 932 2080 4130
2026-02-17 12:30 4.09 782 12500 (1982) 121 (2000) 1050 185 217 253 285 580 874 932 2080 4130
2026-02-17 12:00 4.12 793 12500 (1982) 121 (2000) 1050 185 217 253 285 580 874 932 2080 4130
2026-02-17 11:30 4.13 797 12500 (1982) 121 (2000) 1050 185 217 253 285 580 874 932 2080 4130
2026-02-17 11:00 4.13 797 12500 (1982) 121 (2000) 1050 185 217 253 285 580 874 932 2080 4130
2026-02-17 10:30 4.16 809 12500 (1982) 121 (2000) 1050 185 217 253 285 580 874 932 2080 4130
2026-02-17 10:00 4.18 817 12500 (1982) 121 (2000) 1050 185 217 253 285 580 874 932 2080 4130
2026-02-17 09:30 4.20 824 12500 (1982) 121 (2000) 1050 185 217 253 285 580 874 932 2080 4130
2026-02-17 09:00 4.23 836 12500 (1982) 121 (2000) 1050 185 217 253 285 580 874 932 2080 4130
2026-02-17 08:30 4.24 840 12500 (1982) 121 (2000) 1050 185 217 253 285 580 874 932 2080 4130
2026-02-17 08:00 4.25 844 12500 (1982) 121 (2000) 1050 185 217 253 285 580 874 932 2080 4130
2026-02-17 07:30 4.26 848 12500 (1982) 121 (2000) 1050 185 217 253 285 580 874 932 2080 4130
2026-02-17 07:00 4.27 852 12500 (1982) 121 (2000) 1050 185 217 253 285 580 874 932 2080 4130
2026-02-17 06:30 4.30 864 12500 (1982) 121 (2000) 1050 185 217 253 285 580 874 932 2080 4130
2026-02-17 06:00 4.33 876 12500 (1982) 121 (2000) 1050 185 217 253 285 580 874 932 2080 4130
2026-02-17 05:30 4.34 880 12500 (1982) 121 (2000) 1050 185 217 253 285 580 874 932 2080 4130
2026-02-17 05:00 4.36 888 12500 (1982) 121 (2000) 1050 185 217 253 285 580 874 932 2080 4130
2026-02-17 04:30 4.39 900 12500 (1982) 121 (2000) 1050 185 217 253 285 580 874 932 2080 4130
2026-02-17 04:00 4.40 904 12500 (1982) 121 (2000) 1050 185 217 253 285 580 874 932 2080 4130
2026-02-17 03:30 4.40 904 12500 (1982) 121 (2000) 1050 185 217 253 285 580 874 932 2080 4130
2026-02-17 03:00 4.44 920 12500 (1982) 121 (2000) 1050 185 217 253 285 580 874 932 2080 4130
2026-02-17 02:30 4.41 908 12500 (1982) 121 (2000) 1050 185 217 253 285 580 874 932 2080 4130
2026-02-17 01:30 4.49 941 12500 (1982) 121 (2000) 1050 185 217 253 285 580 874 932 2080 4130
2026-02-17 01:00 4.53 957 12500 (1982) 121 (2000) 1050 185 217 253 285 580 874 932 2080 4130
2026-02-17 00:30 4.54 961 12500 (1982) 121 (2000) 1050 185 217 253 285 580 874 932 2080 4130
2026-02-17 00:00 4.55 965 12500 (1982) 121 (2000) 1050 185 217 253 285 580 874 932 2080 4130
2026-02-16 23:30 4.56 970 12500 (1982) 121 (2000) 1050 185 217 253 285 580 874 932 2080 4130
2026-02-16 23:00 4.60 986 12500 (1982) 121 (2000) 1050 185 217 253 285 580 874 932 2080 4130
2026-02-16 22:30 4.61 990 9740 (1990) 108 (1954) 843 164 212 268 293 539 854 1020 1460 3480
2026-02-16 22:00 4.63 999 9740 (1990) 108 (1954) 843 164 212 268 293 539 854 1020 1460 3480
2026-02-16 21:30 4.64 1000 9740 (1990) 108 (1954) 843 164 212 268 293 539 854 1020 1460 3480
2026-02-16 21:00 4.65 1010 9740 (1990) 108 (1954) 843 164 212 268 293 539 854 1020 1460 3480
2026-02-16 20:30 4.68 1020 9740 (1990) 108 (1954) 843 164 212 268 293 539 854 1020 1460 3480
2026-02-16 20:00 4.66 1010 9740 (1990) 108 (1954) 843 164 212 268 293 539 854 1020 1460 3480
2026-02-16 19:30 4.67 1020 9740 (1990) 108 (1954) 843 164 212 268 293 539 854 1020 1460 3480
2026-02-16 19:00 4.72 1040 9740 (1990) 108 (1954) 843 164 212 268 293 539 854 1020 1460 3480
2026-02-16 18:30 4.72 1040 9740 (1990) 108 (1954) 843 164 212 268 293 539 854 1020 1460 3480
2026-02-16 18:00 4.73 1040 9740 (1990) 108 (1954) 843 164 212 268 293 539 854 1020 1460 3480
2026-02-16 17:30 4.73 1040 9740 (1990) 108 (1954) 843 164 212 268 293 539 854 1020 1460 3480
2026-02-16 17:00 4.76 1050 9740 (1990) 108 (1954) 843 164 212 268 293 539 854 1020 1460 3480
2026-02-16 16:30 4.75 1050 9740 (1990) 108 (1954) 843 164 212 268 293 539 854 1020 1460 3480
2026-02-16 16:00 4.76 1050 9740 (1990) 108 (1954) 843 164 212 268 293 539 854 1020 1460 3480
2026-02-16 15:30 4.73 1040 9740 (1990) 108 (1954) 843 164 212 268 293 539 854 1020 1460 3480
2026-02-16 15:00 4.74 1050 9740 (1990) 108 (1954) 843 164 212 268 293 539 854 1020 1460 3480
2026-02-16 14:30 4.77 1060 9740 (1990) 108 (1954) 843 164 212 268 293 539 854 1020 1460 3480
2026-02-16 14:00 4.76 1050 9740 (1990) 108 (1954) 843 164 212 268 293 539 854 1020 1460 3480
2026-02-16 13:30 4.70 1030 9740 (1990) 108 (1954) 843 164 212 268 293 539 854 1020 1460 3480
2026-02-16 13:00 4.71 1030 9740 (1990) 108 (1954) 843 164 212 268 293 539 854 1020 1460 3480
2026-02-16 12:30 4.73 1040 9740 (1990) 108 (1954) 843 164 212 268 293 539 854 1020 1460 3480
2026-02-16 12:00 4.73 1040 9740 (1990) 108 (1954) 843 164 212 268 293 539 854 1020 1460 3480
2026-02-16 11:30 4.72 1040 9740 (1990) 108 (1954) 843 164 212 268 293 539 854 1020 1460 3480
2026-02-16 10:30 4.68 1020 9740 (1990) 108 (1954) 843 164 212 268 293 539 854 1020 1460 3480
2026-02-16 10:00 4.68 1020 9740 (1990) 108 (1954) 843 164 212 268 293 539 854 1020 1460 3480
2026-02-16 09:30 4.69 1020 9740 (1990) 108 (1954) 843 164 212 268 293 539 854 1020 1460 3480
2026-02-16 09:00 4.69 1020 9740 (1990) 108 (1954) 843 164 212 268 293 539 854 1020 1460 3480
2026-02-16 08:30 4.70 1030 9740 (1990) 108 (1954) 843 164 212 268 293 539 854 1020 1460 3480
2026-02-16 08:00 4.71 1030 9740 (1990) 108 (1954) 843 164 212 268 293 539 854 1020 1460 3480
2026-02-16 07:30 4.70 1030 9740 (1990) 108 (1954) 843 164 212 268 293 539 854 1020 1460 3480
2026-02-16 07:00 4.70 1030 9740 (1990) 108 (1954) 843 164 212 268 293 539 854 1020 1460 3480
2026-02-16 06:30 4.73 1040 9740 (1990) 108 (1954) 843 164 212 268 293 539 854 1020 1460 3480
2026-02-16 06:00 4.76 1050 9740 (1990) 108 (1954) 843 164 212 268 293 539 854 1020 1460 3480
2026-02-16 05:30 4.77 1060 9740 (1990) 108 (1954) 843 164 212 268 293 539 854 1020 1460 3480
2026-02-16 05:00 4.76 1050 9740 (1990) 108 (1954) 843 164 212 268 293 539 854 1020 1460 3480
2026-02-16 04:30 4.79 1070 9740 (1990) 108 (1954) 843 164 212 268 293 539 854 1020 1460 3480
2026-02-16 04:00 4.80 1070 9740 (1990) 108 (1954) 843 164 212 268 293 539 854 1020 1460 3480
2026-02-16 03:30 4.80 1070 9740 (1990) 108 (1954) 843 164 212 268 293 539 854 1020 1460 3480
2026-02-16 03:00 4.85 1090 9740 (1990) 108 (1954) 843 164 212 268 293 539 854 1020 1460 3480
2026-02-16 02:30 4.86 1100 9740 (1990) 108 (1954) 843 164 212 268 293 539 854 1020 1460 3480
2026-02-16 02:00 4.85 1090 9740 (1990) 108 (1954) 843 164 212 268 293 539 854 1020 1460 3480
2026-02-16 01:30 4.88 1100 9740 (1990) 108 (1954) 843 164 212 268 293 539 854 1020 1460 3480
2026-02-16 01:00 4.85 1090 9740 (1990) 108 (1954) 843 164 212 268 293 539 854 1020 1460 3480
2026-02-16 00:30 4.90 1110 9740 (1990) 108 (1954) 843 164 212 268 293 539 854 1020 1460 3480
2026-02-16 00:00 4.89 1110 9740 (1990) 108 (1954) 843 164 212 268 293 539 854 1020 1460 3480
2026-02-15 23:30 4.91 1120 9740 (1990) 108 (1954) 843 164 212 268 293 539 854 1020 1460 3480
2026-02-15 23:00 4.93 1130 9740 (1990) 108 (1954) 843 164 212 268 293 539 854 1020 1460 3480
2026-02-15 22:30 4.93 1130 3440 (1989) 86 (1954) 668 149 195 255 294 477 795 956 1470 1770
2026-02-15 22:00 4.90 1110 3440 (1989) 86 (1954) 668 149 195 255 294 477 795 956 1470 1770
2026-02-15 21:30 4.92 1120 3440 (1989) 86 (1954) 668 149 195 255 294 477 795 956 1470 1770
2026-02-15 21:00 4.88 1100 3440 (1989) 86 (1954) 668 149 195 255 294 477 795 956 1470 1770
2026-02-15 20:30 4.83 1080 3440 (1989) 86 (1954) 668 149 195 255 294 477 795 956 1470 1770
2026-02-15 20:00 4.76 1050 3440 (1989) 86 (1954) 668 149 195 255 294 477 795 956 1470 1770
2026-02-15 19:30 4.73 1040 3440 (1989) 86 (1954) 668 149 195 255 294 477 795 956 1470 1770
2026-02-15 19:00 4.68 1020 3440 (1989) 86 (1954) 668 149 195 255 294 477 795 956 1470 1770
2026-02-15 18:30 4.60 986 3440 (1989) 86 (1954) 668 149 195 255 294 477 795 956 1470 1770
2026-02-15 18:00 4.50 945 3440 (1989) 86 (1954) 668 149 195 255 294 477 795 956 1470 1770
2026-02-15 17:30 4.43 916 3440 (1989) 86 (1954) 668 149 195 255 294 477 795 956 1470 1770
2026-02-15 17:00 4.35 884 3440 (1989) 86 (1954) 668 149 195 255 294 477 795 956 1470 1770
2026-02-15 16:30 4.27 852 3440 (1989) 86 (1954) 668 149 195 255 294 477 795 956 1470 1770
2026-02-15 16:00 4.23 836 3440 (1989) 86 (1954) 668 149 195 255 294 477 795 956 1470 1770
2026-02-15 15:30 4.17 813 3440 (1989) 86 (1954) 668 149 195 255 294 477 795 956 1470 1770
2026-02-15 15:00 4.15 805 3440 (1989) 86 (1954) 668 149 195 255 294 477 795 956 1470 1770
2026-02-15 14:30 4.13 797 3440 (1989) 86 (1954) 668 149 195 255 294 477 795 956 1470 1770
2026-02-15 14:00 4.11 789 3440 (1989) 86 (1954) 668 149 195 255 294 477 795 956 1470 1770
2026-02-15 13:30 4.07 774 3440 (1989) 86 (1954) 668 149 195 255 294 477 795 956 1470 1770
2026-02-15 13:00 4.05 766 3440 (1989) 86 (1954) 668 149 195 255 294 477 795 956 1470 1770
2026-02-15 12:30 4.01 751 3440 (1989) 86 (1954) 668 149 195 255 294 477 795 956 1470 1770
2026-02-15 12:00 3.97 736 3440 (1989) 86 (1954) 668 149 195 255 294 477 795 956 1470 1770
2026-02-15 11:30 3.93 721 3440 (1989) 86 (1954) 668 149 195 255 294 477 795 956 1470 1770
2026-02-15 11:00 3.87 698 3440 (1989) 86 (1954) 668 149 195 255 294 477 795 956 1470 1770
2026-02-15 10:30 3.83 683 3440 (1989) 86 (1954) 668 149 195 255 294 477 795 956 1470 1770
2026-02-15 10:00 3.76 657 3440 (1989) 86 (1954) 668 149 195 255 294 477 795 956 1470 1770
2026-02-15 09:30 3.71 639 3440 (1989) 86 (1954) 668 149 195 255 294 477 795 956 1470 1770
2026-02-15 09:00 3.65 618 3440 (1989) 86 (1954) 668 149 195 255 294 477 795 956 1470 1770
2026-02-15 08:30 3.58 593 3440 (1989) 86 (1954) 668 149 195 255 294 477 795 956 1470 1770
2026-02-15 08:00 3.52 572 3440 (1989) 86 (1954) 668 149 195 255 294 477 795 956 1470 1770
2026-02-15 07:30 3.47 554 3440 (1989) 86 (1954) 668 149 195 255 294 477 795 956 1470 1770
2026-02-15 07:00 3.40 530 3440 (1989) 86 (1954) 668 149 195 255 294 477 795 956 1470 1770
2026-02-15 06:30 3.32 503 3440 (1989) 86 (1954) 668 149 195 255 294 477 795 956 1470 1770
2026-02-15 06:00 3.24 477 3440 (1989) 86 (1954) 668 149 195 255 294 477 795 956 1470 1770
2026-02-15 05:30 3.19 460 3440 (1989) 86 (1954) 668 149 195 255 294 477 795 956 1470 1770
2026-02-15 05:00 3.10 431 3440 (1989) 86 (1954) 668 149 195 255 294 477 795 956 1470 1770
2026-02-15 04:30 3.00 400 3440 (1989) 86 (1954) 668 149 195 255 294 477 795 956 1470 1770
2026-02-15 04:00 2.92 377 3440 (1989) 86 (1954) 668 149 195 255 294 477 795 956 1470 1770
2026-02-15 03:30 2.83 353 3440 (1989) 86 (1954) 668 149 195 255 294 477 795 956 1470 1770
2026-02-15 03:00 2.73 326 3440 (1989) 86 (1954) 668 149 195 255 294 477 795 956 1470 1770
2026-02-15 02:30 2.66 307 3440 (1989) 86 (1954) 668 149 195 255 294 477 795 956 1470 1770
2026-02-15 02:00 2.60 291 3440 (1989) 86 (1954) 668 149 195 255 294 477 795 956 1470 1770
2026-02-15 01:30 2.54 276 3440 (1989) 86 (1954) 668 149 195 255 294 477 795 956 1470 1770
2026-02-15 01:00 2.52 271 3440 (1989) 86 (1954) 668 149 195 255 294 477 795 956 1470 1770
2026-02-15 00:30 2.48 261 3440 (1989) 86 (1954) 668 149 195 255 294 477 795 956 1470 1770
2026-02-15 00:00 2.43 248 3440 (1989) 86 (1954) 668 149 195 255 294 477 795 956 1470 1770
2026-02-14 23:30 2.42 246 3440 (1989) 86 (1954) 668 149 195 255 294 477 795 956 1470 1770
2026-02-14 23:00 2.39 238 3440 (1989) 86 (1954) 668 149 195 255 294 477 795 956 1470 1770
2026-02-14 22:30 2.36 231 7040 (1989) 84 (1954) 784 129 184 257 292 463 742 898 1920 2750
2026-02-14 22:00 2.34 226 7040 (1989) 84 (1954) 784 129 184 257 292 463 742 898 1920 2750
2026-02-14 21:30 2.31 219 7040 (1989) 84 (1954) 784 129 184 257 292 463 742 898 1920 2750
2026-02-14 21:00 2.31 219 7040 (1989) 84 (1954) 784 129 184 257 292 463 742 898 1920 2750
2026-02-14 20:30 2.27 209 7040 (1989) 84 (1954) 784 129 184 257 292 463 742 898 1920 2750
2026-02-14 20:00 2.25 204 7040 (1989) 84 (1954) 784 129 184 257 292 463 742 898 1920 2750
2026-02-14 19:30 2.24 202 7040 (1989) 84 (1954) 784 129 184 257 292 463 742 898 1920 2750
2026-02-14 19:00 2.21 195 7040 (1989) 84 (1954) 784 129 184 257 292 463 742 898 1920 2750
2026-02-14 18:30 2.19 190 7040 (1989) 84 (1954) 784 129 184 257 292 463 742 898 1920 2750
2026-02-14 18:00 2.17 185 7040 (1989) 84 (1954) 784 129 184 257 292 463 742 898 1920 2750
2026-02-14 17:30 2.17 185 7040 (1989) 84 (1954) 784 129 184 257 292 463 742 898 1920 2750
2026-02-14 17:00 2.14 178 7040 (1989) 84 (1954) 784 129 184 257 292 463 742 898 1920 2750
2026-02-14 16:30 2.11 172 7040 (1989) 84 (1954) 784 129 184 257 292 463 742 898 1920 2750
2026-02-14 16:00 2.12 174 7040 (1989) 84 (1954) 784 129 184 257 292 463 742 898 1920 2750
2026-02-14 15:30 2.10 169 7040 (1989) 84 (1954) 784 129 184 257 292 463 742 898 1920 2750
2026-02-14 15:00 2.11 172 7040 (1989) 84 (1954) 784 129 184 257 292 463 742 898 1920 2750
2026-02-14 14:30 2.08 165 7040 (1989) 84 (1954) 784 129 184 257 292 463 742 898 1920 2750
2026-02-14 14:00 2.05 158 7040 (1989) 84 (1954) 784 129 184 257 292 463 742 898 1920 2750
2026-02-14 13:30 2.05 158 7040 (1989) 84 (1954) 784 129 184 257 292 463 742 898 1920 2750
2026-02-14 13:00 2.03 153 7040 (1989) 84 (1954) 784 129 184 257 292 463 742 898 1920 2750
2026-02-14 12:30 2.03 153 7040 (1989) 84 (1954) 784 129 184 257 292 463 742 898 1920 2750
2026-02-14 12:00 2.04 156 7040 (1989) 84 (1954) 784 129 184 257 292 463 742 898 1920 2750
2026-02-14 11:30 2.02 151 7040 (1989) 84 (1954) 784 129 184 257 292 463 742 898 1920 2750
2026-02-14 11:00 2.03 153 7040 (1989) 84 (1954) 784 129 184 257 292 463 742 898 1920 2750
2026-02-14 10:30 2.02 151 7040 (1989) 84 (1954) 784 129 184 257 292 463 742 898 1920 2750
2026-02-14 10:00 2.02 151 7040 (1989) 84 (1954) 784 129 184 257 292 463 742 898 1920 2750
2026-02-14 09:30 2.02 151 7040 (1989) 84 (1954) 784 129 184 257 292 463 742 898 1920 2750
2026-02-14 09:00 2.02 151 7040 (1989) 84 (1954) 784 129 184 257 292 463 742 898 1920 2750
2026-02-14 08:30 2.01 148 7040 (1989) 84 (1954) 784 129 184 257 292 463 742 898 1920 2750
2026-02-14 08:00 2.02 151 7040 (1989) 84 (1954) 784 129 184 257 292 463 742 898 1920 2750
2026-02-14 07:30 2.02 151 7040 (1989) 84 (1954) 784 129 184 257 292 463 742 898 1920 2750
2026-02-14 07:00 2.01 148 7040 (1989) 84 (1954) 784 129 184 257 292 463 742 898 1920 2750
2026-02-14 06:30 2.02 151 7040 (1989) 84 (1954) 784 129 184 257 292 463 742 898 1920 2750
2026-02-14 06:00 2.02 151 7040 (1989) 84 (1954) 784 129 184 257 292 463 742 898 1920 2750
2026-02-14 05:30 2.01 148 7040 (1989) 84 (1954) 784 129 184 257 292 463 742 898 1920 2750
2026-02-14 05:00 2.01 148 7040 (1989) 84 (1954) 784 129 184 257 292 463 742 898 1920 2750
2026-02-14 04:30 2.02 151 7040 (1989) 84 (1954) 784 129 184 257 292 463 742 898 1920 2750
2026-02-14 04:00 2.02 151 7040 (1989) 84 (1954) 784 129 184 257 292 463 742 898 1920 2750
2026-02-14 03:30 2.01 148 7040 (1989) 84 (1954) 784 129 184 257 292 463 742 898 1920 2750
2026-02-14 03:00 2.03 153 7040 (1989) 84 (1954) 784 129 184 257 292 463 742 898 1920 2750
2026-02-14 02:30 2.02 151 7040 (1989) 84 (1954) 784 129 184 257 292 463 742 898 1920 2750
2026-02-14 02:00 2.01 148 7040 (1989) 84 (1954) 784 129 184 257 292 463 742 898 1920 2750
2026-02-14 01:30 2.03 153 7040 (1989) 84 (1954) 784 129 184 257 292 463 742 898 1920 2750
2026-02-14 01:00 2.02 151 7040 (1989) 84 (1954) 784 129 184 257 292 463 742 898 1920 2750
2026-02-14 00:30 2.02 151 7040 (1989) 84 (1954) 784 129 184 257 292 463 742 898 1920 2750
2026-02-14 00:00 2.03 153 7040 (1989) 84 (1954) 784 129 184 257 292 463 742 898 1920 2750
2026-02-13 23:30 2.02 151 7040 (1989) 84 (1954) 784 129 184 257 292 463 742 898 1920 2750
2026-02-13 23:00 2.02 151 7040 (1989) 84 (1954) 784 129 184 257 292 463 742 898 1920 2750
2026-02-13 22:30 2.02 151 7070 (1950) 84 (1954) 751 122 178 241 267 475 757 819 1510 2740
2026-02-13 22:00 2.03 153 7070 (1950) 84 (1954) 751 122 178 241 267 475 757 819 1510 2740
2026-02-13 21:30 2.03 153 7070 (1950) 84 (1954) 751 122 178 241 267 475 757 819 1510 2740
2026-02-13 21:00 2.04 156 7070 (1950) 84 (1954) 751 122 178 241 267 475 757 819 1510 2740
2026-02-13 20:30 2.02 151 7070 (1950) 84 (1954) 751 122 178 241 267 475 757 819 1510 2740
2026-02-13 20:00 2.02 151 7070 (1950) 84 (1954) 751 122 178 241 267 475 757 819 1510 2740
2026-02-13 19:30 2.02 151 7070 (1950) 84 (1954) 751 122 178 241 267 475 757 819 1510 2740
2026-02-13 19:00 2.02 151 7070 (1950) 84 (1954) 751 122 178 241 267 475 757 819 1510 2740
2026-02-13 18:30 2.03 153 7070 (1950) 84 (1954) 751 122 178 241 267 475 757 819 1510 2740
2026-02-13 18:00 2.03 153 7070 (1950) 84 (1954) 751 122 178 241 267 475 757 819 1510 2740
2026-02-13 17:30 2.04 156 7070 (1950) 84 (1954) 751 122 178 241 267 475 757 819 1510 2740
2026-02-13 17:00 2.02 151 7070 (1950) 84 (1954) 751 122 178 241 267 475 757 819 1510 2740
2026-02-13 16:30 2.03 153 7070 (1950) 84 (1954) 751 122 178 241 267 475 757 819 1510 2740
2026-02-13 16:00 2.03 153 7070 (1950) 84 (1954) 751 122 178 241 267 475 757 819 1510 2740
2026-02-13 15:30 2.04 156 7070 (1950) 84 (1954) 751 122 178 241 267 475 757 819 1510 2740
2026-02-13 15:00 2.03 153 7070 (1950) 84 (1954) 751 122 178 241 267 475 757 819 1510 2740
2026-02-13 14:30 2.03 153 7070 (1950) 84 (1954) 751 122 178 241 267 475 757 819 1510 2740
2026-02-13 14:00 2.04 156 7070 (1950) 84 (1954) 751 122 178 241 267 475 757 819 1510 2740
2026-02-13 13:30 2.04 156 7070 (1950) 84 (1954) 751 122 178 241 267 475 757 819 1510 2740
2026-02-13 13:00 2.04 156 7070 (1950) 84 (1954) 751 122 178 241 267 475 757 819 1510 2740
2026-02-13 12:30 2.02 151 7070 (1950) 84 (1954) 751 122 178 241 267 475 757 819 1510 2740
2026-02-13 12:00 2.04 156 7070 (1950) 84 (1954) 751 122 178 241 267 475 757 819 1510 2740
2026-02-13 11:30 2.05 158 7070 (1950) 84 (1954) 751 122 178 241 267 475 757 819 1510 2740
2026-02-13 11:00 2.05 158 7070 (1950) 84 (1954) 751 122 178 241 267 475 757 819 1510 2740
2026-02-13 10:30 2.04 156 7070 (1950) 84 (1954) 751 122 178 241 267 475 757 819 1510 2740
2026-02-13 10:00 2.05 158 7070 (1950) 84 (1954) 751 122 178 241 267 475 757 819 1510 2740
2026-02-13 09:30 2.04 156 7070 (1950) 84 (1954) 751 122 178 241 267 475 757 819 1510 2740
2026-02-13 09:00 2.05 158 7070 (1950) 84 (1954) 751 122 178 241 267 475 757 819 1510 2740
2026-02-13 08:30 2.04 156 7070 (1950) 84 (1954) 751 122 178 241 267 475 757 819 1510 2740
2026-02-13 08:00 2.04 156 7070 (1950) 84 (1954) 751 122 178 241 267 475 757 819 1510 2740
2026-02-13 07:30 2.04 156 7070 (1950) 84 (1954) 751 122 178 241 267 475 757 819 1510 2740
2026-02-13 07:00 2.03 153 7070 (1950) 84 (1954) 751 122 178 241 267 475 757 819 1510 2740
2026-02-13 06:30 2.03 153 7070 (1950) 84 (1954) 751 122 178 241 267 475 757 819 1510 2740
2026-02-13 06:00 2.04 156 7070 (1950) 84 (1954) 751 122 178 241 267 475 757 819 1510 2740
2026-02-13 05:30 2.04 156 7070 (1950) 84 (1954) 751 122 178 241 267 475 757 819 1510 2740
2026-02-13 05:00 2.04 156 7070 (1950) 84 (1954) 751 122 178 241 267 475 757 819 1510 2740
2026-02-13 04:30 2.04 156 7070 (1950) 84 (1954) 751 122 178 241 267 475 757 819 1510 2740
2026-02-13 04:00 2.05 158 7070 (1950) 84 (1954) 751 122 178 241 267 475 757 819 1510 2740
2026-02-13 03:30 2.05 158 7070 (1950) 84 (1954) 751 122 178 241 267 475 757 819 1510 2740
2026-02-13 03:00 2.04 156 7070 (1950) 84 (1954) 751 122 178 241 267 475 757 819 1510 2740
2026-02-13 02:30 2.04 156 7070 (1950) 84 (1954) 751 122 178 241 267 475 757 819 1510 2740
2026-02-13 02:00 2.05 158 7070 (1950) 84 (1954) 751 122 178 241 267 475 757 819 1510 2740
2026-02-13 01:30 2.05 158 7070 (1950) 84 (1954) 751 122 178 241 267 475 757 819 1510 2740
2026-02-13 01:00 2.04 156 7070 (1950) 84 (1954) 751 122 178 241 267 475 757 819 1510 2740
2026-02-13 00:30 2.06 160 7070 (1950) 84 (1954) 751 122 178 241 267 475 757 819 1510 2740
2026-02-13 00:00 2.04 156 7070 (1950) 84 (1954) 751 122 178 241 267 475 757 819 1510 2740
2026-02-12 23:30 2.04 156 7070 (1950) 84 (1954) 751 122 178 241 267 475 757 819 1510 2740
2026-02-12 23:00 2.03 153 7070 (1950) 84 (1954) 751 122 178 241 267 475 757 819 1510 2740
2026-02-12 22:30 2.05 158 6520 (2019) 84 (1954) 705 122 179 234 275 466 695 791 1150 1960
2026-02-12 22:00 2.04 156 6520 (2019) 84 (1954) 705 122 179 234 275 466 695 791 1150 1960
2026-02-12 21:30 2.05 158 6520 (2019) 84 (1954) 705 122 179 234 275 466 695 791 1150 1960
2026-02-12 21:00 2.05 158 6520 (2019) 84 (1954) 705 122 179 234 275 466 695 791 1150 1960
2026-02-12 20:30 2.05 158 6520 (2019) 84 (1954) 705 122 179 234 275 466 695 791 1150 1960
2026-02-12 20:00 2.06 160 6520 (2019) 84 (1954) 705 122 179 234 275 466 695 791 1150 1960
2026-02-12 19:30 2.04 156 6520 (2019) 84 (1954) 705 122 179 234 275 466 695 791 1150 1960
2026-02-12 19:00 2.06 160 6520 (2019) 84 (1954) 705 122 179 234 275 466 695 791 1150 1960
2026-02-12 18:30 2.04 156 6520 (2019) 84 (1954) 705 122 179 234 275 466 695 791 1150 1960
2026-02-12 18:00 2.05 158 6520 (2019) 84 (1954) 705 122 179 234 275 466 695 791 1150 1960
2026-02-12 17:30 2.06 160 6520 (2019) 84 (1954) 705 122 179 234 275 466 695 791 1150 1960
2026-02-12 17:00 2.05 158 6520 (2019) 84 (1954) 705 122 179 234 275 466 695 791 1150 1960
2026-02-12 16:30 2.05 158 6520 (2019) 84 (1954) 705 122 179 234 275 466 695 791 1150 1960
2026-02-12 16:00 2.06 160 6520 (2019) 84 (1954) 705 122 179 234 275 466 695 791 1150 1960
2026-02-12 15:30 2.05 158 6520 (2019) 84 (1954) 705 122 179 234 275 466 695 791 1150 1960
2026-02-12 15:00 2.06 160 6520 (2019) 84 (1954) 705 122 179 234 275 466 695 791 1150 1960
2026-02-12 14:30 2.05 158 6520 (2019) 84 (1954) 705 122 179 234 275 466 695 791 1150 1960
2026-02-12 14:00 2.07 162 6520 (2019) 84 (1954) 705 122 179 234 275 466 695 791 1150 1960
2026-02-12 13:30 2.04 156 6520 (2019) 84 (1954) 705 122 179 234 275 466 695 791 1150 1960
2026-02-12 13:00 2.05 158 6520 (2019) 84 (1954) 705 122 179 234 275 466 695 791 1150 1960
2026-02-12 12:30 2.06 160 6520 (2019) 84 (1954) 705 122 179 234 275 466 695 791 1150 1960
2026-02-12 12:00 2.05 158 6520 (2019) 84 (1954) 705 122 179 234 275 466 695 791 1150 1960
2026-02-12 11:30 2.04 156 6520 (2019) 84 (1954) 705 122 179 234 275 466 695 791 1150 1960
2026-02-12 11:00 2.05 158 6520 (2019) 84 (1954) 705 122 179 234 275 466 695 791 1150 1960
2026-02-12 10:30 2.05 158 6520 (2019) 84 (1954) 705 122 179 234 275 466 695 791 1150 1960
2026-02-12 10:00 2.05 158 6520 (2019) 84 (1954) 705 122 179 234 275 466 695 791 1150 1960
2026-02-12 09:30 2.06 160 6520 (2019) 84 (1954) 705 122 179 234 275 466 695 791 1150 1960
2026-02-12 09:00 2.05 158 6520 (2019) 84 (1954) 705 122 179 234 275 466 695 791 1150 1960
2026-02-12 08:30 2.05 118 6520 (2019) 84 (1954) 705 122 179 234 275 466 695 791 1150 1960
2026-02-12 08:00 2.07 123 6520 (2019) 84 (1954) 705 122 179 234 275 466 695 791 1150 1960
2026-02-12 07:30 2.06 121 6520 (2019) 84 (1954) 705 122 179 234 275 466 695 791 1150 1960
2026-02-12 07:00 2.06 121 6520 (2019) 84 (1954) 705 122 179 234 275 466 695 791 1150 1960
2026-02-12 06:30 2.05 118 6520 (2019) 84 (1954) 705 122 179 234 275 466 695 791 1150 1960
2026-02-12 06:00 2.05 118 6520 (2019) 84 (1954) 705 122 179 234 275 466 695 791 1150 1960
2026-02-12 05:30 2.05 118 6520 (2019) 84 (1954) 705 122 179 234 275 466 695 791 1150 1960
2026-02-12 05:00 2.06 121 6520 (2019) 84 (1954) 705 122 179 234 275 466 695 791 1150 1960
2026-02-12 04:30 2.05 118 6520 (2019) 84 (1954) 705 122 179 234 275 466 695 791 1150 1960
2026-02-12 04:00 2.06 121 6520 (2019) 84 (1954) 705 122 179 234 275 466 695 791 1150 1960
2026-02-12 03:30 2.06 121 6520 (2019) 84 (1954) 705 122 179 234 275 466 695 791 1150 1960
2026-02-12 03:00 2.06 121 6520 (2019) 84 (1954) 705 122 179 234 275 466 695 791 1150 1960
2026-02-12 02:30 2.05 118 6520 (2019) 84 (1954) 705 122 179 234 275 466 695 791 1150 1960
2026-02-12 01:30 2.06 121 6520 (2019) 84 (1954) 705 122 179 234 275 466 695 791 1150 1960
2026-02-12 01:00 2.06 121 6520 (2019) 84 (1954) 705 122 179 234 275 466 695 791 1150 1960
2026-02-12 00:30 2.05 118 6520 (2019) 84 (1954) 705 122 179 234 275 466 695 791 1150 1960
2026-02-12 00:00 2.06 121 6520 (2019) 84 (1954) 705 122 179 234 275 466 695 791 1150 1960
2026-02-11 23:30 2.07 123 6520 (2019) 84 (1954) 705 122 179 234 275 466 695 791 1150 1960
2026-02-11 23:00 2.06 121 6520 (2019) 84 (1954) 705 122 179 234 275 466 695 791 1150 1960
2026-02-11 22:30 2.06 121 13200 (1966) 86 (1954) 822 124 175 238 251 490 747 967 1430 2370
2026-02-11 22:00 2.05 118 13200 (1966) 86 (1954) 822 124 175 238 251 490 747 967 1430 2370
2026-02-11 21:30 2.07 123 13200 (1966) 86 (1954) 822 124 175 238 251 490 747 967 1430 2370
2026-02-11 21:00 2.06 121 13200 (1966) 86 (1954) 822 124 175 238 251 490 747 967 1430 2370
2026-02-11 20:30 2.05 118 13200 (1966) 86 (1954) 822 124 175 238 251 490 747 967 1430 2370
2026-02-11 20:00 2.07 123 13200 (1966) 86 (1954) 822 124 175 238 251 490 747 967 1430 2370
2026-02-11 19:30 2.06 121 13200 (1966) 86 (1954) 822 124 175 238 251 490 747 967 1430 2370
2026-02-11 19:00 2.05 118 13200 (1966) 86 (1954) 822 124 175 238 251 490 747 967 1430 2370
2026-02-11 18:30 2.06 121 13200 (1966) 86 (1954) 822 124 175 238 251 490 747 967 1430 2370
2026-02-11 18:00 2.06 121 13200 (1966) 86 (1954) 822 124 175 238 251 490 747 967 1430 2370
2026-02-11 17:30 2.06 121 13200 (1966) 86 (1954) 822 124 175 238 251 490 747 967 1430 2370
2026-02-11 17:00 2.06 121 13200 (1966) 86 (1954) 822 124 175 238 251 490 747 967 1430 2370
2026-02-11 16:30 2.07 123 13200 (1966) 86 (1954) 822 124 175 238 251 490 747 967 1430 2370
2026-02-11 16:00 2.06 121 13200 (1966) 86 (1954) 822 124 175 238 251 490 747 967 1430 2370
2026-02-11 15:30 2.07 123 13200 (1966) 86 (1954) 822 124 175 238 251 490 747 967 1430 2370
2026-02-11 15:00 2.06 121 13200 (1966) 86 (1954) 822 124 175 238 251 490 747 967 1430 2370
2026-02-11 14:30 2.05 118 13200 (1966) 86 (1954) 822 124 175 238 251 490 747 967 1430 2370
2026-02-11 14:00 2.06 121 13200 (1966) 86 (1954) 822 124 175 238 251 490 747 967 1430 2370
2026-02-11 13:30 2.07 123 13200 (1966) 86 (1954) 822 124 175 238 251 490 747 967 1430 2370
2026-02-11 13:00 2.05 118 13200 (1966) 86 (1954) 822 124 175 238 251 490 747 967 1430 2370
2026-02-11 12:30 2.06 121 13200 (1966) 86 (1954) 822 124 175 238 251 490 747 967 1430 2370
2026-02-11 12:00 2.06 121 13200 (1966) 86 (1954) 822 124 175 238 251 490 747 967 1430 2370
2026-02-11 11:30 2.06 121 13200 (1966) 86 (1954) 822 124 175 238 251 490 747 967 1430 2370
2026-02-11 11:00 2.08 125 13200 (1966) 86 (1954) 822 124 175 238 251 490 747 967 1430 2370
2026-02-11 10:30 2.07 123 13200 (1966) 86 (1954) 822 124 175 238 251 490 747 967 1430 2370
2026-02-11 10:00 2.06 121 13200 (1966) 86 (1954) 822 124 175 238 251 490 747 967 1430 2370
2026-02-11 09:30 2.07 123 13200 (1966) 86 (1954) 822 124 175 238 251 490 747 967 1430 2370
2026-02-11 09:00 2.08 125 13200 (1966) 86 (1954) 822 124 175 238 251 490 747 967 1430 2370
2026-02-11 08:30 2.06 121 13200 (1966) 86 (1954) 822 124 175 238 251 490 747 967 1430 2370
2026-02-11 08:00 2.06 121 13200 (1966) 86 (1954) 822 124 175 238 251 490 747 967 1430 2370
2026-02-11 07:30 2.06 121 13200 (1966) 86 (1954) 822 124 175 238 251 490 747 967 1430 2370
2026-02-11 07:00 2.06 121 13200 (1966) 86 (1954) 822 124 175 238 251 490 747 967 1430 2370
2026-02-11 06:30 2.06 121 13200 (1966) 86 (1954) 822 124 175 238 251 490 747 967 1430 2370
2026-02-11 06:00 2.06 121 13200 (1966) 86 (1954) 822 124 175 238 251 490 747 967 1430 2370
2026-02-11 05:30 2.07 123 13200 (1966) 86 (1954) 822 124 175 238 251 490 747 967 1430 2370
2026-02-11 05:00 2.06 121 13200 (1966) 86 (1954) 822 124 175 238 251 490 747 967 1430 2370
2026-02-11 04:30 2.05 118 13200 (1966) 86 (1954) 822 124 175 238 251 490 747 967 1430 2370
2026-02-11 04:00 2.05 118 13200 (1966) 86 (1954) 822 124 175 238 251 490 747 967 1430 2370
2026-02-11 03:30 2.07 123 13200 (1966) 86 (1954) 822 124 175 238 251 490 747 967 1430 2370
2026-02-11 03:00 2.07 123 13200 (1966) 86 (1954) 822 124 175 238 251 490 747 967 1430 2370
2026-02-11 02:30 2.06 121 13200 (1966) 86 (1954) 822 124 175 238 251 490 747 967 1430 2370
2026-02-11 02:00 2.05 118 13200 (1966) 86 (1954) 822 124 175 238 251 490 747 967 1430 2370
2026-02-11 01:30 2.07 123 13200 (1966) 86 (1954) 822 124 175 238 251 490 747 967 1430 2370
2026-02-11 01:00 2.07 123 13200 (1966) 86 (1954) 822 124 175 238 251 490 747 967 1430 2370
2026-02-11 00:30 2.05 118 13200 (1966) 86 (1954) 822 124 175 238 251 490 747 967 1430 2370
2026-02-11 00:00 2.07 123 13200 (1966) 86 (1954) 822 124 175 238 251 490 747 967 1430 2370
2026-02-10 23:30 2.06 121 13200 (1966) 86 (1954) 822 124 175 238 251 490 747 967 1430 2370
2026-02-10 23:00 2.05 118 13200 (1966) 86 (1954) 822 124 175 238 251 490 747 967 1430 2370
2026-02-10 22:30 2.07 123 18100 (1966) 91 (1954) 839 123 163 226 245 480 782 892 1540 1760
2026-02-10 22:00 2.05 118 18100 (1966) 91 (1954) 839 123 163 226 245 480 782 892 1540 1760
2026-02-10 21:30 2.06 121 18100 (1966) 91 (1954) 839 123 163 226 245 480 782 892 1540 1760
2026-02-10 21:00 2.06 121 18100 (1966) 91 (1954) 839 123 163 226 245 480 782 892 1540 1760
2026-02-10 20:30 2.07 123 18100 (1966) 91 (1954) 839 123 163 226 245 480 782 892 1540 1760
2026-02-10 20:00 2.06 121 18100 (1966) 91 (1954) 839 123 163 226 245 480 782 892 1540 1760
2026-02-10 19:30 2.06 121 18100 (1966) 91 (1954) 839 123 163 226 245 480 782 892 1540 1760
2026-02-10 19:00 2.05 118 18100 (1966) 91 (1954) 839 123 163 226 245 480 782 892 1540 1760
2026-02-10 18:30 2.06 121 18100 (1966) 91 (1954) 839 123 163 226 245 480 782 892 1540 1760
2026-02-10 18:00 2.06 121 18100 (1966) 91 (1954) 839 123 163 226 245 480 782 892 1540 1760
2026-02-10 17:30 2.05 118 18100 (1966) 91 (1954) 839 123 163 226 245 480 782 892 1540 1760
2026-02-10 17:00 2.05 118 18100 (1966) 91 (1954) 839 123 163 226 245 480 782 892 1540 1760
2026-02-10 16:30 2.07 123 18100 (1966) 91 (1954) 839 123 163 226 245 480 782 892 1540 1760
2026-02-10 16:00 2.07 123 18100 (1966) 91 (1954) 839 123 163 226 245 480 782 892 1540 1760
2026-02-10 15:30 2.06 121 18100 (1966) 91 (1954) 839 123 163 226 245 480 782 892 1540 1760
2026-02-10 15:00 2.07 123 18100 (1966) 91 (1954) 839 123 163 226 245 480 782 892 1540 1760
2026-02-10 14:30 2.08 125 18100 (1966) 91 (1954) 839 123 163 226 245 480 782 892 1540 1760
2026-02-10 14:00 2.05 118 18100 (1966) 91 (1954) 839 123 163 226 245 480 782 892 1540 1760
2026-02-10 13:30 2.06 121 18100 (1966) 91 (1954) 839 123 163 226 245 480 782 892 1540 1760
2026-02-10 13:00 2.07 123 18100 (1966) 91 (1954) 839 123 163 226 245 480 782 892 1540 1760
2026-02-10 12:30 2.05 118 18100 (1966) 91 (1954) 839 123 163 226 245 480 782 892 1540 1760
2026-02-10 12:00 2.06 121 18100 (1966) 91 (1954) 839 123 163 226 245 480 782 892 1540 1760
2026-02-10 11:30 2.07 123 18100 (1966) 91 (1954) 839 123 163 226 245 480 782 892 1540 1760
2026-02-10 11:00 2.05 118 18100 (1966) 91 (1954) 839 123 163 226 245 480 782 892 1540 1760
2026-02-10 10:30 2.06 121 18100 (1966) 91 (1954) 839 123 163 226 245 480 782 892 1540 1760
2026-02-10 10:00 2.07 123 18100 (1966) 91 (1954) 839 123 163 226 245 480 782 892 1540 1760
2026-02-10 09:30 2.06 121 18100 (1966) 91 (1954) 839 123 163 226 245 480 782 892 1540 1760
2026-02-10 09:00 2.05 118 18100 (1966) 91 (1954) 839 123 163 226 245 480 782 892 1540 1760
2026-02-10 08:30 2.06 121 18100 (1966) 91 (1954) 839 123 163 226 245 480 782 892 1540 1760
2026-02-10 08:00 2.06 121 18100 (1966) 91 (1954) 839 123 163 226 245 480 782 892 1540 1760
2026-02-10 07:30 2.06 121 18100 (1966) 91 (1954) 839 123 163 226 245 480 782 892 1540 1760
2026-02-10 07:00 2.05 118 18100 (1966) 91 (1954) 839 123 163 226 245 480 782 892 1540 1760
2026-02-10 06:30 2.05 118 18100 (1966) 91 (1954) 839 123 163 226 245 480 782 892 1540 1760
2026-02-10 06:00 2.05 118 18100 (1966) 91 (1954) 839 123 163 226 245 480 782 892 1540 1760
2026-02-10 05:30 2.06 121 18100 (1966) 91 (1954) 839 123 163 226 245 480 782 892 1540 1760
2026-02-10 05:00 2.06 121 18100 (1966) 91 (1954) 839 123 163 226 245 480 782 892 1540 1760
2026-02-10 04:30 2.06 121 18100 (1966) 91 (1954) 839 123 163 226 245 480 782 892 1540 1760
2026-02-10 04:00 2.06 121 18100 (1966) 91 (1954) 839 123 163 226 245 480 782 892 1540 1760
2026-02-10 03:30 2.05 118 18100 (1966) 91 (1954) 839 123 163 226 245 480 782 892 1540 1760
2026-02-10 03:00 2.04 116 18100 (1966) 91 (1954) 839 123 163 226 245 480 782 892 1540 1760
2026-02-10 02:30 2.06 121 18100 (1966) 91 (1954) 839 123 163 226 245 480 782 892 1540 1760
2026-02-10 02:00 2.06 121 18100 (1966) 91 (1954) 839 123 163 226 245 480 782 892 1540 1760
2026-02-10 01:30 2.05 118 18100 (1966) 91 (1954) 839 123 163 226 245 480 782 892 1540 1760
2026-02-10 01:00 2.05 118 18100 (1966) 91 (1954) 839 123 163 226 245 480 782 892 1540 1760
2026-02-10 00:30 2.05 118 18100 (1966) 91 (1954) 839 123 163 226 245 480 782 892 1540 1760
2026-02-10 00:00 2.05 118 18100 (1966) 91 (1954) 839 123 163 226 245 480 782 892 1540 1760
2026-02-09 23:30 2.06 121 18100 (1966) 91 (1954) 839 123 163 226 245 480 782 892 1540 1760
2026-02-09 23:00 2.05 118 18100 (1966) 91 (1954) 839 123 163 226 245 480 782 892 1540 1760
2026-02-09 22:30 2.05 118 3980 (1966) 94 (1954) 649 115 160 221 243 474 770 828 1240 2630
2026-02-09 22:00 2.04 116 3980 (1966) 94 (1954) 649 115 160 221 243 474 770 828 1240 2630
2026-02-09 21:30 2.06 121 3980 (1966) 94 (1954) 649 115 160 221 243 474 770 828 1240 2630
2026-02-09 21:00 2.05 118 3980 (1966) 94 (1954) 649 115 160 221 243 474 770 828 1240 2630
2026-02-09 20:30 2.04 116 3980 (1966) 94 (1954) 649 115 160 221 243 474 770 828 1240 2630
2026-02-09 20:00 2.05 118 3980 (1966) 94 (1954) 649 115 160 221 243 474 770 828 1240 2630
2026-02-09 19:30 2.05 118 3980 (1966) 94 (1954) 649 115 160 221 243 474 770 828 1240 2630
2026-02-09 19:00 2.05 118 3980 (1966) 94 (1954) 649 115 160 221 243 474 770 828 1240 2630
2026-02-09 18:30 2.05 118 3980 (1966) 94 (1954) 649 115 160 221 243 474 770 828 1240 2630
2026-02-09 18:00 2.04 116 3980 (1966) 94 (1954) 649 115 160 221 243 474 770 828 1240 2630
2026-02-09 17:30 2.05 118 3980 (1966) 94 (1954) 649 115 160 221 243 474 770 828 1240 2630
2026-02-09 17:00 2.06 121 3980 (1966) 94 (1954) 649 115 160 221 243 474 770 828 1240 2630
2026-02-09 16:30 2.05 118 3980 (1966) 94 (1954) 649 115 160 221 243 474 770 828 1240 2630
2026-02-09 16:00 2.04 116 3980 (1966) 94 (1954) 649 115 160 221 243 474 770 828 1240 2630
2026-02-09 15:30 2.05 118 3980 (1966) 94 (1954) 649 115 160 221 243 474 770 828 1240 2630
2026-02-09 15:00 2.05 118 3980 (1966) 94 (1954) 649 115 160 221 243 474 770 828 1240 2630
2026-02-09 14:30 2.05 118 3980 (1966) 94 (1954) 649 115 160 221 243 474 770 828 1240 2630
2026-02-09 14:00 2.05 118 3980 (1966) 94 (1954) 649 115 160 221 243 474 770 828 1240 2630
2026-02-09 13:30 2.05 118 3980 (1966) 94 (1954) 649 115 160 221 243 474 770 828 1240 2630
2026-02-09 13:00 2.06 121 3980 (1966) 94 (1954) 649 115 160 221 243 474 770 828 1240 2630
2026-02-09 12:30 2.05 118 3980 (1966) 94 (1954) 649 115 160 221 243 474 770 828 1240 2630
2026-02-09 12:00 2.06 121 3980 (1966) 94 (1954) 649 115 160 221 243 474 770 828 1240 2630
2026-02-09 11:30 2.04 116 3980 (1966) 94 (1954) 649 115 160 221 243 474 770 828 1240 2630
2026-02-09 11:00 2.06 121 3980 (1966) 94 (1954) 649 115 160 221 243 474 770 828 1240 2630
2026-02-09 10:30 2.05 118 3980 (1966) 94 (1954) 649 115 160 221 243 474 770 828 1240 2630
2026-02-09 10:00 2.05 118 3980 (1966) 94 (1954) 649 115 160 221 243 474 770 828 1240 2630
2026-02-09 09:30 2.05 118 3980 (1966) 94 (1954) 649 115 160 221 243 474 770 828 1240 2630
2026-02-09 09:00 2.06 121 3980 (1966) 94 (1954) 649 115 160 221 243 474 770 828 1240 2630
2026-02-09 08:30 2.05 118 3980 (1966) 94 (1954) 649 115 160 221 243 474 770 828 1240 2630
2026-02-09 08:00 2.05 118 3980 (1966) 94 (1954) 649 115 160 221 243 474 770 828 1240 2630
2026-02-09 07:30 2.04 116 3980 (1966) 94 (1954) 649 115 160 221 243 474 770 828 1240 2630
2026-02-09 07:00 2.04 116 3980 (1966) 94 (1954) 649 115 160 221 243 474 770 828 1240 2630
2026-02-09 06:30 2.04 116 3980 (1966) 94 (1954) 649 115 160 221 243 474 770 828 1240 2630
2026-02-09 06:00 2.04 116 3980 (1966) 94 (1954) 649 115 160 221 243 474 770 828 1240 2630
2026-02-09 05:30 2.05 118 3980 (1966) 94 (1954) 649 115 160 221 243 474 770 828 1240 2630
2026-02-09 05:00 2.05 118 3980 (1966) 94 (1954) 649 115 160 221 243 474 770 828 1240 2630
2026-02-09 04:30 2.04 116 3980 (1966) 94 (1954) 649 115 160 221 243 474 770 828 1240 2630
2026-02-09 04:00 2.04 116 3980 (1966) 94 (1954) 649 115 160 221 243 474 770 828 1240 2630
2026-02-09 03:30 2.04 116 3980 (1966) 94 (1954) 649 115 160 221 243 474 770 828 1240 2630
2026-02-09 03:00 2.04 116 3980 (1966) 94 (1954) 649 115 160 221 243 474 770 828 1240 2630
2026-02-09 02:30 2.05 118 3980 (1966) 94 (1954) 649 115 160 221 243 474 770 828 1240 2630
2026-02-09 02:00 2.04 116 3980 (1966) 94 (1954) 649 115 160 221 243 474 770 828 1240 2630
2026-02-09 01:30 2.05 118 3980 (1966) 94 (1954) 649 115 160 221 243 474 770 828 1240 2630
2026-02-09 01:00 2.05 118 3980 (1966) 94 (1954) 649 115 160 221 243 474 770 828 1240 2630
2026-02-09 00:30 2.04 116 3980 (1966) 94 (1954) 649 115 160 221 243 474 770 828 1240 2630
2026-02-09 00:00 2.04 116 3980 (1966) 94 (1954) 649 115 160 221 243 474 770 828 1240 2630
2026-02-08 23:30 2.06 121 3980 (1966) 94 (1954) 649 115 160 221 243 474 770 828 1240 2630
2026-02-08 23:00 2.05 118 3980 (1966) 94 (1954) 649 115 160 221 243 474 770 828 1240 2630
2026-02-08 22:30 2.05 118 13300 (1999) 91 (1954) 848 114 155 221 250 420 786 912 1480 2220
2026-02-08 22:00 2.04 116 13300 (1999) 91 (1954) 848 114 155 221 250 420 786 912 1480 2220
2026-02-08 21:30 2.03 114 13300 (1999) 91 (1954) 848 114 155 221 250 420 786 912 1480 2220
2026-02-08 21:00 2.05 118 13300 (1999) 91 (1954) 848 114 155 221 250 420 786 912 1480 2220
2026-02-08 20:30 2.05 118 13300 (1999) 91 (1954) 848 114 155 221 250 420 786 912 1480 2220
2026-02-08 20:00 2.03 114 13300 (1999) 91 (1954) 848 114 155 221 250 420 786 912 1480 2220
2026-02-08 19:30 2.04 116 13300 (1999) 91 (1954) 848 114 155 221 250 420 786 912 1480 2220
2026-02-08 19:00 2.05 118 13300 (1999) 91 (1954) 848 114 155 221 250 420 786 912 1480 2220
2026-02-08 18:30 2.04 116 13300 (1999) 91 (1954) 848 114 155 221 250 420 786 912 1480 2220
2026-02-08 18:00 2.10 130 13300 (1999) 91 (1954) 848 114 155 221 250 420 786 912 1480 2220
2026-02-08 17:30 2.10 130 13300 (1999) 91 (1954) 848 114 155 221 250 420 786 912 1480 2220
2026-02-08 17:00 2.11 132 13300 (1999) 91 (1954) 848 114 155 221 250 420 786 912 1480 2220
2026-02-08 16:30 2.09 127 13300 (1999) 91 (1954) 848 114 155 221 250 420 786 912 1480 2220
2026-02-08 16:00 2.10 130 13300 (1999) 91 (1954) 848 114 155 221 250 420 786 912 1480 2220
2026-02-08 15:30 2.09 127 13300 (1999) 91 (1954) 848 114 155 221 250 420 786 912 1480 2220
2026-02-08 15:00 2.09 127 13300 (1999) 91 (1954) 848 114 155 221 250 420 786 912 1480 2220
2026-02-08 14:30 2.09 127 13300 (1999) 91 (1954) 848 114 155 221 250 420 786 912 1480 2220
2026-02-08 14:00 2.10 130 13300 (1999) 91 (1954) 848 114 155 221 250 420 786 912 1480 2220
2026-02-08 13:30 2.09 127 13300 (1999) 91 (1954) 848 114 155 221 250 420 786 912 1480 2220
2026-02-08 13:00 2.09 127 13300 (1999) 91 (1954) 848 114 155 221 250 420 786 912 1480 2220
2026-02-08 12:30 2.10 130 13300 (1999) 91 (1954) 848 114 155 221 250 420 786 912 1480 2220
2026-02-08 12:00 2.09 127 13300 (1999) 91 (1954) 848 114 155 221 250 420 786 912 1480 2220
2026-02-08 11:30 2.09 127 13300 (1999) 91 (1954) 848 114 155 221 250 420 786 912 1480 2220
2026-02-08 11:00 2.09 127 13300 (1999) 91 (1954) 848 114 155 221 250 420 786 912 1480 2220
2026-02-08 10:30 2.10 130 13300 (1999) 91 (1954) 848 114 155 221 250 420 786 912 1480 2220
2026-02-08 10:00 2.11 132 13300 (1999) 91 (1954) 848 114 155 221 250 420 786 912 1480 2220
2026-02-08 09:30 2.09 127 13300 (1999) 91 (1954) 848 114 155 221 250 420 786 912 1480 2220
2026-02-08 09:00 2.09 127 13300 (1999) 91 (1954) 848 114 155 221 250 420 786 912 1480 2220
2026-02-08 08:30 2.10 130 13300 (1999) 91 (1954) 848 114 155 221 250 420 786 912 1480 2220
2026-02-08 08:00 2.09 127 13300 (1999) 91 (1954) 848 114 155 221 250 420 786 912 1480 2220
2026-02-08 07:30 2.09 127 13300 (1999) 91 (1954) 848 114 155 221 250 420 786 912 1480 2220
2026-02-08 07:00 2.08 125 13300 (1999) 91 (1954) 848 114 155 221 250 420 786 912 1480 2220
2026-02-08 06:30 2.08 125 13300 (1999) 91 (1954) 848 114 155 221 250 420 786 912 1480 2220
2026-02-08 06:00 2.09 127 13300 (1999) 91 (1954) 848 114 155 221 250 420 786 912 1480 2220
2026-02-08 05:30 2.09 127 13300 (1999) 91 (1954) 848 114 155 221 250 420 786 912 1480 2220
2026-02-08 05:00 2.08 125 13300 (1999) 91 (1954) 848 114 155 221 250 420 786 912 1480 2220
2026-02-08 04:30 2.08 125 13300 (1999) 91 (1954) 848 114 155 221 250 420 786 912 1480 2220
2026-02-08 04:00 2.08 125 13300 (1999) 91 (1954) 848 114 155 221 250 420 786 912 1480 2220
2026-02-08 03:30 2.09 127 13300 (1999) 91 (1954) 848 114 155 221 250 420 786 912 1480 2220
2026-02-08 03:00 2.09 127 13300 (1999) 91 (1954) 848 114 155 221 250 420 786 912 1480 2220
2026-02-08 02:30 2.09 127 13300 (1999) 91 (1954) 848 114 155 221 250 420 786 912 1480 2220
2026-02-08 02:00 2.09 127 13300 (1999) 91 (1954) 848 114 155 221 250 420 786 912 1480 2220
2026-02-08 01:30 2.10 130 13300 (1999) 91 (1954) 848 114 155 221 250 420 786 912 1480 2220
2026-02-08 01:00 2.10 130 13300 (1999) 91 (1954) 848 114 155 221 250 420 786 912 1480 2220
2026-02-08 00:30 2.09 127 13300 (1999) 91 (1954) 848 114 155 221 250 420 786 912 1480 2220
2026-02-08 00:00 2.09 127 13300 (1999) 91 (1954) 848 114 155 221 250 420 786 912 1480 2220
2026-02-07 23:30 2.10 130 13300 (1999) 91 (1954) 848 114 155 221 250 420 786 912 1480 2220
2026-02-07 23:00 2.09 127 13300 (1999) 91 (1954) 848 114 155 221 250 420 786 912 1480 2220

A total of 4261 rows are displayed for years 1950 through 2025.